<?xml version="1.0" encoding="UTF-8" standalone="no" ?>
<gpx xmlns="http://www.topografix.com/GPX/1/1" xmlns:xsi="http://www.w3.org/2001/XMLSchema-instance" xsi:schemaLocation="http://www.topografix.com/GPX/1/1 http://www.topografix.com/GPX/1/1/gpx.xsd" version="1.1" creator="VisuGPX - https://www.visugpx.com">
  <metadata>
    <name>Baleines - Portes</name>
    <desc><![CDATA[Ile de Ré...]]></desc>
  </metadata>
  <trk>
    <name><![CDATA[31-AOU-16 18:28:21]]></name>
    <trkseg>
      <trkpt lat="46.18762" lon="-1.40808">
        <ele>3.5</ele>
        <time>2016-08-31T08:21:35Z</time>
      </trkpt>
      <trkpt lat="46.18762" lon="-1.40807">
        <ele>2.54</ele>
        <time>2016-08-31T08:21:38Z</time>
      </trkpt>
      <trkpt lat="46.18762" lon="-1.40807">
        <ele>3.02</ele>
        <time>2016-08-31T08:21:41Z</time>
      </trkpt>
      <trkpt lat="46.18761" lon="-1.40807">
        <ele>-0.34</ele>
        <time>2016-08-31T08:21:46Z</time>
      </trkpt>
      <trkpt lat="46.18761" lon="-1.40807">
        <ele>-8.03</ele>
        <time>2016-08-31T08:21:49Z</time>
      </trkpt>
      <trkpt lat="46.18761" lon="-1.40807">
        <ele>2.54</ele>
        <time>2016-08-31T08:21:50Z</time>
      </trkpt>
      <trkpt lat="46.18761" lon="-1.40808">
        <ele>2.54</ele>
        <time>2016-08-31T08:22:00Z</time>
      </trkpt>
      <trkpt lat="46.18761" lon="-1.40808">
        <ele>2.06</ele>
        <time>2016-08-31T08:22:03Z</time>
      </trkpt>
      <trkpt lat="46.1876" lon="-1.40819">
        <ele>1.58</ele>
        <time>2016-08-31T08:22:13Z</time>
      </trkpt>
      <trkpt lat="46.18758" lon="-1.4082">
        <ele>1.58</ele>
        <time>2016-08-31T08:22:31Z</time>
      </trkpt>
      <trkpt lat="46.18758" lon="-1.40821">
        <ele>2.06</ele>
        <time>2016-08-31T08:22:35Z</time>
      </trkpt>
      <trkpt lat="46.18752" lon="-1.40835">
        <ele>1.58</ele>
        <time>2016-08-31T08:22:43Z</time>
      </trkpt>
      <trkpt lat="46.18747" lon="-1.40837">
        <ele>1.58</ele>
        <time>2016-08-31T08:22:45Z</time>
      </trkpt>
      <trkpt lat="46.18713" lon="-1.40834">
        <ele>1.58</ele>
        <time>2016-08-31T08:22:56Z</time>
      </trkpt>
      <trkpt lat="46.18693" lon="-1.40827">
        <ele>1.58</ele>
        <time>2016-08-31T08:23:04Z</time>
      </trkpt>
      <trkpt lat="46.18667" lon="-1.40819">
        <ele>1.58</ele>
        <time>2016-08-31T08:23:13Z</time>
      </trkpt>
      <trkpt lat="46.18647" lon="-1.40814">
        <ele>2.06</ele>
        <time>2016-08-31T08:23:20Z</time>
      </trkpt>
      <trkpt lat="46.1864" lon="-1.40814">
        <ele>2.06</ele>
        <time>2016-08-31T08:23:30Z</time>
      </trkpt>
      <trkpt lat="46.1864" lon="-1.40815">
        <ele>1.58</ele>
        <time>2016-08-31T08:23:37Z</time>
      </trkpt>
      <trkpt lat="46.18635" lon="-1.40832">
        <ele>1.58</ele>
        <time>2016-08-31T08:23:45Z</time>
      </trkpt>
      <trkpt lat="46.1863" lon="-1.40857">
        <ele>1.1</ele>
        <time>2016-08-31T08:23:52Z</time>
      </trkpt>
      <trkpt lat="46.18626" lon="-1.40902">
        <ele>0.62</ele>
        <time>2016-08-31T08:24:01Z</time>
      </trkpt>
      <trkpt lat="46.18616" lon="-1.40951">
        <ele>1.1</ele>
        <time>2016-08-31T08:24:11Z</time>
      </trkpt>
      <trkpt lat="46.18618" lon="-1.40958">
        <ele>0.62</ele>
        <time>2016-08-31T08:24:13Z</time>
      </trkpt>
      <trkpt lat="46.18618" lon="-1.40963">
        <ele>0.62</ele>
        <time>2016-08-31T08:24:14Z</time>
      </trkpt>
      <trkpt lat="46.18612" lon="-1.41021">
        <ele>1.1</ele>
        <time>2016-08-31T08:24:26Z</time>
      </trkpt>
      <trkpt lat="46.18616" lon="-1.41064">
        <ele>1.1</ele>
        <time>2016-08-31T08:24:35Z</time>
      </trkpt>
      <trkpt lat="46.18621" lon="-1.41115">
        <ele>1.1</ele>
        <time>2016-08-31T08:24:45Z</time>
      </trkpt>
      <trkpt lat="46.18629" lon="-1.41175">
        <ele>1.58</ele>
        <time>2016-08-31T08:24:57Z</time>
      </trkpt>
      <trkpt lat="46.18632" lon="-1.41185">
        <ele>1.58</ele>
        <time>2016-08-31T08:25:00Z</time>
      </trkpt>
      <trkpt lat="46.18638" lon="-1.41236">
        <ele>1.1</ele>
        <time>2016-08-31T08:25:10Z</time>
      </trkpt>
      <trkpt lat="46.18643" lon="-1.41298">
        <ele>1.58</ele>
        <time>2016-08-31T08:25:21Z</time>
      </trkpt>
      <trkpt lat="46.18644" lon="-1.41344">
        <ele>1.58</ele>
        <time>2016-08-31T08:25:30Z</time>
      </trkpt>
      <trkpt lat="46.18647" lon="-1.41358">
        <ele>2.06</ele>
        <time>2016-08-31T08:25:33Z</time>
      </trkpt>
      <trkpt lat="46.1865" lon="-1.4136">
        <ele>2.06</ele>
        <time>2016-08-31T08:25:34Z</time>
      </trkpt>
      <trkpt lat="46.18677" lon="-1.41385">
        <ele>2.06</ele>
        <time>2016-08-31T08:25:43Z</time>
      </trkpt>
      <trkpt lat="46.18695" lon="-1.41413">
        <ele>2.06</ele>
        <time>2016-08-31T08:25:51Z</time>
      </trkpt>
      <trkpt lat="46.18706" lon="-1.4146">
        <ele>2.06</ele>
        <time>2016-08-31T08:26:01Z</time>
      </trkpt>
      <trkpt lat="46.18712" lon="-1.41504">
        <ele>2.06</ele>
        <time>2016-08-31T08:26:10Z</time>
      </trkpt>
      <trkpt lat="46.18714" lon="-1.41508">
        <ele>2.06</ele>
        <time>2016-08-31T08:26:11Z</time>
      </trkpt>
      <trkpt lat="46.18715" lon="-1.41512">
        <ele>2.06</ele>
        <time>2016-08-31T08:26:12Z</time>
      </trkpt>
      <trkpt lat="46.18716" lon="-1.41516">
        <ele>2.06</ele>
        <time>2016-08-31T08:26:13Z</time>
      </trkpt>
      <trkpt lat="46.18717" lon="-1.4152">
        <ele>2.06</ele>
        <time>2016-08-31T08:26:14Z</time>
      </trkpt>
      <trkpt lat="46.18719" lon="-1.41523">
        <ele>2.06</ele>
        <time>2016-08-31T08:26:15Z</time>
      </trkpt>
      <trkpt lat="46.1872" lon="-1.41524">
        <ele>2.54</ele>
        <time>2016-08-31T08:26:16Z</time>
      </trkpt>
      <trkpt lat="46.18724" lon="-1.41524">
        <ele>2.54</ele>
        <time>2016-08-31T08:26:22Z</time>
      </trkpt>
      <trkpt lat="46.18738" lon="-1.41506">
        <ele>1.58</ele>
        <time>2016-08-31T08:26:30Z</time>
      </trkpt>
      <trkpt lat="46.18756" lon="-1.41489">
        <ele>1.1</ele>
        <time>2016-08-31T08:26:38Z</time>
      </trkpt>
      <trkpt lat="46.18757" lon="-1.41489">
        <ele>1.1</ele>
        <time>2016-08-31T08:26:39Z</time>
      </trkpt>
      <trkpt lat="46.18759" lon="-1.41491">
        <ele>0.62</ele>
        <time>2016-08-31T08:26:40Z</time>
      </trkpt>
      <trkpt lat="46.18759" lon="-1.41493">
        <ele>1.1</ele>
        <time>2016-08-31T08:26:41Z</time>
      </trkpt>
      <trkpt lat="46.1876" lon="-1.41496">
        <ele>1.1</ele>
        <time>2016-08-31T08:26:42Z</time>
      </trkpt>
      <trkpt lat="46.18761" lon="-1.41499">
        <ele>1.1</ele>
        <time>2016-08-31T08:26:43Z</time>
      </trkpt>
      <trkpt lat="46.18763" lon="-1.41502">
        <ele>1.1</ele>
        <time>2016-08-31T08:26:44Z</time>
      </trkpt>
      <trkpt lat="46.18764" lon="-1.41506">
        <ele>0.62</ele>
        <time>2016-08-31T08:26:45Z</time>
      </trkpt>
      <trkpt lat="46.18765" lon="-1.41509">
        <ele>1.1</ele>
        <time>2016-08-31T08:26:46Z</time>
      </trkpt>
      <trkpt lat="46.18765" lon="-1.41512">
        <ele>1.1</ele>
        <time>2016-08-31T08:26:47Z</time>
      </trkpt>
      <trkpt lat="46.18771" lon="-1.41541">
        <ele>0.62</ele>
        <time>2016-08-31T08:26:55Z</time>
      </trkpt>
      <trkpt lat="46.18777" lon="-1.41583">
        <ele>0.14</ele>
        <time>2016-08-31T08:27:03Z</time>
      </trkpt>
      <trkpt lat="46.18787" lon="-1.4163">
        <ele>0.62</ele>
        <time>2016-08-31T08:27:11Z</time>
      </trkpt>
      <trkpt lat="46.18794" lon="-1.41687">
        <ele>0.14</ele>
        <time>2016-08-31T08:27:21Z</time>
      </trkpt>
      <trkpt lat="46.18795" lon="-1.41703">
        <ele>0.62</ele>
        <time>2016-08-31T08:27:24Z</time>
      </trkpt>
      <trkpt lat="46.18801" lon="-1.41727">
        <ele>0.14</ele>
        <time>2016-08-31T08:27:29Z</time>
      </trkpt>
      <trkpt lat="46.18799" lon="-1.41731">
        <ele>0.14</ele>
        <time>2016-08-31T08:27:30Z</time>
      </trkpt>
      <trkpt lat="46.18797" lon="-1.41735">
        <ele>0.14</ele>
        <time>2016-08-31T08:27:31Z</time>
      </trkpt>
      <trkpt lat="46.18795" lon="-1.41739">
        <ele>0.62</ele>
        <time>2016-08-31T08:27:32Z</time>
      </trkpt>
      <trkpt lat="46.18792" lon="-1.41743">
        <ele>0.14</ele>
        <time>2016-08-31T08:27:33Z</time>
      </trkpt>
      <trkpt lat="46.1878" lon="-1.41759">
        <ele>1.1</ele>
        <time>2016-08-31T08:27:38Z</time>
      </trkpt>
      <trkpt lat="46.18779" lon="-1.41763">
        <ele>1.1</ele>
        <time>2016-08-31T08:27:39Z</time>
      </trkpt>
      <trkpt lat="46.1878" lon="-1.41767">
        <ele>1.1</ele>
        <time>2016-08-31T08:27:40Z</time>
      </trkpt>
      <trkpt lat="46.18781" lon="-1.4177">
        <ele>1.1</ele>
        <time>2016-08-31T08:27:41Z</time>
      </trkpt>
      <trkpt lat="46.18784" lon="-1.41774">
        <ele>0.14</ele>
        <time>2016-08-31T08:27:42Z</time>
      </trkpt>
      <trkpt lat="46.18815" lon="-1.41834">
        <ele>-0.34</ele>
        <time>2016-08-31T08:27:55Z</time>
      </trkpt>
      <trkpt lat="46.1883" lon="-1.41867">
        <ele>0.62</ele>
        <time>2016-08-31T08:28:03Z</time>
      </trkpt>
      <trkpt lat="46.18829" lon="-1.41871">
        <ele>0.14</ele>
        <time>2016-08-31T08:28:04Z</time>
      </trkpt>
      <trkpt lat="46.18827" lon="-1.41875">
        <ele>0.14</ele>
        <time>2016-08-31T08:28:05Z</time>
      </trkpt>
      <trkpt lat="46.18823" lon="-1.41878">
        <ele>0.62</ele>
        <time>2016-08-31T08:28:06Z</time>
      </trkpt>
      <trkpt lat="46.1882" lon="-1.41881">
        <ele>0.62</ele>
        <time>2016-08-31T08:28:07Z</time>
      </trkpt>
      <trkpt lat="46.18817" lon="-1.41884">
        <ele>0.14</ele>
        <time>2016-08-31T08:28:08Z</time>
      </trkpt>
      <trkpt lat="46.18815" lon="-1.41887">
        <ele>0.14</ele>
        <time>2016-08-31T08:28:09Z</time>
      </trkpt>
      <trkpt lat="46.18813" lon="-1.41891">
        <ele>0.62</ele>
        <time>2016-08-31T08:28:10Z</time>
      </trkpt>
      <trkpt lat="46.18811" lon="-1.41895">
        <ele>0.62</ele>
        <time>2016-08-31T08:28:11Z</time>
      </trkpt>
      <trkpt lat="46.1881" lon="-1.419">
        <ele>0.14</ele>
        <time>2016-08-31T08:28:12Z</time>
      </trkpt>
      <trkpt lat="46.18809" lon="-1.41903">
        <ele>0.62</ele>
        <time>2016-08-31T08:28:13Z</time>
      </trkpt>
      <trkpt lat="46.1881" lon="-1.41906">
        <ele>1.1</ele>
        <time>2016-08-31T08:28:14Z</time>
      </trkpt>
      <trkpt lat="46.18811" lon="-1.4191">
        <ele>0.14</ele>
        <time>2016-08-31T08:28:16Z</time>
      </trkpt>
      <trkpt lat="46.18813" lon="-1.41912">
        <ele>0.62</ele>
        <time>2016-08-31T08:28:17Z</time>
      </trkpt>
      <trkpt lat="46.18814" lon="-1.41914">
        <ele>0.62</ele>
        <time>2016-08-31T08:28:18Z</time>
      </trkpt>
      <trkpt lat="46.18815" lon="-1.41917">
        <ele>0.14</ele>
        <time>2016-08-31T08:28:19Z</time>
      </trkpt>
      <trkpt lat="46.18816" lon="-1.4192">
        <ele>1.1</ele>
        <time>2016-08-31T08:28:20Z</time>
      </trkpt>
      <trkpt lat="46.18815" lon="-1.41923">
        <ele>0.62</ele>
        <time>2016-08-31T08:28:21Z</time>
      </trkpt>
      <trkpt lat="46.18814" lon="-1.41925">
        <ele>0.62</ele>
        <time>2016-08-31T08:28:22Z</time>
      </trkpt>
      <trkpt lat="46.18813" lon="-1.4193">
        <ele>1.1</ele>
        <time>2016-08-31T08:28:31Z</time>
      </trkpt>
      <trkpt lat="46.18813" lon="-1.4193">
        <ele>0.62</ele>
        <time>2016-08-31T08:28:52Z</time>
      </trkpt>
      <trkpt lat="46.18813" lon="-1.41931">
        <ele>0.62</ele>
        <time>2016-08-31T08:28:57Z</time>
      </trkpt>
      <trkpt lat="46.18813" lon="-1.41933">
        <ele>0.62</ele>
        <time>2016-08-31T08:28:58Z</time>
      </trkpt>
      <trkpt lat="46.18813" lon="-1.41935">
        <ele>1.1</ele>
        <time>2016-08-31T08:28:59Z</time>
      </trkpt>
      <trkpt lat="46.18814" lon="-1.41938">
        <ele>1.58</ele>
        <time>2016-08-31T08:29:00Z</time>
      </trkpt>
      <trkpt lat="46.18814" lon="-1.41941">
        <ele>1.1</ele>
        <time>2016-08-31T08:29:01Z</time>
      </trkpt>
      <trkpt lat="46.18816" lon="-1.41943">
        <ele>1.1</ele>
        <time>2016-08-31T08:29:02Z</time>
      </trkpt>
      <trkpt lat="46.18817" lon="-1.41945">
        <ele>1.1</ele>
        <time>2016-08-31T08:29:03Z</time>
      </trkpt>
      <trkpt lat="46.18819" lon="-1.41948">
        <ele>1.1</ele>
        <time>2016-08-31T08:29:04Z</time>
      </trkpt>
      <trkpt lat="46.18821" lon="-1.41952">
        <ele>1.1</ele>
        <time>2016-08-31T08:29:05Z</time>
      </trkpt>
      <trkpt lat="46.18822" lon="-1.41957">
        <ele>0.62</ele>
        <time>2016-08-31T08:29:06Z</time>
      </trkpt>
      <trkpt lat="46.18823" lon="-1.41961">
        <ele>0.62</ele>
        <time>2016-08-31T08:29:07Z</time>
      </trkpt>
      <trkpt lat="46.18824" lon="-1.41966">
        <ele>0.62</ele>
        <time>2016-08-31T08:29:08Z</time>
      </trkpt>
      <trkpt lat="46.18825" lon="-1.41971">
        <ele>0.62</ele>
        <time>2016-08-31T08:29:09Z</time>
      </trkpt>
      <trkpt lat="46.18826" lon="-1.41976">
        <ele>0.14</ele>
        <time>2016-08-31T08:29:10Z</time>
      </trkpt>
      <trkpt lat="46.18833" lon="-1.42021">
        <ele>0.62</ele>
        <time>2016-08-31T08:29:21Z</time>
      </trkpt>
      <trkpt lat="46.18834" lon="-1.42046">
        <ele>1.1</ele>
        <time>2016-08-31T08:29:28Z</time>
      </trkpt>
      <trkpt lat="46.18833" lon="-1.42049">
        <ele>1.1</ele>
        <time>2016-08-31T08:29:29Z</time>
      </trkpt>
      <trkpt lat="46.18832" lon="-1.42052">
        <ele>0.62</ele>
        <time>2016-08-31T08:29:30Z</time>
      </trkpt>
      <trkpt lat="46.18832" lon="-1.42056">
        <ele>1.1</ele>
        <time>2016-08-31T08:29:31Z</time>
      </trkpt>
      <trkpt lat="46.18833" lon="-1.4206">
        <ele>1.1</ele>
        <time>2016-08-31T08:29:32Z</time>
      </trkpt>
      <trkpt lat="46.18834" lon="-1.42063">
        <ele>0.62</ele>
        <time>2016-08-31T08:29:33Z</time>
      </trkpt>
      <trkpt lat="46.18837" lon="-1.42065">
        <ele>0.62</ele>
        <time>2016-08-31T08:29:34Z</time>
      </trkpt>
      <trkpt lat="46.18848" lon="-1.42092">
        <ele>0.62</ele>
        <time>2016-08-31T08:29:42Z</time>
      </trkpt>
      <trkpt lat="46.18864" lon="-1.4212">
        <ele>1.1</ele>
        <time>2016-08-31T08:29:51Z</time>
      </trkpt>
      <trkpt lat="46.18871" lon="-1.42154">
        <ele>0.62</ele>
        <time>2016-08-31T08:29:59Z</time>
      </trkpt>
      <trkpt lat="46.18874" lon="-1.42178">
        <ele>1.1</ele>
        <time>2016-08-31T08:30:05Z</time>
      </trkpt>
      <trkpt lat="46.18889" lon="-1.422">
        <ele>0.62</ele>
        <time>2016-08-31T08:30:14Z</time>
      </trkpt>
      <trkpt lat="46.18898" lon="-1.4221">
        <ele>1.58</ele>
        <time>2016-08-31T08:30:21Z</time>
      </trkpt>
      <trkpt lat="46.18898" lon="-1.4221">
        <ele>1.1</ele>
        <time>2016-08-31T08:30:24Z</time>
      </trkpt>
      <trkpt lat="46.18904" lon="-1.42213">
        <ele>0.62</ele>
        <time>2016-08-31T08:30:31Z</time>
      </trkpt>
      <trkpt lat="46.1892" lon="-1.42231">
        <ele>0.62</ele>
        <time>2016-08-31T08:30:45Z</time>
      </trkpt>
      <trkpt lat="46.18922" lon="-1.42239">
        <ele>1.1</ele>
        <time>2016-08-31T08:30:49Z</time>
      </trkpt>
      <trkpt lat="46.18931" lon="-1.42244">
        <ele>1.1</ele>
        <time>2016-08-31T08:30:56Z</time>
      </trkpt>
      <trkpt lat="46.18938" lon="-1.42248">
        <ele>1.1</ele>
        <time>2016-08-31T08:31:04Z</time>
      </trkpt>
      <trkpt lat="46.18945" lon="-1.4224">
        <ele>1.58</ele>
        <time>2016-08-31T08:31:11Z</time>
      </trkpt>
      <trkpt lat="46.18953" lon="-1.42232">
        <ele>1.1</ele>
        <time>2016-08-31T08:31:22Z</time>
      </trkpt>
      <trkpt lat="46.18953" lon="-1.42232">
        <ele>0.62</ele>
        <time>2016-08-31T08:31:24Z</time>
      </trkpt>
      <trkpt lat="46.18967" lon="-1.42243">
        <ele>0.62</ele>
        <time>2016-08-31T08:31:33Z</time>
      </trkpt>
      <trkpt lat="46.19002" lon="-1.42265">
        <ele>0.62</ele>
        <time>2016-08-31T08:31:46Z</time>
      </trkpt>
      <trkpt lat="46.19046" lon="-1.42289">
        <ele>0.62</ele>
        <time>2016-08-31T08:31:59Z</time>
      </trkpt>
      <trkpt lat="46.19082" lon="-1.42314">
        <ele>0.62</ele>
        <time>2016-08-31T08:32:10Z</time>
      </trkpt>
      <trkpt lat="46.19105" lon="-1.42307">
        <ele>1.1</ele>
        <time>2016-08-31T08:32:17Z</time>
      </trkpt>
      <trkpt lat="46.19129" lon="-1.4231">
        <ele>1.58</ele>
        <time>2016-08-31T08:32:24Z</time>
      </trkpt>
      <trkpt lat="46.1917" lon="-1.4233">
        <ele>1.58</ele>
        <time>2016-08-31T08:32:36Z</time>
      </trkpt>
      <trkpt lat="46.19178" lon="-1.42331">
        <ele>1.1</ele>
        <time>2016-08-31T08:32:39Z</time>
      </trkpt>
      <trkpt lat="46.19184" lon="-1.42361">
        <ele>1.1</ele>
        <time>2016-08-31T08:32:46Z</time>
      </trkpt>
      <trkpt lat="46.19184" lon="-1.42367">
        <ele>1.58</ele>
        <time>2016-08-31T08:32:47Z</time>
      </trkpt>
      <trkpt lat="46.19184" lon="-1.42373">
        <ele>1.58</ele>
        <time>2016-08-31T08:32:48Z</time>
      </trkpt>
      <trkpt lat="46.19184" lon="-1.42386">
        <ele>1.1</ele>
        <time>2016-08-31T08:32:50Z</time>
      </trkpt>
      <trkpt lat="46.19187" lon="-1.42463">
        <ele>1.1</ele>
        <time>2016-08-31T08:33:01Z</time>
      </trkpt>
      <trkpt lat="46.19192" lon="-1.42536">
        <ele>1.58</ele>
        <time>2016-08-31T08:33:11Z</time>
      </trkpt>
      <trkpt lat="46.19192" lon="-1.42543">
        <ele>1.1</ele>
        <time>2016-08-31T08:33:12Z</time>
      </trkpt>
      <trkpt lat="46.19196" lon="-1.42593">
        <ele>1.1</ele>
        <time>2016-08-31T08:33:19Z</time>
      </trkpt>
      <trkpt lat="46.19212" lon="-1.42705">
        <ele>2.06</ele>
        <time>2016-08-31T08:33:35Z</time>
      </trkpt>
      <trkpt lat="46.19217" lon="-1.42758">
        <ele>1.58</ele>
        <time>2016-08-31T08:33:43Z</time>
      </trkpt>
      <trkpt lat="46.19229" lon="-1.42852">
        <ele>1.1</ele>
        <time>2016-08-31T08:33:55Z</time>
      </trkpt>
      <trkpt lat="46.19234" lon="-1.42882">
        <ele>1.58</ele>
        <time>2016-08-31T08:33:59Z</time>
      </trkpt>
      <trkpt lat="46.19256" lon="-1.42957">
        <ele>1.1</ele>
        <time>2016-08-31T08:34:10Z</time>
      </trkpt>
      <trkpt lat="46.19283" lon="-1.43048">
        <ele>1.58</ele>
        <time>2016-08-31T08:34:23Z</time>
      </trkpt>
      <trkpt lat="46.19308" lon="-1.43139">
        <ele>1.58</ele>
        <time>2016-08-31T08:34:36Z</time>
      </trkpt>
      <trkpt lat="46.1934" lon="-1.43252">
        <ele>2.06</ele>
        <time>2016-08-31T08:34:53Z</time>
      </trkpt>
      <trkpt lat="46.19348" lon="-1.43279">
        <ele>2.06</ele>
        <time>2016-08-31T08:34:57Z</time>
      </trkpt>
      <trkpt lat="46.19369" lon="-1.4332">
        <ele>2.06</ele>
        <time>2016-08-31T08:35:04Z</time>
      </trkpt>
      <trkpt lat="46.19394" lon="-1.43345">
        <ele>2.06</ele>
        <time>2016-08-31T08:35:10Z</time>
      </trkpt>
      <trkpt lat="46.19399" lon="-1.43348">
        <ele>1.58</ele>
        <time>2016-08-31T08:35:11Z</time>
      </trkpt>
      <trkpt lat="46.19408" lon="-1.43353">
        <ele>1.58</ele>
        <time>2016-08-31T08:35:13Z</time>
      </trkpt>
      <trkpt lat="46.19417" lon="-1.43355">
        <ele>1.58</ele>
        <time>2016-08-31T08:35:15Z</time>
      </trkpt>
      <trkpt lat="46.19426" lon="-1.43355">
        <ele>1.58</ele>
        <time>2016-08-31T08:35:17Z</time>
      </trkpt>
      <trkpt lat="46.19439" lon="-1.43354">
        <ele>1.58</ele>
        <time>2016-08-31T08:35:20Z</time>
      </trkpt>
      <trkpt lat="46.19442" lon="-1.43356">
        <ele>1.58</ele>
        <time>2016-08-31T08:35:21Z</time>
      </trkpt>
      <trkpt lat="46.19445" lon="-1.43361">
        <ele>1.58</ele>
        <time>2016-08-31T08:35:22Z</time>
      </trkpt>
      <trkpt lat="46.19448" lon="-1.43366">
        <ele>1.58</ele>
        <time>2016-08-31T08:35:23Z</time>
      </trkpt>
      <trkpt lat="46.19449" lon="-1.43372">
        <ele>1.58</ele>
        <time>2016-08-31T08:35:24Z</time>
      </trkpt>
      <trkpt lat="46.19451" lon="-1.43379">
        <ele>1.58</ele>
        <time>2016-08-31T08:35:25Z</time>
      </trkpt>
      <trkpt lat="46.19458" lon="-1.43406">
        <ele>1.1</ele>
        <time>2016-08-31T08:35:29Z</time>
      </trkpt>
      <trkpt lat="46.1946" lon="-1.43413">
        <ele>1.58</ele>
        <time>2016-08-31T08:35:30Z</time>
      </trkpt>
      <trkpt lat="46.19484" lon="-1.43508">
        <ele>2.54</ele>
        <time>2016-08-31T08:35:44Z</time>
      </trkpt>
      <trkpt lat="46.19509" lon="-1.43594">
        <ele>2.06</ele>
        <time>2016-08-31T08:35:57Z</time>
      </trkpt>
      <trkpt lat="46.19529" lon="-1.43666">
        <ele>2.54</ele>
        <time>2016-08-31T08:36:08Z</time>
      </trkpt>
      <trkpt lat="46.19555" lon="-1.43761">
        <ele>2.06</ele>
        <time>2016-08-31T08:36:22Z</time>
      </trkpt>
      <trkpt lat="46.19562" lon="-1.43788">
        <ele>2.06</ele>
        <time>2016-08-31T08:36:26Z</time>
      </trkpt>
      <trkpt lat="46.19574" lon="-1.43828">
        <ele>1.58</ele>
        <time>2016-08-31T08:36:32Z</time>
      </trkpt>
      <trkpt lat="46.19593" lon="-1.43909">
        <ele>2.06</ele>
        <time>2016-08-31T08:36:44Z</time>
      </trkpt>
      <trkpt lat="46.19613" lon="-1.44">
        <ele>2.06</ele>
        <time>2016-08-31T08:36:57Z</time>
      </trkpt>
      <trkpt lat="46.19637" lon="-1.44094">
        <ele>2.06</ele>
        <time>2016-08-31T08:37:11Z</time>
      </trkpt>
      <trkpt lat="46.19639" lon="-1.44101">
        <ele>2.06</ele>
        <time>2016-08-31T08:37:12Z</time>
      </trkpt>
      <trkpt lat="46.19659" lon="-1.44154">
        <ele>2.06</ele>
        <time>2016-08-31T08:37:20Z</time>
      </trkpt>
      <trkpt lat="46.19661" lon="-1.44161">
        <ele>1.58</ele>
        <time>2016-08-31T08:37:21Z</time>
      </trkpt>
      <trkpt lat="46.19682" lon="-1.44194">
        <ele>1.58</ele>
        <time>2016-08-31T08:37:27Z</time>
      </trkpt>
      <trkpt lat="46.19703" lon="-1.44222">
        <ele>2.54</ele>
        <time>2016-08-31T08:37:33Z</time>
      </trkpt>
      <trkpt lat="46.19707" lon="-1.44226">
        <ele>2.54</ele>
        <time>2016-08-31T08:37:34Z</time>
      </trkpt>
      <trkpt lat="46.1971" lon="-1.4423">
        <ele>2.54</ele>
        <time>2016-08-31T08:37:35Z</time>
      </trkpt>
      <trkpt lat="46.19718" lon="-1.44239">
        <ele>2.06</ele>
        <time>2016-08-31T08:37:37Z</time>
      </trkpt>
      <trkpt lat="46.19757" lon="-1.44285">
        <ele>2.54</ele>
        <time>2016-08-31T08:37:48Z</time>
      </trkpt>
      <trkpt lat="46.19799" lon="-1.44351">
        <ele>2.54</ele>
        <time>2016-08-31T08:38:01Z</time>
      </trkpt>
      <trkpt lat="46.19808" lon="-1.44375">
        <ele>2.54</ele>
        <time>2016-08-31T08:38:05Z</time>
      </trkpt>
      <trkpt lat="46.19814" lon="-1.44385">
        <ele>3.02</ele>
        <time>2016-08-31T08:38:07Z</time>
      </trkpt>
      <trkpt lat="46.19816" lon="-1.4439">
        <ele>2.54</ele>
        <time>2016-08-31T08:38:08Z</time>
      </trkpt>
      <trkpt lat="46.19832" lon="-1.44426">
        <ele>3.02</ele>
        <time>2016-08-31T08:38:14Z</time>
      </trkpt>
      <trkpt lat="46.19835" lon="-1.44431">
        <ele>2.54</ele>
        <time>2016-08-31T08:38:15Z</time>
      </trkpt>
      <trkpt lat="46.19838" lon="-1.44437">
        <ele>2.54</ele>
        <time>2016-08-31T08:38:16Z</time>
      </trkpt>
      <trkpt lat="46.1986" lon="-1.44474">
        <ele>2.54</ele>
        <time>2016-08-31T08:38:23Z</time>
      </trkpt>
      <trkpt lat="46.19863" lon="-1.4448">
        <ele>2.54</ele>
        <time>2016-08-31T08:38:24Z</time>
      </trkpt>
      <trkpt lat="46.19873" lon="-1.44502">
        <ele>2.06</ele>
        <time>2016-08-31T08:38:28Z</time>
      </trkpt>
      <trkpt lat="46.19883" lon="-1.44519">
        <ele>2.06</ele>
        <time>2016-08-31T08:38:31Z</time>
      </trkpt>
      <trkpt lat="46.19886" lon="-1.44525">
        <ele>2.06</ele>
        <time>2016-08-31T08:38:32Z</time>
      </trkpt>
      <trkpt lat="46.19899" lon="-1.44556">
        <ele>2.06</ele>
        <time>2016-08-31T08:38:37Z</time>
      </trkpt>
      <trkpt lat="46.19903" lon="-1.44561">
        <ele>2.06</ele>
        <time>2016-08-31T08:38:38Z</time>
      </trkpt>
      <trkpt lat="46.1991" lon="-1.44571">
        <ele>2.06</ele>
        <time>2016-08-31T08:38:40Z</time>
      </trkpt>
      <trkpt lat="46.19912" lon="-1.44577">
        <ele>2.54</ele>
        <time>2016-08-31T08:38:41Z</time>
      </trkpt>
      <trkpt lat="46.19914" lon="-1.44584">
        <ele>2.54</ele>
        <time>2016-08-31T08:38:42Z</time>
      </trkpt>
      <trkpt lat="46.19916" lon="-1.4459">
        <ele>2.54</ele>
        <time>2016-08-31T08:38:43Z</time>
      </trkpt>
      <trkpt lat="46.19918" lon="-1.44597">
        <ele>2.06</ele>
        <time>2016-08-31T08:38:44Z</time>
      </trkpt>
      <trkpt lat="46.19945" lon="-1.44657">
        <ele>2.54</ele>
        <time>2016-08-31T08:38:55Z</time>
      </trkpt>
      <trkpt lat="46.19947" lon="-1.44663">
        <ele>2.54</ele>
        <time>2016-08-31T08:38:56Z</time>
      </trkpt>
      <trkpt lat="46.1995" lon="-1.44669">
        <ele>2.54</ele>
        <time>2016-08-31T08:38:57Z</time>
      </trkpt>
      <trkpt lat="46.19953" lon="-1.44674">
        <ele>2.54</ele>
        <time>2016-08-31T08:38:58Z</time>
      </trkpt>
      <trkpt lat="46.19956" lon="-1.44679">
        <ele>2.54</ele>
        <time>2016-08-31T08:38:59Z</time>
      </trkpt>
      <trkpt lat="46.19958" lon="-1.44684">
        <ele>2.54</ele>
        <time>2016-08-31T08:39:00Z</time>
      </trkpt>
      <trkpt lat="46.19976" lon="-1.44715">
        <ele>2.54</ele>
        <time>2016-08-31T08:39:06Z</time>
      </trkpt>
      <trkpt lat="46.19979" lon="-1.44719">
        <ele>2.06</ele>
        <time>2016-08-31T08:39:07Z</time>
      </trkpt>
      <trkpt lat="46.19982" lon="-1.44724">
        <ele>2.54</ele>
        <time>2016-08-31T08:39:08Z</time>
      </trkpt>
      <trkpt lat="46.19987" lon="-1.44734">
        <ele>2.06</ele>
        <time>2016-08-31T08:39:10Z</time>
      </trkpt>
      <trkpt lat="46.1999" lon="-1.44739">
        <ele>2.54</ele>
        <time>2016-08-31T08:39:11Z</time>
      </trkpt>
      <trkpt lat="46.19992" lon="-1.44745">
        <ele>2.54</ele>
        <time>2016-08-31T08:39:12Z</time>
      </trkpt>
      <trkpt lat="46.19995" lon="-1.44751">
        <ele>2.06</ele>
        <time>2016-08-31T08:39:13Z</time>
      </trkpt>
      <trkpt lat="46.19997" lon="-1.44757">
        <ele>2.54</ele>
        <time>2016-08-31T08:39:14Z</time>
      </trkpt>
      <trkpt lat="46.2" lon="-1.44763">
        <ele>2.06</ele>
        <time>2016-08-31T08:39:15Z</time>
      </trkpt>
      <trkpt lat="46.20002" lon="-1.4477">
        <ele>2.06</ele>
        <time>2016-08-31T08:39:16Z</time>
      </trkpt>
      <trkpt lat="46.20004" lon="-1.44775">
        <ele>2.54</ele>
        <time>2016-08-31T08:39:17Z</time>
      </trkpt>
      <trkpt lat="46.20006" lon="-1.44782">
        <ele>2.54</ele>
        <time>2016-08-31T08:39:18Z</time>
      </trkpt>
      <trkpt lat="46.20013" lon="-1.44799">
        <ele>2.06</ele>
        <time>2016-08-31T08:39:21Z</time>
      </trkpt>
      <trkpt lat="46.20016" lon="-1.44805">
        <ele>2.54</ele>
        <time>2016-08-31T08:39:22Z</time>
      </trkpt>
      <trkpt lat="46.20039" lon="-1.44847">
        <ele>2.06</ele>
        <time>2016-08-31T08:39:30Z</time>
      </trkpt>
      <trkpt lat="46.20049" lon="-1.44859">
        <ele>2.54</ele>
        <time>2016-08-31T08:39:33Z</time>
      </trkpt>
      <trkpt lat="46.20053" lon="-1.44862">
        <ele>2.54</ele>
        <time>2016-08-31T08:39:34Z</time>
      </trkpt>
      <trkpt lat="46.20056" lon="-1.44866">
        <ele>2.06</ele>
        <time>2016-08-31T08:39:35Z</time>
      </trkpt>
      <trkpt lat="46.20072" lon="-1.44881">
        <ele>3.98</ele>
        <time>2016-08-31T08:39:43Z</time>
      </trkpt>
      <trkpt lat="46.20073" lon="-1.44882">
        <ele>11.67</ele>
        <time>2016-08-31T08:39:49Z</time>
      </trkpt>
      <trkpt lat="46.20073" lon="-1.44882">
        <ele>0.62</ele>
        <time>2016-08-31T08:39:50Z</time>
      </trkpt>
      <trkpt lat="46.20073" lon="-1.44883">
        <ele>-8.03</ele>
        <time>2016-08-31T08:39:51Z</time>
      </trkpt>
      <trkpt lat="46.20073" lon="-1.44883">
        <ele>2.54</ele>
        <time>2016-08-31T08:39:52Z</time>
      </trkpt>
      <trkpt lat="46.20073" lon="-1.44883">
        <ele>2.54</ele>
        <time>2016-08-31T08:39:53Z</time>
      </trkpt>
      <trkpt lat="46.20072" lon="-1.44883">
        <ele>7.83</ele>
        <time>2016-08-31T08:39:54Z</time>
      </trkpt>
      <trkpt lat="46.20072" lon="-1.44884">
        <ele>5.91</ele>
        <time>2016-08-31T08:39:55Z</time>
      </trkpt>
      <trkpt lat="46.20072" lon="-1.44884">
        <ele>1.1</ele>
        <time>2016-08-31T08:39:56Z</time>
      </trkpt>
      <trkpt lat="46.20072" lon="-1.44884">
        <ele>-2.75</ele>
        <time>2016-08-31T08:39:57Z</time>
      </trkpt>
      <trkpt lat="46.20072" lon="-1.44885">
        <ele>-1.79</ele>
        <time>2016-08-31T08:39:58Z</time>
      </trkpt>
      <trkpt lat="46.20071" lon="-1.44886">
        <ele>6.39</ele>
        <time>2016-08-31T08:40:02Z</time>
      </trkpt>
      <trkpt lat="46.20071" lon="-1.44886">
        <ele>1.58</ele>
        <time>2016-08-31T08:40:03Z</time>
      </trkpt>
      <trkpt lat="46.20073" lon="-1.44885">
        <ele>2.54</ele>
        <time>2016-08-31T08:40:14Z</time>
      </trkpt>
      <trkpt lat="46.20075" lon="-1.44882">
        <ele>2.54</ele>
        <time>2016-08-31T08:40:15Z</time>
      </trkpt>
      <trkpt lat="46.20077" lon="-1.44879">
        <ele>2.54</ele>
        <time>2016-08-31T08:40:16Z</time>
      </trkpt>
      <trkpt lat="46.2008" lon="-1.44877">
        <ele>4.46</ele>
        <time>2016-08-31T08:40:17Z</time>
      </trkpt>
      <trkpt lat="46.20083" lon="-1.44875">
        <ele>2.54</ele>
        <time>2016-08-31T08:40:18Z</time>
      </trkpt>
      <trkpt lat="46.20118" lon="-1.44845">
        <ele>3.5</ele>
        <time>2016-08-31T08:40:28Z</time>
      </trkpt>
      <trkpt lat="46.20146" lon="-1.44823">
        <ele>3.5</ele>
        <time>2016-08-31T08:40:36Z</time>
      </trkpt>
      <trkpt lat="46.20166" lon="-1.4481">
        <ele>3.5</ele>
        <time>2016-08-31T08:40:44Z</time>
      </trkpt>
      <trkpt lat="46.20168" lon="-1.44808">
        <ele>3.5</ele>
        <time>2016-08-31T08:40:54Z</time>
      </trkpt>
      <trkpt lat="46.20176" lon="-1.44808">
        <ele>3.5</ele>
        <time>2016-08-31T08:40:58Z</time>
      </trkpt>
      <trkpt lat="46.20179" lon="-1.44811">
        <ele>3.02</ele>
        <time>2016-08-31T08:40:59Z</time>
      </trkpt>
      <trkpt lat="46.20181" lon="-1.44816">
        <ele>3.5</ele>
        <time>2016-08-31T08:41:00Z</time>
      </trkpt>
      <trkpt lat="46.20183" lon="-1.44822">
        <ele>3.5</ele>
        <time>2016-08-31T08:41:01Z</time>
      </trkpt>
      <trkpt lat="46.20184" lon="-1.44828">
        <ele>3.02</ele>
        <time>2016-08-31T08:41:02Z</time>
      </trkpt>
      <trkpt lat="46.20186" lon="-1.44835">
        <ele>3.02</ele>
        <time>2016-08-31T08:41:03Z</time>
      </trkpt>
      <trkpt lat="46.20187" lon="-1.44841">
        <ele>3.5</ele>
        <time>2016-08-31T08:41:04Z</time>
      </trkpt>
      <trkpt lat="46.20199" lon="-1.44915">
        <ele>2.54</ele>
        <time>2016-08-31T08:41:15Z</time>
      </trkpt>
      <trkpt lat="46.20202" lon="-1.44928">
        <ele>3.02</ele>
        <time>2016-08-31T08:41:17Z</time>
      </trkpt>
      <trkpt lat="46.20203" lon="-1.44935">
        <ele>3.02</ele>
        <time>2016-08-31T08:41:18Z</time>
      </trkpt>
      <trkpt lat="46.20219" lon="-1.45006">
        <ele>2.54</ele>
        <time>2016-08-31T08:41:28Z</time>
      </trkpt>
      <trkpt lat="46.20237" lon="-1.45105">
        <ele>2.06</ele>
        <time>2016-08-31T08:41:41Z</time>
      </trkpt>
      <trkpt lat="46.20253" lon="-1.45201">
        <ele>2.06</ele>
        <time>2016-08-31T08:41:53Z</time>
      </trkpt>
      <trkpt lat="46.20268" lon="-1.45285">
        <ele>2.54</ele>
        <time>2016-08-31T08:42:04Z</time>
      </trkpt>
      <trkpt lat="46.20273" lon="-1.45316">
        <ele>3.02</ele>
        <time>2016-08-31T08:42:08Z</time>
      </trkpt>
      <trkpt lat="46.20274" lon="-1.45323">
        <ele>2.54</ele>
        <time>2016-08-31T08:42:09Z</time>
      </trkpt>
      <trkpt lat="46.20275" lon="-1.45331">
        <ele>2.54</ele>
        <time>2016-08-31T08:42:10Z</time>
      </trkpt>
      <trkpt lat="46.20277" lon="-1.45338">
        <ele>3.02</ele>
        <time>2016-08-31T08:42:11Z</time>
      </trkpt>
      <trkpt lat="46.20279" lon="-1.45344">
        <ele>3.5</ele>
        <time>2016-08-31T08:42:12Z</time>
      </trkpt>
      <trkpt lat="46.20288" lon="-1.45381">
        <ele>3.02</ele>
        <time>2016-08-31T08:42:17Z</time>
      </trkpt>
      <trkpt lat="46.20294" lon="-1.45426">
        <ele>3.02</ele>
        <time>2016-08-31T08:42:23Z</time>
      </trkpt>
      <trkpt lat="46.20295" lon="-1.45434">
        <ele>3.02</ele>
        <time>2016-08-31T08:42:24Z</time>
      </trkpt>
      <trkpt lat="46.20297" lon="-1.45441">
        <ele>3.02</ele>
        <time>2016-08-31T08:42:25Z</time>
      </trkpt>
      <trkpt lat="46.20314" lon="-1.45496">
        <ele>3.02</ele>
        <time>2016-08-31T08:42:33Z</time>
      </trkpt>
      <trkpt lat="46.20319" lon="-1.45518">
        <ele>2.54</ele>
        <time>2016-08-31T08:42:36Z</time>
      </trkpt>
      <trkpt lat="46.20336" lon="-1.45619">
        <ele>3.98</ele>
        <time>2016-08-31T08:42:49Z</time>
      </trkpt>
      <trkpt lat="46.20344" lon="-1.4571">
        <ele>5.42</ele>
        <time>2016-08-31T08:43:00Z</time>
      </trkpt>
      <trkpt lat="46.20345" lon="-1.45718">
        <ele>5.42</ele>
        <time>2016-08-31T08:43:01Z</time>
      </trkpt>
      <trkpt lat="46.20346" lon="-1.45726">
        <ele>5.91</ele>
        <time>2016-08-31T08:43:02Z</time>
      </trkpt>
      <trkpt lat="46.20347" lon="-1.45733">
        <ele>5.91</ele>
        <time>2016-08-31T08:43:03Z</time>
      </trkpt>
      <trkpt lat="46.20359" lon="-1.45817">
        <ele>5.91</ele>
        <time>2016-08-31T08:43:14Z</time>
      </trkpt>
      <trkpt lat="46.20362" lon="-1.45831">
        <ele>5.91</ele>
        <time>2016-08-31T08:43:16Z</time>
      </trkpt>
      <trkpt lat="46.20365" lon="-1.45855">
        <ele>5.91</ele>
        <time>2016-08-31T08:43:19Z</time>
      </trkpt>
      <trkpt lat="46.20378" lon="-1.4592">
        <ele>6.39</ele>
        <time>2016-08-31T08:43:27Z</time>
      </trkpt>
      <trkpt lat="46.2038" lon="-1.45927">
        <ele>5.91</ele>
        <time>2016-08-31T08:43:28Z</time>
      </trkpt>
      <trkpt lat="46.20388" lon="-1.4595">
        <ele>6.39</ele>
        <time>2016-08-31T08:43:31Z</time>
      </trkpt>
      <trkpt lat="46.2039" lon="-1.45957">
        <ele>5.91</ele>
        <time>2016-08-31T08:43:32Z</time>
      </trkpt>
      <trkpt lat="46.20392" lon="-1.45965">
        <ele>6.39</ele>
        <time>2016-08-31T08:43:33Z</time>
      </trkpt>
      <trkpt lat="46.20394" lon="-1.45981">
        <ele>5.91</ele>
        <time>2016-08-31T08:43:35Z</time>
      </trkpt>
      <trkpt lat="46.20394" lon="-1.45989">
        <ele>5.91</ele>
        <time>2016-08-31T08:43:36Z</time>
      </trkpt>
      <trkpt lat="46.20392" lon="-1.45996">
        <ele>5.91</ele>
        <time>2016-08-31T08:43:37Z</time>
      </trkpt>
      <trkpt lat="46.2039" lon="-1.46003">
        <ele>6.39</ele>
        <time>2016-08-31T08:43:38Z</time>
      </trkpt>
      <trkpt lat="46.20388" lon="-1.4601">
        <ele>6.39</ele>
        <time>2016-08-31T08:43:39Z</time>
      </trkpt>
      <trkpt lat="46.20385" lon="-1.46018">
        <ele>6.87</ele>
        <time>2016-08-31T08:43:40Z</time>
      </trkpt>
      <trkpt lat="46.20384" lon="-1.46025">
        <ele>6.39</ele>
        <time>2016-08-31T08:43:41Z</time>
      </trkpt>
      <trkpt lat="46.20384" lon="-1.46032">
        <ele>6.87</ele>
        <time>2016-08-31T08:43:42Z</time>
      </trkpt>
      <trkpt lat="46.20381" lon="-1.4614">
        <ele>7.35</ele>
        <time>2016-08-31T08:43:56Z</time>
      </trkpt>
      <trkpt lat="46.2038" lon="-1.46221">
        <ele>7.83</ele>
        <time>2016-08-31T08:44:06Z</time>
      </trkpt>
      <trkpt lat="46.20379" lon="-1.46309">
        <ele>6.87</ele>
        <time>2016-08-31T08:44:17Z</time>
      </trkpt>
      <trkpt lat="46.20377" lon="-1.46414">
        <ele>6.39</ele>
        <time>2016-08-31T08:44:30Z</time>
      </trkpt>
      <trkpt lat="46.20386" lon="-1.46519">
        <ele>6.39</ele>
        <time>2016-08-31T08:44:43Z</time>
      </trkpt>
      <trkpt lat="46.20394" lon="-1.46603">
        <ele>5.91</ele>
        <time>2016-08-31T08:44:53Z</time>
      </trkpt>
      <trkpt lat="46.20405" lon="-1.46714">
        <ele>6.39</ele>
        <time>2016-08-31T08:45:07Z</time>
      </trkpt>
      <trkpt lat="46.20411" lon="-1.46792">
        <ele>7.35</ele>
        <time>2016-08-31T08:45:17Z</time>
      </trkpt>
      <trkpt lat="46.20411" lon="-1.46835">
        <ele>6.87</ele>
        <time>2016-08-31T08:45:22Z</time>
      </trkpt>
      <trkpt lat="46.2041" lon="-1.46843">
        <ele>6.87</ele>
        <time>2016-08-31T08:45:23Z</time>
      </trkpt>
      <trkpt lat="46.2041" lon="-1.46852">
        <ele>5.91</ele>
        <time>2016-08-31T08:45:24Z</time>
      </trkpt>
      <trkpt lat="46.20392" lon="-1.46974">
        <ele>6.39</ele>
        <time>2016-08-31T08:45:39Z</time>
      </trkpt>
      <trkpt lat="46.20381" lon="-1.47043">
        <ele>6.39</ele>
        <time>2016-08-31T08:45:48Z</time>
      </trkpt>
      <trkpt lat="46.2038" lon="-1.4705">
        <ele>5.91</ele>
        <time>2016-08-31T08:45:49Z</time>
      </trkpt>
      <trkpt lat="46.20379" lon="-1.47057">
        <ele>5.91</ele>
        <time>2016-08-31T08:45:50Z</time>
      </trkpt>
      <trkpt lat="46.20378" lon="-1.47065">
        <ele>5.91</ele>
        <time>2016-08-31T08:45:51Z</time>
      </trkpt>
      <trkpt lat="46.20377" lon="-1.47072">
        <ele>6.39</ele>
        <time>2016-08-31T08:45:52Z</time>
      </trkpt>
      <trkpt lat="46.20374" lon="-1.47095">
        <ele>6.39</ele>
        <time>2016-08-31T08:45:55Z</time>
      </trkpt>
      <trkpt lat="46.20374" lon="-1.47102">
        <ele>5.91</ele>
        <time>2016-08-31T08:45:56Z</time>
      </trkpt>
      <trkpt lat="46.20373" lon="-1.4711">
        <ele>5.91</ele>
        <time>2016-08-31T08:45:57Z</time>
      </trkpt>
      <trkpt lat="46.20364" lon="-1.47164">
        <ele>5.91</ele>
        <time>2016-08-31T08:46:05Z</time>
      </trkpt>
      <trkpt lat="46.20365" lon="-1.47167">
        <ele>6.39</ele>
        <time>2016-08-31T08:46:06Z</time>
      </trkpt>
      <trkpt lat="46.20368" lon="-1.4717">
        <ele>6.39</ele>
        <time>2016-08-31T08:46:07Z</time>
      </trkpt>
      <trkpt lat="46.20371" lon="-1.47171">
        <ele>5.91</ele>
        <time>2016-08-31T08:46:08Z</time>
      </trkpt>
      <trkpt lat="46.20374" lon="-1.47171">
        <ele>5.91</ele>
        <time>2016-08-31T08:46:09Z</time>
      </trkpt>
      <trkpt lat="46.20377" lon="-1.4717">
        <ele>5.91</ele>
        <time>2016-08-31T08:46:10Z</time>
      </trkpt>
      <trkpt lat="46.20387" lon="-1.47166">
        <ele>1.58</ele>
        <time>2016-08-31T08:46:17Z</time>
      </trkpt>
      <trkpt lat="46.20387" lon="-1.47166">
        <ele>6.39</ele>
        <time>2016-08-31T08:46:18Z</time>
      </trkpt>
      <trkpt lat="46.20387" lon="-1.47166">
        <ele>-6.59</ele>
        <time>2016-08-31T08:46:21Z</time>
      </trkpt>
      <trkpt lat="46.20387" lon="-1.47166">
        <ele>5.42</ele>
        <time>2016-08-31T08:46:22Z</time>
      </trkpt>
      <trkpt lat="46.20387" lon="-1.47166">
        <ele>9.27</ele>
        <time>2016-08-31T08:46:25Z</time>
      </trkpt>
      <trkpt lat="46.20388" lon="-1.47167">
        <ele>5.91</ele>
        <time>2016-08-31T08:46:28Z</time>
      </trkpt>
      <trkpt lat="46.2039" lon="-1.47167">
        <ele>5.91</ele>
        <time>2016-08-31T08:46:29Z</time>
      </trkpt>
      <trkpt lat="46.20392" lon="-1.47167">
        <ele>5.91</ele>
        <time>2016-08-31T08:46:30Z</time>
      </trkpt>
      <trkpt lat="46.20394" lon="-1.47167">
        <ele>5.91</ele>
        <time>2016-08-31T08:46:31Z</time>
      </trkpt>
      <trkpt lat="46.20396" lon="-1.47167">
        <ele>5.91</ele>
        <time>2016-08-31T08:46:32Z</time>
      </trkpt>
      <trkpt lat="46.20421" lon="-1.4716">
        <ele>6.39</ele>
        <time>2016-08-31T08:46:41Z</time>
      </trkpt>
      <trkpt lat="46.20459" lon="-1.47153">
        <ele>6.87</ele>
        <time>2016-08-31T08:46:51Z</time>
      </trkpt>
      <trkpt lat="46.20471" lon="-1.47145">
        <ele>7.35</ele>
        <time>2016-08-31T08:46:55Z</time>
      </trkpt>
      <trkpt lat="46.20475" lon="-1.47143">
        <ele>7.35</ele>
        <time>2016-08-31T08:46:56Z</time>
      </trkpt>
      <trkpt lat="46.20514" lon="-1.47132">
        <ele>6.39</ele>
        <time>2016-08-31T08:47:04Z</time>
      </trkpt>
      <trkpt lat="46.20519" lon="-1.47131">
        <ele>5.91</ele>
        <time>2016-08-31T08:47:05Z</time>
      </trkpt>
      <trkpt lat="46.20564" lon="-1.47129">
        <ele>5.91</ele>
        <time>2016-08-31T08:47:15Z</time>
      </trkpt>
      <trkpt lat="46.20567" lon="-1.47133">
        <ele>5.91</ele>
        <time>2016-08-31T08:47:16Z</time>
      </trkpt>
      <trkpt lat="46.20569" lon="-1.47137">
        <ele>6.39</ele>
        <time>2016-08-31T08:47:17Z</time>
      </trkpt>
      <trkpt lat="46.20583" lon="-1.47186">
        <ele>6.39</ele>
        <time>2016-08-31T08:47:27Z</time>
      </trkpt>
      <trkpt lat="46.20584" lon="-1.47192">
        <ele>6.39</ele>
        <time>2016-08-31T08:47:28Z</time>
      </trkpt>
      <trkpt lat="46.20585" lon="-1.47198">
        <ele>5.91</ele>
        <time>2016-08-31T08:47:29Z</time>
      </trkpt>
      <trkpt lat="46.20586" lon="-1.47204">
        <ele>5.91</ele>
        <time>2016-08-31T08:47:30Z</time>
      </trkpt>
      <trkpt lat="46.20588" lon="-1.47217">
        <ele>6.39</ele>
        <time>2016-08-31T08:47:32Z</time>
      </trkpt>
      <trkpt lat="46.20589" lon="-1.4723">
        <ele>6.39</ele>
        <time>2016-08-31T08:47:34Z</time>
      </trkpt>
      <trkpt lat="46.2059" lon="-1.47236">
        <ele>6.39</ele>
        <time>2016-08-31T08:47:35Z</time>
      </trkpt>
      <trkpt lat="46.20593" lon="-1.47241">
        <ele>6.39</ele>
        <time>2016-08-31T08:47:36Z</time>
      </trkpt>
      <trkpt lat="46.20596" lon="-1.47244">
        <ele>6.39</ele>
        <time>2016-08-31T08:47:37Z</time>
      </trkpt>
      <trkpt lat="46.206" lon="-1.47246">
        <ele>6.39</ele>
        <time>2016-08-31T08:47:38Z</time>
      </trkpt>
      <trkpt lat="46.20604" lon="-1.47247">
        <ele>5.91</ele>
        <time>2016-08-31T08:47:39Z</time>
      </trkpt>
      <trkpt lat="46.20613" lon="-1.47249">
        <ele>5.91</ele>
        <time>2016-08-31T08:47:41Z</time>
      </trkpt>
      <trkpt lat="46.20617" lon="-1.4725">
        <ele>5.91</ele>
        <time>2016-08-31T08:47:42Z</time>
      </trkpt>
      <trkpt lat="46.20622" lon="-1.47253">
        <ele>5.42</ele>
        <time>2016-08-31T08:47:43Z</time>
      </trkpt>
      <trkpt lat="46.20626" lon="-1.47256">
        <ele>5.42</ele>
        <time>2016-08-31T08:47:44Z</time>
      </trkpt>
      <trkpt lat="46.20629" lon="-1.47261">
        <ele>5.91</ele>
        <time>2016-08-31T08:47:45Z</time>
      </trkpt>
      <trkpt lat="46.20633" lon="-1.47265">
        <ele>5.42</ele>
        <time>2016-08-31T08:47:46Z</time>
      </trkpt>
      <trkpt lat="46.20636" lon="-1.47269">
        <ele>5.42</ele>
        <time>2016-08-31T08:47:47Z</time>
      </trkpt>
      <trkpt lat="46.20672" lon="-1.47319">
        <ele>5.42</ele>
        <time>2016-08-31T08:47:57Z</time>
      </trkpt>
      <trkpt lat="46.20679" lon="-1.4733">
        <ele>5.42</ele>
        <time>2016-08-31T08:47:59Z</time>
      </trkpt>
      <trkpt lat="46.20706" lon="-1.47363">
        <ele>4.94</ele>
        <time>2016-08-31T08:48:06Z</time>
      </trkpt>
      <trkpt lat="46.20714" lon="-1.47379">
        <ele>5.42</ele>
        <time>2016-08-31T08:48:09Z</time>
      </trkpt>
      <trkpt lat="46.20715" lon="-1.47385">
        <ele>4.94</ele>
        <time>2016-08-31T08:48:10Z</time>
      </trkpt>
      <trkpt lat="46.20713" lon="-1.47391">
        <ele>5.42</ele>
        <time>2016-08-31T08:48:11Z</time>
      </trkpt>
      <trkpt lat="46.2071" lon="-1.47395">
        <ele>4.94</ele>
        <time>2016-08-31T08:48:12Z</time>
      </trkpt>
      <trkpt lat="46.20707" lon="-1.47398">
        <ele>4.94</ele>
        <time>2016-08-31T08:48:13Z</time>
      </trkpt>
      <trkpt lat="46.20703" lon="-1.47399">
        <ele>4.94</ele>
        <time>2016-08-31T08:48:14Z</time>
      </trkpt>
      <trkpt lat="46.20698" lon="-1.47399">
        <ele>4.94</ele>
        <time>2016-08-31T08:48:15Z</time>
      </trkpt>
      <trkpt lat="46.20694" lon="-1.47399">
        <ele>5.42</ele>
        <time>2016-08-31T08:48:16Z</time>
      </trkpt>
      <trkpt lat="46.2069" lon="-1.474">
        <ele>4.94</ele>
        <time>2016-08-31T08:48:17Z</time>
      </trkpt>
      <trkpt lat="46.20677" lon="-1.47402">
        <ele>5.42</ele>
        <time>2016-08-31T08:48:20Z</time>
      </trkpt>
      <trkpt lat="46.20672" lon="-1.47403">
        <ele>4.94</ele>
        <time>2016-08-31T08:48:21Z</time>
      </trkpt>
      <trkpt lat="46.20663" lon="-1.47404">
        <ele>5.42</ele>
        <time>2016-08-31T08:48:23Z</time>
      </trkpt>
      <trkpt lat="46.20615" lon="-1.47419">
        <ele>4.46</ele>
        <time>2016-08-31T08:48:33Z</time>
      </trkpt>
      <trkpt lat="46.20607" lon="-1.47424">
        <ele>4.94</ele>
        <time>2016-08-31T08:48:35Z</time>
      </trkpt>
      <trkpt lat="46.20603" lon="-1.47427">
        <ele>4.94</ele>
        <time>2016-08-31T08:48:36Z</time>
      </trkpt>
      <trkpt lat="46.20563" lon="-1.47452">
        <ele>4.46</ele>
        <time>2016-08-31T08:48:46Z</time>
      </trkpt>
      <trkpt lat="46.20555" lon="-1.47459">
        <ele>4.94</ele>
        <time>2016-08-31T08:48:48Z</time>
      </trkpt>
      <trkpt lat="46.20544" lon="-1.47472">
        <ele>4.94</ele>
        <time>2016-08-31T08:48:51Z</time>
      </trkpt>
      <trkpt lat="46.20541" lon="-1.47478">
        <ele>4.46</ele>
        <time>2016-08-31T08:48:52Z</time>
      </trkpt>
      <trkpt lat="46.2051" lon="-1.47541">
        <ele>4.94</ele>
        <time>2016-08-31T08:49:04Z</time>
      </trkpt>
      <trkpt lat="46.20507" lon="-1.47546">
        <ele>4.94</ele>
        <time>2016-08-31T08:49:05Z</time>
      </trkpt>
      <trkpt lat="46.20505" lon="-1.47552">
        <ele>5.42</ele>
        <time>2016-08-31T08:49:06Z</time>
      </trkpt>
      <trkpt lat="46.20485" lon="-1.47589">
        <ele>4.94</ele>
        <time>2016-08-31T08:49:13Z</time>
      </trkpt>
      <trkpt lat="46.20483" lon="-1.47594">
        <ele>4.94</ele>
        <time>2016-08-31T08:49:14Z</time>
      </trkpt>
      <trkpt lat="46.20468" lon="-1.47616">
        <ele>5.42</ele>
        <time>2016-08-31T08:49:19Z</time>
      </trkpt>
      <trkpt lat="46.20464" lon="-1.47619">
        <ele>5.42</ele>
        <time>2016-08-31T08:49:20Z</time>
      </trkpt>
      <trkpt lat="46.2046" lon="-1.47622">
        <ele>5.42</ele>
        <time>2016-08-31T08:49:21Z</time>
      </trkpt>
      <trkpt lat="46.20457" lon="-1.47626">
        <ele>5.42</ele>
        <time>2016-08-31T08:49:22Z</time>
      </trkpt>
      <trkpt lat="46.20454" lon="-1.47632">
        <ele>5.42</ele>
        <time>2016-08-31T08:49:23Z</time>
      </trkpt>
      <trkpt lat="46.20451" lon="-1.47638">
        <ele>5.42</ele>
        <time>2016-08-31T08:49:24Z</time>
      </trkpt>
      <trkpt lat="46.20449" lon="-1.47645">
        <ele>5.42</ele>
        <time>2016-08-31T08:49:25Z</time>
      </trkpt>
      <trkpt lat="46.20447" lon="-1.47651">
        <ele>5.42</ele>
        <time>2016-08-31T08:49:26Z</time>
      </trkpt>
      <trkpt lat="46.20427" lon="-1.47735">
        <ele>5.91</ele>
        <time>2016-08-31T08:49:39Z</time>
      </trkpt>
      <trkpt lat="46.20423" lon="-1.47748">
        <ele>5.91</ele>
        <time>2016-08-31T08:49:41Z</time>
      </trkpt>
      <trkpt lat="46.20409" lon="-1.4781">
        <ele>4.94</ele>
        <time>2016-08-31T08:49:50Z</time>
      </trkpt>
      <trkpt lat="46.20406" lon="-1.47817">
        <ele>4.94</ele>
        <time>2016-08-31T08:49:51Z</time>
      </trkpt>
      <trkpt lat="46.20375" lon="-1.47893">
        <ele>4.94</ele>
        <time>2016-08-31T08:50:03Z</time>
      </trkpt>
      <trkpt lat="46.20341" lon="-1.47971">
        <ele>4.46</ele>
        <time>2016-08-31T08:50:16Z</time>
      </trkpt>
      <trkpt lat="46.20308" lon="-1.48042">
        <ele>4.94</ele>
        <time>2016-08-31T08:50:28Z</time>
      </trkpt>
      <trkpt lat="46.20272" lon="-1.48124">
        <ele>4.46</ele>
        <time>2016-08-31T08:50:42Z</time>
      </trkpt>
      <trkpt lat="46.20249" lon="-1.48204">
        <ele>4.94</ele>
        <time>2016-08-31T08:50:54Z</time>
      </trkpt>
      <trkpt lat="46.20234" lon="-1.48289">
        <ele>5.42</ele>
        <time>2016-08-31T08:51:07Z</time>
      </trkpt>
      <trkpt lat="46.20223" lon="-1.4837">
        <ele>5.42</ele>
        <time>2016-08-31T08:51:19Z</time>
      </trkpt>
      <trkpt lat="46.20222" lon="-1.48377">
        <ele>5.42</ele>
        <time>2016-08-31T08:51:20Z</time>
      </trkpt>
      <trkpt lat="46.20202" lon="-1.48483">
        <ele>5.42</ele>
        <time>2016-08-31T08:51:36Z</time>
      </trkpt>
      <trkpt lat="46.20173" lon="-1.48583">
        <ele>5.42</ele>
        <time>2016-08-31T08:51:51Z</time>
      </trkpt>
      <trkpt lat="46.2015" lon="-1.48638">
        <ele>5.42</ele>
        <time>2016-08-31T08:52:00Z</time>
      </trkpt>
      <trkpt lat="46.20117" lon="-1.48689">
        <ele>5.42</ele>
        <time>2016-08-31T08:52:10Z</time>
      </trkpt>
      <trkpt lat="46.20115" lon="-1.48695">
        <ele>4.94</ele>
        <time>2016-08-31T08:52:11Z</time>
      </trkpt>
      <trkpt lat="46.20113" lon="-1.48702">
        <ele>4.94</ele>
        <time>2016-08-31T08:52:12Z</time>
      </trkpt>
      <trkpt lat="46.20102" lon="-1.48749">
        <ele>4.94</ele>
        <time>2016-08-31T08:52:19Z</time>
      </trkpt>
      <trkpt lat="46.20101" lon="-1.48756">
        <ele>4.94</ele>
        <time>2016-08-31T08:52:20Z</time>
      </trkpt>
      <trkpt lat="46.20101" lon="-1.48769">
        <ele>4.94</ele>
        <time>2016-08-31T08:52:22Z</time>
      </trkpt>
      <trkpt lat="46.20106" lon="-1.4881">
        <ele>4.46</ele>
        <time>2016-08-31T08:52:28Z</time>
      </trkpt>
      <trkpt lat="46.20108" lon="-1.48816">
        <ele>4.46</ele>
        <time>2016-08-31T08:52:29Z</time>
      </trkpt>
      <trkpt lat="46.2013" lon="-1.48888">
        <ele>3.5</ele>
        <time>2016-08-31T08:52:41Z</time>
      </trkpt>
      <trkpt lat="46.20152" lon="-1.4896">
        <ele>3.5</ele>
        <time>2016-08-31T08:52:54Z</time>
      </trkpt>
      <trkpt lat="46.20176" lon="-1.49043">
        <ele>3.98</ele>
        <time>2016-08-31T08:53:08Z</time>
      </trkpt>
      <trkpt lat="46.2019" lon="-1.49092">
        <ele>3.5</ele>
        <time>2016-08-31T08:53:16Z</time>
      </trkpt>
      <trkpt lat="46.20194" lon="-1.49104">
        <ele>4.46</ele>
        <time>2016-08-31T08:53:22Z</time>
      </trkpt>
      <trkpt lat="46.20193" lon="-1.49104">
        <ele>-6.59</ele>
        <time>2016-08-31T08:53:29Z</time>
      </trkpt>
      <trkpt lat="46.20193" lon="-1.49104">
        <ele>6.87</ele>
        <time>2016-08-31T08:53:30Z</time>
      </trkpt>
      <trkpt lat="46.20193" lon="-1.49104">
        <ele>-1.3</ele>
        <time>2016-08-31T08:53:31Z</time>
      </trkpt>
      <trkpt lat="46.20193" lon="-1.49104">
        <ele>5.42</ele>
        <time>2016-08-31T08:53:32Z</time>
      </trkpt>
      <trkpt lat="46.20193" lon="-1.49104">
        <ele>2.54</ele>
        <time>2016-08-31T08:53:33Z</time>
      </trkpt>
      <trkpt lat="46.20193" lon="-1.49104">
        <ele>5.91</ele>
        <time>2016-08-31T08:53:35Z</time>
      </trkpt>
      <trkpt lat="46.20193" lon="-1.49104">
        <ele>4.46</ele>
        <time>2016-08-31T08:53:36Z</time>
      </trkpt>
      <trkpt lat="46.20194" lon="-1.49104">
        <ele>3.98</ele>
        <time>2016-08-31T08:53:55Z</time>
      </trkpt>
      <trkpt lat="46.20194" lon="-1.49105">
        <ele>4.46</ele>
        <time>2016-08-31T08:54:21Z</time>
      </trkpt>
      <trkpt lat="46.20194" lon="-1.49105">
        <ele>4.46</ele>
        <time>2016-08-31T08:54:45Z</time>
      </trkpt>
      <trkpt lat="46.20194" lon="-1.49105">
        <ele>9.27</ele>
        <time>2016-08-31T08:54:47Z</time>
      </trkpt>
      <trkpt lat="46.20194" lon="-1.49105">
        <ele>4.46</ele>
        <time>2016-08-31T08:54:48Z</time>
      </trkpt>
      <trkpt lat="46.20194" lon="-1.49105">
        <ele>7.83</ele>
        <time>2016-08-31T08:54:57Z</time>
      </trkpt>
      <trkpt lat="46.20193" lon="-1.49105">
        <ele>3.5</ele>
        <time>2016-08-31T08:54:58Z</time>
      </trkpt>
      <trkpt lat="46.20193" lon="-1.49105">
        <ele>7.35</ele>
        <time>2016-08-31T08:54:59Z</time>
      </trkpt>
      <trkpt lat="46.20193" lon="-1.49105">
        <ele>3.98</ele>
        <time>2016-08-31T08:55:00Z</time>
      </trkpt>
      <trkpt lat="46.20193" lon="-1.49105">
        <ele>7.83</ele>
        <time>2016-08-31T08:55:05Z</time>
      </trkpt>
      <trkpt lat="46.20193" lon="-1.49105">
        <ele>4.46</ele>
        <time>2016-08-31T08:55:06Z</time>
      </trkpt>
      <trkpt lat="46.20193" lon="-1.49105">
        <ele>8.31</ele>
        <time>2016-08-31T08:55:07Z</time>
      </trkpt>
      <trkpt lat="46.20193" lon="-1.49105">
        <ele>-0.82</ele>
        <time>2016-08-31T08:55:08Z</time>
      </trkpt>
      <trkpt lat="46.20193" lon="-1.49105">
        <ele>4.94</ele>
        <time>2016-08-31T08:55:09Z</time>
      </trkpt>
      <trkpt lat="46.20193" lon="-1.49105">
        <ele>-5.63</ele>
        <time>2016-08-31T08:55:10Z</time>
      </trkpt>
      <trkpt lat="46.20193" lon="-1.49105">
        <ele>5.91</ele>
        <time>2016-08-31T08:55:11Z</time>
      </trkpt>
      <trkpt lat="46.20193" lon="-1.49105">
        <ele>5.91</ele>
        <time>2016-08-31T08:55:12Z</time>
      </trkpt>
      <trkpt lat="46.20193" lon="-1.49105">
        <ele>-0.82</ele>
        <time>2016-08-31T08:55:13Z</time>
      </trkpt>
      <trkpt lat="46.20193" lon="-1.49105">
        <ele>4.94</ele>
        <time>2016-08-31T08:55:14Z</time>
      </trkpt>
      <trkpt lat="46.20193" lon="-1.49105">
        <ele>-4.67</ele>
        <time>2016-08-31T08:55:15Z</time>
      </trkpt>
      <trkpt lat="46.20193" lon="-1.49105">
        <ele>8.31</ele>
        <time>2016-08-31T08:55:16Z</time>
      </trkpt>
      <trkpt lat="46.20193" lon="-1.49105">
        <ele>-3.71</ele>
        <time>2016-08-31T08:55:17Z</time>
      </trkpt>
      <trkpt lat="46.20193" lon="-1.49105">
        <ele>3.02</ele>
        <time>2016-08-31T08:55:18Z</time>
      </trkpt>
      <trkpt lat="46.20193" lon="-1.49105">
        <ele>3.98</ele>
        <time>2016-08-31T08:55:20Z</time>
      </trkpt>
      <trkpt lat="46.20193" lon="-1.49105">
        <ele>4.46</ele>
        <time>2016-08-31T08:55:34Z</time>
      </trkpt>
      <trkpt lat="46.20193" lon="-1.49104">
        <ele>4.46</ele>
        <time>2016-08-31T08:55:49Z</time>
      </trkpt>
      <trkpt lat="46.20195" lon="-1.49114">
        <ele>4.46</ele>
        <time>2016-08-31T08:56:00Z</time>
      </trkpt>
      <trkpt lat="46.20206" lon="-1.49152">
        <ele>3.98</ele>
        <time>2016-08-31T08:56:09Z</time>
      </trkpt>
      <trkpt lat="46.20214" lon="-1.4918">
        <ele>3.98</ele>
        <time>2016-08-31T08:56:14Z</time>
      </trkpt>
      <trkpt lat="46.20225" lon="-1.49245">
        <ele>3.98</ele>
        <time>2016-08-31T08:56:24Z</time>
      </trkpt>
      <trkpt lat="46.20225" lon="-1.4926">
        <ele>3.5</ele>
        <time>2016-08-31T08:56:26Z</time>
      </trkpt>
      <trkpt lat="46.20212" lon="-1.49358">
        <ele>3.5</ele>
        <time>2016-08-31T08:56:40Z</time>
      </trkpt>
      <trkpt lat="46.20211" lon="-1.49372">
        <ele>3.98</ele>
        <time>2016-08-31T08:56:42Z</time>
      </trkpt>
      <trkpt lat="46.20228" lon="-1.49445">
        <ele>4.46</ele>
        <time>2016-08-31T08:56:53Z</time>
      </trkpt>
      <trkpt lat="46.20262" lon="-1.49542">
        <ele>3.98</ele>
        <time>2016-08-31T08:57:08Z</time>
      </trkpt>
      <trkpt lat="46.20299" lon="-1.49631">
        <ele>3.5</ele>
        <time>2016-08-31T08:57:22Z</time>
      </trkpt>
      <trkpt lat="46.20322" lon="-1.49686">
        <ele>3.5</ele>
        <time>2016-08-31T08:57:31Z</time>
      </trkpt>
      <trkpt lat="46.20374" lon="-1.49763">
        <ele>3.5</ele>
        <time>2016-08-31T08:57:46Z</time>
      </trkpt>
      <trkpt lat="46.20385" lon="-1.49779">
        <ele>3.02</ele>
        <time>2016-08-31T08:57:49Z</time>
      </trkpt>
      <trkpt lat="46.20405" lon="-1.49845">
        <ele>3.5</ele>
        <time>2016-08-31T08:57:59Z</time>
      </trkpt>
      <trkpt lat="46.20412" lon="-1.49939">
        <ele>3.02</ele>
        <time>2016-08-31T08:58:12Z</time>
      </trkpt>
      <trkpt lat="46.20411" lon="-1.49946">
        <ele>3.02</ele>
        <time>2016-08-31T08:58:13Z</time>
      </trkpt>
      <trkpt lat="46.20411" lon="-1.49953">
        <ele>3.98</ele>
        <time>2016-08-31T08:58:14Z</time>
      </trkpt>
      <trkpt lat="46.2041" lon="-1.4996">
        <ele>3.5</ele>
        <time>2016-08-31T08:58:15Z</time>
      </trkpt>
      <trkpt lat="46.20401" lon="-1.50016">
        <ele>3.02</ele>
        <time>2016-08-31T08:58:23Z</time>
      </trkpt>
      <trkpt lat="46.20401" lon="-1.50136">
        <ele>3.02</ele>
        <time>2016-08-31T08:58:39Z</time>
      </trkpt>
      <trkpt lat="46.20402" lon="-1.50194">
        <ele>3.02</ele>
        <time>2016-08-31T08:58:47Z</time>
      </trkpt>
      <trkpt lat="46.20422" lon="-1.50291">
        <ele>3.5</ele>
        <time>2016-08-31T08:59:01Z</time>
      </trkpt>
      <trkpt lat="46.20441" lon="-1.50334">
        <ele>3.02</ele>
        <time>2016-08-31T08:59:08Z</time>
      </trkpt>
      <trkpt lat="46.20492" lon="-1.50402">
        <ele>3.5</ele>
        <time>2016-08-31T08:59:22Z</time>
      </trkpt>
      <trkpt lat="46.20499" lon="-1.50412">
        <ele>3.98</ele>
        <time>2016-08-31T08:59:24Z</time>
      </trkpt>
      <trkpt lat="46.20502" lon="-1.50418">
        <ele>3.98</ele>
        <time>2016-08-31T08:59:25Z</time>
      </trkpt>
      <trkpt lat="46.20526" lon="-1.50461">
        <ele>3.5</ele>
        <time>2016-08-31T08:59:35Z</time>
      </trkpt>
      <trkpt lat="46.20531" lon="-1.50467">
        <ele>3.98</ele>
        <time>2016-08-31T08:59:45Z</time>
      </trkpt>
      <trkpt lat="46.20531" lon="-1.50468">
        <ele>9.27</ele>
        <time>2016-08-31T08:59:47Z</time>
      </trkpt>
      <trkpt lat="46.20531" lon="-1.50468">
        <ele>3.5</ele>
        <time>2016-08-31T08:59:48Z</time>
      </trkpt>
      <trkpt lat="46.20531" lon="-1.50468">
        <ele>8.31</ele>
        <time>2016-08-31T08:59:51Z</time>
      </trkpt>
      <trkpt lat="46.20531" lon="-1.50468">
        <ele>3.98</ele>
        <time>2016-08-31T08:59:52Z</time>
      </trkpt>
      <trkpt lat="46.20531" lon="-1.50468">
        <ele>7.35</ele>
        <time>2016-08-31T08:59:53Z</time>
      </trkpt>
      <trkpt lat="46.20531" lon="-1.50468">
        <ele>-8.03</ele>
        <time>2016-08-31T08:59:54Z</time>
      </trkpt>
      <trkpt lat="46.20532" lon="-1.50468">
        <ele>-6.11</ele>
        <time>2016-08-31T08:59:55Z</time>
      </trkpt>
      <trkpt lat="46.20532" lon="-1.50468">
        <ele>7.83</ele>
        <time>2016-08-31T08:59:56Z</time>
      </trkpt>
      <trkpt lat="46.20532" lon="-1.50468">
        <ele>1.58</ele>
        <time>2016-08-31T08:59:57Z</time>
      </trkpt>
      <trkpt lat="46.20532" lon="-1.50468">
        <ele>4.94</ele>
        <time>2016-08-31T08:59:58Z</time>
      </trkpt>
      <trkpt lat="46.20532" lon="-1.50468">
        <ele>14.56</ele>
        <time>2016-08-31T09:00:00Z</time>
      </trkpt>
      <trkpt lat="46.20532" lon="-1.50468">
        <ele>-6.59</ele>
        <time>2016-08-31T09:00:01Z</time>
      </trkpt>
      <trkpt lat="46.20532" lon="-1.50468">
        <ele>-4.67</ele>
        <time>2016-08-31T09:00:02Z</time>
      </trkpt>
      <trkpt lat="46.20532" lon="-1.50468">
        <ele>7.83</ele>
        <time>2016-08-31T09:00:03Z</time>
      </trkpt>
      <trkpt lat="46.20532" lon="-1.50468">
        <ele>5.42</ele>
        <time>2016-08-31T09:00:04Z</time>
      </trkpt>
      <trkpt lat="46.20532" lon="-1.50468">
        <ele>4.94</ele>
        <time>2016-08-31T09:00:06Z</time>
      </trkpt>
      <trkpt lat="46.20532" lon="-1.50469">
        <ele>20.32</ele>
        <time>2016-08-31T09:00:10Z</time>
      </trkpt>
      <trkpt lat="46.20532" lon="-1.50469">
        <ele>-10.92</ele>
        <time>2016-08-31T09:00:11Z</time>
      </trkpt>
      <trkpt lat="46.20532" lon="-1.50469">
        <ele>8.31</ele>
        <time>2016-08-31T09:00:12Z</time>
      </trkpt>
      <trkpt lat="46.20532" lon="-1.50469">
        <ele>3.98</ele>
        <time>2016-08-31T09:00:13Z</time>
      </trkpt>
      <trkpt lat="46.20532" lon="-1.50468">
        <ele>7.35</ele>
        <time>2016-08-31T09:00:16Z</time>
      </trkpt>
      <trkpt lat="46.20533" lon="-1.50468">
        <ele>-5.15</ele>
        <time>2016-08-31T09:00:19Z</time>
      </trkpt>
      <trkpt lat="46.20533" lon="-1.50468">
        <ele>4.94</ele>
        <time>2016-08-31T09:00:20Z</time>
      </trkpt>
      <trkpt lat="46.20533" lon="-1.50469">
        <ele>3.98</ele>
        <time>2016-08-31T09:00:36Z</time>
      </trkpt>
      <trkpt lat="46.20534" lon="-1.50469">
        <ele>3.98</ele>
        <time>2016-08-31T09:00:54Z</time>
      </trkpt>
      <trkpt lat="46.20533" lon="-1.50468">
        <ele>3.98</ele>
        <time>2016-08-31T09:01:02Z</time>
      </trkpt>
      <trkpt lat="46.20533" lon="-1.50468">
        <ele>3.5</ele>
        <time>2016-08-31T09:01:15Z</time>
      </trkpt>
      <trkpt lat="46.20533" lon="-1.50468">
        <ele>3.5</ele>
        <time>2016-08-31T09:01:35Z</time>
      </trkpt>
      <trkpt lat="46.20533" lon="-1.50468">
        <ele>3.02</ele>
        <time>2016-08-31T09:02:07Z</time>
      </trkpt>
      <trkpt lat="46.20533" lon="-1.50467">
        <ele>3.5</ele>
        <time>2016-08-31T09:02:28Z</time>
      </trkpt>
      <trkpt lat="46.20533" lon="-1.50467">
        <ele>3.02</ele>
        <time>2016-08-31T09:02:34Z</time>
      </trkpt>
      <trkpt lat="46.20536" lon="-1.5047">
        <ele>3.5</ele>
        <time>2016-08-31T09:02:37Z</time>
      </trkpt>
      <trkpt lat="46.20537" lon="-1.50471">
        <ele>3.5</ele>
        <time>2016-08-31T09:02:38Z</time>
      </trkpt>
      <trkpt lat="46.20538" lon="-1.50473">
        <ele>3.5</ele>
        <time>2016-08-31T09:02:48Z</time>
      </trkpt>
      <trkpt lat="46.20539" lon="-1.50473">
        <ele>3.02</ele>
        <time>2016-08-31T09:03:06Z</time>
      </trkpt>
      <trkpt lat="46.20539" lon="-1.50473">
        <ele>3.5</ele>
        <time>2016-08-31T09:03:30Z</time>
      </trkpt>
      <trkpt lat="46.20539" lon="-1.50474">
        <ele>3.02</ele>
        <time>2016-08-31T09:03:50Z</time>
      </trkpt>
      <trkpt lat="46.2054" lon="-1.50475">
        <ele>3.5</ele>
        <time>2016-08-31T09:04:14Z</time>
      </trkpt>
      <trkpt lat="46.2054" lon="-1.50476">
        <ele>3.5</ele>
        <time>2016-08-31T09:04:39Z</time>
      </trkpt>
      <trkpt lat="46.20539" lon="-1.50475">
        <ele>3.5</ele>
        <time>2016-08-31T09:04:54Z</time>
      </trkpt>
      <trkpt lat="46.20539" lon="-1.50475">
        <ele>3.5</ele>
        <time>2016-08-31T09:04:56Z</time>
      </trkpt>
      <trkpt lat="46.2054" lon="-1.50476">
        <ele>3.5</ele>
        <time>2016-08-31T09:04:57Z</time>
      </trkpt>
      <trkpt lat="46.20563" lon="-1.50494">
        <ele>3.5</ele>
        <time>2016-08-31T09:05:07Z</time>
      </trkpt>
      <trkpt lat="46.20614" lon="-1.50525">
        <ele>3.02</ele>
        <time>2016-08-31T09:05:21Z</time>
      </trkpt>
      <trkpt lat="46.20665" lon="-1.50562">
        <ele>3.5</ele>
        <time>2016-08-31T09:05:35Z</time>
      </trkpt>
      <trkpt lat="46.20694" lon="-1.50621">
        <ele>3.02</ele>
        <time>2016-08-31T09:05:46Z</time>
      </trkpt>
      <trkpt lat="46.20707" lon="-1.50702">
        <ele>2.54</ele>
        <time>2016-08-31T09:05:58Z</time>
      </trkpt>
      <trkpt lat="46.20712" lon="-1.50749">
        <ele>2.54</ele>
        <time>2016-08-31T09:06:05Z</time>
      </trkpt>
      <trkpt lat="46.20713" lon="-1.50755">
        <ele>2.54</ele>
        <time>2016-08-31T09:06:06Z</time>
      </trkpt>
      <trkpt lat="46.20713" lon="-1.50762">
        <ele>2.54</ele>
        <time>2016-08-31T09:06:07Z</time>
      </trkpt>
      <trkpt lat="46.20713" lon="-1.50774">
        <ele>2.54</ele>
        <time>2016-08-31T09:06:09Z</time>
      </trkpt>
      <trkpt lat="46.20715" lon="-1.50781">
        <ele>2.54</ele>
        <time>2016-08-31T09:06:10Z</time>
      </trkpt>
      <trkpt lat="46.20717" lon="-1.50787">
        <ele>2.54</ele>
        <time>2016-08-31T09:06:11Z</time>
      </trkpt>
      <trkpt lat="46.2072" lon="-1.50792">
        <ele>2.54</ele>
        <time>2016-08-31T09:06:12Z</time>
      </trkpt>
      <trkpt lat="46.20723" lon="-1.50797">
        <ele>2.06</ele>
        <time>2016-08-31T09:06:13Z</time>
      </trkpt>
      <trkpt lat="46.20764" lon="-1.50863">
        <ele>3.02</ele>
        <time>2016-08-31T09:06:26Z</time>
      </trkpt>
      <trkpt lat="46.20801" lon="-1.50908">
        <ele>3.02</ele>
        <time>2016-08-31T09:06:37Z</time>
      </trkpt>
      <trkpt lat="46.20841" lon="-1.50961">
        <ele>3.02</ele>
        <time>2016-08-31T09:06:49Z</time>
      </trkpt>
      <trkpt lat="46.20871" lon="-1.51005">
        <ele>3.5</ele>
        <time>2016-08-31T09:07:01Z</time>
      </trkpt>
      <trkpt lat="46.20883" lon="-1.51036">
        <ele>2.54</ele>
        <time>2016-08-31T09:07:07Z</time>
      </trkpt>
      <trkpt lat="46.2089" lon="-1.51074">
        <ele>2.54</ele>
        <time>2016-08-31T09:07:12Z</time>
      </trkpt>
      <trkpt lat="46.20893" lon="-1.51082">
        <ele>3.02</ele>
        <time>2016-08-31T09:07:13Z</time>
      </trkpt>
      <trkpt lat="46.20896" lon="-1.51088">
        <ele>2.54</ele>
        <time>2016-08-31T09:07:14Z</time>
      </trkpt>
      <trkpt lat="46.209" lon="-1.51094">
        <ele>2.54</ele>
        <time>2016-08-31T09:07:15Z</time>
      </trkpt>
      <trkpt lat="46.20904" lon="-1.511">
        <ele>2.54</ele>
        <time>2016-08-31T09:07:16Z</time>
      </trkpt>
      <trkpt lat="46.20918" lon="-1.51119">
        <ele>3.02</ele>
        <time>2016-08-31T09:07:20Z</time>
      </trkpt>
      <trkpt lat="46.20962" lon="-1.51191">
        <ele>3.02</ele>
        <time>2016-08-31T09:07:35Z</time>
      </trkpt>
      <trkpt lat="46.20965" lon="-1.51195">
        <ele>3.02</ele>
        <time>2016-08-31T09:07:36Z</time>
      </trkpt>
      <trkpt lat="46.20968" lon="-1.51199">
        <ele>3.5</ele>
        <time>2016-08-31T09:07:37Z</time>
      </trkpt>
      <trkpt lat="46.2097" lon="-1.51203">
        <ele>3.98</ele>
        <time>2016-08-31T09:07:38Z</time>
      </trkpt>
      <trkpt lat="46.20973" lon="-1.51206">
        <ele>3.5</ele>
        <time>2016-08-31T09:07:39Z</time>
      </trkpt>
      <trkpt lat="46.20976" lon="-1.5121">
        <ele>3.98</ele>
        <time>2016-08-31T09:07:40Z</time>
      </trkpt>
      <trkpt lat="46.20989" lon="-1.51221">
        <ele>3.02</ele>
        <time>2016-08-31T09:07:44Z</time>
      </trkpt>
      <trkpt lat="46.21002" lon="-1.51226">
        <ele>3.5</ele>
        <time>2016-08-31T09:07:47Z</time>
      </trkpt>
      <trkpt lat="46.21014" lon="-1.51229">
        <ele>3.5</ele>
        <time>2016-08-31T09:07:50Z</time>
      </trkpt>
      <trkpt lat="46.21019" lon="-1.51229">
        <ele>3.5</ele>
        <time>2016-08-31T09:07:51Z</time>
      </trkpt>
      <trkpt lat="46.21027" lon="-1.51229">
        <ele>3.5</ele>
        <time>2016-08-31T09:07:53Z</time>
      </trkpt>
      <trkpt lat="46.21031" lon="-1.51228">
        <ele>3.5</ele>
        <time>2016-08-31T09:07:54Z</time>
      </trkpt>
      <trkpt lat="46.21034" lon="-1.51226">
        <ele>3.02</ele>
        <time>2016-08-31T09:07:55Z</time>
      </trkpt>
      <trkpt lat="46.21062" lon="-1.51209">
        <ele>3.5</ele>
        <time>2016-08-31T09:08:06Z</time>
      </trkpt>
      <trkpt lat="46.21065" lon="-1.51207">
        <ele>3.98</ele>
        <time>2016-08-31T09:08:14Z</time>
      </trkpt>
      <trkpt lat="46.21064" lon="-1.51207">
        <ele>3.5</ele>
        <time>2016-08-31T09:08:26Z</time>
      </trkpt>
      <trkpt lat="46.21063" lon="-1.51207">
        <ele>3.02</ele>
        <time>2016-08-31T09:08:39Z</time>
      </trkpt>
      <trkpt lat="46.21062" lon="-1.51207">
        <ele>3.5</ele>
        <time>2016-08-31T09:08:49Z</time>
      </trkpt>
      <trkpt lat="46.21062" lon="-1.51206">
        <ele>3.98</ele>
        <time>2016-08-31T09:09:07Z</time>
      </trkpt>
      <trkpt lat="46.21063" lon="-1.51208">
        <ele>3.98</ele>
        <time>2016-08-31T09:09:16Z</time>
      </trkpt>
      <trkpt lat="46.21064" lon="-1.5121">
        <ele>3.98</ele>
        <time>2016-08-31T09:09:17Z</time>
      </trkpt>
      <trkpt lat="46.21063" lon="-1.51213">
        <ele>3.5</ele>
        <time>2016-08-31T09:09:18Z</time>
      </trkpt>
      <trkpt lat="46.21061" lon="-1.51215">
        <ele>3.98</ele>
        <time>2016-08-31T09:09:19Z</time>
      </trkpt>
      <trkpt lat="46.21058" lon="-1.51216">
        <ele>3.98</ele>
        <time>2016-08-31T09:09:20Z</time>
      </trkpt>
      <trkpt lat="46.21055" lon="-1.51218">
        <ele>3.02</ele>
        <time>2016-08-31T09:09:21Z</time>
      </trkpt>
      <trkpt lat="46.21024" lon="-1.51237">
        <ele>3.02</ele>
        <time>2016-08-31T09:09:30Z</time>
      </trkpt>
      <trkpt lat="46.21014" lon="-1.51237">
        <ele>3.02</ele>
        <time>2016-08-31T09:09:33Z</time>
      </trkpt>
      <trkpt lat="46.21012" lon="-1.51241">
        <ele>3.02</ele>
        <time>2016-08-31T09:09:34Z</time>
      </trkpt>
      <trkpt lat="46.21011" lon="-1.51246">
        <ele>3.02</ele>
        <time>2016-08-31T09:09:35Z</time>
      </trkpt>
      <trkpt lat="46.21009" lon="-1.51251">
        <ele>3.02</ele>
        <time>2016-08-31T09:09:36Z</time>
      </trkpt>
      <trkpt lat="46.21006" lon="-1.51256">
        <ele>2.54</ele>
        <time>2016-08-31T09:09:37Z</time>
      </trkpt>
      <trkpt lat="46.21004" lon="-1.5126">
        <ele>2.54</ele>
        <time>2016-08-31T09:09:38Z</time>
      </trkpt>
      <trkpt lat="46.20978" lon="-1.51293">
        <ele>2.06</ele>
        <time>2016-08-31T09:09:46Z</time>
      </trkpt>
      <trkpt lat="46.20974" lon="-1.51297">
        <ele>2.06</ele>
        <time>2016-08-31T09:09:47Z</time>
      </trkpt>
      <trkpt lat="46.20944" lon="-1.51331">
        <ele>2.54</ele>
        <time>2016-08-31T09:09:57Z</time>
      </trkpt>
      <trkpt lat="46.20911" lon="-1.51368">
        <ele>2.06</ele>
        <time>2016-08-31T09:10:06Z</time>
      </trkpt>
      <trkpt lat="46.20907" lon="-1.51372">
        <ele>2.06</ele>
        <time>2016-08-31T09:10:07Z</time>
      </trkpt>
      <trkpt lat="46.20855" lon="-1.51406">
        <ele>2.54</ele>
        <time>2016-08-31T09:10:19Z</time>
      </trkpt>
      <trkpt lat="46.20841" lon="-1.51417">
        <ele>2.54</ele>
        <time>2016-08-31T09:10:23Z</time>
      </trkpt>
      <trkpt lat="46.20838" lon="-1.51448">
        <ele>3.02</ele>
        <time>2016-08-31T09:10:31Z</time>
      </trkpt>
      <trkpt lat="46.20836" lon="-1.51486">
        <ele>3.02</ele>
        <time>2016-08-31T09:10:40Z</time>
      </trkpt>
      <trkpt lat="46.20821" lon="-1.5154">
        <ele>3.98</ele>
        <time>2016-08-31T09:10:51Z</time>
      </trkpt>
      <trkpt lat="46.20809" lon="-1.51554">
        <ele>3.98</ele>
        <time>2016-08-31T09:11:00Z</time>
      </trkpt>
      <trkpt lat="46.20807" lon="-1.51556">
        <ele>3.98</ele>
        <time>2016-08-31T09:11:14Z</time>
      </trkpt>
      <trkpt lat="46.20807" lon="-1.51557">
        <ele>3.98</ele>
        <time>2016-08-31T09:11:27Z</time>
      </trkpt>
      <trkpt lat="46.20806" lon="-1.51556">
        <ele>3.98</ele>
        <time>2016-08-31T09:11:51Z</time>
      </trkpt>
      <trkpt lat="46.20807" lon="-1.51557">
        <ele>3.5</ele>
        <time>2016-08-31T09:12:16Z</time>
      </trkpt>
      <trkpt lat="46.20809" lon="-1.51556">
        <ele>3.98</ele>
        <time>2016-08-31T09:12:45Z</time>
      </trkpt>
      <trkpt lat="46.20809" lon="-1.51555">
        <ele>3.98</ele>
        <time>2016-08-31T09:13:12Z</time>
      </trkpt>
      <trkpt lat="46.20809" lon="-1.51556">
        <ele>3.98</ele>
        <time>2016-08-31T09:13:36Z</time>
      </trkpt>
      <trkpt lat="46.20808" lon="-1.51558">
        <ele>3.98</ele>
        <time>2016-08-31T09:14:00Z</time>
      </trkpt>
      <trkpt lat="46.20805" lon="-1.51563">
        <ele>4.46</ele>
        <time>2016-08-31T09:14:27Z</time>
      </trkpt>
      <trkpt lat="46.20804" lon="-1.51566">
        <ele>3.98</ele>
        <time>2016-08-31T09:14:56Z</time>
      </trkpt>
      <trkpt lat="46.20804" lon="-1.51567">
        <ele>4.94</ele>
        <time>2016-08-31T09:15:22Z</time>
      </trkpt>
      <trkpt lat="46.20807" lon="-1.5156">
        <ele>4.46</ele>
        <time>2016-08-31T09:15:50Z</time>
      </trkpt>
      <trkpt lat="46.20809" lon="-1.51556">
        <ele>5.42</ele>
        <time>2016-08-31T09:16:15Z</time>
      </trkpt>
      <trkpt lat="46.2081" lon="-1.51555">
        <ele>4.94</ele>
        <time>2016-08-31T09:16:48Z</time>
      </trkpt>
      <trkpt lat="46.20809" lon="-1.51555">
        <ele>5.42</ele>
        <time>2016-08-31T09:17:12Z</time>
      </trkpt>
      <trkpt lat="46.20807" lon="-1.51558">
        <ele>5.91</ele>
        <time>2016-08-31T09:17:41Z</time>
      </trkpt>
      <trkpt lat="46.20807" lon="-1.51558">
        <ele>5.91</ele>
        <time>2016-08-31T09:18:09Z</time>
      </trkpt>
      <trkpt lat="46.20808" lon="-1.51558">
        <ele>6.39</ele>
        <time>2016-08-31T09:18:36Z</time>
      </trkpt>
      <trkpt lat="46.20808" lon="-1.51558">
        <ele>6.39</ele>
        <time>2016-08-31T09:19:07Z</time>
      </trkpt>
      <trkpt lat="46.20808" lon="-1.51559">
        <ele>6.39</ele>
        <time>2016-08-31T09:19:35Z</time>
      </trkpt>
      <trkpt lat="46.20809" lon="-1.51557">
        <ele>6.39</ele>
        <time>2016-08-31T09:20:07Z</time>
      </trkpt>
      <trkpt lat="46.20808" lon="-1.51556">
        <ele>6.87</ele>
        <time>2016-08-31T09:20:37Z</time>
      </trkpt>
      <trkpt lat="46.20808" lon="-1.51556">
        <ele>5.91</ele>
        <time>2016-08-31T09:21:06Z</time>
      </trkpt>
      <trkpt lat="46.20808" lon="-1.51555">
        <ele>5.91</ele>
        <time>2016-08-31T09:21:35Z</time>
      </trkpt>
      <trkpt lat="46.20808" lon="-1.51556">
        <ele>6.39</ele>
        <time>2016-08-31T09:22:05Z</time>
      </trkpt>
      <trkpt lat="46.20809" lon="-1.51555">
        <ele>5.91</ele>
        <time>2016-08-31T09:22:35Z</time>
      </trkpt>
      <trkpt lat="46.2081" lon="-1.51554">
        <ele>5.91</ele>
        <time>2016-08-31T09:23:03Z</time>
      </trkpt>
      <trkpt lat="46.2081" lon="-1.51555">
        <ele>5.91</ele>
        <time>2016-08-31T09:23:29Z</time>
      </trkpt>
      <trkpt lat="46.20808" lon="-1.51556">
        <ele>5.91</ele>
        <time>2016-08-31T09:23:58Z</time>
      </trkpt>
      <trkpt lat="46.20808" lon="-1.51556">
        <ele>5.91</ele>
        <time>2016-08-31T09:24:18Z</time>
      </trkpt>
      <trkpt lat="46.20808" lon="-1.51555">
        <ele>5.91</ele>
        <time>2016-08-31T09:24:48Z</time>
      </trkpt>
      <trkpt lat="46.20808" lon="-1.51556">
        <ele>5.91</ele>
        <time>2016-08-31T09:25:06Z</time>
      </trkpt>
      <trkpt lat="46.20808" lon="-1.51557">
        <ele>5.42</ele>
        <time>2016-08-31T09:25:24Z</time>
      </trkpt>
      <trkpt lat="46.20808" lon="-1.51556">
        <ele>16.96</ele>
        <time>2016-08-31T09:25:35Z</time>
      </trkpt>
      <trkpt lat="46.20808" lon="-1.51556">
        <ele>5.42</ele>
        <time>2016-08-31T09:25:36Z</time>
      </trkpt>
      <trkpt lat="46.20808" lon="-1.51557">
        <ele>5.42</ele>
        <time>2016-08-31T09:25:48Z</time>
      </trkpt>
      <trkpt lat="46.20808" lon="-1.51557">
        <ele>5.91</ele>
        <time>2016-08-31T09:26:08Z</time>
      </trkpt>
      <trkpt lat="46.20808" lon="-1.51557">
        <ele>5.91</ele>
        <time>2016-08-31T09:26:24Z</time>
      </trkpt>
      <trkpt lat="46.20808" lon="-1.51558">
        <ele>5.42</ele>
        <time>2016-08-31T09:26:38Z</time>
      </trkpt>
      <trkpt lat="46.20808" lon="-1.5156">
        <ele>5.42</ele>
        <time>2016-08-31T09:27:01Z</time>
      </trkpt>
      <trkpt lat="46.20808" lon="-1.51561">
        <ele>5.42</ele>
        <time>2016-08-31T09:27:18Z</time>
      </trkpt>
      <trkpt lat="46.20808" lon="-1.51561">
        <ele>5.42</ele>
        <time>2016-08-31T09:27:35Z</time>
      </trkpt>
      <trkpt lat="46.20808" lon="-1.51562">
        <ele>5.42</ele>
        <time>2016-08-31T09:27:47Z</time>
      </trkpt>
      <trkpt lat="46.20808" lon="-1.51562">
        <ele>5.42</ele>
        <time>2016-08-31T09:27:58Z</time>
      </trkpt>
      <trkpt lat="46.20807" lon="-1.51583">
        <ele>5.42</ele>
        <time>2016-08-31T09:28:08Z</time>
      </trkpt>
      <trkpt lat="46.208" lon="-1.51602">
        <ele>5.91</ele>
        <time>2016-08-31T09:28:17Z</time>
      </trkpt>
      <trkpt lat="46.20798" lon="-1.51612">
        <ele>5.42</ele>
        <time>2016-08-31T09:28:21Z</time>
      </trkpt>
      <trkpt lat="46.2081" lon="-1.51647">
        <ele>5.42</ele>
        <time>2016-08-31T09:28:33Z</time>
      </trkpt>
      <trkpt lat="46.20822" lon="-1.51678">
        <ele>4.94</ele>
        <time>2016-08-31T09:28:43Z</time>
      </trkpt>
      <trkpt lat="46.20835" lon="-1.517">
        <ele>4.94</ele>
        <time>2016-08-31T09:28:53Z</time>
      </trkpt>
      <trkpt lat="46.20846" lon="-1.5172">
        <ele>4.46</ele>
        <time>2016-08-31T09:29:03Z</time>
      </trkpt>
      <trkpt lat="46.20865" lon="-1.51738">
        <ele>3.98</ele>
        <time>2016-08-31T09:29:12Z</time>
      </trkpt>
      <trkpt lat="46.20877" lon="-1.51747">
        <ele>3.98</ele>
        <time>2016-08-31T09:29:21Z</time>
      </trkpt>
      <trkpt lat="46.20886" lon="-1.51757">
        <ele>3.5</ele>
        <time>2016-08-31T09:29:26Z</time>
      </trkpt>
      <trkpt lat="46.20912" lon="-1.51803">
        <ele>3.5</ele>
        <time>2016-08-31T09:29:39Z</time>
      </trkpt>
      <trkpt lat="46.20932" lon="-1.51842">
        <ele>3.98</ele>
        <time>2016-08-31T09:29:49Z</time>
      </trkpt>
      <trkpt lat="46.20957" lon="-1.51888">
        <ele>3.5</ele>
        <time>2016-08-31T09:30:00Z</time>
      </trkpt>
      <trkpt lat="46.20984" lon="-1.51938">
        <ele>3.5</ele>
        <time>2016-08-31T09:30:11Z</time>
      </trkpt>
      <trkpt lat="46.20987" lon="-1.51943">
        <ele>3.5</ele>
        <time>2016-08-31T09:30:12Z</time>
      </trkpt>
      <trkpt lat="46.21005" lon="-1.51976">
        <ele>3.02</ele>
        <time>2016-08-31T09:30:19Z</time>
      </trkpt>
      <trkpt lat="46.21022" lon="-1.52004">
        <ele>3.02</ele>
        <time>2016-08-31T09:30:25Z</time>
      </trkpt>
      <trkpt lat="46.2104" lon="-1.52039">
        <ele>3.98</ele>
        <time>2016-08-31T09:30:33Z</time>
      </trkpt>
      <trkpt lat="46.21043" lon="-1.52041">
        <ele>3.5</ele>
        <time>2016-08-31T09:30:34Z</time>
      </trkpt>
      <trkpt lat="46.21047" lon="-1.5204">
        <ele>3.98</ele>
        <time>2016-08-31T09:30:35Z</time>
      </trkpt>
      <trkpt lat="46.21049" lon="-1.52037">
        <ele>3.5</ele>
        <time>2016-08-31T09:30:36Z</time>
      </trkpt>
      <trkpt lat="46.21053" lon="-1.52035">
        <ele>3.5</ele>
        <time>2016-08-31T09:30:37Z</time>
      </trkpt>
      <trkpt lat="46.2108" lon="-1.52007">
        <ele>3.02</ele>
        <time>2016-08-31T09:30:46Z</time>
      </trkpt>
      <trkpt lat="46.21086" lon="-1.51999">
        <ele>3.02</ele>
        <time>2016-08-31T09:30:48Z</time>
      </trkpt>
      <trkpt lat="46.21133" lon="-1.51943">
        <ele>3.02</ele>
        <time>2016-08-31T09:31:02Z</time>
      </trkpt>
      <trkpt lat="46.21176" lon="-1.51896">
        <ele>2.54</ele>
        <time>2016-08-31T09:31:14Z</time>
      </trkpt>
      <trkpt lat="46.21186" lon="-1.51882">
        <ele>3.02</ele>
        <time>2016-08-31T09:31:17Z</time>
      </trkpt>
      <trkpt lat="46.21236" lon="-1.51792">
        <ele>3.02</ele>
        <time>2016-08-31T09:31:34Z</time>
      </trkpt>
      <trkpt lat="46.21279" lon="-1.51745">
        <ele>2.54</ele>
        <time>2016-08-31T09:31:46Z</time>
      </trkpt>
      <trkpt lat="46.21286" lon="-1.51738">
        <ele>2.06</ele>
        <time>2016-08-31T09:31:48Z</time>
      </trkpt>
      <trkpt lat="46.21331" lon="-1.51718">
        <ele>2.06</ele>
        <time>2016-08-31T09:31:58Z</time>
      </trkpt>
      <trkpt lat="46.21336" lon="-1.51715">
        <ele>2.06</ele>
        <time>2016-08-31T09:31:59Z</time>
      </trkpt>
      <trkpt lat="46.2134" lon="-1.51711">
        <ele>2.06</ele>
        <time>2016-08-31T09:32:00Z</time>
      </trkpt>
      <trkpt lat="46.21343" lon="-1.51706">
        <ele>2.06</ele>
        <time>2016-08-31T09:32:01Z</time>
      </trkpt>
      <trkpt lat="46.21347" lon="-1.517">
        <ele>1.58</ele>
        <time>2016-08-31T09:32:02Z</time>
      </trkpt>
      <trkpt lat="46.2135" lon="-1.51695">
        <ele>1.58</ele>
        <time>2016-08-31T09:32:03Z</time>
      </trkpt>
      <trkpt lat="46.2137" lon="-1.51659">
        <ele>1.58</ele>
        <time>2016-08-31T09:32:10Z</time>
      </trkpt>
      <trkpt lat="46.21371" lon="-1.51653">
        <ele>2.06</ele>
        <time>2016-08-31T09:32:11Z</time>
      </trkpt>
      <trkpt lat="46.21372" lon="-1.51648">
        <ele>2.06</ele>
        <time>2016-08-31T09:32:12Z</time>
      </trkpt>
      <trkpt lat="46.21373" lon="-1.51642">
        <ele>2.06</ele>
        <time>2016-08-31T09:32:13Z</time>
      </trkpt>
      <trkpt lat="46.21375" lon="-1.51637">
        <ele>1.58</ele>
        <time>2016-08-31T09:32:14Z</time>
      </trkpt>
      <trkpt lat="46.21378" lon="-1.51634">
        <ele>1.58</ele>
        <time>2016-08-31T09:32:15Z</time>
      </trkpt>
      <trkpt lat="46.21382" lon="-1.51633">
        <ele>1.58</ele>
        <time>2016-08-31T09:32:16Z</time>
      </trkpt>
      <trkpt lat="46.21387" lon="-1.51634">
        <ele>1.58</ele>
        <time>2016-08-31T09:32:17Z</time>
      </trkpt>
      <trkpt lat="46.21391" lon="-1.51634">
        <ele>2.06</ele>
        <time>2016-08-31T09:32:18Z</time>
      </trkpt>
      <trkpt lat="46.21415" lon="-1.51638">
        <ele>2.06</ele>
        <time>2016-08-31T09:32:24Z</time>
      </trkpt>
      <trkpt lat="46.21419" lon="-1.51637">
        <ele>1.58</ele>
        <time>2016-08-31T09:32:25Z</time>
      </trkpt>
      <trkpt lat="46.21424" lon="-1.51636">
        <ele>2.06</ele>
        <time>2016-08-31T09:32:26Z</time>
      </trkpt>
      <trkpt lat="46.21428" lon="-1.51636">
        <ele>2.06</ele>
        <time>2016-08-31T09:32:27Z</time>
      </trkpt>
      <trkpt lat="46.21432" lon="-1.51637">
        <ele>2.06</ele>
        <time>2016-08-31T09:32:28Z</time>
      </trkpt>
      <trkpt lat="46.21437" lon="-1.51639">
        <ele>2.06</ele>
        <time>2016-08-31T09:32:29Z</time>
      </trkpt>
      <trkpt lat="46.21483" lon="-1.5167">
        <ele>2.06</ele>
        <time>2016-08-31T09:32:41Z</time>
      </trkpt>
      <trkpt lat="46.21506" lon="-1.517">
        <ele>2.06</ele>
        <time>2016-08-31T09:32:50Z</time>
      </trkpt>
      <trkpt lat="46.21526" lon="-1.51735">
        <ele>2.54</ele>
        <time>2016-08-31T09:32:57Z</time>
      </trkpt>
      <trkpt lat="46.2153" lon="-1.51746">
        <ele>2.54</ele>
        <time>2016-08-31T09:32:59Z</time>
      </trkpt>
      <trkpt lat="46.21533" lon="-1.51751">
        <ele>2.54</ele>
        <time>2016-08-31T09:33:00Z</time>
      </trkpt>
      <trkpt lat="46.21547" lon="-1.51772">
        <ele>2.06</ele>
        <time>2016-08-31T09:33:04Z</time>
      </trkpt>
      <trkpt lat="46.21604" lon="-1.51823">
        <ele>1.1</ele>
        <time>2016-08-31T09:33:17Z</time>
      </trkpt>
      <trkpt lat="46.2165" lon="-1.51852">
        <ele>1.58</ele>
        <time>2016-08-31T09:33:27Z</time>
      </trkpt>
      <trkpt lat="46.21655" lon="-1.51853">
        <ele>1.58</ele>
        <time>2016-08-31T09:33:28Z</time>
      </trkpt>
      <trkpt lat="46.21664" lon="-1.51855">
        <ele>1.58</ele>
        <time>2016-08-31T09:33:30Z</time>
      </trkpt>
      <trkpt lat="46.21695" lon="-1.51853">
        <ele>1.58</ele>
        <time>2016-08-31T09:33:36Z</time>
      </trkpt>
      <trkpt lat="46.217" lon="-1.51854">
        <ele>1.1</ele>
        <time>2016-08-31T09:33:37Z</time>
      </trkpt>
      <trkpt lat="46.21725" lon="-1.51861">
        <ele>1.58</ele>
        <time>2016-08-31T09:33:42Z</time>
      </trkpt>
      <trkpt lat="46.21779" lon="-1.51908">
        <ele>1.1</ele>
        <time>2016-08-31T09:33:55Z</time>
      </trkpt>
      <trkpt lat="46.21782" lon="-1.51913">
        <ele>1.1</ele>
        <time>2016-08-31T09:33:56Z</time>
      </trkpt>
      <trkpt lat="46.21791" lon="-1.5193">
        <ele>2.06</ele>
        <time>2016-08-31T09:33:59Z</time>
      </trkpt>
      <trkpt lat="46.21794" lon="-1.51935">
        <ele>2.06</ele>
        <time>2016-08-31T09:34:00Z</time>
      </trkpt>
      <trkpt lat="46.21845" lon="-1.51978">
        <ele>2.06</ele>
        <time>2016-08-31T09:34:12Z</time>
      </trkpt>
      <trkpt lat="46.21913" lon="-1.52038">
        <ele>3.02</ele>
        <time>2016-08-31T09:34:28Z</time>
      </trkpt>
      <trkpt lat="46.21922" lon="-1.52045">
        <ele>2.54</ele>
        <time>2016-08-31T09:34:30Z</time>
      </trkpt>
      <trkpt lat="46.21925" lon="-1.5205">
        <ele>2.06</ele>
        <time>2016-08-31T09:34:31Z</time>
      </trkpt>
      <trkpt lat="46.21928" lon="-1.52056">
        <ele>2.06</ele>
        <time>2016-08-31T09:34:32Z</time>
      </trkpt>
      <trkpt lat="46.21929" lon="-1.52063">
        <ele>2.06</ele>
        <time>2016-08-31T09:34:33Z</time>
      </trkpt>
      <trkpt lat="46.21929" lon="-1.5207">
        <ele>2.54</ele>
        <time>2016-08-31T09:34:34Z</time>
      </trkpt>
      <trkpt lat="46.21928" lon="-1.52077">
        <ele>2.06</ele>
        <time>2016-08-31T09:34:35Z</time>
      </trkpt>
      <trkpt lat="46.21927" lon="-1.52085">
        <ele>2.54</ele>
        <time>2016-08-31T09:34:36Z</time>
      </trkpt>
      <trkpt lat="46.21922" lon="-1.52119">
        <ele>2.54</ele>
        <time>2016-08-31T09:34:41Z</time>
      </trkpt>
      <trkpt lat="46.21923" lon="-1.52126">
        <ele>2.06</ele>
        <time>2016-08-31T09:34:42Z</time>
      </trkpt>
      <trkpt lat="46.21924" lon="-1.52132">
        <ele>2.54</ele>
        <time>2016-08-31T09:34:43Z</time>
      </trkpt>
      <trkpt lat="46.21926" lon="-1.52138">
        <ele>3.02</ele>
        <time>2016-08-31T09:34:44Z</time>
      </trkpt>
      <trkpt lat="46.21928" lon="-1.52144">
        <ele>2.54</ele>
        <time>2016-08-31T09:34:45Z</time>
      </trkpt>
      <trkpt lat="46.2193" lon="-1.5215">
        <ele>3.02</ele>
        <time>2016-08-31T09:34:46Z</time>
      </trkpt>
      <trkpt lat="46.21933" lon="-1.52155">
        <ele>3.02</ele>
        <time>2016-08-31T09:34:47Z</time>
      </trkpt>
      <trkpt lat="46.21936" lon="-1.52161">
        <ele>3.5</ele>
        <time>2016-08-31T09:34:48Z</time>
      </trkpt>
      <trkpt lat="46.21939" lon="-1.52166">
        <ele>3.02</ele>
        <time>2016-08-31T09:34:49Z</time>
      </trkpt>
      <trkpt lat="46.21948" lon="-1.52185">
        <ele>2.54</ele>
        <time>2016-08-31T09:34:52Z</time>
      </trkpt>
      <trkpt lat="46.21952" lon="-1.5219">
        <ele>2.54</ele>
        <time>2016-08-31T09:34:53Z</time>
      </trkpt>
      <trkpt lat="46.21959" lon="-1.52201">
        <ele>3.02</ele>
        <time>2016-08-31T09:34:55Z</time>
      </trkpt>
      <trkpt lat="46.22015" lon="-1.52297">
        <ele>2.54</ele>
        <time>2016-08-31T09:35:12Z</time>
      </trkpt>
      <trkpt lat="46.22068" lon="-1.52363">
        <ele>2.54</ele>
        <time>2016-08-31T09:35:26Z</time>
      </trkpt>
      <trkpt lat="46.22132" lon="-1.52415">
        <ele>2.54</ele>
        <time>2016-08-31T09:35:41Z</time>
      </trkpt>
      <trkpt lat="46.22184" lon="-1.52424">
        <ele>2.54</ele>
        <time>2016-08-31T09:35:54Z</time>
      </trkpt>
      <trkpt lat="46.22216" lon="-1.52426">
        <ele>3.02</ele>
        <time>2016-08-31T09:36:05Z</time>
      </trkpt>
      <trkpt lat="46.22228" lon="-1.52428">
        <ele>3.5</ele>
        <time>2016-08-31T09:36:14Z</time>
      </trkpt>
      <trkpt lat="46.22229" lon="-1.52428">
        <ele>3.5</ele>
        <time>2016-08-31T09:36:31Z</time>
      </trkpt>
      <trkpt lat="46.22229" lon="-1.52428">
        <ele>3.5</ele>
        <time>2016-08-31T09:37:01Z</time>
      </trkpt>
      <trkpt lat="46.22231" lon="-1.52429">
        <ele>3.5</ele>
        <time>2016-08-31T09:37:09Z</time>
      </trkpt>
      <trkpt lat="46.2224" lon="-1.52432">
        <ele>3.02</ele>
        <time>2016-08-31T09:37:16Z</time>
      </trkpt>
      <trkpt lat="46.22262" lon="-1.52449">
        <ele>2.54</ele>
        <time>2016-08-31T09:37:25Z</time>
      </trkpt>
      <trkpt lat="46.2229" lon="-1.52489">
        <ele>3.02</ele>
        <time>2016-08-31T09:37:36Z</time>
      </trkpt>
      <trkpt lat="46.22294" lon="-1.52493">
        <ele>2.54</ele>
        <time>2016-08-31T09:37:37Z</time>
      </trkpt>
      <trkpt lat="46.22298" lon="-1.52495">
        <ele>2.06</ele>
        <time>2016-08-31T09:37:38Z</time>
      </trkpt>
      <trkpt lat="46.22358" lon="-1.52532">
        <ele>2.54</ele>
        <time>2016-08-31T09:37:53Z</time>
      </trkpt>
      <trkpt lat="46.22391" lon="-1.52565">
        <ele>2.06</ele>
        <time>2016-08-31T09:38:02Z</time>
      </trkpt>
      <trkpt lat="46.2242" lon="-1.52616">
        <ele>3.02</ele>
        <time>2016-08-31T09:38:12Z</time>
      </trkpt>
      <trkpt lat="46.22428" lon="-1.52634">
        <ele>2.06</ele>
        <time>2016-08-31T09:38:15Z</time>
      </trkpt>
      <trkpt lat="46.22443" lon="-1.52661">
        <ele>2.06</ele>
        <time>2016-08-31T09:38:20Z</time>
      </trkpt>
      <trkpt lat="46.22449" lon="-1.52671">
        <ele>2.06</ele>
        <time>2016-08-31T09:38:22Z</time>
      </trkpt>
      <trkpt lat="46.22452" lon="-1.52677">
        <ele>2.54</ele>
        <time>2016-08-31T09:38:23Z</time>
      </trkpt>
      <trkpt lat="46.22476" lon="-1.52759">
        <ele>1.58</ele>
        <time>2016-08-31T09:38:36Z</time>
      </trkpt>
      <trkpt lat="46.22499" lon="-1.52818">
        <ele>1.58</ele>
        <time>2016-08-31T09:38:48Z</time>
      </trkpt>
      <trkpt lat="46.22538" lon="-1.52896">
        <ele>1.58</ele>
        <time>2016-08-31T09:39:02Z</time>
      </trkpt>
      <trkpt lat="46.22545" lon="-1.52912">
        <ele>1.58</ele>
        <time>2016-08-31T09:39:05Z</time>
      </trkpt>
      <trkpt lat="46.22545" lon="-1.52918">
        <ele>2.06</ele>
        <time>2016-08-31T09:39:06Z</time>
      </trkpt>
      <trkpt lat="46.22543" lon="-1.52924">
        <ele>1.58</ele>
        <time>2016-08-31T09:39:07Z</time>
      </trkpt>
      <trkpt lat="46.2254" lon="-1.52928">
        <ele>1.58</ele>
        <time>2016-08-31T09:39:08Z</time>
      </trkpt>
      <trkpt lat="46.22536" lon="-1.52933">
        <ele>1.58</ele>
        <time>2016-08-31T09:39:09Z</time>
      </trkpt>
      <trkpt lat="46.22533" lon="-1.52938">
        <ele>1.1</ele>
        <time>2016-08-31T09:39:10Z</time>
      </trkpt>
      <trkpt lat="46.22495" lon="-1.52991">
        <ele>1.58</ele>
        <time>2016-08-31T09:39:21Z</time>
      </trkpt>
      <trkpt lat="46.22446" lon="-1.53058">
        <ele>1.58</ele>
        <time>2016-08-31T09:39:35Z</time>
      </trkpt>
      <trkpt lat="46.22386" lon="-1.5314">
        <ele>1.1</ele>
        <time>2016-08-31T09:39:52Z</time>
      </trkpt>
      <trkpt lat="46.22342" lon="-1.53202">
        <ele>2.06</ele>
        <time>2016-08-31T09:40:05Z</time>
      </trkpt>
      <trkpt lat="46.22301" lon="-1.53257">
        <ele>2.06</ele>
        <time>2016-08-31T09:40:18Z</time>
      </trkpt>
      <trkpt lat="46.22285" lon="-1.53282">
        <ele>2.06</ele>
        <time>2016-08-31T09:40:27Z</time>
      </trkpt>
      <trkpt lat="46.22279" lon="-1.53299">
        <ele>2.54</ele>
        <time>2016-08-31T09:40:36Z</time>
      </trkpt>
      <trkpt lat="46.22257" lon="-1.53339">
        <ele>2.06</ele>
        <time>2016-08-31T09:40:45Z</time>
      </trkpt>
      <trkpt lat="46.22217" lon="-1.53394">
        <ele>2.06</ele>
        <time>2016-08-31T09:40:57Z</time>
      </trkpt>
      <trkpt lat="46.22187" lon="-1.5344">
        <ele>2.06</ele>
        <time>2016-08-31T09:41:08Z</time>
      </trkpt>
      <trkpt lat="46.22188" lon="-1.53444">
        <ele>2.06</ele>
        <time>2016-08-31T09:41:09Z</time>
      </trkpt>
      <trkpt lat="46.22191" lon="-1.53449">
        <ele>2.54</ele>
        <time>2016-08-31T09:41:10Z</time>
      </trkpt>
      <trkpt lat="46.22233" lon="-1.5351">
        <ele>0.62</ele>
        <time>2016-08-31T09:41:23Z</time>
      </trkpt>
      <trkpt lat="46.22284" lon="-1.53597">
        <ele>1.1</ele>
        <time>2016-08-31T09:41:39Z</time>
      </trkpt>
      <trkpt lat="46.22311" lon="-1.5365">
        <ele>0.62</ele>
        <time>2016-08-31T09:41:48Z</time>
      </trkpt>
      <trkpt lat="46.2232" lon="-1.53674">
        <ele>0.62</ele>
        <time>2016-08-31T09:41:52Z</time>
      </trkpt>
      <trkpt lat="46.22339" lon="-1.53721">
        <ele>1.1</ele>
        <time>2016-08-31T09:42:00Z</time>
      </trkpt>
      <trkpt lat="46.22341" lon="-1.53727">
        <ele>1.1</ele>
        <time>2016-08-31T09:42:01Z</time>
      </trkpt>
      <trkpt lat="46.22352" lon="-1.53751">
        <ele>1.1</ele>
        <time>2016-08-31T09:42:05Z</time>
      </trkpt>
      <trkpt lat="46.22355" lon="-1.53756">
        <ele>1.1</ele>
        <time>2016-08-31T09:42:06Z</time>
      </trkpt>
      <trkpt lat="46.22358" lon="-1.53761">
        <ele>1.1</ele>
        <time>2016-08-31T09:42:07Z</time>
      </trkpt>
      <trkpt lat="46.22361" lon="-1.53766">
        <ele>1.58</ele>
        <time>2016-08-31T09:42:08Z</time>
      </trkpt>
      <trkpt lat="46.22365" lon="-1.53771">
        <ele>1.1</ele>
        <time>2016-08-31T09:42:09Z</time>
      </trkpt>
      <trkpt lat="46.22368" lon="-1.53776">
        <ele>1.1</ele>
        <time>2016-08-31T09:42:10Z</time>
      </trkpt>
      <trkpt lat="46.22384" lon="-1.538">
        <ele>1.1</ele>
        <time>2016-08-31T09:42:15Z</time>
      </trkpt>
      <trkpt lat="46.22386" lon="-1.53805">
        <ele>1.58</ele>
        <time>2016-08-31T09:42:16Z</time>
      </trkpt>
      <trkpt lat="46.22389" lon="-1.5381">
        <ele>1.58</ele>
        <time>2016-08-31T09:42:17Z</time>
      </trkpt>
      <trkpt lat="46.22423" lon="-1.53844">
        <ele>2.06</ele>
        <time>2016-08-31T09:42:28Z</time>
      </trkpt>
      <trkpt lat="46.22429" lon="-1.53849">
        <ele>2.06</ele>
        <time>2016-08-31T09:42:35Z</time>
      </trkpt>
      <trkpt lat="46.22429" lon="-1.5385">
        <ele>2.54</ele>
        <time>2016-08-31T09:42:40Z</time>
      </trkpt>
      <trkpt lat="46.22425" lon="-1.5385">
        <ele>2.06</ele>
        <time>2016-08-31T09:42:43Z</time>
      </trkpt>
      <trkpt lat="46.22423" lon="-1.53851">
        <ele>2.06</ele>
        <time>2016-08-31T09:42:44Z</time>
      </trkpt>
      <trkpt lat="46.22422" lon="-1.53852">
        <ele>2.06</ele>
        <time>2016-08-31T09:42:45Z</time>
      </trkpt>
      <trkpt lat="46.22398" lon="-1.53864">
        <ele>2.06</ele>
        <time>2016-08-31T09:42:52Z</time>
      </trkpt>
      <trkpt lat="46.22394" lon="-1.53866">
        <ele>2.06</ele>
        <time>2016-08-31T09:42:53Z</time>
      </trkpt>
      <trkpt lat="46.22337" lon="-1.53898">
        <ele>3.02</ele>
        <time>2016-08-31T09:43:07Z</time>
      </trkpt>
      <trkpt lat="46.2231" lon="-1.53922">
        <ele>3.02</ele>
        <time>2016-08-31T09:43:14Z</time>
      </trkpt>
      <trkpt lat="46.22307" lon="-1.53927">
        <ele>3.02</ele>
        <time>2016-08-31T09:43:15Z</time>
      </trkpt>
      <trkpt lat="46.22268" lon="-1.5399">
        <ele>2.54</ele>
        <time>2016-08-31T09:43:27Z</time>
      </trkpt>
      <trkpt lat="46.22246" lon="-1.54028">
        <ele>2.54</ele>
        <time>2016-08-31T09:43:34Z</time>
      </trkpt>
      <trkpt lat="46.22245" lon="-1.54035">
        <ele>2.54</ele>
        <time>2016-08-31T09:43:35Z</time>
      </trkpt>
      <trkpt lat="46.22231" lon="-1.54092">
        <ele>2.06</ele>
        <time>2016-08-31T09:43:44Z</time>
      </trkpt>
      <trkpt lat="46.22232" lon="-1.54098">
        <ele>2.54</ele>
        <time>2016-08-31T09:43:45Z</time>
      </trkpt>
      <trkpt lat="46.22234" lon="-1.54103">
        <ele>2.54</ele>
        <time>2016-08-31T09:43:46Z</time>
      </trkpt>
      <trkpt lat="46.22237" lon="-1.54107">
        <ele>2.54</ele>
        <time>2016-08-31T09:43:47Z</time>
      </trkpt>
      <trkpt lat="46.2224" lon="-1.54111">
        <ele>2.54</ele>
        <time>2016-08-31T09:43:48Z</time>
      </trkpt>
      <trkpt lat="46.22244" lon="-1.54115">
        <ele>3.02</ele>
        <time>2016-08-31T09:43:49Z</time>
      </trkpt>
      <trkpt lat="46.223" lon="-1.54166">
        <ele>2.06</ele>
        <time>2016-08-31T09:44:03Z</time>
      </trkpt>
      <trkpt lat="46.22353" lon="-1.54217">
        <ele>0.62</ele>
        <time>2016-08-31T09:44:15Z</time>
      </trkpt>
      <trkpt lat="46.22395" lon="-1.54262">
        <ele>0.62</ele>
        <time>2016-08-31T09:44:25Z</time>
      </trkpt>
      <trkpt lat="46.224" lon="-1.54266">
        <ele>0.62</ele>
        <time>2016-08-31T09:44:26Z</time>
      </trkpt>
      <trkpt lat="46.22449" lon="-1.54309">
        <ele>0.14</ele>
        <time>2016-08-31T09:44:37Z</time>
      </trkpt>
      <trkpt lat="46.22492" lon="-1.54351">
        <ele>0.14</ele>
        <time>2016-08-31T09:44:47Z</time>
      </trkpt>
      <trkpt lat="46.22559" lon="-1.54412">
        <ele>-0.34</ele>
        <time>2016-08-31T09:45:02Z</time>
      </trkpt>
      <trkpt lat="46.22614" lon="-1.54469">
        <ele>0.14</ele>
        <time>2016-08-31T09:45:16Z</time>
      </trkpt>
      <trkpt lat="46.22668" lon="-1.54529">
        <ele>0.62</ele>
        <time>2016-08-31T09:45:30Z</time>
      </trkpt>
      <trkpt lat="46.22701" lon="-1.54569">
        <ele>0.14</ele>
        <time>2016-08-31T09:45:39Z</time>
      </trkpt>
      <trkpt lat="46.22751" lon="-1.54625">
        <ele>0.14</ele>
        <time>2016-08-31T09:45:52Z</time>
      </trkpt>
      <trkpt lat="46.228" lon="-1.54674">
        <ele>0.14</ele>
        <time>2016-08-31T09:46:05Z</time>
      </trkpt>
      <trkpt lat="46.22813" lon="-1.54676">
        <ele>1.58</ele>
        <time>2016-08-31T09:46:09Z</time>
      </trkpt>
      <trkpt lat="46.22814" lon="-1.54675">
        <ele>1.58</ele>
        <time>2016-08-31T09:46:10Z</time>
      </trkpt>
      <trkpt lat="46.22826" lon="-1.54662">
        <ele>1.1</ele>
        <time>2016-08-31T09:46:20Z</time>
      </trkpt>
      <trkpt lat="46.22861" lon="-1.54622">
        <ele>0.62</ele>
        <time>2016-08-31T09:46:32Z</time>
      </trkpt>
      <trkpt lat="46.22884" lon="-1.54603">
        <ele>1.1</ele>
        <time>2016-08-31T09:46:40Z</time>
      </trkpt>
      <trkpt lat="46.22886" lon="-1.54602">
        <ele>-15.24</ele>
        <time>2016-08-31T09:46:43Z</time>
      </trkpt>
      <trkpt lat="46.22886" lon="-1.54602">
        <ele>2.54</ele>
        <time>2016-08-31T09:46:44Z</time>
      </trkpt>
      <trkpt lat="46.22886" lon="-1.54602">
        <ele>-1.3</ele>
        <time>2016-08-31T09:46:45Z</time>
      </trkpt>
      <trkpt lat="46.22886" lon="-1.54602">
        <ele>1.58</ele>
        <time>2016-08-31T09:46:46Z</time>
      </trkpt>
      <trkpt lat="46.22887" lon="-1.54602">
        <ele>-6.59</ele>
        <time>2016-08-31T09:46:48Z</time>
      </trkpt>
      <trkpt lat="46.22887" lon="-1.54602">
        <ele>3.5</ele>
        <time>2016-08-31T09:46:49Z</time>
      </trkpt>
      <trkpt lat="46.22887" lon="-1.54602">
        <ele>-0.34</ele>
        <time>2016-08-31T09:46:50Z</time>
      </trkpt>
      <trkpt lat="46.22887" lon="-1.54602">
        <ele>13.6</ele>
        <time>2016-08-31T09:46:51Z</time>
      </trkpt>
      <trkpt lat="46.22887" lon="-1.54602">
        <ele>0.62</ele>
        <time>2016-08-31T09:46:52Z</time>
      </trkpt>
      <trkpt lat="46.22887" lon="-1.54603">
        <ele>0.62</ele>
        <time>2016-08-31T09:46:53Z</time>
      </trkpt>
      <trkpt lat="46.22888" lon="-1.54604">
        <ele>0.62</ele>
        <time>2016-08-31T09:46:54Z</time>
      </trkpt>
      <trkpt lat="46.22888" lon="-1.54607">
        <ele>0.62</ele>
        <time>2016-08-31T09:46:55Z</time>
      </trkpt>
      <trkpt lat="46.2289" lon="-1.54609">
        <ele>0.62</ele>
        <time>2016-08-31T09:46:56Z</time>
      </trkpt>
      <trkpt lat="46.22892" lon="-1.54612">
        <ele>0.14</ele>
        <time>2016-08-31T09:46:57Z</time>
      </trkpt>
      <trkpt lat="46.229" lon="-1.54625">
        <ele>0.62</ele>
        <time>2016-08-31T09:47:00Z</time>
      </trkpt>
      <trkpt lat="46.22903" lon="-1.54629">
        <ele>-3.23</ele>
        <time>2016-08-31T09:47:01Z</time>
      </trkpt>
      <trkpt lat="46.22906" lon="-1.54633">
        <ele>0.14</ele>
        <time>2016-08-31T09:47:02Z</time>
      </trkpt>
      <trkpt lat="46.22943" lon="-1.54683">
        <ele>0.14</ele>
        <time>2016-08-31T09:47:13Z</time>
      </trkpt>
      <trkpt lat="46.22998" lon="-1.54759">
        <ele>-0.82</ele>
        <time>2016-08-31T09:47:28Z</time>
      </trkpt>
      <trkpt lat="46.23057" lon="-1.54843">
        <ele>-0.34</ele>
        <time>2016-08-31T09:47:44Z</time>
      </trkpt>
      <trkpt lat="46.23121" lon="-1.54931">
        <ele>-0.34</ele>
        <time>2016-08-31T09:48:01Z</time>
      </trkpt>
      <trkpt lat="46.23171" lon="-1.54998">
        <ele>-0.34</ele>
        <time>2016-08-31T09:48:15Z</time>
      </trkpt>
      <trkpt lat="46.23224" lon="-1.55073">
        <ele>-0.82</ele>
        <time>2016-08-31T09:48:30Z</time>
      </trkpt>
      <trkpt lat="46.23279" lon="-1.55149">
        <ele>-0.82</ele>
        <time>2016-08-31T09:48:46Z</time>
      </trkpt>
      <trkpt lat="46.23326" lon="-1.55215">
        <ele>0.14</ele>
        <time>2016-08-31T09:49:00Z</time>
      </trkpt>
      <trkpt lat="46.23376" lon="-1.55284">
        <ele>0.14</ele>
        <time>2016-08-31T09:49:15Z</time>
      </trkpt>
      <trkpt lat="46.23444" lon="-1.55381">
        <ele>-1.3</ele>
        <time>2016-08-31T09:49:34Z</time>
      </trkpt>
      <trkpt lat="46.23508" lon="-1.5547">
        <ele>-1.3</ele>
        <time>2016-08-31T09:49:51Z</time>
      </trkpt>
      <trkpt lat="46.2356" lon="-1.55531">
        <ele>-1.79</ele>
        <time>2016-08-31T09:50:04Z</time>
      </trkpt>
      <trkpt lat="46.2363" lon="-1.55608">
        <ele>-1.3</ele>
        <time>2016-08-31T09:50:21Z</time>
      </trkpt>
      <trkpt lat="46.23702" lon="-1.55688">
        <ele>-1.79</ele>
        <time>2016-08-31T09:50:39Z</time>
      </trkpt>
      <trkpt lat="46.23757" lon="-1.55749">
        <ele>-1.3</ele>
        <time>2016-08-31T09:50:53Z</time>
      </trkpt>
      <trkpt lat="46.23814" lon="-1.55811">
        <ele>-3.71</ele>
        <time>2016-08-31T09:51:08Z</time>
      </trkpt>
      <trkpt lat="46.23821" lon="-1.55819">
        <ele>-3.71</ele>
        <time>2016-08-31T09:51:10Z</time>
      </trkpt>
      <trkpt lat="46.23824" lon="-1.55823">
        <ele>0.14</ele>
        <time>2016-08-31T09:51:11Z</time>
      </trkpt>
      <trkpt lat="46.23876" lon="-1.55881">
        <ele>-1.3</ele>
        <time>2016-08-31T09:51:25Z</time>
      </trkpt>
      <trkpt lat="46.2392" lon="-1.55922">
        <ele>-1.3</ele>
        <time>2016-08-31T09:51:37Z</time>
      </trkpt>
      <trkpt lat="46.23988" lon="-1.5597">
        <ele>-1.3</ele>
        <time>2016-08-31T09:51:53Z</time>
      </trkpt>
      <trkpt lat="46.24038" lon="-1.56">
        <ele>-1.3</ele>
        <time>2016-08-31T09:52:04Z</time>
      </trkpt>
      <trkpt lat="46.24101" lon="-1.56043">
        <ele>-0.82</ele>
        <time>2016-08-31T09:52:19Z</time>
      </trkpt>
      <trkpt lat="46.24112" lon="-1.5605">
        <ele>-1.3</ele>
        <time>2016-08-31T09:52:22Z</time>
      </trkpt>
      <trkpt lat="46.24117" lon="-1.56052">
        <ele>-1.3</ele>
        <time>2016-08-31T09:52:23Z</time>
      </trkpt>
      <trkpt lat="46.24122" lon="-1.56053">
        <ele>-0.82</ele>
        <time>2016-08-31T09:52:24Z</time>
      </trkpt>
      <trkpt lat="46.24127" lon="-1.56054">
        <ele>-0.82</ele>
        <time>2016-08-31T09:52:25Z</time>
      </trkpt>
      <trkpt lat="46.24132" lon="-1.56054">
        <ele>-0.82</ele>
        <time>2016-08-31T09:52:26Z</time>
      </trkpt>
      <trkpt lat="46.24137" lon="-1.56054">
        <ele>-0.82</ele>
        <time>2016-08-31T09:52:27Z</time>
      </trkpt>
      <trkpt lat="46.24202" lon="-1.56042">
        <ele>-0.82</ele>
        <time>2016-08-31T09:52:40Z</time>
      </trkpt>
      <trkpt lat="46.24208" lon="-1.56041">
        <ele>-0.34</ele>
        <time>2016-08-31T09:52:42Z</time>
      </trkpt>
      <trkpt lat="46.2421" lon="-1.56038">
        <ele>-0.34</ele>
        <time>2016-08-31T09:52:43Z</time>
      </trkpt>
      <trkpt lat="46.24212" lon="-1.56034">
        <ele>-0.34</ele>
        <time>2016-08-31T09:52:44Z</time>
      </trkpt>
      <trkpt lat="46.24213" lon="-1.5603">
        <ele>-0.82</ele>
        <time>2016-08-31T09:52:45Z</time>
      </trkpt>
      <trkpt lat="46.24214" lon="-1.56025">
        <ele>-0.82</ele>
        <time>2016-08-31T09:52:46Z</time>
      </trkpt>
      <trkpt lat="46.24215" lon="-1.56019">
        <ele>-0.82</ele>
        <time>2016-08-31T09:52:47Z</time>
      </trkpt>
      <trkpt lat="46.24215" lon="-1.56014">
        <ele>-0.82</ele>
        <time>2016-08-31T09:52:48Z</time>
      </trkpt>
      <trkpt lat="46.24216" lon="-1.56008">
        <ele>-1.3</ele>
        <time>2016-08-31T09:52:49Z</time>
      </trkpt>
      <trkpt lat="46.24218" lon="-1.56002">
        <ele>-0.82</ele>
        <time>2016-08-31T09:52:50Z</time>
      </trkpt>
      <trkpt lat="46.24226" lon="-1.55978">
        <ele>-0.82</ele>
        <time>2016-08-31T09:52:54Z</time>
      </trkpt>
      <trkpt lat="46.24229" lon="-1.55973">
        <ele>-0.82</ele>
        <time>2016-08-31T09:52:55Z</time>
      </trkpt>
      <trkpt lat="46.24233" lon="-1.55968">
        <ele>-1.3</ele>
        <time>2016-08-31T09:52:56Z</time>
      </trkpt>
      <trkpt lat="46.24236" lon="-1.55963">
        <ele>-0.82</ele>
        <time>2016-08-31T09:52:57Z</time>
      </trkpt>
      <trkpt lat="46.2424" lon="-1.55959">
        <ele>-1.79</ele>
        <time>2016-08-31T09:52:58Z</time>
      </trkpt>
      <trkpt lat="46.24244" lon="-1.55955">
        <ele>-1.3</ele>
        <time>2016-08-31T09:52:59Z</time>
      </trkpt>
      <trkpt lat="46.24249" lon="-1.55951">
        <ele>-1.79</ele>
        <time>2016-08-31T09:53:00Z</time>
      </trkpt>
      <trkpt lat="46.24295" lon="-1.5591">
        <ele>-1.3</ele>
        <time>2016-08-31T09:53:13Z</time>
      </trkpt>
      <trkpt lat="46.24309" lon="-1.55899">
        <ele>-0.82</ele>
        <time>2016-08-31T09:53:20Z</time>
      </trkpt>
      <trkpt lat="46.24311" lon="-1.55899">
        <ele>-1.3</ele>
        <time>2016-08-31T09:53:21Z</time>
      </trkpt>
      <trkpt lat="46.24313" lon="-1.559">
        <ele>-1.79</ele>
        <time>2016-08-31T09:53:22Z</time>
      </trkpt>
      <trkpt lat="46.2432" lon="-1.55906">
        <ele>-0.82</ele>
        <time>2016-08-31T09:53:29Z</time>
      </trkpt>
      <trkpt lat="46.24317" lon="-1.55902">
        <ele>-0.82</ele>
        <time>2016-08-31T09:53:35Z</time>
      </trkpt>
      <trkpt lat="46.24311" lon="-1.55898">
        <ele>-1.3</ele>
        <time>2016-08-31T09:53:40Z</time>
      </trkpt>
      <trkpt lat="46.2431" lon="-1.55896">
        <ele>-0.34</ele>
        <time>2016-08-31T09:53:41Z</time>
      </trkpt>
      <trkpt lat="46.24309" lon="-1.55894">
        <ele>-0.82</ele>
        <time>2016-08-31T09:53:42Z</time>
      </trkpt>
      <trkpt lat="46.24308" lon="-1.55893">
        <ele>-0.82</ele>
        <time>2016-08-31T09:53:43Z</time>
      </trkpt>
      <trkpt lat="46.24307" lon="-1.55893">
        <ele>-0.34</ele>
        <time>2016-08-31T09:53:51Z</time>
      </trkpt>
      <trkpt lat="46.24307" lon="-1.55894">
        <ele>-1.3</ele>
        <time>2016-08-31T09:54:07Z</time>
      </trkpt>
      <trkpt lat="46.24307" lon="-1.55896">
        <ele>-0.82</ele>
        <time>2016-08-31T09:54:20Z</time>
      </trkpt>
      <trkpt lat="46.24308" lon="-1.55901">
        <ele>-1.3</ele>
        <time>2016-08-31T09:54:24Z</time>
      </trkpt>
      <trkpt lat="46.24309" lon="-1.55902">
        <ele>-1.3</ele>
        <time>2016-08-31T09:54:31Z</time>
      </trkpt>
      <trkpt lat="46.24309" lon="-1.55904">
        <ele>-1.3</ele>
        <time>2016-08-31T09:54:45Z</time>
      </trkpt>
      <trkpt lat="46.24309" lon="-1.55904">
        <ele>-0.82</ele>
        <time>2016-08-31T09:55:15Z</time>
      </trkpt>
      <trkpt lat="46.24309" lon="-1.55904">
        <ele>-0.34</ele>
        <time>2016-08-31T09:55:39Z</time>
      </trkpt>
      <trkpt lat="46.24309" lon="-1.55904">
        <ele>-0.34</ele>
        <time>2016-08-31T09:55:54Z</time>
      </trkpt>
      <trkpt lat="46.2431" lon="-1.55904">
        <ele>-0.82</ele>
        <time>2016-08-31T09:56:14Z</time>
      </trkpt>
      <trkpt lat="46.2431" lon="-1.55904">
        <ele>-0.82</ele>
        <time>2016-08-31T09:56:33Z</time>
      </trkpt>
      <trkpt lat="46.2431" lon="-1.55905">
        <ele>-1.3</ele>
        <time>2016-08-31T09:56:58Z</time>
      </trkpt>
      <trkpt lat="46.2431" lon="-1.55904">
        <ele>-0.82</ele>
        <time>2016-08-31T09:57:26Z</time>
      </trkpt>
      <trkpt lat="46.24309" lon="-1.55904">
        <ele>-0.82</ele>
        <time>2016-08-31T09:57:55Z</time>
      </trkpt>
      <trkpt lat="46.24309" lon="-1.55903">
        <ele>-0.82</ele>
        <time>2016-08-31T09:58:04Z</time>
      </trkpt>
      <trkpt lat="46.24313" lon="-1.55905">
        <ele>1.58</ele>
        <time>2016-08-31T09:58:15Z</time>
      </trkpt>
      <trkpt lat="46.24315" lon="-1.55905">
        <ele>-0.34</ele>
        <time>2016-08-31T09:58:16Z</time>
      </trkpt>
      <trkpt lat="46.24318" lon="-1.55911">
        <ele>-0.34</ele>
        <time>2016-08-31T09:58:25Z</time>
      </trkpt>
      <trkpt lat="46.24318" lon="-1.55912">
        <ele>-2.75</ele>
        <time>2016-08-31T09:58:26Z</time>
      </trkpt>
      <trkpt lat="46.24317" lon="-1.55913">
        <ele>1.1</ele>
        <time>2016-08-31T09:58:27Z</time>
      </trkpt>
      <trkpt lat="46.24321" lon="-1.5592">
        <ele>4.94</ele>
        <time>2016-08-31T09:58:35Z</time>
      </trkpt>
      <trkpt lat="46.24322" lon="-1.5592">
        <ele>1.1</ele>
        <time>2016-08-31T09:58:36Z</time>
      </trkpt>
      <trkpt lat="46.24323" lon="-1.55923">
        <ele>-0.34</ele>
        <time>2016-08-31T09:58:38Z</time>
      </trkpt>
      <trkpt lat="46.24328" lon="-1.55932">
        <ele>0.14</ele>
        <time>2016-08-31T09:58:47Z</time>
      </trkpt>
      <trkpt lat="46.24334" lon="-1.5594">
        <ele>0.14</ele>
        <time>2016-08-31T09:58:56Z</time>
      </trkpt>
      <trkpt lat="46.24335" lon="-1.55941">
        <ele>-0.34</ele>
        <time>2016-08-31T09:58:57Z</time>
      </trkpt>
      <trkpt lat="46.24343" lon="-1.55953">
        <ele>0.14</ele>
        <time>2016-08-31T09:59:08Z</time>
      </trkpt>
      <trkpt lat="46.24345" lon="-1.55957">
        <ele>0.14</ele>
        <time>2016-08-31T09:59:17Z</time>
      </trkpt>
      <trkpt lat="46.24348" lon="-1.55963">
        <ele>-0.34</ele>
        <time>2016-08-31T09:59:28Z</time>
      </trkpt>
      <trkpt lat="46.24353" lon="-1.55973">
        <ele>-0.34</ele>
        <time>2016-08-31T09:59:38Z</time>
      </trkpt>
      <trkpt lat="46.24356" lon="-1.55981">
        <ele>0.14</ele>
        <time>2016-08-31T09:59:47Z</time>
      </trkpt>
      <trkpt lat="46.24363" lon="-1.5599">
        <ele>-0.34</ele>
        <time>2016-08-31T09:59:56Z</time>
      </trkpt>
      <trkpt lat="46.24365" lon="-1.55994">
        <ele>-0.34</ele>
        <time>2016-08-31T10:00:06Z</time>
      </trkpt>
      <trkpt lat="46.24364" lon="-1.55995">
        <ele>-0.34</ele>
        <time>2016-08-31T10:00:22Z</time>
      </trkpt>
      <trkpt lat="46.24364" lon="-1.55995">
        <ele>0.14</ele>
        <time>2016-08-31T10:00:29Z</time>
      </trkpt>
      <trkpt lat="46.24368" lon="-1.56002">
        <ele>0.14</ele>
        <time>2016-08-31T10:00:37Z</time>
      </trkpt>
      <trkpt lat="46.24373" lon="-1.5601">
        <ele>0.62</ele>
        <time>2016-08-31T10:00:46Z</time>
      </trkpt>
      <trkpt lat="46.24374" lon="-1.56013">
        <ele>0.14</ele>
        <time>2016-08-31T10:01:01Z</time>
      </trkpt>
      <trkpt lat="46.24377" lon="-1.56019">
        <ele>0.14</ele>
        <time>2016-08-31T10:01:07Z</time>
      </trkpt>
      <trkpt lat="46.24377" lon="-1.5602">
        <ele>0.62</ele>
        <time>2016-08-31T10:01:08Z</time>
      </trkpt>
      <trkpt lat="46.24378" lon="-1.56023">
        <ele>0.62</ele>
        <time>2016-08-31T10:01:10Z</time>
      </trkpt>
      <trkpt lat="46.24381" lon="-1.56027">
        <ele>-3.71</ele>
        <time>2016-08-31T10:01:18Z</time>
      </trkpt>
      <trkpt lat="46.24381" lon="-1.56027">
        <ele>-1.3</ele>
        <time>2016-08-31T10:01:19Z</time>
      </trkpt>
      <trkpt lat="46.24381" lon="-1.56028">
        <ele>0.62</ele>
        <time>2016-08-31T10:01:27Z</time>
      </trkpt>
      <trkpt lat="46.24381" lon="-1.56028">
        <ele>0.14</ele>
        <time>2016-08-31T10:01:36Z</time>
      </trkpt>
      <trkpt lat="46.24383" lon="-1.56031">
        <ele>0.62</ele>
        <time>2016-08-31T10:01:52Z</time>
      </trkpt>
      <trkpt lat="46.24384" lon="-1.56033">
        <ele>0.14</ele>
        <time>2016-08-31T10:01:54Z</time>
      </trkpt>
      <trkpt lat="46.24386" lon="-1.5604">
        <ele>0.62</ele>
        <time>2016-08-31T10:02:00Z</time>
      </trkpt>
      <trkpt lat="46.24386" lon="-1.56045">
        <ele>0.62</ele>
        <time>2016-08-31T10:02:12Z</time>
      </trkpt>
      <trkpt lat="46.24387" lon="-1.56046">
        <ele>0.14</ele>
        <time>2016-08-31T10:02:26Z</time>
      </trkpt>
      <trkpt lat="46.24389" lon="-1.56053">
        <ele>0.14</ele>
        <time>2016-08-31T10:02:35Z</time>
      </trkpt>
      <trkpt lat="46.24393" lon="-1.56063">
        <ele>1.1</ele>
        <time>2016-08-31T10:02:45Z</time>
      </trkpt>
      <trkpt lat="46.24397" lon="-1.56071">
        <ele>1.1</ele>
        <time>2016-08-31T10:02:54Z</time>
      </trkpt>
      <trkpt lat="46.24397" lon="-1.56071">
        <ele>1.1</ele>
        <time>2016-08-31T10:03:11Z</time>
      </trkpt>
      <trkpt lat="46.24398" lon="-1.56071">
        <ele>1.1</ele>
        <time>2016-08-31T10:03:25Z</time>
      </trkpt>
      <trkpt lat="46.244" lon="-1.56069">
        <ele>0.62</ele>
        <time>2016-08-31T10:03:38Z</time>
      </trkpt>
      <trkpt lat="46.24401" lon="-1.56068">
        <ele>0.62</ele>
        <time>2016-08-31T10:03:46Z</time>
      </trkpt>
      <trkpt lat="46.24402" lon="-1.56069">
        <ele>1.58</ele>
        <time>2016-08-31T10:04:12Z</time>
      </trkpt>
      <trkpt lat="46.24401" lon="-1.56069">
        <ele>1.1</ele>
        <time>2016-08-31T10:04:35Z</time>
      </trkpt>
      <trkpt lat="46.24402" lon="-1.5607">
        <ele>0.62</ele>
        <time>2016-08-31T10:04:50Z</time>
      </trkpt>
      <trkpt lat="46.24401" lon="-1.56072">
        <ele>1.1</ele>
        <time>2016-08-31T10:05:05Z</time>
      </trkpt>
      <trkpt lat="46.24402" lon="-1.56072">
        <ele>1.1</ele>
        <time>2016-08-31T10:05:24Z</time>
      </trkpt>
      <trkpt lat="46.24402" lon="-1.56072">
        <ele>1.1</ele>
        <time>2016-08-31T10:05:38Z</time>
      </trkpt>
      <trkpt lat="46.24402" lon="-1.56073">
        <ele>1.1</ele>
        <time>2016-08-31T10:05:42Z</time>
      </trkpt>
      <trkpt lat="46.24402" lon="-1.56078">
        <ele>1.1</ele>
        <time>2016-08-31T10:05:45Z</time>
      </trkpt>
      <trkpt lat="46.24402" lon="-1.5608">
        <ele>1.1</ele>
        <time>2016-08-31T10:05:46Z</time>
      </trkpt>
      <trkpt lat="46.24402" lon="-1.56082">
        <ele>1.58</ele>
        <time>2016-08-31T10:05:47Z</time>
      </trkpt>
      <trkpt lat="46.24402" lon="-1.56084">
        <ele>1.1</ele>
        <time>2016-08-31T10:05:48Z</time>
      </trkpt>
      <trkpt lat="46.24402" lon="-1.56086">
        <ele>1.1</ele>
        <time>2016-08-31T10:05:49Z</time>
      </trkpt>
      <trkpt lat="46.24401" lon="-1.56087">
        <ele>1.1</ele>
        <time>2016-08-31T10:05:50Z</time>
      </trkpt>
      <trkpt lat="46.24401" lon="-1.56095">
        <ele>0.62</ele>
        <time>2016-08-31T10:05:58Z</time>
      </trkpt>
      <trkpt lat="46.24401" lon="-1.56095">
        <ele>1.58</ele>
        <time>2016-08-31T10:06:01Z</time>
      </trkpt>
      <trkpt lat="46.24401" lon="-1.56097">
        <ele>1.1</ele>
        <time>2016-08-31T10:06:02Z</time>
      </trkpt>
      <trkpt lat="46.24401" lon="-1.56099">
        <ele>1.1</ele>
        <time>2016-08-31T10:06:03Z</time>
      </trkpt>
      <trkpt lat="46.24401" lon="-1.56101">
        <ele>1.58</ele>
        <time>2016-08-31T10:06:04Z</time>
      </trkpt>
      <trkpt lat="46.24402" lon="-1.56102">
        <ele>1.58</ele>
        <time>2016-08-31T10:06:05Z</time>
      </trkpt>
      <trkpt lat="46.24402" lon="-1.56104">
        <ele>1.58</ele>
        <time>2016-08-31T10:06:06Z</time>
      </trkpt>
      <trkpt lat="46.24403" lon="-1.56106">
        <ele>1.58</ele>
        <time>2016-08-31T10:06:07Z</time>
      </trkpt>
      <trkpt lat="46.24403" lon="-1.56107">
        <ele>2.06</ele>
        <time>2016-08-31T10:06:08Z</time>
      </trkpt>
      <trkpt lat="46.24411" lon="-1.56112">
        <ele>1.58</ele>
        <time>2016-08-31T10:06:15Z</time>
      </trkpt>
      <trkpt lat="46.24411" lon="-1.56113">
        <ele>1.58</ele>
        <time>2016-08-31T10:06:16Z</time>
      </trkpt>
      <trkpt lat="46.24412" lon="-1.56115">
        <ele>1.58</ele>
        <time>2016-08-31T10:06:18Z</time>
      </trkpt>
      <trkpt lat="46.24413" lon="-1.56116">
        <ele>2.54</ele>
        <time>2016-08-31T10:06:26Z</time>
      </trkpt>
      <trkpt lat="46.24413" lon="-1.56116">
        <ele>2.06</ele>
        <time>2016-08-31T10:06:44Z</time>
      </trkpt>
      <trkpt lat="46.24412" lon="-1.56114">
        <ele>2.06</ele>
        <time>2016-08-31T10:06:59Z</time>
      </trkpt>
      <trkpt lat="46.24411" lon="-1.56118">
        <ele>0.62</ele>
        <time>2016-08-31T10:07:11Z</time>
      </trkpt>
      <trkpt lat="46.24411" lon="-1.5612">
        <ele>3.02</ele>
        <time>2016-08-31T10:07:12Z</time>
      </trkpt>
      <trkpt lat="46.24412" lon="-1.56124">
        <ele>3.02</ele>
        <time>2016-08-31T10:07:13Z</time>
      </trkpt>
      <trkpt lat="46.24412" lon="-1.56128">
        <ele>1.58</ele>
        <time>2016-08-31T10:07:14Z</time>
      </trkpt>
      <trkpt lat="46.24413" lon="-1.56134">
        <ele>-1.79</ele>
        <time>2016-08-31T10:07:15Z</time>
      </trkpt>
      <trkpt lat="46.24413" lon="-1.56136">
        <ele>1.58</ele>
        <time>2016-08-31T10:07:16Z</time>
      </trkpt>
      <trkpt lat="46.24423" lon="-1.56205">
        <ele>1.1</ele>
        <time>2016-08-31T10:07:25Z</time>
      </trkpt>
      <trkpt lat="46.24437" lon="-1.56316">
        <ele>1.1</ele>
        <time>2016-08-31T10:07:40Z</time>
      </trkpt>
      <trkpt lat="46.24437" lon="-1.56329">
        <ele>-4.67</ele>
        <time>2016-08-31T10:07:42Z</time>
      </trkpt>
      <trkpt lat="46.24439" lon="-1.56201">
        <ele>-1.3</ele>
        <time>2016-08-31T10:07:43Z</time>
      </trkpt>
      <trkpt lat="46.24439" lon="-1.56201">
        <ele>1.58</ele>
        <time>2016-08-31T10:07:44Z</time>
      </trkpt>
      <trkpt lat="46.24446" lon="-1.56442">
        <ele>2.54</ele>
        <time>2016-08-31T10:08:03Z</time>
      </trkpt>
      <trkpt lat="46.24449" lon="-1.56451">
        <ele>2.06</ele>
        <time>2016-08-31T10:08:05Z</time>
      </trkpt>
      <trkpt lat="46.24453" lon="-1.56447">
        <ele>1.58</ele>
        <time>2016-08-31T10:08:17Z</time>
      </trkpt>
      <trkpt lat="46.24455" lon="-1.56404">
        <ele>-1.79</ele>
        <time>2016-08-31T10:08:30Z</time>
      </trkpt>
      <trkpt lat="46.24454" lon="-1.56401">
        <ele>2.54</ele>
        <time>2016-08-31T10:08:31Z</time>
      </trkpt>
      <trkpt lat="46.24455" lon="-1.56399">
        <ele>3.5</ele>
        <time>2016-08-31T10:08:32Z</time>
      </trkpt>
      <trkpt lat="46.24432" lon="-1.5617">
        <ele>2.06</ele>
        <time>2016-08-31T10:08:47Z</time>
      </trkpt>
      <trkpt lat="46.24428" lon="-1.56138">
        <ele>2.06</ele>
        <time>2016-08-31T10:08:51Z</time>
      </trkpt>
      <trkpt lat="46.24435" lon="-1.5617">
        <ele>2.06</ele>
        <time>2016-08-31T10:09:13Z</time>
      </trkpt>
      <trkpt lat="46.24427" lon="-1.56129">
        <ele>2.06</ele>
        <time>2016-08-31T10:09:31Z</time>
      </trkpt>
      <trkpt lat="46.24425" lon="-1.5613">
        <ele>2.06</ele>
        <time>2016-08-31T10:09:47Z</time>
      </trkpt>
      <trkpt lat="46.24423" lon="-1.56112">
        <ele>2.06</ele>
        <time>2016-08-31T10:10:59Z</time>
      </trkpt>
      <trkpt lat="46.24424" lon="-1.56108">
        <ele>2.06</ele>
        <time>2016-08-31T10:11:07Z</time>
      </trkpt>
      <trkpt lat="46.24427" lon="-1.56107">
        <ele>2.54</ele>
        <time>2016-08-31T10:11:15Z</time>
      </trkpt>
      <trkpt lat="46.24422" lon="-1.56096">
        <ele>2.54</ele>
        <time>2016-08-31T10:11:27Z</time>
      </trkpt>
      <trkpt lat="46.24417" lon="-1.56094">
        <ele>3.5</ele>
        <time>2016-08-31T10:11:44Z</time>
      </trkpt>
      <trkpt lat="46.24417" lon="-1.56095">
        <ele>3.02</ele>
        <time>2016-08-31T10:11:45Z</time>
      </trkpt>
      <trkpt lat="46.24424" lon="-1.56112">
        <ele>6.39</ele>
        <time>2016-08-31T10:11:58Z</time>
      </trkpt>
      <trkpt lat="46.2443" lon="-1.56187">
        <ele>47.24</ele>
        <time>2016-08-31T10:17:42Z</time>
      </trkpt>
      <trkpt lat="46.24418" lon="-1.56112">
        <ele>46.76</ele>
        <time>2016-08-31T10:17:56Z</time>
      </trkpt>
      <trkpt lat="46.24419" lon="-1.56115">
        <ele>46.76</ele>
        <time>2016-08-31T10:18:05Z</time>
      </trkpt>
      <trkpt lat="46.24417" lon="-1.56116">
        <ele>46.76</ele>
        <time>2016-08-31T10:18:21Z</time>
      </trkpt>
      <trkpt lat="46.24418" lon="-1.56114">
        <ele>47.24</ele>
        <time>2016-08-31T10:18:31Z</time>
      </trkpt>
      <trkpt lat="46.2442" lon="-1.56111">
        <ele>47.24</ele>
        <time>2016-08-31T10:18:42Z</time>
      </trkpt>
      <trkpt lat="46.2442" lon="-1.56111">
        <ele>47.24</ele>
        <time>2016-08-31T10:18:58Z</time>
      </trkpt>
      <trkpt lat="46.24419" lon="-1.56114">
        <ele>47.24</ele>
        <time>2016-08-31T10:19:11Z</time>
      </trkpt>
      <trkpt lat="46.24418" lon="-1.56115">
        <ele>47.24</ele>
        <time>2016-08-31T10:19:25Z</time>
      </trkpt>
      <trkpt lat="46.24419" lon="-1.56115">
        <ele>47.24</ele>
        <time>2016-08-31T10:19:36Z</time>
      </trkpt>
      <trkpt lat="46.24419" lon="-1.56115">
        <ele>47.24</ele>
        <time>2016-08-31T10:19:59Z</time>
      </trkpt>
      <trkpt lat="46.24418" lon="-1.56115">
        <ele>47.72</ele>
        <time>2016-08-31T10:20:17Z</time>
      </trkpt>
      <trkpt lat="46.24418" lon="-1.56114">
        <ele>47.24</ele>
        <time>2016-08-31T10:20:38Z</time>
      </trkpt>
      <trkpt lat="46.24419" lon="-1.56113">
        <ele>47.24</ele>
        <time>2016-08-31T10:20:46Z</time>
      </trkpt>
      <trkpt lat="46.24419" lon="-1.56108">
        <ele>47.24</ele>
        <time>2016-08-31T10:20:56Z</time>
      </trkpt>
      <trkpt lat="46.2442" lon="-1.56108">
        <ele>47.24</ele>
        <time>2016-08-31T10:21:21Z</time>
      </trkpt>
      <trkpt lat="46.2442" lon="-1.56109">
        <ele>47.24</ele>
        <time>2016-08-31T10:21:35Z</time>
      </trkpt>
      <trkpt lat="46.24422" lon="-1.56111">
        <ele>47.72</ele>
        <time>2016-08-31T10:21:48Z</time>
      </trkpt>
      <trkpt lat="46.2442" lon="-1.56113">
        <ele>47.24</ele>
        <time>2016-08-31T10:21:59Z</time>
      </trkpt>
      <trkpt lat="46.24419" lon="-1.5611">
        <ele>47.24</ele>
        <time>2016-08-31T10:22:09Z</time>
      </trkpt>
      <trkpt lat="46.24421" lon="-1.5611">
        <ele>47.72</ele>
        <time>2016-08-31T10:22:23Z</time>
      </trkpt>
      <trkpt lat="46.2442" lon="-1.56111">
        <ele>47.72</ele>
        <time>2016-08-31T10:22:42Z</time>
      </trkpt>
      <trkpt lat="46.2442" lon="-1.56112">
        <ele>47.72</ele>
        <time>2016-08-31T10:23:06Z</time>
      </trkpt>
      <trkpt lat="46.24419" lon="-1.56109">
        <ele>48.2</ele>
        <time>2016-08-31T10:23:16Z</time>
      </trkpt>
      <trkpt lat="46.24418" lon="-1.5611">
        <ele>47.72</ele>
        <time>2016-08-31T10:23:36Z</time>
      </trkpt>
      <trkpt lat="46.24417" lon="-1.56111">
        <ele>47.72</ele>
        <time>2016-08-31T10:23:37Z</time>
      </trkpt>
      <trkpt lat="46.24417" lon="-1.56112">
        <ele>47.24</ele>
        <time>2016-08-31T10:23:49Z</time>
      </trkpt>
      <trkpt lat="46.24417" lon="-1.56111">
        <ele>47.72</ele>
        <time>2016-08-31T10:24:07Z</time>
      </trkpt>
      <trkpt lat="46.24418" lon="-1.56112">
        <ele>47.72</ele>
        <time>2016-08-31T10:24:21Z</time>
      </trkpt>
      <trkpt lat="46.24419" lon="-1.56114">
        <ele>47.24</ele>
        <time>2016-08-31T10:24:32Z</time>
      </trkpt>
      <trkpt lat="46.24419" lon="-1.56114">
        <ele>47.24</ele>
        <time>2016-08-31T10:24:46Z</time>
      </trkpt>
      <trkpt lat="46.2442" lon="-1.56114">
        <ele>47.72</ele>
        <time>2016-08-31T10:25:08Z</time>
      </trkpt>
      <trkpt lat="46.2442" lon="-1.56114">
        <ele>47.24</ele>
        <time>2016-08-31T10:25:28Z</time>
      </trkpt>
      <trkpt lat="46.2442" lon="-1.56113">
        <ele>47.72</ele>
        <time>2016-08-31T10:25:42Z</time>
      </trkpt>
      <trkpt lat="46.2442" lon="-1.56114">
        <ele>47.24</ele>
        <time>2016-08-31T10:25:58Z</time>
      </trkpt>
      <trkpt lat="46.2442" lon="-1.56114">
        <ele>47.72</ele>
        <time>2016-08-31T10:26:17Z</time>
      </trkpt>
      <trkpt lat="46.2442" lon="-1.56114">
        <ele>47.24</ele>
        <time>2016-08-31T10:26:35Z</time>
      </trkpt>
      <trkpt lat="46.2442" lon="-1.56114">
        <ele>47.24</ele>
        <time>2016-08-31T10:27:00Z</time>
      </trkpt>
      <trkpt lat="46.2442" lon="-1.56114">
        <ele>47.72</ele>
        <time>2016-08-31T10:27:29Z</time>
      </trkpt>
      <trkpt lat="46.2442" lon="-1.56114">
        <ele>47.72</ele>
        <time>2016-08-31T10:27:48Z</time>
      </trkpt>
      <trkpt lat="46.2442" lon="-1.56113">
        <ele>47.24</ele>
        <time>2016-08-31T10:28:02Z</time>
      </trkpt>
      <trkpt lat="46.2442" lon="-1.56113">
        <ele>47.24</ele>
        <time>2016-08-31T10:28:13Z</time>
      </trkpt>
      <trkpt lat="46.2442" lon="-1.56112">
        <ele>47.72</ele>
        <time>2016-08-31T10:28:29Z</time>
      </trkpt>
      <trkpt lat="46.2442" lon="-1.56112">
        <ele>47.24</ele>
        <time>2016-08-31T10:28:44Z</time>
      </trkpt>
      <trkpt lat="46.2442" lon="-1.56112">
        <ele>41.47</ele>
        <time>2016-08-31T10:28:56Z</time>
      </trkpt>
      <trkpt lat="46.2442" lon="-1.56112">
        <ele>46.76</ele>
        <time>2016-08-31T10:28:57Z</time>
      </trkpt>
      <trkpt lat="46.24419" lon="-1.56112">
        <ele>46.28</ele>
        <time>2016-08-31T10:29:20Z</time>
      </trkpt>
      <trkpt lat="46.24419" lon="-1.56112">
        <ele>45.8</ele>
        <time>2016-08-31T10:29:29Z</time>
      </trkpt>
      <trkpt lat="46.24419" lon="-1.56112">
        <ele>47.72</ele>
        <time>2016-08-31T10:29:31Z</time>
      </trkpt>
      <trkpt lat="46.24419" lon="-1.56112">
        <ele>47.24</ele>
        <time>2016-08-31T10:29:44Z</time>
      </trkpt>
      <trkpt lat="46.24419" lon="-1.56112">
        <ele>47.72</ele>
        <time>2016-08-31T10:30:01Z</time>
      </trkpt>
      <trkpt lat="46.24419" lon="-1.56111">
        <ele>47.24</ele>
        <time>2016-08-31T10:30:21Z</time>
      </trkpt>
      <trkpt lat="46.24419" lon="-1.56111">
        <ele>47.72</ele>
        <time>2016-08-31T10:30:38Z</time>
      </trkpt>
      <trkpt lat="46.24419" lon="-1.56111">
        <ele>47.72</ele>
        <time>2016-08-31T10:30:57Z</time>
      </trkpt>
      <trkpt lat="46.24419" lon="-1.5611">
        <ele>47.72</ele>
        <time>2016-08-31T10:31:18Z</time>
      </trkpt>
      <trkpt lat="46.24419" lon="-1.5611">
        <ele>47.72</ele>
        <time>2016-08-31T10:31:31Z</time>
      </trkpt>
      <trkpt lat="46.24419" lon="-1.5611">
        <ele>47.72</ele>
        <time>2016-08-31T10:31:42Z</time>
      </trkpt>
      <trkpt lat="46.2442" lon="-1.56111">
        <ele>47.72</ele>
        <time>2016-08-31T10:31:54Z</time>
      </trkpt>
      <trkpt lat="46.2442" lon="-1.56112">
        <ele>47.72</ele>
        <time>2016-08-31T10:32:04Z</time>
      </trkpt>
      <trkpt lat="46.24421" lon="-1.5611">
        <ele>47.24</ele>
        <time>2016-08-31T10:32:12Z</time>
      </trkpt>
      <trkpt lat="46.24422" lon="-1.56112">
        <ele>48.2</ele>
        <time>2016-08-31T10:32:30Z</time>
      </trkpt>
      <trkpt lat="46.24421" lon="-1.56112">
        <ele>47.72</ele>
        <time>2016-08-31T10:32:47Z</time>
      </trkpt>
      <trkpt lat="46.24421" lon="-1.56112">
        <ele>47.72</ele>
        <time>2016-08-31T10:33:03Z</time>
      </trkpt>
      <trkpt lat="46.2442" lon="-1.56109">
        <ele>47.72</ele>
        <time>2016-08-31T10:33:17Z</time>
      </trkpt>
      <trkpt lat="46.24419" lon="-1.56109">
        <ele>47.72</ele>
        <time>2016-08-31T10:33:36Z</time>
      </trkpt>
      <trkpt lat="46.24419" lon="-1.56109">
        <ele>47.72</ele>
        <time>2016-08-31T10:33:53Z</time>
      </trkpt>
      <trkpt lat="46.24418" lon="-1.56109">
        <ele>48.2</ele>
        <time>2016-08-31T10:34:00Z</time>
      </trkpt>
      <trkpt lat="46.24418" lon="-1.56111">
        <ele>46.76</ele>
        <time>2016-08-31T10:34:12Z</time>
      </trkpt>
      <trkpt lat="46.24422" lon="-1.56112">
        <ele>44.84</ele>
        <time>2016-08-31T10:34:19Z</time>
      </trkpt>
      <trkpt lat="46.24428" lon="-1.5611">
        <ele>42.92</ele>
        <time>2016-08-31T10:34:24Z</time>
      </trkpt>
      <trkpt lat="46.24424" lon="-1.56111">
        <ele>42.92</ele>
        <time>2016-08-31T10:34:34Z</time>
      </trkpt>
      <trkpt lat="46.24421" lon="-1.56117">
        <ele>42.44</ele>
        <time>2016-08-31T10:34:47Z</time>
      </trkpt>
      <trkpt lat="46.24421" lon="-1.56119">
        <ele>39.07</ele>
        <time>2016-08-31T10:35:02Z</time>
      </trkpt>
      <trkpt lat="46.2442" lon="-1.56119">
        <ele>35.71</ele>
        <time>2016-08-31T10:35:15Z</time>
      </trkpt>
      <trkpt lat="46.24421" lon="-1.5612">
        <ele>34.26</ele>
        <time>2016-08-31T10:35:31Z</time>
      </trkpt>
      <trkpt lat="46.24414" lon="-1.5612">
        <ele>30.9</ele>
        <time>2016-08-31T10:35:47Z</time>
      </trkpt>
      <trkpt lat="46.24414" lon="-1.56118">
        <ele>30.42</ele>
        <time>2016-08-31T10:35:49Z</time>
      </trkpt>
      <trkpt lat="46.24406" lon="-1.56126">
        <ele>26.57</ele>
        <time>2016-08-31T10:35:59Z</time>
      </trkpt>
      <trkpt lat="46.24406" lon="-1.56121">
        <ele>23.69</ele>
        <time>2016-08-31T10:36:09Z</time>
      </trkpt>
      <trkpt lat="46.24407" lon="-1.56121">
        <ele>22.73</ele>
        <time>2016-08-31T10:36:25Z</time>
      </trkpt>
      <trkpt lat="46.24405" lon="-1.56125">
        <ele>20.32</ele>
        <time>2016-08-31T10:36:44Z</time>
      </trkpt>
      <trkpt lat="46.24401" lon="-1.5612">
        <ele>17.44</ele>
        <time>2016-08-31T10:36:53Z</time>
      </trkpt>
      <trkpt lat="46.24397" lon="-1.56116">
        <ele>14.08</ele>
        <time>2016-08-31T10:37:03Z</time>
      </trkpt>
      <trkpt lat="46.24394" lon="-1.56113">
        <ele>10.71</ele>
        <time>2016-08-31T10:37:13Z</time>
      </trkpt>
      <trkpt lat="46.2439" lon="-1.5611">
        <ele>7.35</ele>
        <time>2016-08-31T10:37:23Z</time>
      </trkpt>
      <trkpt lat="46.24433" lon="-1.56099">
        <ele>3.98</ele>
        <time>2016-08-31T10:38:28Z</time>
      </trkpt>
      <trkpt lat="46.24433" lon="-1.561">
        <ele>3.5</ele>
        <time>2016-08-31T10:38:49Z</time>
      </trkpt>
      <trkpt lat="46.24441" lon="-1.561">
        <ele>3.5</ele>
        <time>2016-08-31T10:39:07Z</time>
      </trkpt>
      <trkpt lat="46.2443" lon="-1.561">
        <ele>3.5</ele>
        <time>2016-08-31T10:39:20Z</time>
      </trkpt>
      <trkpt lat="46.24426" lon="-1.56095">
        <ele>3.98</ele>
        <time>2016-08-31T10:39:35Z</time>
      </trkpt>
      <trkpt lat="46.24424" lon="-1.56096">
        <ele>3.5</ele>
        <time>2016-08-31T10:39:49Z</time>
      </trkpt>
      <trkpt lat="46.24424" lon="-1.56104">
        <ele>3.5</ele>
        <time>2016-08-31T10:39:59Z</time>
      </trkpt>
      <trkpt lat="46.24425" lon="-1.56106">
        <ele>3.5</ele>
        <time>2016-08-31T10:40:15Z</time>
      </trkpt>
      <trkpt lat="46.24427" lon="-1.56113">
        <ele>3.98</ele>
        <time>2016-08-31T10:40:29Z</time>
      </trkpt>
      <trkpt lat="46.24437" lon="-1.56119">
        <ele>3.5</ele>
        <time>2016-08-31T10:40:48Z</time>
      </trkpt>
      <trkpt lat="46.24433" lon="-1.56112">
        <ele>3.5</ele>
        <time>2016-08-31T10:41:07Z</time>
      </trkpt>
      <trkpt lat="46.24432" lon="-1.56113">
        <ele>3.98</ele>
        <time>2016-08-31T10:41:23Z</time>
      </trkpt>
      <trkpt lat="46.24429" lon="-1.56101">
        <ele>3.5</ele>
        <time>2016-08-31T10:41:37Z</time>
      </trkpt>
      <trkpt lat="46.24426" lon="-1.56089">
        <ele>3.5</ele>
        <time>2016-08-31T10:41:58Z</time>
      </trkpt>
      <trkpt lat="46.24428" lon="-1.56091">
        <ele>3.98</ele>
        <time>2016-08-31T10:42:18Z</time>
      </trkpt>
      <trkpt lat="46.24427" lon="-1.56092">
        <ele>3.5</ele>
        <time>2016-08-31T10:42:34Z</time>
      </trkpt>
      <trkpt lat="46.24428" lon="-1.56096">
        <ele>3.98</ele>
        <time>2016-08-31T10:42:53Z</time>
      </trkpt>
      <trkpt lat="46.24432" lon="-1.5611">
        <ele>3.5</ele>
        <time>2016-08-31T10:43:10Z</time>
      </trkpt>
      <trkpt lat="46.24437" lon="-1.56114">
        <ele>2.54</ele>
        <time>2016-08-31T10:43:14Z</time>
      </trkpt>
      <trkpt lat="46.24434" lon="-1.56115">
        <ele>3.02</ele>
        <time>2016-08-31T10:43:23Z</time>
      </trkpt>
      <trkpt lat="46.24433" lon="-1.5612">
        <ele>3.02</ele>
        <time>2016-08-31T10:43:35Z</time>
      </trkpt>
      <trkpt lat="46.24433" lon="-1.56121">
        <ele>3.02</ele>
        <time>2016-08-31T10:43:36Z</time>
      </trkpt>
      <trkpt lat="46.2443" lon="-1.56124">
        <ele>4.94</ele>
        <time>2016-08-31T10:43:45Z</time>
      </trkpt>
      <trkpt lat="46.24427" lon="-1.56124">
        <ele>5.42</ele>
        <time>2016-08-31T10:43:55Z</time>
      </trkpt>
      <trkpt lat="46.24427" lon="-1.56125">
        <ele>5.42</ele>
        <time>2016-08-31T10:44:14Z</time>
      </trkpt>
      <trkpt lat="46.24427" lon="-1.56126">
        <ele>6.39</ele>
        <time>2016-08-31T10:44:30Z</time>
      </trkpt>
      <trkpt lat="46.24429" lon="-1.5613">
        <ele>5.42</ele>
        <time>2016-08-31T10:44:46Z</time>
      </trkpt>
      <trkpt lat="46.24431" lon="-1.56132">
        <ele>5.42</ele>
        <time>2016-08-31T10:45:05Z</time>
      </trkpt>
      <trkpt lat="46.24431" lon="-1.56134">
        <ele>5.42</ele>
        <time>2016-08-31T10:45:21Z</time>
      </trkpt>
      <trkpt lat="46.24431" lon="-1.56134">
        <ele>5.42</ele>
        <time>2016-08-31T10:45:37Z</time>
      </trkpt>
      <trkpt lat="46.24431" lon="-1.56134">
        <ele>4.94</ele>
        <time>2016-08-31T10:45:58Z</time>
      </trkpt>
      <trkpt lat="46.24429" lon="-1.56137">
        <ele>4.94</ele>
        <time>2016-08-31T10:46:14Z</time>
      </trkpt>
      <trkpt lat="46.24425" lon="-1.56137">
        <ele>5.42</ele>
        <time>2016-08-31T10:46:31Z</time>
      </trkpt>
      <trkpt lat="46.24425" lon="-1.56137">
        <ele>4.94</ele>
        <time>2016-08-31T10:46:44Z</time>
      </trkpt>
      <trkpt lat="46.24425" lon="-1.56139">
        <ele>4.94</ele>
        <time>2016-08-31T10:46:59Z</time>
      </trkpt>
      <trkpt lat="46.24423" lon="-1.56138">
        <ele>5.42</ele>
        <time>2016-08-31T10:47:14Z</time>
      </trkpt>
      <trkpt lat="46.24423" lon="-1.56138">
        <ele>5.42</ele>
        <time>2016-08-31T10:47:30Z</time>
      </trkpt>
      <trkpt lat="46.24425" lon="-1.56137">
        <ele>5.42</ele>
        <time>2016-08-31T10:47:54Z</time>
      </trkpt>
      <trkpt lat="46.24426" lon="-1.56136">
        <ele>4.94</ele>
        <time>2016-08-31T10:48:10Z</time>
      </trkpt>
      <trkpt lat="46.24426" lon="-1.56135">
        <ele>5.42</ele>
        <time>2016-08-31T10:48:31Z</time>
      </trkpt>
      <trkpt lat="46.24427" lon="-1.56135">
        <ele>5.42</ele>
        <time>2016-08-31T10:48:47Z</time>
      </trkpt>
      <trkpt lat="46.24427" lon="-1.56135">
        <ele>5.91</ele>
        <time>2016-08-31T10:48:58Z</time>
      </trkpt>
      <trkpt lat="46.24427" lon="-1.56135">
        <ele>5.91</ele>
        <time>2016-08-31T10:49:09Z</time>
      </trkpt>
      <trkpt lat="46.24427" lon="-1.56136">
        <ele>5.42</ele>
        <time>2016-08-31T10:49:23Z</time>
      </trkpt>
      <trkpt lat="46.24428" lon="-1.56138">
        <ele>5.42</ele>
        <time>2016-08-31T10:49:40Z</time>
      </trkpt>
      <trkpt lat="46.24428" lon="-1.56139">
        <ele>5.42</ele>
        <time>2016-08-31T10:49:52Z</time>
      </trkpt>
      <trkpt lat="46.24428" lon="-1.5614">
        <ele>5.42</ele>
        <time>2016-08-31T10:50:05Z</time>
      </trkpt>
      <trkpt lat="46.24429" lon="-1.5614">
        <ele>4.94</ele>
        <time>2016-08-31T10:50:18Z</time>
      </trkpt>
      <trkpt lat="46.2443" lon="-1.56138">
        <ele>5.42</ele>
        <time>2016-08-31T10:50:31Z</time>
      </trkpt>
      <trkpt lat="46.24429" lon="-1.56135">
        <ele>5.91</ele>
        <time>2016-08-31T10:50:43Z</time>
      </trkpt>
      <trkpt lat="46.24427" lon="-1.56134">
        <ele>5.42</ele>
        <time>2016-08-31T10:50:55Z</time>
      </trkpt>
      <trkpt lat="46.24429" lon="-1.56132">
        <ele>5.42</ele>
        <time>2016-08-31T10:51:12Z</time>
      </trkpt>
      <trkpt lat="46.2443" lon="-1.56131">
        <ele>5.42</ele>
        <time>2016-08-31T10:51:36Z</time>
      </trkpt>
      <trkpt lat="46.24431" lon="-1.5613">
        <ele>5.42</ele>
        <time>2016-08-31T10:51:53Z</time>
      </trkpt>
      <trkpt lat="46.24434" lon="-1.56129">
        <ele>5.42</ele>
        <time>2016-08-31T10:52:12Z</time>
      </trkpt>
      <trkpt lat="46.24434" lon="-1.56128">
        <ele>5.91</ele>
        <time>2016-08-31T10:52:34Z</time>
      </trkpt>
      <trkpt lat="46.24434" lon="-1.56128">
        <ele>5.42</ele>
        <time>2016-08-31T10:52:52Z</time>
      </trkpt>
      <trkpt lat="46.24431" lon="-1.56134">
        <ele>5.91</ele>
        <time>2016-08-31T10:53:02Z</time>
      </trkpt>
      <trkpt lat="46.24433" lon="-1.56138">
        <ele>5.42</ele>
        <time>2016-08-31T10:53:06Z</time>
      </trkpt>
      <trkpt lat="46.24437" lon="-1.56147">
        <ele>5.42</ele>
        <time>2016-08-31T10:53:12Z</time>
      </trkpt>
      <trkpt lat="46.24438" lon="-1.56148">
        <ele>5.91</ele>
        <time>2016-08-31T10:53:14Z</time>
      </trkpt>
      <trkpt lat="46.24443" lon="-1.56159">
        <ele>5.42</ele>
        <time>2016-08-31T10:53:22Z</time>
      </trkpt>
      <trkpt lat="46.24445" lon="-1.56165">
        <ele>5.42</ele>
        <time>2016-08-31T10:53:26Z</time>
      </trkpt>
      <trkpt lat="46.24447" lon="-1.56166">
        <ele>5.42</ele>
        <time>2016-08-31T10:53:34Z</time>
      </trkpt>
      <trkpt lat="46.2445" lon="-1.56164">
        <ele>5.91</ele>
        <time>2016-08-31T10:53:43Z</time>
      </trkpt>
      <trkpt lat="46.24449" lon="-1.56161">
        <ele>5.91</ele>
        <time>2016-08-31T10:53:54Z</time>
      </trkpt>
      <trkpt lat="46.24449" lon="-1.5616">
        <ele>5.91</ele>
        <time>2016-08-31T10:54:08Z</time>
      </trkpt>
      <trkpt lat="46.24449" lon="-1.5616">
        <ele>5.42</ele>
        <time>2016-08-31T10:54:24Z</time>
      </trkpt>
      <trkpt lat="46.24449" lon="-1.56161">
        <ele>5.42</ele>
        <time>2016-08-31T10:54:35Z</time>
      </trkpt>
      <trkpt lat="46.24449" lon="-1.56166">
        <ele>5.91</ele>
        <time>2016-08-31T10:54:44Z</time>
      </trkpt>
      <trkpt lat="46.24449" lon="-1.56167">
        <ele>5.42</ele>
        <time>2016-08-31T10:54:54Z</time>
      </trkpt>
      <trkpt lat="46.2445" lon="-1.56169">
        <ele>5.91</ele>
        <time>2016-08-31T10:55:01Z</time>
      </trkpt>
      <trkpt lat="46.2445" lon="-1.56168">
        <ele>5.91</ele>
        <time>2016-08-31T10:55:04Z</time>
      </trkpt>
      <trkpt lat="46.24456" lon="-1.56173">
        <ele>5.91</ele>
        <time>2016-08-31T10:55:09Z</time>
      </trkpt>
      <trkpt lat="46.24461" lon="-1.56179">
        <ele>6.39</ele>
        <time>2016-08-31T10:55:14Z</time>
      </trkpt>
      <trkpt lat="46.24464" lon="-1.56182">
        <ele>7.35</ele>
        <time>2016-08-31T10:55:17Z</time>
      </trkpt>
      <trkpt lat="46.24467" lon="-1.56188">
        <ele>7.83</ele>
        <time>2016-08-31T10:55:22Z</time>
      </trkpt>
      <trkpt lat="46.24467" lon="-1.56193">
        <ele>7.83</ele>
        <time>2016-08-31T10:55:25Z</time>
      </trkpt>
      <trkpt lat="46.24469" lon="-1.56202">
        <ele>8.31</ele>
        <time>2016-08-31T10:55:36Z</time>
      </trkpt>
      <trkpt lat="46.2447" lon="-1.56204">
        <ele>7.83</ele>
        <time>2016-08-31T10:55:59Z</time>
      </trkpt>
      <trkpt lat="46.2447" lon="-1.56203">
        <ele>7.83</ele>
        <time>2016-08-31T10:56:12Z</time>
      </trkpt>
      <trkpt lat="46.2447" lon="-1.56204">
        <ele>8.31</ele>
        <time>2016-08-31T10:56:21Z</time>
      </trkpt>
      <trkpt lat="46.24469" lon="-1.56204">
        <ele>7.83</ele>
        <time>2016-08-31T10:56:39Z</time>
      </trkpt>
      <trkpt lat="46.24469" lon="-1.56205">
        <ele>7.83</ele>
        <time>2016-08-31T10:56:50Z</time>
      </trkpt>
      <trkpt lat="46.24471" lon="-1.56199">
        <ele>8.79</ele>
        <time>2016-08-31T10:57:04Z</time>
      </trkpt>
      <trkpt lat="46.24474" lon="-1.56191">
        <ele>8.31</ele>
        <time>2016-08-31T10:57:11Z</time>
      </trkpt>
      <trkpt lat="46.24476" lon="-1.56185">
        <ele>7.83</ele>
        <time>2016-08-31T10:57:20Z</time>
      </trkpt>
      <trkpt lat="46.24477" lon="-1.56184">
        <ele>8.31</ele>
        <time>2016-08-31T10:57:34Z</time>
      </trkpt>
      <trkpt lat="46.24477" lon="-1.56183">
        <ele>8.31</ele>
        <time>2016-08-31T10:57:44Z</time>
      </trkpt>
      <trkpt lat="46.24477" lon="-1.56181">
        <ele>8.31</ele>
        <time>2016-08-31T10:57:47Z</time>
      </trkpt>
      <trkpt lat="46.24479" lon="-1.56177">
        <ele>8.31</ele>
        <time>2016-08-31T10:57:59Z</time>
      </trkpt>
      <trkpt lat="46.24479" lon="-1.56176">
        <ele>8.31</ele>
        <time>2016-08-31T10:58:02Z</time>
      </trkpt>
      <trkpt lat="46.24481" lon="-1.56173">
        <ele>7.83</ele>
        <time>2016-08-31T10:58:05Z</time>
      </trkpt>
      <trkpt lat="46.24481" lon="-1.56168">
        <ele>7.83</ele>
        <time>2016-08-31T10:58:08Z</time>
      </trkpt>
      <trkpt lat="46.24482" lon="-1.56158">
        <ele>8.31</ele>
        <time>2016-08-31T10:58:14Z</time>
      </trkpt>
      <trkpt lat="46.24483" lon="-1.56154">
        <ele>7.35</ele>
        <time>2016-08-31T10:58:17Z</time>
      </trkpt>
      <trkpt lat="46.24484" lon="-1.56147">
        <ele>7.83</ele>
        <time>2016-08-31T10:58:22Z</time>
      </trkpt>
      <trkpt lat="46.24484" lon="-1.56137">
        <ele>7.35</ele>
        <time>2016-08-31T10:58:28Z</time>
      </trkpt>
      <trkpt lat="46.24486" lon="-1.56129">
        <ele>7.83</ele>
        <time>2016-08-31T10:58:33Z</time>
      </trkpt>
      <trkpt lat="46.24486" lon="-1.56125">
        <ele>8.31</ele>
        <time>2016-08-31T10:58:36Z</time>
      </trkpt>
      <trkpt lat="46.24487" lon="-1.5612">
        <ele>7.83</ele>
        <time>2016-08-31T10:58:39Z</time>
      </trkpt>
      <trkpt lat="46.24489" lon="-1.56107">
        <ele>8.31</ele>
        <time>2016-08-31T10:58:51Z</time>
      </trkpt>
      <trkpt lat="46.24489" lon="-1.56096">
        <ele>7.83</ele>
        <time>2016-08-31T10:59:00Z</time>
      </trkpt>
      <trkpt lat="46.2449" lon="-1.56093">
        <ele>8.31</ele>
        <time>2016-08-31T10:59:02Z</time>
      </trkpt>
      <trkpt lat="46.2449" lon="-1.56087">
        <ele>8.31</ele>
        <time>2016-08-31T10:59:06Z</time>
      </trkpt>
      <trkpt lat="46.24491" lon="-1.56082">
        <ele>7.83</ele>
        <time>2016-08-31T10:59:09Z</time>
      </trkpt>
      <trkpt lat="46.24494" lon="-1.56062">
        <ele>7.83</ele>
        <time>2016-08-31T10:59:21Z</time>
      </trkpt>
      <trkpt lat="46.24495" lon="-1.56041">
        <ele>7.83</ele>
        <time>2016-08-31T10:59:33Z</time>
      </trkpt>
      <trkpt lat="46.24495" lon="-1.56027">
        <ele>7.83</ele>
        <time>2016-08-31T10:59:42Z</time>
      </trkpt>
      <trkpt lat="46.24489" lon="-1.56025">
        <ele>6.87</ele>
        <time>2016-08-31T10:59:53Z</time>
      </trkpt>
      <trkpt lat="46.2449" lon="-1.56022">
        <ele>6.87</ele>
        <time>2016-08-31T11:00:02Z</time>
      </trkpt>
      <trkpt lat="46.24494" lon="-1.56021">
        <ele>6.39</ele>
        <time>2016-08-31T11:00:16Z</time>
      </trkpt>
      <trkpt lat="46.24496" lon="-1.56017">
        <ele>6.87</ele>
        <time>2016-08-31T11:00:25Z</time>
      </trkpt>
      <trkpt lat="46.24496" lon="-1.56013">
        <ele>6.87</ele>
        <time>2016-08-31T11:00:43Z</time>
      </trkpt>
      <trkpt lat="46.24497" lon="-1.56005">
        <ele>5.91</ele>
        <time>2016-08-31T11:00:51Z</time>
      </trkpt>
      <trkpt lat="46.24497" lon="-1.56001">
        <ele>5.91</ele>
        <time>2016-08-31T11:01:02Z</time>
      </trkpt>
      <trkpt lat="46.24497" lon="-1.55998">
        <ele>5.91</ele>
        <time>2016-08-31T11:01:14Z</time>
      </trkpt>
      <trkpt lat="46.24498" lon="-1.55997">
        <ele>5.91</ele>
        <time>2016-08-31T11:01:24Z</time>
      </trkpt>
      <trkpt lat="46.24498" lon="-1.55997">
        <ele>4.94</ele>
        <time>2016-08-31T11:01:33Z</time>
      </trkpt>
      <trkpt lat="46.24498" lon="-1.55997">
        <ele>4.46</ele>
        <time>2016-08-31T11:01:56Z</time>
      </trkpt>
      <trkpt lat="46.24498" lon="-1.55997">
        <ele>6.39</ele>
        <time>2016-08-31T11:02:01Z</time>
      </trkpt>
      <trkpt lat="46.24498" lon="-1.55995">
        <ele>5.42</ele>
        <time>2016-08-31T11:02:08Z</time>
      </trkpt>
      <trkpt lat="46.24498" lon="-1.55992">
        <ele>4.94</ele>
        <time>2016-08-31T11:02:19Z</time>
      </trkpt>
      <trkpt lat="46.24499" lon="-1.55988">
        <ele>4.94</ele>
        <time>2016-08-31T11:02:22Z</time>
      </trkpt>
      <trkpt lat="46.24501" lon="-1.55974">
        <ele>3.5</ele>
        <time>2016-08-31T11:02:33Z</time>
      </trkpt>
      <trkpt lat="46.24504" lon="-1.55969">
        <ele>2.54</ele>
        <time>2016-08-31T11:02:42Z</time>
      </trkpt>
      <trkpt lat="46.24506" lon="-1.55969">
        <ele>2.06</ele>
        <time>2016-08-31T11:02:55Z</time>
      </trkpt>
      <trkpt lat="46.24507" lon="-1.5597">
        <ele>3.02</ele>
        <time>2016-08-31T11:02:57Z</time>
      </trkpt>
      <trkpt lat="46.2451" lon="-1.55971">
        <ele>2.06</ele>
        <time>2016-08-31T11:03:08Z</time>
      </trkpt>
      <trkpt lat="46.24511" lon="-1.55972">
        <ele>2.54</ele>
        <time>2016-08-31T11:03:11Z</time>
      </trkpt>
      <trkpt lat="46.24512" lon="-1.55977">
        <ele>2.06</ele>
        <time>2016-08-31T11:03:14Z</time>
      </trkpt>
      <trkpt lat="46.24519" lon="-1.5598">
        <ele>1.1</ele>
        <time>2016-08-31T11:03:25Z</time>
      </trkpt>
      <trkpt lat="46.24521" lon="-1.55981">
        <ele>1.1</ele>
        <time>2016-08-31T11:03:45Z</time>
      </trkpt>
      <trkpt lat="46.24523" lon="-1.55983">
        <ele>1.1</ele>
        <time>2016-08-31T11:04:05Z</time>
      </trkpt>
      <trkpt lat="46.24524" lon="-1.55983">
        <ele>0.62</ele>
        <time>2016-08-31T11:04:14Z</time>
      </trkpt>
      <trkpt lat="46.24526" lon="-1.55987">
        <ele>0.14</ele>
        <time>2016-08-31T11:04:22Z</time>
      </trkpt>
      <trkpt lat="46.24528" lon="-1.55988">
        <ele>0.62</ele>
        <time>2016-08-31T11:04:31Z</time>
      </trkpt>
      <trkpt lat="46.24528" lon="-1.55987">
        <ele>0.14</ele>
        <time>2016-08-31T11:04:40Z</time>
      </trkpt>
      <trkpt lat="46.24529" lon="-1.55987">
        <ele>0.62</ele>
        <time>2016-08-31T11:04:48Z</time>
      </trkpt>
      <trkpt lat="46.24529" lon="-1.55987">
        <ele>0.62</ele>
        <time>2016-08-31T11:04:53Z</time>
      </trkpt>
      <trkpt lat="46.24533" lon="-1.5599">
        <ele>0.14</ele>
        <time>2016-08-31T11:04:59Z</time>
      </trkpt>
      <trkpt lat="46.24537" lon="-1.55991">
        <ele>0.14</ele>
        <time>2016-08-31T11:05:09Z</time>
      </trkpt>
      <trkpt lat="46.24537" lon="-1.55991">
        <ele>0.14</ele>
        <time>2016-08-31T11:05:28Z</time>
      </trkpt>
      <trkpt lat="46.24537" lon="-1.55988">
        <ele>0.14</ele>
        <time>2016-08-31T11:05:37Z</time>
      </trkpt>
      <trkpt lat="46.24537" lon="-1.55989">
        <ele>-0.34</ele>
        <time>2016-08-31T11:05:55Z</time>
      </trkpt>
      <trkpt lat="46.24537" lon="-1.55991">
        <ele>0.62</ele>
        <time>2016-08-31T11:06:04Z</time>
      </trkpt>
      <trkpt lat="46.24536" lon="-1.56003">
        <ele>0.14</ele>
        <time>2016-08-31T11:06:16Z</time>
      </trkpt>
      <trkpt lat="46.24536" lon="-1.56005">
        <ele>0.14</ele>
        <time>2016-08-31T11:06:28Z</time>
      </trkpt>
      <trkpt lat="46.24536" lon="-1.56006">
        <ele>0.14</ele>
        <time>2016-08-31T11:06:41Z</time>
      </trkpt>
      <trkpt lat="46.24535" lon="-1.56007">
        <ele>0.14</ele>
        <time>2016-08-31T11:06:50Z</time>
      </trkpt>
      <trkpt lat="46.24536" lon="-1.56009">
        <ele>0.14</ele>
        <time>2016-08-31T11:07:02Z</time>
      </trkpt>
      <trkpt lat="46.24537" lon="-1.56012">
        <ele>0.14</ele>
        <time>2016-08-31T11:07:09Z</time>
      </trkpt>
      <trkpt lat="46.24539" lon="-1.56014">
        <ele>0.14</ele>
        <time>2016-08-31T11:07:19Z</time>
      </trkpt>
      <trkpt lat="46.24539" lon="-1.5602">
        <ele>0.14</ele>
        <time>2016-08-31T11:07:26Z</time>
      </trkpt>
      <trkpt lat="46.24539" lon="-1.56025">
        <ele>0.62</ele>
        <time>2016-08-31T11:07:33Z</time>
      </trkpt>
      <trkpt lat="46.24537" lon="-1.5603">
        <ele>0.62</ele>
        <time>2016-08-31T11:07:41Z</time>
      </trkpt>
      <trkpt lat="46.24534" lon="-1.56033">
        <ele>0.62</ele>
        <time>2016-08-31T11:07:50Z</time>
      </trkpt>
      <trkpt lat="46.24533" lon="-1.56033">
        <ele>0.62</ele>
        <time>2016-08-31T11:07:52Z</time>
      </trkpt>
      <trkpt lat="46.24531" lon="-1.56028">
        <ele>0.14</ele>
        <time>2016-08-31T11:08:01Z</time>
      </trkpt>
      <trkpt lat="46.24529" lon="-1.56027">
        <ele>1.1</ele>
        <time>2016-08-31T11:08:14Z</time>
      </trkpt>
      <trkpt lat="46.24526" lon="-1.56022">
        <ele>0.62</ele>
        <time>2016-08-31T11:08:20Z</time>
      </trkpt>
      <trkpt lat="46.24526" lon="-1.56011">
        <ele>0.62</ele>
        <time>2016-08-31T11:08:28Z</time>
      </trkpt>
      <trkpt lat="46.24524" lon="-1.56004">
        <ele>0.62</ele>
        <time>2016-08-31T11:08:32Z</time>
      </trkpt>
      <trkpt lat="46.24523" lon="-1.55996">
        <ele>0.62</ele>
        <time>2016-08-31T11:08:36Z</time>
      </trkpt>
      <trkpt lat="46.24521" lon="-1.55989">
        <ele>1.1</ele>
        <time>2016-08-31T11:08:46Z</time>
      </trkpt>
      <trkpt lat="46.2452" lon="-1.55987">
        <ele>1.1</ele>
        <time>2016-08-31T11:08:48Z</time>
      </trkpt>
      <trkpt lat="46.24518" lon="-1.55985">
        <ele>1.1</ele>
        <time>2016-08-31T11:08:50Z</time>
      </trkpt>
      <trkpt lat="46.24517" lon="-1.55983">
        <ele>1.58</ele>
        <time>2016-08-31T11:08:52Z</time>
      </trkpt>
      <trkpt lat="46.24515" lon="-1.55982">
        <ele>1.58</ele>
        <time>2016-08-31T11:08:54Z</time>
      </trkpt>
      <trkpt lat="46.24513" lon="-1.55979">
        <ele>1.58</ele>
        <time>2016-08-31T11:08:56Z</time>
      </trkpt>
      <trkpt lat="46.24511" lon="-1.55977">
        <ele>2.06</ele>
        <time>2016-08-31T11:08:59Z</time>
      </trkpt>
      <trkpt lat="46.24509" lon="-1.55975">
        <ele>3.5</ele>
        <time>2016-08-31T11:09:03Z</time>
      </trkpt>
      <trkpt lat="46.24509" lon="-1.55976">
        <ele>3.02</ele>
        <time>2016-08-31T11:09:04Z</time>
      </trkpt>
      <trkpt lat="46.24502" lon="-1.55976">
        <ele>3.5</ele>
        <time>2016-08-31T11:09:11Z</time>
      </trkpt>
      <trkpt lat="46.245" lon="-1.5598">
        <ele>3.98</ele>
        <time>2016-08-31T11:09:14Z</time>
      </trkpt>
      <trkpt lat="46.245" lon="-1.55985">
        <ele>4.94</ele>
        <time>2016-08-31T11:09:17Z</time>
      </trkpt>
      <trkpt lat="46.24499" lon="-1.55992">
        <ele>5.42</ele>
        <time>2016-08-31T11:09:22Z</time>
      </trkpt>
      <trkpt lat="46.24498" lon="-1.55996">
        <ele>5.91</ele>
        <time>2016-08-31T11:09:25Z</time>
      </trkpt>
      <trkpt lat="46.24498" lon="-1.56001">
        <ele>6.39</ele>
        <time>2016-08-31T11:09:28Z</time>
      </trkpt>
      <trkpt lat="46.24494" lon="-1.56017">
        <ele>6.39</ele>
        <time>2016-08-31T11:09:38Z</time>
      </trkpt>
      <trkpt lat="46.24487" lon="-1.5602">
        <ele>6.87</ele>
        <time>2016-08-31T11:09:45Z</time>
      </trkpt>
      <trkpt lat="46.24485" lon="-1.5602">
        <ele>6.39</ele>
        <time>2016-08-31T11:09:48Z</time>
      </trkpt>
      <trkpt lat="46.24482" lon="-1.56022">
        <ele>6.39</ele>
        <time>2016-08-31T11:09:51Z</time>
      </trkpt>
      <trkpt lat="46.24471" lon="-1.56024">
        <ele>5.42</ele>
        <time>2016-08-31T11:10:02Z</time>
      </trkpt>
      <trkpt lat="46.24468" lon="-1.56026">
        <ele>5.42</ele>
        <time>2016-08-31T11:10:05Z</time>
      </trkpt>
      <trkpt lat="46.24461" lon="-1.56027">
        <ele>4.94</ele>
        <time>2016-08-31T11:10:14Z</time>
      </trkpt>
      <trkpt lat="46.24459" lon="-1.56029">
        <ele>4.46</ele>
        <time>2016-08-31T11:10:16Z</time>
      </trkpt>
      <trkpt lat="46.2445" lon="-1.5603">
        <ele>3.98</ele>
        <time>2016-08-31T11:10:24Z</time>
      </trkpt>
      <trkpt lat="46.24447" lon="-1.56031">
        <ele>4.46</ele>
        <time>2016-08-31T11:10:27Z</time>
      </trkpt>
      <trkpt lat="46.24437" lon="-1.56031">
        <ele>3.98</ele>
        <time>2016-08-31T11:10:38Z</time>
      </trkpt>
      <trkpt lat="46.24433" lon="-1.56032">
        <ele>3.98</ele>
        <time>2016-08-31T11:10:42Z</time>
      </trkpt>
      <trkpt lat="46.24427" lon="-1.5603">
        <ele>3.5</ele>
        <time>2016-08-31T11:10:46Z</time>
      </trkpt>
      <trkpt lat="46.2442" lon="-1.56028">
        <ele>3.5</ele>
        <time>2016-08-31T11:10:57Z</time>
      </trkpt>
      <trkpt lat="46.24417" lon="-1.56026">
        <ele>3.5</ele>
        <time>2016-08-31T11:11:12Z</time>
      </trkpt>
      <trkpt lat="46.24413" lon="-1.56023">
        <ele>3.98</ele>
        <time>2016-08-31T11:11:19Z</time>
      </trkpt>
      <trkpt lat="46.2441" lon="-1.56017">
        <ele>3.5</ele>
        <time>2016-08-31T11:11:24Z</time>
      </trkpt>
      <trkpt lat="46.24406" lon="-1.56015">
        <ele>2.54</ele>
        <time>2016-08-31T11:11:28Z</time>
      </trkpt>
      <trkpt lat="46.24395" lon="-1.56002">
        <ele>3.02</ele>
        <time>2016-08-31T11:11:40Z</time>
      </trkpt>
      <trkpt lat="46.24394" lon="-1.56001">
        <ele>3.02</ele>
        <time>2016-08-31T11:11:41Z</time>
      </trkpt>
      <trkpt lat="46.24381" lon="-1.55988">
        <ele>3.02</ele>
        <time>2016-08-31T11:11:53Z</time>
      </trkpt>
      <trkpt lat="46.24374" lon="-1.55981">
        <ele>3.02</ele>
        <time>2016-08-31T11:12:03Z</time>
      </trkpt>
      <trkpt lat="46.2437" lon="-1.55975">
        <ele>3.02</ele>
        <time>2016-08-31T11:12:10Z</time>
      </trkpt>
      <trkpt lat="46.24362" lon="-1.55964">
        <ele>2.54</ele>
        <time>2016-08-31T11:12:21Z</time>
      </trkpt>
      <trkpt lat="46.24354" lon="-1.55956">
        <ele>2.54</ele>
        <time>2016-08-31T11:12:31Z</time>
      </trkpt>
      <trkpt lat="46.24347" lon="-1.55943">
        <ele>2.06</ele>
        <time>2016-08-31T11:12:41Z</time>
      </trkpt>
      <trkpt lat="46.24341" lon="-1.55933">
        <ele>2.54</ele>
        <time>2016-08-31T11:12:52Z</time>
      </trkpt>
      <trkpt lat="46.24341" lon="-1.55933">
        <ele>2.06</ele>
        <time>2016-08-31T11:13:06Z</time>
      </trkpt>
      <trkpt lat="46.24341" lon="-1.55934">
        <ele>2.54</ele>
        <time>2016-08-31T11:13:21Z</time>
      </trkpt>
      <trkpt lat="46.24341" lon="-1.55933">
        <ele>2.54</ele>
        <time>2016-08-31T11:13:33Z</time>
      </trkpt>
      <trkpt lat="46.24341" lon="-1.55933">
        <ele>2.54</ele>
        <time>2016-08-31T11:13:44Z</time>
      </trkpt>
      <trkpt lat="46.24341" lon="-1.55933">
        <ele>2.06</ele>
        <time>2016-08-31T11:13:56Z</time>
      </trkpt>
      <trkpt lat="46.24341" lon="-1.55933">
        <ele>2.54</ele>
        <time>2016-08-31T11:14:10Z</time>
      </trkpt>
      <trkpt lat="46.2434" lon="-1.55933">
        <ele>2.06</ele>
        <time>2016-08-31T11:14:11Z</time>
      </trkpt>
      <trkpt lat="46.24338" lon="-1.5593">
        <ele>2.54</ele>
        <time>2016-08-31T11:14:15Z</time>
      </trkpt>
      <trkpt lat="46.24334" lon="-1.55927">
        <ele>3.02</ele>
        <time>2016-08-31T11:14:19Z</time>
      </trkpt>
      <trkpt lat="46.24328" lon="-1.55919">
        <ele>3.02</ele>
        <time>2016-08-31T11:14:30Z</time>
      </trkpt>
      <trkpt lat="46.24325" lon="-1.55918">
        <ele>2.54</ele>
        <time>2016-08-31T11:14:42Z</time>
      </trkpt>
      <trkpt lat="46.24325" lon="-1.55919">
        <ele>2.54</ele>
        <time>2016-08-31T11:14:56Z</time>
      </trkpt>
      <trkpt lat="46.24325" lon="-1.55918">
        <ele>2.54</ele>
        <time>2016-08-31T11:15:09Z</time>
      </trkpt>
      <trkpt lat="46.24324" lon="-1.55918">
        <ele>2.54</ele>
        <time>2016-08-31T11:15:28Z</time>
      </trkpt>
      <trkpt lat="46.24324" lon="-1.55918">
        <ele>2.54</ele>
        <time>2016-08-31T11:15:40Z</time>
      </trkpt>
      <trkpt lat="46.24324" lon="-1.55919">
        <ele>3.02</ele>
        <time>2016-08-31T11:15:57Z</time>
      </trkpt>
      <trkpt lat="46.24324" lon="-1.55919">
        <ele>2.54</ele>
        <time>2016-08-31T11:16:10Z</time>
      </trkpt>
      <trkpt lat="46.24324" lon="-1.55918">
        <ele>2.54</ele>
        <time>2016-08-31T11:16:21Z</time>
      </trkpt>
      <trkpt lat="46.24325" lon="-1.55918">
        <ele>2.54</ele>
        <time>2016-08-31T11:16:32Z</time>
      </trkpt>
      <trkpt lat="46.24325" lon="-1.55918">
        <ele>3.5</ele>
        <time>2016-08-31T11:16:34Z</time>
      </trkpt>
      <trkpt lat="46.24325" lon="-1.55919">
        <ele>0.14</ele>
        <time>2016-08-31T11:16:52Z</time>
      </trkpt>
      <trkpt lat="46.24325" lon="-1.55918">
        <ele>4.94</ele>
        <time>2016-08-31T11:17:10Z</time>
      </trkpt>
      <trkpt lat="46.24325" lon="-1.55919">
        <ele>-0.34</ele>
        <time>2016-08-31T11:17:12Z</time>
      </trkpt>
      <trkpt lat="46.24325" lon="-1.55919">
        <ele>3.5</ele>
        <time>2016-08-31T11:17:15Z</time>
      </trkpt>
      <trkpt lat="46.24325" lon="-1.5592">
        <ele>-1.3</ele>
        <time>2016-08-31T11:17:17Z</time>
      </trkpt>
      <trkpt lat="46.24325" lon="-1.5592">
        <ele>0.14</ele>
        <time>2016-08-31T11:17:18Z</time>
      </trkpt>
      <trkpt lat="46.24325" lon="-1.5592">
        <ele>3.02</ele>
        <time>2016-08-31T11:17:19Z</time>
      </trkpt>
      <trkpt lat="46.24325" lon="-1.5592">
        <ele>3.5</ele>
        <time>2016-08-31T11:17:20Z</time>
      </trkpt>
      <trkpt lat="46.24325" lon="-1.5592">
        <ele>1.58</ele>
        <time>2016-08-31T11:17:38Z</time>
      </trkpt>
      <trkpt lat="46.24324" lon="-1.5592">
        <ele>1.58</ele>
        <time>2016-08-31T11:17:59Z</time>
      </trkpt>
      <trkpt lat="46.24324" lon="-1.55919">
        <ele>1.58</ele>
        <time>2016-08-31T11:18:23Z</time>
      </trkpt>
      <trkpt lat="46.24325" lon="-1.55919">
        <ele>1.1</ele>
        <time>2016-08-31T11:18:38Z</time>
      </trkpt>
      <trkpt lat="46.24325" lon="-1.5592">
        <ele>2.54</ele>
        <time>2016-08-31T11:18:46Z</time>
      </trkpt>
      <trkpt lat="46.24326" lon="-1.5592">
        <ele>2.06</ele>
        <time>2016-08-31T11:19:00Z</time>
      </trkpt>
      <trkpt lat="46.24326" lon="-1.55921">
        <ele>2.54</ele>
        <time>2016-08-31T11:19:18Z</time>
      </trkpt>
      <trkpt lat="46.24326" lon="-1.5592">
        <ele>2.06</ele>
        <time>2016-08-31T11:19:27Z</time>
      </trkpt>
      <trkpt lat="46.24328" lon="-1.55923">
        <ele>2.54</ele>
        <time>2016-08-31T11:19:33Z</time>
      </trkpt>
      <trkpt lat="46.24337" lon="-1.55936">
        <ele>2.54</ele>
        <time>2016-08-31T11:19:45Z</time>
      </trkpt>
      <trkpt lat="46.24341" lon="-1.5594">
        <ele>2.54</ele>
        <time>2016-08-31T11:19:50Z</time>
      </trkpt>
      <trkpt lat="46.24357" lon="-1.55957">
        <ele>3.02</ele>
        <time>2016-08-31T11:20:07Z</time>
      </trkpt>
      <trkpt lat="46.24366" lon="-1.55966">
        <ele>3.02</ele>
        <time>2016-08-31T11:20:16Z</time>
      </trkpt>
      <trkpt lat="46.2438" lon="-1.55978">
        <ele>3.02</ele>
        <time>2016-08-31T11:20:29Z</time>
      </trkpt>
      <trkpt lat="46.2439" lon="-1.55993">
        <ele>3.5</ele>
        <time>2016-08-31T11:20:42Z</time>
      </trkpt>
      <trkpt lat="46.24398" lon="-1.56">
        <ele>3.5</ele>
        <time>2016-08-31T11:20:50Z</time>
      </trkpt>
      <trkpt lat="46.24408" lon="-1.56009">
        <ele>3.5</ele>
        <time>2016-08-31T11:21:00Z</time>
      </trkpt>
      <trkpt lat="46.24422" lon="-1.56014">
        <ele>3.98</ele>
        <time>2016-08-31T11:21:13Z</time>
      </trkpt>
      <trkpt lat="46.24432" lon="-1.56012">
        <ele>3.5</ele>
        <time>2016-08-31T11:21:23Z</time>
      </trkpt>
      <trkpt lat="46.24434" lon="-1.56012">
        <ele>3.5</ele>
        <time>2016-08-31T11:21:26Z</time>
      </trkpt>
      <trkpt lat="46.24439" lon="-1.56006">
        <ele>3.5</ele>
        <time>2016-08-31T11:21:35Z</time>
      </trkpt>
      <trkpt lat="46.24439" lon="-1.56005">
        <ele>3.5</ele>
        <time>2016-08-31T11:21:36Z</time>
      </trkpt>
      <trkpt lat="46.24448" lon="-1.55986">
        <ele>3.98</ele>
        <time>2016-08-31T11:21:48Z</time>
      </trkpt>
      <trkpt lat="46.24457" lon="-1.55981">
        <ele>4.94</ele>
        <time>2016-08-31T11:21:58Z</time>
      </trkpt>
      <trkpt lat="46.24459" lon="-1.55979">
        <ele>4.94</ele>
        <time>2016-08-31T11:22:04Z</time>
      </trkpt>
      <trkpt lat="46.24464" lon="-1.55976">
        <ele>5.42</ele>
        <time>2016-08-31T11:22:08Z</time>
      </trkpt>
      <trkpt lat="46.24466" lon="-1.55975">
        <ele>5.91</ele>
        <time>2016-08-31T11:22:11Z</time>
      </trkpt>
      <trkpt lat="46.2447" lon="-1.55975">
        <ele>5.91</ele>
        <time>2016-08-31T11:22:14Z</time>
      </trkpt>
      <trkpt lat="46.24484" lon="-1.55963">
        <ele>7.83</ele>
        <time>2016-08-31T11:22:27Z</time>
      </trkpt>
      <trkpt lat="46.24491" lon="-1.5596">
        <ele>8.31</ele>
        <time>2016-08-31T11:22:37Z</time>
      </trkpt>
      <trkpt lat="46.2449" lon="-1.5596">
        <ele>7.83</ele>
        <time>2016-08-31T11:22:42Z</time>
      </trkpt>
      <trkpt lat="46.24483" lon="-1.55964">
        <ele>7.35</ele>
        <time>2016-08-31T11:22:50Z</time>
      </trkpt>
      <trkpt lat="46.24479" lon="-1.55965">
        <ele>5.91</ele>
        <time>2016-08-31T11:22:59Z</time>
      </trkpt>
      <trkpt lat="46.24476" lon="-1.55966">
        <ele>5.42</ele>
        <time>2016-08-31T11:23:01Z</time>
      </trkpt>
      <trkpt lat="46.24467" lon="-1.55963">
        <ele>4.46</ele>
        <time>2016-08-31T11:23:09Z</time>
      </trkpt>
      <trkpt lat="46.24463" lon="-1.5596">
        <ele>3.02</ele>
        <time>2016-08-31T11:23:22Z</time>
      </trkpt>
      <trkpt lat="46.24463" lon="-1.55958">
        <ele>3.98</ele>
        <time>2016-08-31T11:23:32Z</time>
      </trkpt>
      <trkpt lat="46.24462" lon="-1.55959">
        <ele>2.54</ele>
        <time>2016-08-31T11:23:43Z</time>
      </trkpt>
      <trkpt lat="46.24461" lon="-1.5596">
        <ele>1.58</ele>
        <time>2016-08-31T11:23:58Z</time>
      </trkpt>
      <trkpt lat="46.24461" lon="-1.5596">
        <ele>4.94</ele>
        <time>2016-08-31T11:24:03Z</time>
      </trkpt>
      <trkpt lat="46.24461" lon="-1.5596">
        <ele>3.5</ele>
        <time>2016-08-31T11:24:04Z</time>
      </trkpt>
      <trkpt lat="46.24461" lon="-1.5596">
        <ele>-0.82</ele>
        <time>2016-08-31T11:24:05Z</time>
      </trkpt>
      <trkpt lat="46.24461" lon="-1.5596">
        <ele>3.98</ele>
        <time>2016-08-31T11:24:06Z</time>
      </trkpt>
      <trkpt lat="46.2446" lon="-1.5596">
        <ele>3.02</ele>
        <time>2016-08-31T11:24:22Z</time>
      </trkpt>
      <trkpt lat="46.2446" lon="-1.55959">
        <ele>8.31</ele>
        <time>2016-08-31T11:24:27Z</time>
      </trkpt>
      <trkpt lat="46.2446" lon="-1.55959">
        <ele>3.98</ele>
        <time>2016-08-31T11:24:28Z</time>
      </trkpt>
      <trkpt lat="46.2446" lon="-1.55959">
        <ele>8.31</ele>
        <time>2016-08-31T11:24:29Z</time>
      </trkpt>
      <trkpt lat="46.2446" lon="-1.55959">
        <ele>-24.38</ele>
        <time>2016-08-31T11:24:30Z</time>
      </trkpt>
      <trkpt lat="46.2446" lon="-1.55959">
        <ele>-18.61</ele>
        <time>2016-08-31T11:24:31Z</time>
      </trkpt>
      <trkpt lat="46.2446" lon="-1.55959">
        <ele>7.83</ele>
        <time>2016-08-31T11:24:32Z</time>
      </trkpt>
      <trkpt lat="46.2446" lon="-1.55959">
        <ele>-0.34</ele>
        <time>2016-08-31T11:24:33Z</time>
      </trkpt>
      <trkpt lat="46.2446" lon="-1.55959">
        <ele>3.98</ele>
        <time>2016-08-31T11:24:34Z</time>
      </trkpt>
      <trkpt lat="46.2446" lon="-1.55959">
        <ele>-13.8</ele>
        <time>2016-08-31T11:24:42Z</time>
      </trkpt>
      <trkpt lat="46.2446" lon="-1.55959">
        <ele>3.98</ele>
        <time>2016-08-31T11:24:43Z</time>
      </trkpt>
      <trkpt lat="46.2446" lon="-1.55959">
        <ele>-8.51</ele>
        <time>2016-08-31T11:24:44Z</time>
      </trkpt>
      <trkpt lat="46.2446" lon="-1.55959">
        <ele>-2.27</ele>
        <time>2016-08-31T11:24:45Z</time>
      </trkpt>
      <trkpt lat="46.2446" lon="-1.55959">
        <ele>7.83</ele>
        <time>2016-08-31T11:24:46Z</time>
      </trkpt>
      <trkpt lat="46.2446" lon="-1.55959">
        <ele>13.12</ele>
        <time>2016-08-31T11:24:47Z</time>
      </trkpt>
      <trkpt lat="46.2446" lon="-1.55959">
        <ele>-10.92</ele>
        <time>2016-08-31T11:24:48Z</time>
      </trkpt>
      <trkpt lat="46.2446" lon="-1.55959">
        <ele>-0.34</ele>
        <time>2016-08-31T11:24:49Z</time>
      </trkpt>
      <trkpt lat="46.2446" lon="-1.55959">
        <ele>6.39</ele>
        <time>2016-08-31T11:24:50Z</time>
      </trkpt>
      <trkpt lat="46.2446" lon="-1.55959">
        <ele>-10.44</ele>
        <time>2016-08-31T11:24:51Z</time>
      </trkpt>
      <trkpt lat="46.2446" lon="-1.55959">
        <ele>-9</ele>
        <time>2016-08-31T11:24:52Z</time>
      </trkpt>
      <trkpt lat="46.2446" lon="-1.55959">
        <ele>6.87</ele>
        <time>2016-08-31T11:24:54Z</time>
      </trkpt>
      <trkpt lat="46.2446" lon="-1.55959">
        <ele>15.04</ele>
        <time>2016-08-31T11:24:55Z</time>
      </trkpt>
      <trkpt lat="46.2446" lon="-1.55958">
        <ele>8.31</ele>
        <time>2016-08-31T11:24:56Z</time>
      </trkpt>
      <trkpt lat="46.2446" lon="-1.55958">
        <ele>16</ele>
        <time>2016-08-31T11:24:57Z</time>
      </trkpt>
      <trkpt lat="46.2446" lon="-1.55958">
        <ele>-10.92</ele>
        <time>2016-08-31T11:24:58Z</time>
      </trkpt>
      <trkpt lat="46.2446" lon="-1.55958">
        <ele>5.42</ele>
        <time>2016-08-31T11:24:59Z</time>
      </trkpt>
      <trkpt lat="46.2446" lon="-1.55958">
        <ele>22.73</ele>
        <time>2016-08-31T11:25:00Z</time>
      </trkpt>
      <trkpt lat="46.2446" lon="-1.55958">
        <ele>2.54</ele>
        <time>2016-08-31T11:25:01Z</time>
      </trkpt>
      <trkpt lat="46.2446" lon="-1.55958">
        <ele>3.5</ele>
        <time>2016-08-31T11:25:02Z</time>
      </trkpt>
      <trkpt lat="46.2446" lon="-1.55958">
        <ele>23.69</ele>
        <time>2016-08-31T11:25:03Z</time>
      </trkpt>
      <trkpt lat="46.2446" lon="-1.55958">
        <ele>-23.41</ele>
        <time>2016-08-31T11:25:04Z</time>
      </trkpt>
      <trkpt lat="46.2446" lon="-1.55958">
        <ele>5.91</ele>
        <time>2016-08-31T11:25:05Z</time>
      </trkpt>
      <trkpt lat="46.2446" lon="-1.55958">
        <ele>-12.36</ele>
        <time>2016-08-31T11:25:07Z</time>
      </trkpt>
      <trkpt lat="46.2446" lon="-1.55958">
        <ele>1.1</ele>
        <time>2016-08-31T11:25:08Z</time>
      </trkpt>
      <trkpt lat="46.24459" lon="-1.55958">
        <ele>12.63</ele>
        <time>2016-08-31T11:25:09Z</time>
      </trkpt>
      <trkpt lat="46.24459" lon="-1.55958">
        <ele>-10.92</ele>
        <time>2016-08-31T11:25:10Z</time>
      </trkpt>
      <trkpt lat="46.24459" lon="-1.55958">
        <ele>0.14</ele>
        <time>2016-08-31T11:25:11Z</time>
      </trkpt>
      <trkpt lat="46.24459" lon="-1.55958">
        <ele>8.31</ele>
        <time>2016-08-31T11:25:12Z</time>
      </trkpt>
      <trkpt lat="46.24459" lon="-1.55958">
        <ele>-6.59</ele>
        <time>2016-08-31T11:25:13Z</time>
      </trkpt>
      <trkpt lat="46.24459" lon="-1.55958">
        <ele>3.98</ele>
        <time>2016-08-31T11:25:14Z</time>
      </trkpt>
      <trkpt lat="46.24459" lon="-1.55958">
        <ele>-20.53</ele>
        <time>2016-08-31T11:25:17Z</time>
      </trkpt>
      <trkpt lat="46.24459" lon="-1.55958">
        <ele>5.91</ele>
        <time>2016-08-31T11:25:18Z</time>
      </trkpt>
      <trkpt lat="46.24459" lon="-1.55958">
        <ele>25.61</ele>
        <time>2016-08-31T11:25:19Z</time>
      </trkpt>
      <trkpt lat="46.24459" lon="-1.55958">
        <ele>-13.32</ele>
        <time>2016-08-31T11:25:20Z</time>
      </trkpt>
      <trkpt lat="46.24459" lon="-1.55958">
        <ele>8.79</ele>
        <time>2016-08-31T11:25:21Z</time>
      </trkpt>
      <trkpt lat="46.24459" lon="-1.55958">
        <ele>3.5</ele>
        <time>2016-08-31T11:25:22Z</time>
      </trkpt>
      <trkpt lat="46.24459" lon="-1.55957">
        <ele>15.52</ele>
        <time>2016-08-31T11:25:43Z</time>
      </trkpt>
      <trkpt lat="46.24459" lon="-1.55957">
        <ele>-14.28</ele>
        <time>2016-08-31T11:25:44Z</time>
      </trkpt>
      <trkpt lat="46.24459" lon="-1.55957">
        <ele>4.46</ele>
        <time>2016-08-31T11:25:45Z</time>
      </trkpt>
      <trkpt lat="46.24459" lon="-1.55958">
        <ele>2.06</ele>
        <time>2016-08-31T11:26:02Z</time>
      </trkpt>
      <trkpt lat="46.24459" lon="-1.55959">
        <ele>2.06</ele>
        <time>2016-08-31T11:26:26Z</time>
      </trkpt>
      <trkpt lat="46.24459" lon="-1.55959">
        <ele>2.06</ele>
        <time>2016-08-31T11:26:46Z</time>
      </trkpt>
      <trkpt lat="46.24459" lon="-1.55959">
        <ele>2.06</ele>
        <time>2016-08-31T11:27:14Z</time>
      </trkpt>
      <trkpt lat="46.24459" lon="-1.55959">
        <ele>2.06</ele>
        <time>2016-08-31T11:27:40Z</time>
      </trkpt>
      <trkpt lat="46.24459" lon="-1.5596">
        <ele>2.06</ele>
        <time>2016-08-31T11:28:09Z</time>
      </trkpt>
      <trkpt lat="46.24459" lon="-1.55959">
        <ele>2.06</ele>
        <time>2016-08-31T11:28:42Z</time>
      </trkpt>
      <trkpt lat="46.24459" lon="-1.5596">
        <ele>1.58</ele>
        <time>2016-08-31T11:29:11Z</time>
      </trkpt>
      <trkpt lat="46.24459" lon="-1.55959">
        <ele>1.58</ele>
        <time>2016-08-31T11:29:32Z</time>
      </trkpt>
      <trkpt lat="46.24459" lon="-1.55959">
        <ele>1.58</ele>
        <time>2016-08-31T11:30:01Z</time>
      </trkpt>
      <trkpt lat="46.24459" lon="-1.55959">
        <ele>1.58</ele>
        <time>2016-08-31T11:30:23Z</time>
      </trkpt>
      <trkpt lat="46.2446" lon="-1.55959">
        <ele>1.1</ele>
        <time>2016-08-31T11:30:48Z</time>
      </trkpt>
      <trkpt lat="46.2446" lon="-1.55959">
        <ele>1.1</ele>
        <time>2016-08-31T11:31:09Z</time>
      </trkpt>
      <trkpt lat="46.2446" lon="-1.55959">
        <ele>1.1</ele>
        <time>2016-08-31T11:31:32Z</time>
      </trkpt>
      <trkpt lat="46.2446" lon="-1.5596">
        <ele>1.1</ele>
        <time>2016-08-31T11:31:59Z</time>
      </trkpt>
      <trkpt lat="46.2446" lon="-1.5596">
        <ele>1.58</ele>
        <time>2016-08-31T11:32:20Z</time>
      </trkpt>
      <trkpt lat="46.24459" lon="-1.5596">
        <ele>1.1</ele>
        <time>2016-08-31T11:32:42Z</time>
      </trkpt>
      <trkpt lat="46.24459" lon="-1.5596">
        <ele>1.58</ele>
        <time>2016-08-31T11:33:05Z</time>
      </trkpt>
      <trkpt lat="46.24459" lon="-1.55961">
        <ele>1.1</ele>
        <time>2016-08-31T11:33:26Z</time>
      </trkpt>
      <trkpt lat="46.24458" lon="-1.55961">
        <ele>1.58</ele>
        <time>2016-08-31T11:33:52Z</time>
      </trkpt>
      <trkpt lat="46.24458" lon="-1.55961">
        <ele>1.1</ele>
        <time>2016-08-31T11:34:19Z</time>
      </trkpt>
      <trkpt lat="46.24458" lon="-1.55962">
        <ele>1.58</ele>
        <time>2016-08-31T11:34:50Z</time>
      </trkpt>
      <trkpt lat="46.24457" lon="-1.55961">
        <ele>1.58</ele>
        <time>2016-08-31T11:35:20Z</time>
      </trkpt>
      <trkpt lat="46.24457" lon="-1.55961">
        <ele>1.58</ele>
        <time>2016-08-31T11:35:53Z</time>
      </trkpt>
      <trkpt lat="46.24457" lon="-1.55961">
        <ele>1.58</ele>
        <time>2016-08-31T11:36:22Z</time>
      </trkpt>
      <trkpt lat="46.24457" lon="-1.55961">
        <ele>1.58</ele>
        <time>2016-08-31T11:36:52Z</time>
      </trkpt>
      <trkpt lat="46.24457" lon="-1.55961">
        <ele>1.1</ele>
        <time>2016-08-31T11:37:20Z</time>
      </trkpt>
      <trkpt lat="46.24457" lon="-1.55961">
        <ele>1.1</ele>
        <time>2016-08-31T11:37:46Z</time>
      </trkpt>
      <trkpt lat="46.24457" lon="-1.55961">
        <ele>1.1</ele>
        <time>2016-08-31T11:38:15Z</time>
      </trkpt>
      <trkpt lat="46.24456" lon="-1.55961">
        <ele>1.1</ele>
        <time>2016-08-31T11:38:41Z</time>
      </trkpt>
      <trkpt lat="46.24456" lon="-1.5596">
        <ele>1.1</ele>
        <time>2016-08-31T11:39:12Z</time>
      </trkpt>
      <trkpt lat="46.24456" lon="-1.5596">
        <ele>1.58</ele>
        <time>2016-08-31T11:39:41Z</time>
      </trkpt>
      <trkpt lat="46.24456" lon="-1.55959">
        <ele>1.58</ele>
        <time>2016-08-31T11:40:08Z</time>
      </trkpt>
      <trkpt lat="46.24457" lon="-1.55959">
        <ele>1.1</ele>
        <time>2016-08-31T11:40:36Z</time>
      </trkpt>
      <trkpt lat="46.24456" lon="-1.5596">
        <ele>1.1</ele>
        <time>2016-08-31T11:41:06Z</time>
      </trkpt>
      <trkpt lat="46.24456" lon="-1.5596">
        <ele>1.58</ele>
        <time>2016-08-31T11:41:32Z</time>
      </trkpt>
      <trkpt lat="46.24456" lon="-1.5596">
        <ele>1.1</ele>
        <time>2016-08-31T11:42:00Z</time>
      </trkpt>
      <trkpt lat="46.24457" lon="-1.5596">
        <ele>1.1</ele>
        <time>2016-08-31T11:42:27Z</time>
      </trkpt>
      <trkpt lat="46.24456" lon="-1.5596">
        <ele>1.58</ele>
        <time>2016-08-31T11:42:51Z</time>
      </trkpt>
      <trkpt lat="46.24457" lon="-1.5596">
        <ele>1.58</ele>
        <time>2016-08-31T11:43:16Z</time>
      </trkpt>
      <trkpt lat="46.24457" lon="-1.5596">
        <ele>1.1</ele>
        <time>2016-08-31T11:43:46Z</time>
      </trkpt>
      <trkpt lat="46.24457" lon="-1.55961">
        <ele>1.1</ele>
        <time>2016-08-31T11:44:12Z</time>
      </trkpt>
      <trkpt lat="46.24457" lon="-1.55961">
        <ele>1.1</ele>
        <time>2016-08-31T11:44:38Z</time>
      </trkpt>
      <trkpt lat="46.24457" lon="-1.55961">
        <ele>1.58</ele>
        <time>2016-08-31T11:45:00Z</time>
      </trkpt>
      <trkpt lat="46.24457" lon="-1.5596">
        <ele>1.58</ele>
        <time>2016-08-31T11:45:27Z</time>
      </trkpt>
      <trkpt lat="46.24457" lon="-1.5596">
        <ele>1.58</ele>
        <time>2016-08-31T11:45:56Z</time>
      </trkpt>
      <trkpt lat="46.24457" lon="-1.5596">
        <ele>1.58</ele>
        <time>2016-08-31T11:46:25Z</time>
      </trkpt>
      <trkpt lat="46.24457" lon="-1.5596">
        <ele>1.58</ele>
        <time>2016-08-31T11:46:58Z</time>
      </trkpt>
      <trkpt lat="46.24457" lon="-1.5596">
        <ele>1.58</ele>
        <time>2016-08-31T11:47:29Z</time>
      </trkpt>
      <trkpt lat="46.24457" lon="-1.5596">
        <ele>1.58</ele>
        <time>2016-08-31T11:47:58Z</time>
      </trkpt>
      <trkpt lat="46.24457" lon="-1.55959">
        <ele>1.58</ele>
        <time>2016-08-31T11:48:25Z</time>
      </trkpt>
      <trkpt lat="46.24456" lon="-1.55959">
        <ele>2.06</ele>
        <time>2016-08-31T11:48:52Z</time>
      </trkpt>
      <trkpt lat="46.24457" lon="-1.5596">
        <ele>2.54</ele>
        <time>2016-08-31T11:49:16Z</time>
      </trkpt>
      <trkpt lat="46.24457" lon="-1.5596">
        <ele>2.06</ele>
        <time>2016-08-31T11:49:39Z</time>
      </trkpt>
      <trkpt lat="46.24457" lon="-1.5596">
        <ele>2.06</ele>
        <time>2016-08-31T11:50:03Z</time>
      </trkpt>
      <trkpt lat="46.24456" lon="-1.5596">
        <ele>2.06</ele>
        <time>2016-08-31T11:50:30Z</time>
      </trkpt>
      <trkpt lat="46.24456" lon="-1.5596">
        <ele>2.54</ele>
        <time>2016-08-31T11:50:55Z</time>
      </trkpt>
      <trkpt lat="46.24456" lon="-1.5596">
        <ele>1.58</ele>
        <time>2016-08-31T11:51:19Z</time>
      </trkpt>
      <trkpt lat="46.24456" lon="-1.5596">
        <ele>2.06</ele>
        <time>2016-08-31T11:51:44Z</time>
      </trkpt>
      <trkpt lat="46.24456" lon="-1.5596">
        <ele>2.54</ele>
        <time>2016-08-31T11:52:10Z</time>
      </trkpt>
      <trkpt lat="46.24456" lon="-1.5596">
        <ele>2.06</ele>
        <time>2016-08-31T11:52:33Z</time>
      </trkpt>
      <trkpt lat="46.24457" lon="-1.5596">
        <ele>2.06</ele>
        <time>2016-08-31T11:53:01Z</time>
      </trkpt>
      <trkpt lat="46.24457" lon="-1.5596">
        <ele>2.06</ele>
        <time>2016-08-31T11:53:30Z</time>
      </trkpt>
      <trkpt lat="46.24457" lon="-1.5596">
        <ele>2.06</ele>
        <time>2016-08-31T11:53:56Z</time>
      </trkpt>
      <trkpt lat="46.24457" lon="-1.5596">
        <ele>2.06</ele>
        <time>2016-08-31T11:54:21Z</time>
      </trkpt>
      <trkpt lat="46.24457" lon="-1.5596">
        <ele>2.54</ele>
        <time>2016-08-31T11:54:50Z</time>
      </trkpt>
      <trkpt lat="46.24457" lon="-1.5596">
        <ele>2.54</ele>
        <time>2016-08-31T11:55:17Z</time>
      </trkpt>
      <trkpt lat="46.24457" lon="-1.55961">
        <ele>2.54</ele>
        <time>2016-08-31T11:55:41Z</time>
      </trkpt>
      <trkpt lat="46.24458" lon="-1.55962">
        <ele>2.54</ele>
        <time>2016-08-31T11:56:10Z</time>
      </trkpt>
      <trkpt lat="46.24458" lon="-1.55962">
        <ele>2.54</ele>
        <time>2016-08-31T11:56:37Z</time>
      </trkpt>
      <trkpt lat="46.24458" lon="-1.55962">
        <ele>2.54</ele>
        <time>2016-08-31T11:57:05Z</time>
      </trkpt>
      <trkpt lat="46.24458" lon="-1.55961">
        <ele>2.54</ele>
        <time>2016-08-31T11:57:31Z</time>
      </trkpt>
      <trkpt lat="46.24458" lon="-1.55961">
        <ele>2.54</ele>
        <time>2016-08-31T11:57:57Z</time>
      </trkpt>
      <trkpt lat="46.24457" lon="-1.55962">
        <ele>2.54</ele>
        <time>2016-08-31T11:58:22Z</time>
      </trkpt>
      <trkpt lat="46.24457" lon="-1.55962">
        <ele>2.54</ele>
        <time>2016-08-31T11:58:50Z</time>
      </trkpt>
      <trkpt lat="46.24457" lon="-1.55962">
        <ele>2.54</ele>
        <time>2016-08-31T11:59:18Z</time>
      </trkpt>
      <trkpt lat="46.24457" lon="-1.55962">
        <ele>2.54</ele>
        <time>2016-08-31T11:59:44Z</time>
      </trkpt>
      <trkpt lat="46.24457" lon="-1.55962">
        <ele>2.54</ele>
        <time>2016-08-31T12:00:11Z</time>
      </trkpt>
      <trkpt lat="46.24457" lon="-1.55962">
        <ele>2.06</ele>
        <time>2016-08-31T12:00:36Z</time>
      </trkpt>
      <trkpt lat="46.24457" lon="-1.55962">
        <ele>2.54</ele>
        <time>2016-08-31T12:01:02Z</time>
      </trkpt>
      <trkpt lat="46.24457" lon="-1.55961">
        <ele>2.06</ele>
        <time>2016-08-31T12:01:25Z</time>
      </trkpt>
      <trkpt lat="46.24457" lon="-1.55961">
        <ele>2.54</ele>
        <time>2016-08-31T12:01:50Z</time>
      </trkpt>
      <trkpt lat="46.24457" lon="-1.55961">
        <ele>2.06</ele>
        <time>2016-08-31T12:02:13Z</time>
      </trkpt>
      <trkpt lat="46.24457" lon="-1.55961">
        <ele>2.54</ele>
        <time>2016-08-31T12:02:38Z</time>
      </trkpt>
      <trkpt lat="46.24457" lon="-1.55961">
        <ele>-1.3</ele>
        <time>2016-08-31T12:02:49Z</time>
      </trkpt>
      <trkpt lat="46.24457" lon="-1.55961">
        <ele>3.5</ele>
        <time>2016-08-31T12:02:50Z</time>
      </trkpt>
      <trkpt lat="46.24457" lon="-1.55961">
        <ele>3.98</ele>
        <time>2016-08-31T12:02:52Z</time>
      </trkpt>
      <trkpt lat="46.24457" lon="-1.55961">
        <ele>1.58</ele>
        <time>2016-08-31T12:02:58Z</time>
      </trkpt>
      <trkpt lat="46.24457" lon="-1.55961">
        <ele>5.91</ele>
        <time>2016-08-31T12:03:01Z</time>
      </trkpt>
      <trkpt lat="46.24457" lon="-1.55961">
        <ele>3.02</ele>
        <time>2016-08-31T12:03:02Z</time>
      </trkpt>
      <trkpt lat="46.24457" lon="-1.55961">
        <ele>3.98</ele>
        <time>2016-08-31T12:03:21Z</time>
      </trkpt>
      <trkpt lat="46.24458" lon="-1.55961">
        <ele>3.02</ele>
        <time>2016-08-31T12:03:46Z</time>
      </trkpt>
      <trkpt lat="46.24457" lon="-1.5596">
        <ele>3.02</ele>
        <time>2016-08-31T12:04:09Z</time>
      </trkpt>
      <trkpt lat="46.24458" lon="-1.5596">
        <ele>2.54</ele>
        <time>2016-08-31T12:04:36Z</time>
      </trkpt>
      <trkpt lat="46.24459" lon="-1.55958">
        <ele>2.54</ele>
        <time>2016-08-31T12:05:04Z</time>
      </trkpt>
      <trkpt lat="46.24459" lon="-1.55958">
        <ele>2.54</ele>
        <time>2016-08-31T12:05:31Z</time>
      </trkpt>
      <trkpt lat="46.24459" lon="-1.55957">
        <ele>2.06</ele>
        <time>2016-08-31T12:05:55Z</time>
      </trkpt>
      <trkpt lat="46.24458" lon="-1.55957">
        <ele>2.06</ele>
        <time>2016-08-31T12:06:30Z</time>
      </trkpt>
      <trkpt lat="46.24459" lon="-1.55957">
        <ele>-0.82</ele>
        <time>2016-08-31T12:06:43Z</time>
      </trkpt>
      <trkpt lat="46.24459" lon="-1.55957">
        <ele>3.02</ele>
        <time>2016-08-31T12:06:44Z</time>
      </trkpt>
      <trkpt lat="46.24459" lon="-1.55957">
        <ele>-0.82</ele>
        <time>2016-08-31T12:06:51Z</time>
      </trkpt>
      <trkpt lat="46.24458" lon="-1.55957">
        <ele>3.5</ele>
        <time>2016-08-31T12:06:56Z</time>
      </trkpt>
      <trkpt lat="46.24459" lon="-1.55957">
        <ele>0.62</ele>
        <time>2016-08-31T12:07:09Z</time>
      </trkpt>
      <trkpt lat="46.24458" lon="-1.55957">
        <ele>3.02</ele>
        <time>2016-08-31T12:07:11Z</time>
      </trkpt>
      <trkpt lat="46.24458" lon="-1.55957">
        <ele>-3.23</ele>
        <time>2016-08-31T12:07:27Z</time>
      </trkpt>
      <trkpt lat="46.24458" lon="-1.55957">
        <ele>0.62</ele>
        <time>2016-08-31T12:07:28Z</time>
      </trkpt>
      <trkpt lat="46.24458" lon="-1.55957">
        <ele>4.46</ele>
        <time>2016-08-31T12:07:29Z</time>
      </trkpt>
      <trkpt lat="46.24458" lon="-1.55957">
        <ele>3.02</ele>
        <time>2016-08-31T12:07:30Z</time>
      </trkpt>
      <trkpt lat="46.24458" lon="-1.55957">
        <ele>2.54</ele>
        <time>2016-08-31T12:07:50Z</time>
      </trkpt>
      <trkpt lat="46.24458" lon="-1.55957">
        <ele>2.06</ele>
        <time>2016-08-31T12:07:57Z</time>
      </trkpt>
      <trkpt lat="46.24458" lon="-1.55958">
        <ele>2.06</ele>
        <time>2016-08-31T12:08:10Z</time>
      </trkpt>
      <trkpt lat="46.24458" lon="-1.55957">
        <ele>1.58</ele>
        <time>2016-08-31T12:08:24Z</time>
      </trkpt>
      <trkpt lat="46.24458" lon="-1.55957">
        <ele>3.02</ele>
        <time>2016-08-31T12:08:26Z</time>
      </trkpt>
      <trkpt lat="46.24459" lon="-1.55957">
        <ele>3.02</ele>
        <time>2016-08-31T12:08:43Z</time>
      </trkpt>
      <trkpt lat="46.24459" lon="-1.55957">
        <ele>3.5</ele>
        <time>2016-08-31T12:08:55Z</time>
      </trkpt>
      <trkpt lat="46.2446" lon="-1.55957">
        <ele>2.06</ele>
        <time>2016-08-31T12:09:10Z</time>
      </trkpt>
      <trkpt lat="46.2446" lon="-1.55957">
        <ele>3.02</ele>
        <time>2016-08-31T12:09:19Z</time>
      </trkpt>
      <trkpt lat="46.24461" lon="-1.55961">
        <ele>3.5</ele>
        <time>2016-08-31T12:09:33Z</time>
      </trkpt>
      <trkpt lat="46.24461" lon="-1.55963">
        <ele>2.54</ele>
        <time>2016-08-31T12:09:42Z</time>
      </trkpt>
      <trkpt lat="46.24461" lon="-1.55972">
        <ele>3.5</ele>
        <time>2016-08-31T12:09:51Z</time>
      </trkpt>
      <trkpt lat="46.24459" lon="-1.55976">
        <ele>2.54</ele>
        <time>2016-08-31T12:09:56Z</time>
      </trkpt>
      <trkpt lat="46.24457" lon="-1.55978">
        <ele>3.5</ele>
        <time>2016-08-31T12:09:58Z</time>
      </trkpt>
      <trkpt lat="46.24455" lon="-1.55979">
        <ele>2.54</ele>
        <time>2016-08-31T12:10:00Z</time>
      </trkpt>
      <trkpt lat="46.2445" lon="-1.55982">
        <ele>2.54</ele>
        <time>2016-08-31T12:10:10Z</time>
      </trkpt>
      <trkpt lat="46.24449" lon="-1.55984">
        <ele>2.06</ele>
        <time>2016-08-31T12:10:12Z</time>
      </trkpt>
      <trkpt lat="46.24447" lon="-1.55988">
        <ele>2.06</ele>
        <time>2016-08-31T12:10:16Z</time>
      </trkpt>
      <trkpt lat="46.24444" lon="-1.56">
        <ele>3.02</ele>
        <time>2016-08-31T12:10:25Z</time>
      </trkpt>
      <trkpt lat="46.24434" lon="-1.56009">
        <ele>2.06</ele>
        <time>2016-08-31T12:10:35Z</time>
      </trkpt>
      <trkpt lat="46.24431" lon="-1.56011">
        <ele>3.5</ele>
        <time>2016-08-31T12:10:39Z</time>
      </trkpt>
      <trkpt lat="46.24418" lon="-1.56019">
        <ele>2.54</ele>
        <time>2016-08-31T12:10:50Z</time>
      </trkpt>
      <trkpt lat="46.24403" lon="-1.56009">
        <ele>2.06</ele>
        <time>2016-08-31T12:11:03Z</time>
      </trkpt>
      <trkpt lat="46.24389" lon="-1.56">
        <ele>2.06</ele>
        <time>2016-08-31T12:11:15Z</time>
      </trkpt>
      <trkpt lat="46.24378" lon="-1.55986">
        <ele>2.54</ele>
        <time>2016-08-31T12:11:26Z</time>
      </trkpt>
      <trkpt lat="46.24366" lon="-1.55974">
        <ele>2.54</ele>
        <time>2016-08-31T12:11:37Z</time>
      </trkpt>
      <trkpt lat="46.24361" lon="-1.55967">
        <ele>3.02</ele>
        <time>2016-08-31T12:11:43Z</time>
      </trkpt>
      <trkpt lat="46.24356" lon="-1.55962">
        <ele>2.06</ele>
        <time>2016-08-31T12:11:49Z</time>
      </trkpt>
      <trkpt lat="46.24353" lon="-1.55961">
        <ele>2.06</ele>
        <time>2016-08-31T12:11:52Z</time>
      </trkpt>
      <trkpt lat="46.24348" lon="-1.55957">
        <ele>2.06</ele>
        <time>2016-08-31T12:11:58Z</time>
      </trkpt>
      <trkpt lat="46.24345" lon="-1.55956">
        <ele>1.58</ele>
        <time>2016-08-31T12:12:07Z</time>
      </trkpt>
      <trkpt lat="46.24344" lon="-1.55954">
        <ele>2.06</ele>
        <time>2016-08-31T12:12:20Z</time>
      </trkpt>
      <trkpt lat="46.24339" lon="-1.55947">
        <ele>1.58</ele>
        <time>2016-08-31T12:12:28Z</time>
      </trkpt>
      <trkpt lat="46.24336" lon="-1.55945">
        <ele>2.06</ele>
        <time>2016-08-31T12:12:31Z</time>
      </trkpt>
      <trkpt lat="46.24334" lon="-1.55942">
        <ele>2.06</ele>
        <time>2016-08-31T12:12:33Z</time>
      </trkpt>
      <trkpt lat="46.24329" lon="-1.55933">
        <ele>1.58</ele>
        <time>2016-08-31T12:12:43Z</time>
      </trkpt>
      <trkpt lat="46.24324" lon="-1.55927">
        <ele>2.54</ele>
        <time>2016-08-31T12:12:53Z</time>
      </trkpt>
      <trkpt lat="46.24324" lon="-1.55926">
        <ele>2.54</ele>
        <time>2016-08-31T12:13:08Z</time>
      </trkpt>
      <trkpt lat="46.24325" lon="-1.55924">
        <ele>2.54</ele>
        <time>2016-08-31T12:13:26Z</time>
      </trkpt>
      <trkpt lat="46.24325" lon="-1.55923">
        <ele>2.06</ele>
        <time>2016-08-31T12:13:41Z</time>
      </trkpt>
      <trkpt lat="46.24324" lon="-1.55923">
        <ele>-3.71</ele>
        <time>2016-08-31T12:13:54Z</time>
      </trkpt>
      <trkpt lat="46.24324" lon="-1.55923">
        <ele>3.02</ele>
        <time>2016-08-31T12:13:55Z</time>
      </trkpt>
      <trkpt lat="46.24323" lon="-1.55924">
        <ele>1.1</ele>
        <time>2016-08-31T12:14:04Z</time>
      </trkpt>
      <trkpt lat="46.24323" lon="-1.55924">
        <ele>0.62</ele>
        <time>2016-08-31T12:14:25Z</time>
      </trkpt>
      <trkpt lat="46.24323" lon="-1.55924">
        <ele>1.1</ele>
        <time>2016-08-31T12:14:50Z</time>
      </trkpt>
      <trkpt lat="46.24323" lon="-1.55924">
        <ele>2.06</ele>
        <time>2016-08-31T12:15:12Z</time>
      </trkpt>
      <trkpt lat="46.24322" lon="-1.55923">
        <ele>1.58</ele>
        <time>2016-08-31T12:15:21Z</time>
      </trkpt>
      <trkpt lat="46.24321" lon="-1.5592">
        <ele>1.58</ele>
        <time>2016-08-31T12:15:29Z</time>
      </trkpt>
      <trkpt lat="46.24317" lon="-1.55911">
        <ele>1.58</ele>
        <time>2016-08-31T12:15:40Z</time>
      </trkpt>
      <trkpt lat="46.24316" lon="-1.55904">
        <ele>1.1</ele>
        <time>2016-08-31T12:15:47Z</time>
      </trkpt>
      <trkpt lat="46.24312" lon="-1.559">
        <ele>1.58</ele>
        <time>2016-08-31T12:15:57Z</time>
      </trkpt>
      <trkpt lat="46.2431" lon="-1.559">
        <ele>1.58</ele>
        <time>2016-08-31T12:16:05Z</time>
      </trkpt>
      <trkpt lat="46.2431" lon="-1.559">
        <ele>1.1</ele>
        <time>2016-08-31T12:16:18Z</time>
      </trkpt>
      <trkpt lat="46.24308" lon="-1.559">
        <ele>1.58</ele>
        <time>2016-08-31T12:16:33Z</time>
      </trkpt>
      <trkpt lat="46.24308" lon="-1.559">
        <ele>1.1</ele>
        <time>2016-08-31T12:16:42Z</time>
      </trkpt>
      <trkpt lat="46.24307" lon="-1.559">
        <ele>1.58</ele>
        <time>2016-08-31T12:16:58Z</time>
      </trkpt>
      <trkpt lat="46.24305" lon="-1.55902">
        <ele>1.1</ele>
        <time>2016-08-31T12:17:09Z</time>
      </trkpt>
      <trkpt lat="46.24303" lon="-1.55902">
        <ele>0.62</ele>
        <time>2016-08-31T12:17:21Z</time>
      </trkpt>
      <trkpt lat="46.24302" lon="-1.55903">
        <ele>0.62</ele>
        <time>2016-08-31T12:17:49Z</time>
      </trkpt>
      <trkpt lat="46.24302" lon="-1.55904">
        <ele>1.1</ele>
        <time>2016-08-31T12:18:09Z</time>
      </trkpt>
      <trkpt lat="46.24302" lon="-1.55904">
        <ele>0.62</ele>
        <time>2016-08-31T12:18:28Z</time>
      </trkpt>
      <trkpt lat="46.24303" lon="-1.55904">
        <ele>0.62</ele>
        <time>2016-08-31T12:18:51Z</time>
      </trkpt>
      <trkpt lat="46.24303" lon="-1.55903">
        <ele>0.62</ele>
        <time>2016-08-31T12:19:12Z</time>
      </trkpt>
      <trkpt lat="46.24303" lon="-1.559">
        <ele>0.62</ele>
        <time>2016-08-31T12:19:27Z</time>
      </trkpt>
      <trkpt lat="46.24303" lon="-1.559">
        <ele>0.62</ele>
        <time>2016-08-31T12:19:39Z</time>
      </trkpt>
      <trkpt lat="46.24303" lon="-1.559">
        <ele>1.58</ele>
        <time>2016-08-31T12:20:01Z</time>
      </trkpt>
      <trkpt lat="46.24303" lon="-1.559">
        <ele>1.1</ele>
        <time>2016-08-31T12:20:16Z</time>
      </trkpt>
      <trkpt lat="46.24303" lon="-1.55899">
        <ele>1.1</ele>
        <time>2016-08-31T12:20:28Z</time>
      </trkpt>
      <trkpt lat="46.24303" lon="-1.55898">
        <ele>1.1</ele>
        <time>2016-08-31T12:20:47Z</time>
      </trkpt>
      <trkpt lat="46.24303" lon="-1.55897">
        <ele>1.1</ele>
        <time>2016-08-31T12:21:12Z</time>
      </trkpt>
      <trkpt lat="46.24303" lon="-1.55897">
        <ele>0.62</ele>
        <time>2016-08-31T12:21:32Z</time>
      </trkpt>
      <trkpt lat="46.24303" lon="-1.55896">
        <ele>1.1</ele>
        <time>2016-08-31T12:21:55Z</time>
      </trkpt>
      <trkpt lat="46.24303" lon="-1.55896">
        <ele>0.62</ele>
        <time>2016-08-31T12:22:14Z</time>
      </trkpt>
      <trkpt lat="46.24303" lon="-1.55896">
        <ele>1.1</ele>
        <time>2016-08-31T12:22:30Z</time>
      </trkpt>
      <trkpt lat="46.24307" lon="-1.55899">
        <ele>0.62</ele>
        <time>2016-08-31T12:22:40Z</time>
      </trkpt>
      <trkpt lat="46.24307" lon="-1.55898">
        <ele>1.1</ele>
        <time>2016-08-31T12:22:51Z</time>
      </trkpt>
      <trkpt lat="46.24307" lon="-1.55898">
        <ele>0.62</ele>
        <time>2016-08-31T12:23:03Z</time>
      </trkpt>
      <trkpt lat="46.24307" lon="-1.55895">
        <ele>0.62</ele>
        <time>2016-08-31T12:23:28Z</time>
      </trkpt>
      <trkpt lat="46.24309" lon="-1.55898">
        <ele>1.1</ele>
        <time>2016-08-31T12:23:37Z</time>
      </trkpt>
      <trkpt lat="46.24309" lon="-1.55899">
        <ele>1.58</ele>
        <time>2016-08-31T12:23:50Z</time>
      </trkpt>
      <trkpt lat="46.24309" lon="-1.559">
        <ele>1.1</ele>
        <time>2016-08-31T12:23:58Z</time>
      </trkpt>
      <trkpt lat="46.24308" lon="-1.559">
        <ele>0.14</ele>
        <time>2016-08-31T12:24:08Z</time>
      </trkpt>
      <trkpt lat="46.24308" lon="-1.559">
        <ele>1.1</ele>
        <time>2016-08-31T12:24:22Z</time>
      </trkpt>
      <trkpt lat="46.24308" lon="-1.55901">
        <ele>0.62</ele>
        <time>2016-08-31T12:24:36Z</time>
      </trkpt>
      <trkpt lat="46.24308" lon="-1.55901">
        <ele>1.1</ele>
        <time>2016-08-31T12:24:54Z</time>
      </trkpt>
      <trkpt lat="46.24308" lon="-1.55901">
        <ele>1.1</ele>
        <time>2016-08-31T12:25:12Z</time>
      </trkpt>
      <trkpt lat="46.24308" lon="-1.55901">
        <ele>1.1</ele>
        <time>2016-08-31T12:25:20Z</time>
      </trkpt>
      <trkpt lat="46.24308" lon="-1.55902">
        <ele>1.1</ele>
        <time>2016-08-31T12:25:37Z</time>
      </trkpt>
      <trkpt lat="46.24307" lon="-1.55902">
        <ele>0.62</ele>
        <time>2016-08-31T12:25:58Z</time>
      </trkpt>
      <trkpt lat="46.24307" lon="-1.55902">
        <ele>1.1</ele>
        <time>2016-08-31T12:26:14Z</time>
      </trkpt>
      <trkpt lat="46.24307" lon="-1.55902">
        <ele>0.62</ele>
        <time>2016-08-31T12:26:15Z</time>
      </trkpt>
      <trkpt lat="46.24307" lon="-1.559">
        <ele>-0.34</ele>
        <time>2016-08-31T12:26:27Z</time>
      </trkpt>
      <trkpt lat="46.24307" lon="-1.559">
        <ele>1.1</ele>
        <time>2016-08-31T12:26:30Z</time>
      </trkpt>
      <trkpt lat="46.24308" lon="-1.559">
        <ele>0.62</ele>
        <time>2016-08-31T12:26:46Z</time>
      </trkpt>
      <trkpt lat="46.24308" lon="-1.559">
        <ele>0.62</ele>
        <time>2016-08-31T12:26:57Z</time>
      </trkpt>
      <trkpt lat="46.24308" lon="-1.55901">
        <ele>0.62</ele>
        <time>2016-08-31T12:27:12Z</time>
      </trkpt>
      <trkpt lat="46.24309" lon="-1.559">
        <ele>0.62</ele>
        <time>2016-08-31T12:27:28Z</time>
      </trkpt>
      <trkpt lat="46.24309" lon="-1.559">
        <ele>-2.75</ele>
        <time>2016-08-31T12:27:33Z</time>
      </trkpt>
      <trkpt lat="46.2431" lon="-1.55899">
        <ele>0.62</ele>
        <time>2016-08-31T12:27:34Z</time>
      </trkpt>
      <trkpt lat="46.24313" lon="-1.55898">
        <ele>0.62</ele>
        <time>2016-08-31T12:27:37Z</time>
      </trkpt>
      <trkpt lat="46.24334" lon="-1.55887">
        <ele>0.62</ele>
        <time>2016-08-31T12:27:46Z</time>
      </trkpt>
      <trkpt lat="46.24347" lon="-1.55872">
        <ele>0.14</ele>
        <time>2016-08-31T12:27:53Z</time>
      </trkpt>
      <trkpt lat="46.24373" lon="-1.55857">
        <ele>0.62</ele>
        <time>2016-08-31T12:28:03Z</time>
      </trkpt>
      <trkpt lat="46.24403" lon="-1.55826">
        <ele>1.1</ele>
        <time>2016-08-31T12:28:14Z</time>
      </trkpt>
      <trkpt lat="46.24425" lon="-1.55784">
        <ele>1.58</ele>
        <time>2016-08-31T12:28:25Z</time>
      </trkpt>
      <trkpt lat="46.24431" lon="-1.55734">
        <ele>2.06</ele>
        <time>2016-08-31T12:28:35Z</time>
      </trkpt>
      <trkpt lat="46.24421" lon="-1.55693">
        <ele>1.58</ele>
        <time>2016-08-31T12:28:43Z</time>
      </trkpt>
      <trkpt lat="46.24419" lon="-1.55687">
        <ele>2.06</ele>
        <time>2016-08-31T12:28:44Z</time>
      </trkpt>
      <trkpt lat="46.244" lon="-1.55616">
        <ele>2.06</ele>
        <time>2016-08-31T12:28:55Z</time>
      </trkpt>
      <trkpt lat="46.24385" lon="-1.55562">
        <ele>2.54</ele>
        <time>2016-08-31T12:29:04Z</time>
      </trkpt>
      <trkpt lat="46.24372" lon="-1.55509">
        <ele>2.06</ele>
        <time>2016-08-31T12:29:12Z</time>
      </trkpt>
      <trkpt lat="46.2437" lon="-1.55503">
        <ele>2.06</ele>
        <time>2016-08-31T12:29:13Z</time>
      </trkpt>
      <trkpt lat="46.24369" lon="-1.55496">
        <ele>1.58</ele>
        <time>2016-08-31T12:29:14Z</time>
      </trkpt>
      <trkpt lat="46.24367" lon="-1.55489">
        <ele>1.58</ele>
        <time>2016-08-31T12:29:15Z</time>
      </trkpt>
      <trkpt lat="46.24365" lon="-1.55482">
        <ele>1.58</ele>
        <time>2016-08-31T12:29:16Z</time>
      </trkpt>
      <trkpt lat="46.24362" lon="-1.55475">
        <ele>2.06</ele>
        <time>2016-08-31T12:29:17Z</time>
      </trkpt>
      <trkpt lat="46.24359" lon="-1.55469">
        <ele>1.58</ele>
        <time>2016-08-31T12:29:18Z</time>
      </trkpt>
      <trkpt lat="46.24357" lon="-1.55462">
        <ele>1.58</ele>
        <time>2016-08-31T12:29:19Z</time>
      </trkpt>
      <trkpt lat="46.24326" lon="-1.55392">
        <ele>1.1</ele>
        <time>2016-08-31T12:29:30Z</time>
      </trkpt>
      <trkpt lat="46.24312" lon="-1.55352">
        <ele>2.06</ele>
        <time>2016-08-31T12:29:38Z</time>
      </trkpt>
      <trkpt lat="46.24306" lon="-1.55293">
        <ele>1.58</ele>
        <time>2016-08-31T12:29:47Z</time>
      </trkpt>
      <trkpt lat="46.24292" lon="-1.55205">
        <ele>1.58</ele>
        <time>2016-08-31T12:30:00Z</time>
      </trkpt>
      <trkpt lat="46.24277" lon="-1.55097">
        <ele>1.58</ele>
        <time>2016-08-31T12:30:16Z</time>
      </trkpt>
      <trkpt lat="46.24267" lon="-1.5502">
        <ele>1.1</ele>
        <time>2016-08-31T12:30:27Z</time>
      </trkpt>
      <trkpt lat="46.24262" lon="-1.54988">
        <ele>1.58</ele>
        <time>2016-08-31T12:30:32Z</time>
      </trkpt>
      <trkpt lat="46.2426" lon="-1.54982">
        <ele>1.58</ele>
        <time>2016-08-31T12:30:33Z</time>
      </trkpt>
      <trkpt lat="46.24259" lon="-1.54976">
        <ele>1.58</ele>
        <time>2016-08-31T12:30:34Z</time>
      </trkpt>
      <trkpt lat="46.24258" lon="-1.54969">
        <ele>1.58</ele>
        <time>2016-08-31T12:30:35Z</time>
      </trkpt>
      <trkpt lat="46.24257" lon="-1.54963">
        <ele>2.06</ele>
        <time>2016-08-31T12:30:36Z</time>
      </trkpt>
      <trkpt lat="46.24256" lon="-1.54956">
        <ele>2.06</ele>
        <time>2016-08-31T12:30:37Z</time>
      </trkpt>
      <trkpt lat="46.2425" lon="-1.54925">
        <ele>1.58</ele>
        <time>2016-08-31T12:30:42Z</time>
      </trkpt>
      <trkpt lat="46.24248" lon="-1.54918">
        <ele>2.06</ele>
        <time>2016-08-31T12:30:43Z</time>
      </trkpt>
      <trkpt lat="46.24246" lon="-1.54905">
        <ele>2.06</ele>
        <time>2016-08-31T12:30:45Z</time>
      </trkpt>
      <trkpt lat="46.24235" lon="-1.54835">
        <ele>1.1</ele>
        <time>2016-08-31T12:30:55Z</time>
      </trkpt>
      <trkpt lat="46.2422" lon="-1.54738">
        <ele>1.58</ele>
        <time>2016-08-31T12:31:09Z</time>
      </trkpt>
      <trkpt lat="46.24216" lon="-1.54703">
        <ele>1.58</ele>
        <time>2016-08-31T12:31:14Z</time>
      </trkpt>
      <trkpt lat="46.24215" lon="-1.5469">
        <ele>1.58</ele>
        <time>2016-08-31T12:31:16Z</time>
      </trkpt>
      <trkpt lat="46.24216" lon="-1.5467">
        <ele>2.06</ele>
        <time>2016-08-31T12:31:19Z</time>
      </trkpt>
      <trkpt lat="46.24216" lon="-1.54664">
        <ele>2.06</ele>
        <time>2016-08-31T12:31:20Z</time>
      </trkpt>
      <trkpt lat="46.24221" lon="-1.54571">
        <ele>1.58</ele>
        <time>2016-08-31T12:31:34Z</time>
      </trkpt>
      <trkpt lat="46.24225" lon="-1.54492">
        <ele>2.54</ele>
        <time>2016-08-31T12:31:46Z</time>
      </trkpt>
      <trkpt lat="46.24228" lon="-1.54411">
        <ele>3.02</ele>
        <time>2016-08-31T12:31:59Z</time>
      </trkpt>
      <trkpt lat="46.24229" lon="-1.54405">
        <ele>2.54</ele>
        <time>2016-08-31T12:32:01Z</time>
      </trkpt>
      <trkpt lat="46.24231" lon="-1.54404">
        <ele>3.02</ele>
        <time>2016-08-31T12:32:03Z</time>
      </trkpt>
      <trkpt lat="46.24237" lon="-1.54402">
        <ele>3.02</ele>
        <time>2016-08-31T12:32:06Z</time>
      </trkpt>
      <trkpt lat="46.24239" lon="-1.54399">
        <ele>3.02</ele>
        <time>2016-08-31T12:32:07Z</time>
      </trkpt>
      <trkpt lat="46.24239" lon="-1.54395">
        <ele>3.02</ele>
        <time>2016-08-31T12:32:08Z</time>
      </trkpt>
      <trkpt lat="46.24239" lon="-1.54391">
        <ele>3.02</ele>
        <time>2016-08-31T12:32:09Z</time>
      </trkpt>
      <trkpt lat="46.2424" lon="-1.54385">
        <ele>3.02</ele>
        <time>2016-08-31T12:32:10Z</time>
      </trkpt>
      <trkpt lat="46.24241" lon="-1.54381">
        <ele>3.5</ele>
        <time>2016-08-31T12:32:11Z</time>
      </trkpt>
      <trkpt lat="46.24242" lon="-1.54361">
        <ele>3.5</ele>
        <time>2016-08-31T12:32:16Z</time>
      </trkpt>
      <trkpt lat="46.24243" lon="-1.54358">
        <ele>3.5</ele>
        <time>2016-08-31T12:32:17Z</time>
      </trkpt>
      <trkpt lat="46.2425" lon="-1.54307">
        <ele>3.5</ele>
        <time>2016-08-31T12:32:27Z</time>
      </trkpt>
      <trkpt lat="46.2425" lon="-1.54264">
        <ele>3.5</ele>
        <time>2016-08-31T12:32:35Z</time>
      </trkpt>
      <trkpt lat="46.24247" lon="-1.54217">
        <ele>3.5</ele>
        <time>2016-08-31T12:32:43Z</time>
      </trkpt>
      <trkpt lat="46.2425" lon="-1.5417">
        <ele>3.5</ele>
        <time>2016-08-31T12:32:52Z</time>
      </trkpt>
      <trkpt lat="46.24255" lon="-1.5416">
        <ele>3.5</ele>
        <time>2016-08-31T12:32:54Z</time>
      </trkpt>
      <trkpt lat="46.24257" lon="-1.54154">
        <ele>3.5</ele>
        <time>2016-08-31T12:32:55Z</time>
      </trkpt>
      <trkpt lat="46.24258" lon="-1.54148">
        <ele>3.5</ele>
        <time>2016-08-31T12:32:56Z</time>
      </trkpt>
      <trkpt lat="46.24258" lon="-1.54141">
        <ele>3.5</ele>
        <time>2016-08-31T12:32:57Z</time>
      </trkpt>
      <trkpt lat="46.24259" lon="-1.54135">
        <ele>3.5</ele>
        <time>2016-08-31T12:32:58Z</time>
      </trkpt>
      <trkpt lat="46.24258" lon="-1.54128">
        <ele>3.02</ele>
        <time>2016-08-31T12:32:59Z</time>
      </trkpt>
      <trkpt lat="46.2426" lon="-1.54076">
        <ele>2.54</ele>
        <time>2016-08-31T12:33:07Z</time>
      </trkpt>
      <trkpt lat="46.24259" lon="-1.54045">
        <ele>-1.3</ele>
        <time>2016-08-31T12:33:12Z</time>
      </trkpt>
      <trkpt lat="46.2426" lon="-1.54039">
        <ele>3.5</ele>
        <time>2016-08-31T12:33:13Z</time>
      </trkpt>
      <trkpt lat="46.24261" lon="-1.54">
        <ele>2.06</ele>
        <time>2016-08-31T12:33:20Z</time>
      </trkpt>
      <trkpt lat="46.24263" lon="-1.53953">
        <ele>2.06</ele>
        <time>2016-08-31T12:33:27Z</time>
      </trkpt>
      <trkpt lat="46.24263" lon="-1.53946">
        <ele>2.54</ele>
        <time>2016-08-31T12:33:28Z</time>
      </trkpt>
      <trkpt lat="46.24266" lon="-1.5392">
        <ele>2.54</ele>
        <time>2016-08-31T12:33:32Z</time>
      </trkpt>
      <trkpt lat="46.24277" lon="-1.53842">
        <ele>2.54</ele>
        <time>2016-08-31T12:33:44Z</time>
      </trkpt>
      <trkpt lat="46.24282" lon="-1.53815">
        <ele>2.54</ele>
        <time>2016-08-31T12:33:48Z</time>
      </trkpt>
      <trkpt lat="46.24288" lon="-1.53736">
        <ele>3.02</ele>
        <time>2016-08-31T12:33:59Z</time>
      </trkpt>
      <trkpt lat="46.24306" lon="-1.53631">
        <ele>3.5</ele>
        <time>2016-08-31T12:34:14Z</time>
      </trkpt>
      <trkpt lat="46.24311" lon="-1.53611">
        <ele>3.5</ele>
        <time>2016-08-31T12:34:17Z</time>
      </trkpt>
      <trkpt lat="46.24313" lon="-1.53604">
        <ele>3.5</ele>
        <time>2016-08-31T12:34:18Z</time>
      </trkpt>
      <trkpt lat="46.24313" lon="-1.53598">
        <ele>3.98</ele>
        <time>2016-08-31T12:34:19Z</time>
      </trkpt>
      <trkpt lat="46.24314" lon="-1.53591">
        <ele>3.5</ele>
        <time>2016-08-31T12:34:20Z</time>
      </trkpt>
      <trkpt lat="46.24314" lon="-1.53584">
        <ele>3.98</ele>
        <time>2016-08-31T12:34:21Z</time>
      </trkpt>
      <trkpt lat="46.24314" lon="-1.53554">
        <ele>3.5</ele>
        <time>2016-08-31T12:34:25Z</time>
      </trkpt>
      <trkpt lat="46.24316" lon="-1.53547">
        <ele>2.54</ele>
        <time>2016-08-31T12:34:26Z</time>
      </trkpt>
      <trkpt lat="46.24317" lon="-1.53539">
        <ele>3.02</ele>
        <time>2016-08-31T12:34:27Z</time>
      </trkpt>
      <trkpt lat="46.24337" lon="-1.53464">
        <ele>3.5</ele>
        <time>2016-08-31T12:34:38Z</time>
      </trkpt>
      <trkpt lat="46.24339" lon="-1.53457">
        <ele>3.98</ele>
        <time>2016-08-31T12:34:39Z</time>
      </trkpt>
      <trkpt lat="46.24342" lon="-1.53451">
        <ele>3.02</ele>
        <time>2016-08-31T12:34:40Z</time>
      </trkpt>
      <trkpt lat="46.24345" lon="-1.53446">
        <ele>3.02</ele>
        <time>2016-08-31T12:34:41Z</time>
      </trkpt>
      <trkpt lat="46.24352" lon="-1.53435">
        <ele>3.5</ele>
        <time>2016-08-31T12:34:43Z</time>
      </trkpt>
      <trkpt lat="46.24354" lon="-1.5343">
        <ele>3.98</ele>
        <time>2016-08-31T12:34:44Z</time>
      </trkpt>
      <trkpt lat="46.24356" lon="-1.53424">
        <ele>3.98</ele>
        <time>2016-08-31T12:34:45Z</time>
      </trkpt>
      <trkpt lat="46.24359" lon="-1.53411">
        <ele>3.98</ele>
        <time>2016-08-31T12:34:47Z</time>
      </trkpt>
      <trkpt lat="46.24371" lon="-1.53355">
        <ele>3.98</ele>
        <time>2016-08-31T12:34:55Z</time>
      </trkpt>
      <trkpt lat="46.24372" lon="-1.53348">
        <ele>3.98</ele>
        <time>2016-08-31T12:34:56Z</time>
      </trkpt>
      <trkpt lat="46.24382" lon="-1.53292">
        <ele>3.5</ele>
        <time>2016-08-31T12:35:04Z</time>
      </trkpt>
      <trkpt lat="46.2439" lon="-1.53258">
        <ele>3.5</ele>
        <time>2016-08-31T12:35:09Z</time>
      </trkpt>
      <trkpt lat="46.244" lon="-1.53207">
        <ele>3.5</ele>
        <time>2016-08-31T12:35:16Z</time>
      </trkpt>
      <trkpt lat="46.24403" lon="-1.53193">
        <ele>3.98</ele>
        <time>2016-08-31T12:35:18Z</time>
      </trkpt>
      <trkpt lat="46.24406" lon="-1.53187">
        <ele>3.98</ele>
        <time>2016-08-31T12:35:19Z</time>
      </trkpt>
      <trkpt lat="46.24412" lon="-1.53175">
        <ele>3.98</ele>
        <time>2016-08-31T12:35:21Z</time>
      </trkpt>
      <trkpt lat="46.24419" lon="-1.53149">
        <ele>3.5</ele>
        <time>2016-08-31T12:35:25Z</time>
      </trkpt>
      <trkpt lat="46.24421" lon="-1.53142">
        <ele>3.02</ele>
        <time>2016-08-31T12:35:26Z</time>
      </trkpt>
      <trkpt lat="46.24423" lon="-1.53134">
        <ele>3.02</ele>
        <time>2016-08-31T12:35:27Z</time>
      </trkpt>
      <trkpt lat="46.24428" lon="-1.53121">
        <ele>3.5</ele>
        <time>2016-08-31T12:35:29Z</time>
      </trkpt>
      <trkpt lat="46.24435" lon="-1.53101">
        <ele>3.5</ele>
        <time>2016-08-31T12:35:32Z</time>
      </trkpt>
      <trkpt lat="46.24437" lon="-1.53094">
        <ele>3.02</ele>
        <time>2016-08-31T12:35:33Z</time>
      </trkpt>
      <trkpt lat="46.24439" lon="-1.53087">
        <ele>3.5</ele>
        <time>2016-08-31T12:35:34Z</time>
      </trkpt>
      <trkpt lat="46.2444" lon="-1.5308">
        <ele>3.5</ele>
        <time>2016-08-31T12:35:35Z</time>
      </trkpt>
      <trkpt lat="46.24442" lon="-1.53072">
        <ele>3.02</ele>
        <time>2016-08-31T12:35:36Z</time>
      </trkpt>
      <trkpt lat="46.24446" lon="-1.5305">
        <ele>2.54</ele>
        <time>2016-08-31T12:35:39Z</time>
      </trkpt>
      <trkpt lat="46.24447" lon="-1.53035">
        <ele>2.54</ele>
        <time>2016-08-31T12:35:41Z</time>
      </trkpt>
      <trkpt lat="46.24456" lon="-1.52984">
        <ele>2.54</ele>
        <time>2016-08-31T12:35:48Z</time>
      </trkpt>
      <trkpt lat="46.24457" lon="-1.52977">
        <ele>2.54</ele>
        <time>2016-08-31T12:35:49Z</time>
      </trkpt>
      <trkpt lat="46.24459" lon="-1.5297">
        <ele>3.02</ele>
        <time>2016-08-31T12:35:50Z</time>
      </trkpt>
      <trkpt lat="46.24461" lon="-1.52963">
        <ele>3.02</ele>
        <time>2016-08-31T12:35:51Z</time>
      </trkpt>
      <trkpt lat="46.24464" lon="-1.52957">
        <ele>3.5</ele>
        <time>2016-08-31T12:35:52Z</time>
      </trkpt>
      <trkpt lat="46.24466" lon="-1.5295">
        <ele>3.5</ele>
        <time>2016-08-31T12:35:53Z</time>
      </trkpt>
      <trkpt lat="46.24469" lon="-1.52936">
        <ele>3.5</ele>
        <time>2016-08-31T12:35:55Z</time>
      </trkpt>
      <trkpt lat="46.2447" lon="-1.52929">
        <ele>3.5</ele>
        <time>2016-08-31T12:35:56Z</time>
      </trkpt>
      <trkpt lat="46.24472" lon="-1.52922">
        <ele>3.5</ele>
        <time>2016-08-31T12:35:57Z</time>
      </trkpt>
      <trkpt lat="46.24482" lon="-1.52895">
        <ele>3.5</ele>
        <time>2016-08-31T12:36:01Z</time>
      </trkpt>
      <trkpt lat="46.24483" lon="-1.52887">
        <ele>3.5</ele>
        <time>2016-08-31T12:36:02Z</time>
      </trkpt>
      <trkpt lat="46.24484" lon="-1.5288">
        <ele>3.5</ele>
        <time>2016-08-31T12:36:03Z</time>
      </trkpt>
      <trkpt lat="46.24485" lon="-1.52858">
        <ele>3.02</ele>
        <time>2016-08-31T12:36:06Z</time>
      </trkpt>
      <trkpt lat="46.24489" lon="-1.5283">
        <ele>3.02</ele>
        <time>2016-08-31T12:36:10Z</time>
      </trkpt>
      <trkpt lat="46.24496" lon="-1.52803">
        <ele>3.02</ele>
        <time>2016-08-31T12:36:14Z</time>
      </trkpt>
      <trkpt lat="46.24499" lon="-1.52791">
        <ele>3.5</ele>
        <time>2016-08-31T12:36:16Z</time>
      </trkpt>
      <trkpt lat="46.24503" lon="-1.5278">
        <ele>3.98</ele>
        <time>2016-08-31T12:36:18Z</time>
      </trkpt>
      <trkpt lat="46.24524" lon="-1.52709">
        <ele>4.46</ele>
        <time>2016-08-31T12:36:29Z</time>
      </trkpt>
      <trkpt lat="46.24526" lon="-1.52703">
        <ele>3.98</ele>
        <time>2016-08-31T12:36:30Z</time>
      </trkpt>
      <trkpt lat="46.24528" lon="-1.52696">
        <ele>3.98</ele>
        <time>2016-08-31T12:36:31Z</time>
      </trkpt>
      <trkpt lat="46.24529" lon="-1.5269">
        <ele>3.98</ele>
        <time>2016-08-31T12:36:32Z</time>
      </trkpt>
      <trkpt lat="46.24531" lon="-1.52685">
        <ele>3.5</ele>
        <time>2016-08-31T12:36:33Z</time>
      </trkpt>
      <trkpt lat="46.24532" lon="-1.5268">
        <ele>3.98</ele>
        <time>2016-08-31T12:36:34Z</time>
      </trkpt>
      <trkpt lat="46.24534" lon="-1.52674">
        <ele>3.5</ele>
        <time>2016-08-31T12:36:35Z</time>
      </trkpt>
      <trkpt lat="46.24555" lon="-1.52631">
        <ele>4.46</ele>
        <time>2016-08-31T12:36:45Z</time>
      </trkpt>
      <trkpt lat="46.24557" lon="-1.52629">
        <ele>4.46</ele>
        <time>2016-08-31T12:36:46Z</time>
      </trkpt>
      <trkpt lat="46.24575" lon="-1.5263">
        <ele>5.91</ele>
        <time>2016-08-31T12:36:53Z</time>
      </trkpt>
      <trkpt lat="46.24595" lon="-1.52631">
        <ele>5.91</ele>
        <time>2016-08-31T12:36:58Z</time>
      </trkpt>
      <trkpt lat="46.24638" lon="-1.52624">
        <ele>7.35</ele>
        <time>2016-08-31T12:37:08Z</time>
      </trkpt>
      <trkpt lat="46.24643" lon="-1.52623">
        <ele>6.39</ele>
        <time>2016-08-31T12:37:09Z</time>
      </trkpt>
      <trkpt lat="46.24648" lon="-1.52624">
        <ele>6.87</ele>
        <time>2016-08-31T12:37:10Z</time>
      </trkpt>
      <trkpt lat="46.24652" lon="-1.52625">
        <ele>6.39</ele>
        <time>2016-08-31T12:37:11Z</time>
      </trkpt>
      <trkpt lat="46.24662" lon="-1.52628">
        <ele>5.91</ele>
        <time>2016-08-31T12:37:13Z</time>
      </trkpt>
      <trkpt lat="46.24667" lon="-1.52628">
        <ele>5.91</ele>
        <time>2016-08-31T12:37:14Z</time>
      </trkpt>
      <trkpt lat="46.24673" lon="-1.52628">
        <ele>5.91</ele>
        <time>2016-08-31T12:37:15Z</time>
      </trkpt>
      <trkpt lat="46.24678" lon="-1.52627">
        <ele>5.91</ele>
        <time>2016-08-31T12:37:16Z</time>
      </trkpt>
      <trkpt lat="46.24684" lon="-1.52625">
        <ele>6.39</ele>
        <time>2016-08-31T12:37:17Z</time>
      </trkpt>
      <trkpt lat="46.24689" lon="-1.52623">
        <ele>5.91</ele>
        <time>2016-08-31T12:37:18Z</time>
      </trkpt>
      <trkpt lat="46.24743" lon="-1.52602">
        <ele>4.94</ele>
        <time>2016-08-31T12:37:28Z</time>
      </trkpt>
      <trkpt lat="46.24754" lon="-1.52597">
        <ele>3.5</ele>
        <time>2016-08-31T12:37:30Z</time>
      </trkpt>
      <trkpt lat="46.2476" lon="-1.52594">
        <ele>3.02</ele>
        <time>2016-08-31T12:37:31Z</time>
      </trkpt>
      <trkpt lat="46.24766" lon="-1.52592">
        <ele>3.02</ele>
        <time>2016-08-31T12:37:32Z</time>
      </trkpt>
      <trkpt lat="46.24773" lon="-1.5259">
        <ele>3.02</ele>
        <time>2016-08-31T12:37:33Z</time>
      </trkpt>
      <trkpt lat="46.24779" lon="-1.52587">
        <ele>2.54</ele>
        <time>2016-08-31T12:37:34Z</time>
      </trkpt>
      <trkpt lat="46.24811" lon="-1.52566">
        <ele>3.02</ele>
        <time>2016-08-31T12:37:40Z</time>
      </trkpt>
      <trkpt lat="46.24815" lon="-1.52562">
        <ele>3.02</ele>
        <time>2016-08-31T12:37:41Z</time>
      </trkpt>
      <trkpt lat="46.24828" lon="-1.52554">
        <ele>3.5</ele>
        <time>2016-08-31T12:37:44Z</time>
      </trkpt>
      <trkpt lat="46.24832" lon="-1.52554">
        <ele>3.98</ele>
        <time>2016-08-31T12:37:45Z</time>
      </trkpt>
      <trkpt lat="46.24855" lon="-1.52571">
        <ele>4.94</ele>
        <time>2016-08-31T12:37:53Z</time>
      </trkpt>
      <trkpt lat="46.2486" lon="-1.52606">
        <ele>6.39</ele>
        <time>2016-08-31T12:38:01Z</time>
      </trkpt>
      <trkpt lat="46.24865" lon="-1.52621">
        <ele>7.35</ele>
        <time>2016-08-31T12:38:05Z</time>
      </trkpt>
      <trkpt lat="46.24867" lon="-1.52623">
        <ele>7.35</ele>
        <time>2016-08-31T12:38:06Z</time>
      </trkpt>
      <trkpt lat="46.24869" lon="-1.52624">
        <ele>7.35</ele>
        <time>2016-08-31T12:38:07Z</time>
      </trkpt>
      <trkpt lat="46.24871" lon="-1.52627">
        <ele>7.35</ele>
        <time>2016-08-31T12:38:08Z</time>
      </trkpt>
      <trkpt lat="46.24872" lon="-1.52631">
        <ele>7.35</ele>
        <time>2016-08-31T12:38:09Z</time>
      </trkpt>
      <trkpt lat="46.24872" lon="-1.52635">
        <ele>6.87</ele>
        <time>2016-08-31T12:38:10Z</time>
      </trkpt>
      <trkpt lat="46.24872" lon="-1.52639">
        <ele>7.35</ele>
        <time>2016-08-31T12:38:11Z</time>
      </trkpt>
      <trkpt lat="46.24871" lon="-1.52643">
        <ele>7.35</ele>
        <time>2016-08-31T12:38:12Z</time>
      </trkpt>
      <trkpt lat="46.2487" lon="-1.52647">
        <ele>7.35</ele>
        <time>2016-08-31T12:38:13Z</time>
      </trkpt>
      <trkpt lat="46.24868" lon="-1.52651">
        <ele>7.35</ele>
        <time>2016-08-31T12:38:14Z</time>
      </trkpt>
      <trkpt lat="46.24867" lon="-1.52655">
        <ele>7.83</ele>
        <time>2016-08-31T12:38:15Z</time>
      </trkpt>
      <trkpt lat="46.24865" lon="-1.52659">
        <ele>7.35</ele>
        <time>2016-08-31T12:38:16Z</time>
      </trkpt>
      <trkpt lat="46.24863" lon="-1.52663">
        <ele>7.83</ele>
        <time>2016-08-31T12:38:17Z</time>
      </trkpt>
      <trkpt lat="46.2486" lon="-1.52665">
        <ele>7.83</ele>
        <time>2016-08-31T12:38:18Z</time>
      </trkpt>
      <trkpt lat="46.24857" lon="-1.52667">
        <ele>8.79</ele>
        <time>2016-08-31T12:38:19Z</time>
      </trkpt>
      <trkpt lat="46.24854" lon="-1.52667">
        <ele>8.79</ele>
        <time>2016-08-31T12:38:20Z</time>
      </trkpt>
      <trkpt lat="46.24851" lon="-1.52665">
        <ele>8.31</ele>
        <time>2016-08-31T12:38:21Z</time>
      </trkpt>
      <trkpt lat="46.24849" lon="-1.52662">
        <ele>7.83</ele>
        <time>2016-08-31T12:38:22Z</time>
      </trkpt>
      <trkpt lat="46.24848" lon="-1.52658">
        <ele>8.31</ele>
        <time>2016-08-31T12:38:23Z</time>
      </trkpt>
      <trkpt lat="46.24848" lon="-1.52653">
        <ele>7.83</ele>
        <time>2016-08-31T12:38:24Z</time>
      </trkpt>
      <trkpt lat="46.2485" lon="-1.52647">
        <ele>7.83</ele>
        <time>2016-08-31T12:38:25Z</time>
      </trkpt>
      <trkpt lat="46.24852" lon="-1.52641">
        <ele>7.35</ele>
        <time>2016-08-31T12:38:26Z</time>
      </trkpt>
      <trkpt lat="46.24854" lon="-1.52636">
        <ele>7.83</ele>
        <time>2016-08-31T12:38:27Z</time>
      </trkpt>
      <trkpt lat="46.24858" lon="-1.52582">
        <ele>6.39</ele>
        <time>2016-08-31T12:38:36Z</time>
      </trkpt>
      <trkpt lat="46.24857" lon="-1.52575">
        <ele>5.42</ele>
        <time>2016-08-31T12:38:37Z</time>
      </trkpt>
      <trkpt lat="46.24854" lon="-1.52568">
        <ele>5.91</ele>
        <time>2016-08-31T12:38:38Z</time>
      </trkpt>
      <trkpt lat="46.24851" lon="-1.52563">
        <ele>5.42</ele>
        <time>2016-08-31T12:38:39Z</time>
      </trkpt>
      <trkpt lat="46.24846" lon="-1.52558">
        <ele>5.42</ele>
        <time>2016-08-31T12:38:40Z</time>
      </trkpt>
      <trkpt lat="46.2484" lon="-1.52555">
        <ele>4.46</ele>
        <time>2016-08-31T12:38:41Z</time>
      </trkpt>
      <trkpt lat="46.24835" lon="-1.52554">
        <ele>4.94</ele>
        <time>2016-08-31T12:38:42Z</time>
      </trkpt>
      <trkpt lat="46.24828" lon="-1.52555">
        <ele>3.98</ele>
        <time>2016-08-31T12:38:43Z</time>
      </trkpt>
      <trkpt lat="46.24822" lon="-1.52559">
        <ele>3.5</ele>
        <time>2016-08-31T12:38:44Z</time>
      </trkpt>
      <trkpt lat="46.24816" lon="-1.52563">
        <ele>3.98</ele>
        <time>2016-08-31T12:38:45Z</time>
      </trkpt>
      <trkpt lat="46.24811" lon="-1.52567">
        <ele>3.5</ele>
        <time>2016-08-31T12:38:46Z</time>
      </trkpt>
      <trkpt lat="46.248" lon="-1.52575">
        <ele>3.5</ele>
        <time>2016-08-31T12:38:48Z</time>
      </trkpt>
      <trkpt lat="46.24795" lon="-1.52579">
        <ele>3.02</ele>
        <time>2016-08-31T12:38:49Z</time>
      </trkpt>
      <trkpt lat="46.24784" lon="-1.52586">
        <ele>3.5</ele>
        <time>2016-08-31T12:38:51Z</time>
      </trkpt>
      <trkpt lat="46.24775" lon="-1.5259">
        <ele>3.02</ele>
        <time>2016-08-31T12:38:53Z</time>
      </trkpt>
      <trkpt lat="46.2477" lon="-1.52592">
        <ele>3.02</ele>
        <time>2016-08-31T12:38:54Z</time>
      </trkpt>
      <trkpt lat="46.24766" lon="-1.52594">
        <ele>3.5</ele>
        <time>2016-08-31T12:38:55Z</time>
      </trkpt>
      <trkpt lat="46.2473" lon="-1.5261">
        <ele>5.91</ele>
        <time>2016-08-31T12:39:05Z</time>
      </trkpt>
      <trkpt lat="46.24687" lon="-1.52627">
        <ele>6.39</ele>
        <time>2016-08-31T12:39:15Z</time>
      </trkpt>
      <trkpt lat="46.24659" lon="-1.52626">
        <ele>7.35</ele>
        <time>2016-08-31T12:39:22Z</time>
      </trkpt>
      <trkpt lat="46.24632" lon="-1.52627">
        <ele>7.83</ele>
        <time>2016-08-31T12:39:29Z</time>
      </trkpt>
      <trkpt lat="46.24606" lon="-1.52633">
        <ele>7.35</ele>
        <time>2016-08-31T12:39:35Z</time>
      </trkpt>
      <trkpt lat="46.24601" lon="-1.52633">
        <ele>6.87</ele>
        <time>2016-08-31T12:39:36Z</time>
      </trkpt>
      <trkpt lat="46.24596" lon="-1.52633">
        <ele>6.87</ele>
        <time>2016-08-31T12:39:37Z</time>
      </trkpt>
      <trkpt lat="46.24591" lon="-1.52632">
        <ele>6.39</ele>
        <time>2016-08-31T12:39:38Z</time>
      </trkpt>
      <trkpt lat="46.24586" lon="-1.5263">
        <ele>6.39</ele>
        <time>2016-08-31T12:39:39Z</time>
      </trkpt>
      <trkpt lat="46.24581" lon="-1.52628">
        <ele>6.39</ele>
        <time>2016-08-31T12:39:40Z</time>
      </trkpt>
      <trkpt lat="46.24576" lon="-1.52627">
        <ele>5.91</ele>
        <time>2016-08-31T12:39:41Z</time>
      </trkpt>
      <trkpt lat="46.24572" lon="-1.52626">
        <ele>5.91</ele>
        <time>2016-08-31T12:39:42Z</time>
      </trkpt>
      <trkpt lat="46.24568" lon="-1.52626">
        <ele>5.42</ele>
        <time>2016-08-31T12:39:43Z</time>
      </trkpt>
      <trkpt lat="46.24563" lon="-1.52622">
        <ele>5.91</ele>
        <time>2016-08-31T12:39:45Z</time>
      </trkpt>
      <trkpt lat="46.24563" lon="-1.52618">
        <ele>4.94</ele>
        <time>2016-08-31T12:39:46Z</time>
      </trkpt>
      <trkpt lat="46.24564" lon="-1.52614">
        <ele>4.94</ele>
        <time>2016-08-31T12:39:47Z</time>
      </trkpt>
      <trkpt lat="46.24567" lon="-1.52605">
        <ele>4.46</ele>
        <time>2016-08-31T12:39:49Z</time>
      </trkpt>
      <trkpt lat="46.24569" lon="-1.526">
        <ele>4.46</ele>
        <time>2016-08-31T12:39:50Z</time>
      </trkpt>
      <trkpt lat="46.24574" lon="-1.52584">
        <ele>3.98</ele>
        <time>2016-08-31T12:39:53Z</time>
      </trkpt>
      <trkpt lat="46.24576" lon="-1.52578">
        <ele>3.5</ele>
        <time>2016-08-31T12:39:54Z</time>
      </trkpt>
      <trkpt lat="46.24578" lon="-1.52571">
        <ele>3.98</ele>
        <time>2016-08-31T12:39:55Z</time>
      </trkpt>
      <trkpt lat="46.24588" lon="-1.52533">
        <ele>4.46</ele>
        <time>2016-08-31T12:40:01Z</time>
      </trkpt>
      <trkpt lat="46.24595" lon="-1.52498">
        <ele>3.98</ele>
        <time>2016-08-31T12:40:06Z</time>
      </trkpt>
      <trkpt lat="46.246" lon="-1.52461">
        <ele>3.5</ele>
        <time>2016-08-31T12:40:11Z</time>
      </trkpt>
      <trkpt lat="46.24617" lon="-1.52399">
        <ele>4.46</ele>
        <time>2016-08-31T12:40:20Z</time>
      </trkpt>
      <trkpt lat="46.24619" lon="-1.52393">
        <ele>3.98</ele>
        <time>2016-08-31T12:40:21Z</time>
      </trkpt>
      <trkpt lat="46.24634" lon="-1.52334">
        <ele>3.98</ele>
        <time>2016-08-31T12:40:30Z</time>
      </trkpt>
      <trkpt lat="46.24636" lon="-1.52327">
        <ele>3.5</ele>
        <time>2016-08-31T12:40:31Z</time>
      </trkpt>
      <trkpt lat="46.24638" lon="-1.52321">
        <ele>3.98</ele>
        <time>2016-08-31T12:40:32Z</time>
      </trkpt>
      <trkpt lat="46.2464" lon="-1.52315">
        <ele>4.46</ele>
        <time>2016-08-31T12:40:33Z</time>
      </trkpt>
      <trkpt lat="46.24657" lon="-1.52236">
        <ele>4.94</ele>
        <time>2016-08-31T12:40:44Z</time>
      </trkpt>
      <trkpt lat="46.24665" lon="-1.52174">
        <ele>4.46</ele>
        <time>2016-08-31T12:40:51Z</time>
      </trkpt>
      <trkpt lat="46.24665" lon="-1.5212">
        <ele>4.46</ele>
        <time>2016-08-31T12:40:57Z</time>
      </trkpt>
      <trkpt lat="46.24668" lon="-1.52081">
        <ele>3.5</ele>
        <time>2016-08-31T12:41:01Z</time>
      </trkpt>
      <trkpt lat="46.24667" lon="-1.52071">
        <ele>3.98</ele>
        <time>2016-08-31T12:41:02Z</time>
      </trkpt>
      <trkpt lat="46.24667" lon="-1.52062">
        <ele>3.5</ele>
        <time>2016-08-31T12:41:03Z</time>
      </trkpt>
      <trkpt lat="46.24677" lon="-1.51997">
        <ele>3.5</ele>
        <time>2016-08-31T12:41:10Z</time>
      </trkpt>
      <trkpt lat="46.24685" lon="-1.51955">
        <ele>3.02</ele>
        <time>2016-08-31T12:41:15Z</time>
      </trkpt>
      <trkpt lat="46.24687" lon="-1.51947">
        <ele>3.02</ele>
        <time>2016-08-31T12:41:16Z</time>
      </trkpt>
      <trkpt lat="46.2469" lon="-1.51931">
        <ele>2.54</ele>
        <time>2016-08-31T12:41:18Z</time>
      </trkpt>
      <trkpt lat="46.24697" lon="-1.519">
        <ele>3.02</ele>
        <time>2016-08-31T12:41:22Z</time>
      </trkpt>
      <trkpt lat="46.24699" lon="-1.51893">
        <ele>3.5</ele>
        <time>2016-08-31T12:41:23Z</time>
      </trkpt>
      <trkpt lat="46.24703" lon="-1.51878">
        <ele>3.02</ele>
        <time>2016-08-31T12:41:25Z</time>
      </trkpt>
      <trkpt lat="46.24709" lon="-1.51858">
        <ele>3.5</ele>
        <time>2016-08-31T12:41:28Z</time>
      </trkpt>
      <trkpt lat="46.24714" lon="-1.51844">
        <ele>3.98</ele>
        <time>2016-08-31T12:41:30Z</time>
      </trkpt>
      <trkpt lat="46.24722" lon="-1.518">
        <ele>5.42</ele>
        <time>2016-08-31T12:41:38Z</time>
      </trkpt>
      <trkpt lat="46.24724" lon="-1.51793">
        <ele>4.94</ele>
        <time>2016-08-31T12:41:39Z</time>
      </trkpt>
      <trkpt lat="46.2473" lon="-1.51761">
        <ele>4.94</ele>
        <time>2016-08-31T12:41:44Z</time>
      </trkpt>
      <trkpt lat="46.24732" lon="-1.51754">
        <ele>4.94</ele>
        <time>2016-08-31T12:41:45Z</time>
      </trkpt>
      <trkpt lat="46.24734" lon="-1.51748">
        <ele>4.94</ele>
        <time>2016-08-31T12:41:46Z</time>
      </trkpt>
      <trkpt lat="46.24736" lon="-1.5174">
        <ele>4.94</ele>
        <time>2016-08-31T12:41:47Z</time>
      </trkpt>
      <trkpt lat="46.24739" lon="-1.51733">
        <ele>4.94</ele>
        <time>2016-08-31T12:41:48Z</time>
      </trkpt>
      <trkpt lat="46.24763" lon="-1.51664">
        <ele>4.94</ele>
        <time>2016-08-31T12:41:57Z</time>
      </trkpt>
      <trkpt lat="46.24763" lon="-1.51659">
        <ele>4.94</ele>
        <time>2016-08-31T12:41:58Z</time>
      </trkpt>
      <trkpt lat="46.2476" lon="-1.51656">
        <ele>4.46</ele>
        <time>2016-08-31T12:41:59Z</time>
      </trkpt>
      <trkpt lat="46.24757" lon="-1.51652">
        <ele>3.98</ele>
        <time>2016-08-31T12:42:00Z</time>
      </trkpt>
      <trkpt lat="46.24756" lon="-1.51646">
        <ele>3.98</ele>
        <time>2016-08-31T12:42:01Z</time>
      </trkpt>
      <trkpt lat="46.24758" lon="-1.5164">
        <ele>4.46</ele>
        <time>2016-08-31T12:42:02Z</time>
      </trkpt>
      <trkpt lat="46.24761" lon="-1.51633">
        <ele>4.46</ele>
        <time>2016-08-31T12:42:03Z</time>
      </trkpt>
      <trkpt lat="46.24764" lon="-1.51627">
        <ele>4.46</ele>
        <time>2016-08-31T12:42:04Z</time>
      </trkpt>
      <trkpt lat="46.24767" lon="-1.51621">
        <ele>4.46</ele>
        <time>2016-08-31T12:42:05Z</time>
      </trkpt>
      <trkpt lat="46.2477" lon="-1.51616">
        <ele>3.98</ele>
        <time>2016-08-31T12:42:06Z</time>
      </trkpt>
      <trkpt lat="46.24776" lon="-1.51605">
        <ele>3.98</ele>
        <time>2016-08-31T12:42:08Z</time>
      </trkpt>
      <trkpt lat="46.24781" lon="-1.51601">
        <ele>3.98</ele>
        <time>2016-08-31T12:42:09Z</time>
      </trkpt>
      <trkpt lat="46.24785" lon="-1.51597">
        <ele>4.46</ele>
        <time>2016-08-31T12:42:10Z</time>
      </trkpt>
      <trkpt lat="46.24789" lon="-1.51595">
        <ele>4.46</ele>
        <time>2016-08-31T12:42:11Z</time>
      </trkpt>
      <trkpt lat="46.24794" lon="-1.51593">
        <ele>4.46</ele>
        <time>2016-08-31T12:42:12Z</time>
      </trkpt>
      <trkpt lat="46.24798" lon="-1.51592">
        <ele>4.94</ele>
        <time>2016-08-31T12:42:13Z</time>
      </trkpt>
      <trkpt lat="46.24802" lon="-1.5159">
        <ele>5.42</ele>
        <time>2016-08-31T12:42:14Z</time>
      </trkpt>
      <trkpt lat="46.24807" lon="-1.51588">
        <ele>4.94</ele>
        <time>2016-08-31T12:42:15Z</time>
      </trkpt>
      <trkpt lat="46.2481" lon="-1.51586">
        <ele>5.42</ele>
        <time>2016-08-31T12:42:16Z</time>
      </trkpt>
      <trkpt lat="46.24814" lon="-1.51582">
        <ele>5.42</ele>
        <time>2016-08-31T12:42:17Z</time>
      </trkpt>
      <trkpt lat="46.24817" lon="-1.51577">
        <ele>5.42</ele>
        <time>2016-08-31T12:42:18Z</time>
      </trkpt>
      <trkpt lat="46.2482" lon="-1.51572">
        <ele>5.42</ele>
        <time>2016-08-31T12:42:19Z</time>
      </trkpt>
      <trkpt lat="46.24822" lon="-1.51565">
        <ele>4.94</ele>
        <time>2016-08-31T12:42:20Z</time>
      </trkpt>
      <trkpt lat="46.24824" lon="-1.51558">
        <ele>4.94</ele>
        <time>2016-08-31T12:42:21Z</time>
      </trkpt>
      <trkpt lat="46.24825" lon="-1.51551">
        <ele>4.94</ele>
        <time>2016-08-31T12:42:22Z</time>
      </trkpt>
      <trkpt lat="46.24826" lon="-1.51544">
        <ele>4.94</ele>
        <time>2016-08-31T12:42:23Z</time>
      </trkpt>
      <trkpt lat="46.24831" lon="-1.51473">
        <ele>1.58</ele>
        <time>2016-08-31T12:42:33Z</time>
      </trkpt>
      <trkpt lat="46.24831" lon="-1.51466">
        <ele>4.94</ele>
        <time>2016-08-31T12:42:34Z</time>
      </trkpt>
      <trkpt lat="46.24824" lon="-1.51396">
        <ele>2.06</ele>
        <time>2016-08-31T12:42:43Z</time>
      </trkpt>
      <trkpt lat="46.24817" lon="-1.51347">
        <ele>2.54</ele>
        <time>2016-08-31T12:42:51Z</time>
      </trkpt>
      <trkpt lat="46.24819" lon="-1.51346">
        <ele>2.54</ele>
        <time>2016-08-31T12:42:52Z</time>
      </trkpt>
      <trkpt lat="46.24821" lon="-1.51346">
        <ele>3.02</ele>
        <time>2016-08-31T12:42:53Z</time>
      </trkpt>
      <trkpt lat="46.24823" lon="-1.51347">
        <ele>3.02</ele>
        <time>2016-08-31T12:42:54Z</time>
      </trkpt>
      <trkpt lat="46.24825" lon="-1.51347">
        <ele>2.54</ele>
        <time>2016-08-31T12:42:55Z</time>
      </trkpt>
      <trkpt lat="46.24827" lon="-1.51347">
        <ele>2.54</ele>
        <time>2016-08-31T12:42:56Z</time>
      </trkpt>
      <trkpt lat="46.2483" lon="-1.51347">
        <ele>3.02</ele>
        <time>2016-08-31T12:42:57Z</time>
      </trkpt>
      <trkpt lat="46.24845" lon="-1.51349">
        <ele>3.5</ele>
        <time>2016-08-31T12:43:01Z</time>
      </trkpt>
      <trkpt lat="46.24849" lon="-1.5135">
        <ele>3.02</ele>
        <time>2016-08-31T12:43:02Z</time>
      </trkpt>
      <trkpt lat="46.24899" lon="-1.51353">
        <ele>3.5</ele>
        <time>2016-08-31T12:43:13Z</time>
      </trkpt>
      <trkpt lat="46.24907" lon="-1.51354">
        <ele>3.5</ele>
        <time>2016-08-31T12:43:15Z</time>
      </trkpt>
      <trkpt lat="46.24911" lon="-1.51355">
        <ele>3.5</ele>
        <time>2016-08-31T12:43:16Z</time>
      </trkpt>
      <trkpt lat="46.24916" lon="-1.51356">
        <ele>3.98</ele>
        <time>2016-08-31T12:43:17Z</time>
      </trkpt>
      <trkpt lat="46.2492" lon="-1.51359">
        <ele>3.98</ele>
        <time>2016-08-31T12:43:18Z</time>
      </trkpt>
      <trkpt lat="46.24923" lon="-1.51361">
        <ele>3.98</ele>
        <time>2016-08-31T12:43:19Z</time>
      </trkpt>
      <trkpt lat="46.24927" lon="-1.51365">
        <ele>4.94</ele>
        <time>2016-08-31T12:43:20Z</time>
      </trkpt>
      <trkpt lat="46.2493" lon="-1.51369">
        <ele>4.94</ele>
        <time>2016-08-31T12:43:21Z</time>
      </trkpt>
      <trkpt lat="46.24946" lon="-1.51404">
        <ele>5.91</ele>
        <time>2016-08-31T12:43:28Z</time>
      </trkpt>
      <trkpt lat="46.2495" lon="-1.51411">
        <ele>5.91</ele>
        <time>2016-08-31T12:43:30Z</time>
      </trkpt>
      <trkpt lat="46.24953" lon="-1.51412">
        <ele>6.87</ele>
        <time>2016-08-31T12:43:31Z</time>
      </trkpt>
      <trkpt lat="46.24956" lon="-1.51409">
        <ele>6.87</ele>
        <time>2016-08-31T12:43:32Z</time>
      </trkpt>
      <trkpt lat="46.24957" lon="-1.51405">
        <ele>6.87</ele>
        <time>2016-08-31T12:43:33Z</time>
      </trkpt>
      <trkpt lat="46.24957" lon="-1.51399">
        <ele>6.87</ele>
        <time>2016-08-31T12:43:34Z</time>
      </trkpt>
      <trkpt lat="46.24957" lon="-1.51393">
        <ele>6.87</ele>
        <time>2016-08-31T12:43:35Z</time>
      </trkpt>
      <trkpt lat="46.24955" lon="-1.51388">
        <ele>6.39</ele>
        <time>2016-08-31T12:43:36Z</time>
      </trkpt>
      <trkpt lat="46.24953" lon="-1.51383">
        <ele>6.39</ele>
        <time>2016-08-31T12:43:37Z</time>
      </trkpt>
      <trkpt lat="46.24951" lon="-1.51379">
        <ele>6.39</ele>
        <time>2016-08-31T12:43:38Z</time>
      </trkpt>
      <trkpt lat="46.24947" lon="-1.51375">
        <ele>7.35</ele>
        <time>2016-08-31T12:43:39Z</time>
      </trkpt>
      <trkpt lat="46.24942" lon="-1.51366">
        <ele>6.87</ele>
        <time>2016-08-31T12:43:41Z</time>
      </trkpt>
      <trkpt lat="46.2494" lon="-1.51361">
        <ele>6.39</ele>
        <time>2016-08-31T12:43:42Z</time>
      </trkpt>
      <trkpt lat="46.24939" lon="-1.51355">
        <ele>6.39</ele>
        <time>2016-08-31T12:43:43Z</time>
      </trkpt>
      <trkpt lat="46.24927" lon="-1.51302">
        <ele>3.98</ele>
        <time>2016-08-31T12:43:50Z</time>
      </trkpt>
      <trkpt lat="46.24919" lon="-1.51285">
        <ele>3.02</ele>
        <time>2016-08-31T12:43:52Z</time>
      </trkpt>
      <trkpt lat="46.2491" lon="-1.51269">
        <ele>2.06</ele>
        <time>2016-08-31T12:43:54Z</time>
      </trkpt>
      <trkpt lat="46.24908" lon="-1.5126">
        <ele>2.54</ele>
        <time>2016-08-31T12:43:55Z</time>
      </trkpt>
      <trkpt lat="46.24908" lon="-1.5125">
        <ele>1.58</ele>
        <time>2016-08-31T12:43:56Z</time>
      </trkpt>
      <trkpt lat="46.24908" lon="-1.5124">
        <ele>2.06</ele>
        <time>2016-08-31T12:43:57Z</time>
      </trkpt>
      <trkpt lat="46.24908" lon="-1.5123">
        <ele>2.06</ele>
        <time>2016-08-31T12:43:58Z</time>
      </trkpt>
      <trkpt lat="46.24914" lon="-1.51161">
        <ele>2.54</ele>
        <time>2016-08-31T12:44:06Z</time>
      </trkpt>
      <trkpt lat="46.24914" lon="-1.51137">
        <ele>3.02</ele>
        <time>2016-08-31T12:44:09Z</time>
      </trkpt>
      <trkpt lat="46.24916" lon="-1.51129">
        <ele>3.02</ele>
        <time>2016-08-31T12:44:10Z</time>
      </trkpt>
      <trkpt lat="46.24919" lon="-1.51122">
        <ele>3.02</ele>
        <time>2016-08-31T12:44:11Z</time>
      </trkpt>
      <trkpt lat="46.24921" lon="-1.51115">
        <ele>3.02</ele>
        <time>2016-08-31T12:44:12Z</time>
      </trkpt>
      <trkpt lat="46.24924" lon="-1.51109">
        <ele>3.02</ele>
        <time>2016-08-31T12:44:13Z</time>
      </trkpt>
      <trkpt lat="46.24926" lon="-1.51101">
        <ele>2.54</ele>
        <time>2016-08-31T12:44:14Z</time>
      </trkpt>
      <trkpt lat="46.24933" lon="-1.51079">
        <ele>3.02</ele>
        <time>2016-08-31T12:44:17Z</time>
      </trkpt>
      <trkpt lat="46.24936" lon="-1.51073">
        <ele>2.06</ele>
        <time>2016-08-31T12:44:18Z</time>
      </trkpt>
      <trkpt lat="46.24939" lon="-1.51067">
        <ele>3.02</ele>
        <time>2016-08-31T12:44:19Z</time>
      </trkpt>
      <trkpt lat="46.24943" lon="-1.51061">
        <ele>2.54</ele>
        <time>2016-08-31T12:44:20Z</time>
      </trkpt>
      <trkpt lat="46.24947" lon="-1.51056">
        <ele>3.02</ele>
        <time>2016-08-31T12:44:21Z</time>
      </trkpt>
      <trkpt lat="46.24951" lon="-1.5105">
        <ele>2.54</ele>
        <time>2016-08-31T12:44:22Z</time>
      </trkpt>
      <trkpt lat="46.24954" lon="-1.51044">
        <ele>3.02</ele>
        <time>2016-08-31T12:44:23Z</time>
      </trkpt>
      <trkpt lat="46.24957" lon="-1.51037">
        <ele>3.02</ele>
        <time>2016-08-31T12:44:24Z</time>
      </trkpt>
      <trkpt lat="46.24959" lon="-1.51029">
        <ele>3.02</ele>
        <time>2016-08-31T12:44:25Z</time>
      </trkpt>
      <trkpt lat="46.24961" lon="-1.51021">
        <ele>3.02</ele>
        <time>2016-08-31T12:44:26Z</time>
      </trkpt>
      <trkpt lat="46.24962" lon="-1.51013">
        <ele>3.02</ele>
        <time>2016-08-31T12:44:27Z</time>
      </trkpt>
      <trkpt lat="46.24963" lon="-1.51006">
        <ele>3.02</ele>
        <time>2016-08-31T12:44:28Z</time>
      </trkpt>
      <trkpt lat="46.24964" lon="-1.50998">
        <ele>3.02</ele>
        <time>2016-08-31T12:44:29Z</time>
      </trkpt>
      <trkpt lat="46.24977" lon="-1.50921">
        <ele>2.54</ele>
        <time>2016-08-31T12:44:39Z</time>
      </trkpt>
      <trkpt lat="46.24979" lon="-1.509">
        <ele>3.02</ele>
        <time>2016-08-31T12:44:42Z</time>
      </trkpt>
      <trkpt lat="46.24982" lon="-1.50834">
        <ele>2.06</ele>
        <time>2016-08-31T12:44:51Z</time>
      </trkpt>
      <trkpt lat="46.24983" lon="-1.50821">
        <ele>2.54</ele>
        <time>2016-08-31T12:44:53Z</time>
      </trkpt>
      <trkpt lat="46.24983" lon="-1.50815">
        <ele>2.54</ele>
        <time>2016-08-31T12:44:54Z</time>
      </trkpt>
      <trkpt lat="46.24983" lon="-1.50809">
        <ele>2.54</ele>
        <time>2016-08-31T12:44:55Z</time>
      </trkpt>
      <trkpt lat="46.24983" lon="-1.50803">
        <ele>2.54</ele>
        <time>2016-08-31T12:44:56Z</time>
      </trkpt>
      <trkpt lat="46.24984" lon="-1.50797">
        <ele>2.54</ele>
        <time>2016-08-31T12:44:57Z</time>
      </trkpt>
      <trkpt lat="46.24986" lon="-1.50773">
        <ele>3.02</ele>
        <time>2016-08-31T12:45:02Z</time>
      </trkpt>
      <trkpt lat="46.24988" lon="-1.50769">
        <ele>2.54</ele>
        <time>2016-08-31T12:45:03Z</time>
      </trkpt>
      <trkpt lat="46.24992" lon="-1.50767">
        <ele>2.54</ele>
        <time>2016-08-31T12:45:04Z</time>
      </trkpt>
      <trkpt lat="46.24996" lon="-1.50766">
        <ele>2.06</ele>
        <time>2016-08-31T12:45:05Z</time>
      </trkpt>
      <trkpt lat="46.25" lon="-1.50766">
        <ele>2.54</ele>
        <time>2016-08-31T12:45:06Z</time>
      </trkpt>
      <trkpt lat="46.25004" lon="-1.50766">
        <ele>2.06</ele>
        <time>2016-08-31T12:45:07Z</time>
      </trkpt>
      <trkpt lat="46.25024" lon="-1.50765">
        <ele>2.54</ele>
        <time>2016-08-31T12:45:11Z</time>
      </trkpt>
      <trkpt lat="46.25077" lon="-1.50763">
        <ele>2.54</ele>
        <time>2016-08-31T12:45:21Z</time>
      </trkpt>
      <trkpt lat="46.25107" lon="-1.50762">
        <ele>3.02</ele>
        <time>2016-08-31T12:45:27Z</time>
      </trkpt>
      <trkpt lat="46.25131" lon="-1.50761">
        <ele>3.5</ele>
        <time>2016-08-31T12:45:32Z</time>
      </trkpt>
      <trkpt lat="46.25135" lon="-1.50758">
        <ele>3.98</ele>
        <time>2016-08-31T12:45:33Z</time>
      </trkpt>
      <trkpt lat="46.25139" lon="-1.50754">
        <ele>3.98</ele>
        <time>2016-08-31T12:45:34Z</time>
      </trkpt>
      <trkpt lat="46.25142" lon="-1.50749">
        <ele>3.98</ele>
        <time>2016-08-31T12:45:35Z</time>
      </trkpt>
      <trkpt lat="46.25144" lon="-1.50744">
        <ele>3.5</ele>
        <time>2016-08-31T12:45:36Z</time>
      </trkpt>
      <trkpt lat="46.25152" lon="-1.50728">
        <ele>4.46</ele>
        <time>2016-08-31T12:45:41Z</time>
      </trkpt>
      <trkpt lat="46.25154" lon="-1.50728">
        <ele>4.46</ele>
        <time>2016-08-31T12:45:42Z</time>
      </trkpt>
      <trkpt lat="46.25156" lon="-1.50729">
        <ele>4.46</ele>
        <time>2016-08-31T12:45:43Z</time>
      </trkpt>
      <trkpt lat="46.25157" lon="-1.50731">
        <ele>3.98</ele>
        <time>2016-08-31T12:45:44Z</time>
      </trkpt>
      <trkpt lat="46.25159" lon="-1.50732">
        <ele>8.79</ele>
        <time>2016-08-31T12:45:45Z</time>
      </trkpt>
      <trkpt lat="46.25161" lon="-1.50733">
        <ele>4.46</ele>
        <time>2016-08-31T12:45:46Z</time>
      </trkpt>
      <trkpt lat="46.2518" lon="-1.50746">
        <ele>3.5</ele>
        <time>2016-08-31T12:45:53Z</time>
      </trkpt>
      <trkpt lat="46.25207" lon="-1.50764">
        <ele>3.98</ele>
        <time>2016-08-31T12:46:01Z</time>
      </trkpt>
      <trkpt lat="46.25233" lon="-1.50782">
        <ele>4.94</ele>
        <time>2016-08-31T12:46:09Z</time>
      </trkpt>
      <trkpt lat="46.25243" lon="-1.50787">
        <ele>-5.63</ele>
        <time>2016-08-31T12:46:16Z</time>
      </trkpt>
      <trkpt lat="46.25243" lon="-1.50787">
        <ele>5.42</ele>
        <time>2016-08-31T12:46:17Z</time>
      </trkpt>
      <trkpt lat="46.25246" lon="-1.50788">
        <ele>4.94</ele>
        <time>2016-08-31T12:46:22Z</time>
      </trkpt>
      <trkpt lat="46.25251" lon="-1.50792">
        <ele>4.94</ele>
        <time>2016-08-31T12:46:29Z</time>
      </trkpt>
      <trkpt lat="46.25253" lon="-1.50792">
        <ele>12.63</ele>
        <time>2016-08-31T12:46:33Z</time>
      </trkpt>
      <trkpt lat="46.25253" lon="-1.50792">
        <ele>5.91</ele>
        <time>2016-08-31T12:46:34Z</time>
      </trkpt>
      <trkpt lat="46.25253" lon="-1.50792">
        <ele>9.27</ele>
        <time>2016-08-31T12:46:35Z</time>
      </trkpt>
      <trkpt lat="46.25253" lon="-1.50792">
        <ele>5.91</ele>
        <time>2016-08-31T12:46:36Z</time>
      </trkpt>
      <trkpt lat="46.25253" lon="-1.50792">
        <ele>-4.19</ele>
        <time>2016-08-31T12:46:37Z</time>
      </trkpt>
      <trkpt lat="46.25253" lon="-1.50792">
        <ele>6.39</ele>
        <time>2016-08-31T12:46:38Z</time>
      </trkpt>
      <trkpt lat="46.25253" lon="-1.50791">
        <ele>10.71</ele>
        <time>2016-08-31T12:46:42Z</time>
      </trkpt>
      <trkpt lat="46.25253" lon="-1.50791">
        <ele>10.23</ele>
        <time>2016-08-31T12:46:43Z</time>
      </trkpt>
      <trkpt lat="46.25253" lon="-1.50791">
        <ele>5.42</ele>
        <time>2016-08-31T12:46:45Z</time>
      </trkpt>
      <trkpt lat="46.25253" lon="-1.50791">
        <ele>7.83</ele>
        <time>2016-08-31T12:46:46Z</time>
      </trkpt>
      <trkpt lat="46.25253" lon="-1.50791">
        <ele>0.14</ele>
        <time>2016-08-31T12:46:47Z</time>
      </trkpt>
      <trkpt lat="46.25253" lon="-1.50791">
        <ele>5.91</ele>
        <time>2016-08-31T12:46:48Z</time>
      </trkpt>
      <trkpt lat="46.25253" lon="-1.50792">
        <ele>2.06</ele>
        <time>2016-08-31T12:46:53Z</time>
      </trkpt>
      <trkpt lat="46.25253" lon="-1.50792">
        <ele>11.19</ele>
        <time>2016-08-31T12:46:54Z</time>
      </trkpt>
      <trkpt lat="46.25253" lon="-1.50792">
        <ele>5.42</ele>
        <time>2016-08-31T12:46:55Z</time>
      </trkpt>
      <trkpt lat="46.25252" lon="-1.50791">
        <ele>4.94</ele>
        <time>2016-08-31T12:47:00Z</time>
      </trkpt>
      <trkpt lat="46.25251" lon="-1.50791">
        <ele>4.94</ele>
        <time>2016-08-31T12:47:01Z</time>
      </trkpt>
      <trkpt lat="46.25246" lon="-1.50786">
        <ele>1.58</ele>
        <time>2016-08-31T12:47:10Z</time>
      </trkpt>
      <trkpt lat="46.25246" lon="-1.50786">
        <ele>6.87</ele>
        <time>2016-08-31T12:47:11Z</time>
      </trkpt>
      <trkpt lat="46.25246" lon="-1.50786">
        <ele>11.19</ele>
        <time>2016-08-31T12:47:12Z</time>
      </trkpt>
      <trkpt lat="46.25246" lon="-1.50786">
        <ele>5.42</ele>
        <time>2016-08-31T12:47:13Z</time>
      </trkpt>
      <trkpt lat="46.25247" lon="-1.50783">
        <ele>4.94</ele>
        <time>2016-08-31T12:47:18Z</time>
      </trkpt>
      <trkpt lat="46.25248" lon="-1.5078">
        <ele>5.42</ele>
        <time>2016-08-31T12:47:19Z</time>
      </trkpt>
      <trkpt lat="46.25253" lon="-1.50754">
        <ele>5.42</ele>
        <time>2016-08-31T12:47:26Z</time>
      </trkpt>
      <trkpt lat="46.25259" lon="-1.50722">
        <ele>6.39</ele>
        <time>2016-08-31T12:47:33Z</time>
      </trkpt>
      <trkpt lat="46.25273" lon="-1.50677">
        <ele>5.91</ele>
        <time>2016-08-31T12:47:42Z</time>
      </trkpt>
      <trkpt lat="46.25281" lon="-1.50655">
        <ele>4.94</ele>
        <time>2016-08-31T12:47:46Z</time>
      </trkpt>
      <trkpt lat="46.25283" lon="-1.50649">
        <ele>5.42</ele>
        <time>2016-08-31T12:47:47Z</time>
      </trkpt>
      <trkpt lat="46.25301" lon="-1.50576">
        <ele>2.54</ele>
        <time>2016-08-31T12:47:59Z</time>
      </trkpt>
      <trkpt lat="46.25305" lon="-1.5056">
        <ele>5.91</ele>
        <time>2016-08-31T12:48:02Z</time>
      </trkpt>
      <trkpt lat="46.2531" lon="-1.5054">
        <ele>-1.3</ele>
        <time>2016-08-31T12:48:06Z</time>
      </trkpt>
      <trkpt lat="46.25311" lon="-1.50535">
        <ele>5.91</ele>
        <time>2016-08-31T12:48:07Z</time>
      </trkpt>
      <trkpt lat="46.2532" lon="-1.50505">
        <ele>-2.75</ele>
        <time>2016-08-31T12:48:13Z</time>
      </trkpt>
      <trkpt lat="46.25321" lon="-1.505">
        <ele>6.39</ele>
        <time>2016-08-31T12:48:14Z</time>
      </trkpt>
      <trkpt lat="46.25334" lon="-1.5046">
        <ele>6.39</ele>
        <time>2016-08-31T12:48:22Z</time>
      </trkpt>
      <trkpt lat="46.25342" lon="-1.50439">
        <ele>5.91</ele>
        <time>2016-08-31T12:48:26Z</time>
      </trkpt>
      <trkpt lat="46.25348" lon="-1.50429">
        <ele>5.91</ele>
        <time>2016-08-31T12:48:28Z</time>
      </trkpt>
      <trkpt lat="46.25351" lon="-1.50425">
        <ele>5.91</ele>
        <time>2016-08-31T12:48:29Z</time>
      </trkpt>
      <trkpt lat="46.25355" lon="-1.50423">
        <ele>5.91</ele>
        <time>2016-08-31T12:48:30Z</time>
      </trkpt>
      <trkpt lat="46.25359" lon="-1.50421">
        <ele>5.91</ele>
        <time>2016-08-31T12:48:31Z</time>
      </trkpt>
      <trkpt lat="46.25363" lon="-1.5042">
        <ele>6.39</ele>
        <time>2016-08-31T12:48:32Z</time>
      </trkpt>
      <trkpt lat="46.25393" lon="-1.50415">
        <ele>6.39</ele>
        <time>2016-08-31T12:48:40Z</time>
      </trkpt>
      <trkpt lat="46.25433" lon="-1.50416">
        <ele>5.42</ele>
        <time>2016-08-31T12:48:50Z</time>
      </trkpt>
      <trkpt lat="46.25454" lon="-1.50413">
        <ele>4.94</ele>
        <time>2016-08-31T12:48:56Z</time>
      </trkpt>
      <trkpt lat="46.25458" lon="-1.50411">
        <ele>4.46</ele>
        <time>2016-08-31T12:48:57Z</time>
      </trkpt>
      <trkpt lat="46.25461" lon="-1.50408">
        <ele>4.46</ele>
        <time>2016-08-31T12:48:58Z</time>
      </trkpt>
      <trkpt lat="46.25483" lon="-1.50391">
        <ele>3.5</ele>
        <time>2016-08-31T12:49:04Z</time>
      </trkpt>
      <trkpt lat="46.25488" lon="-1.50391">
        <ele>3.5</ele>
        <time>2016-08-31T12:49:05Z</time>
      </trkpt>
      <trkpt lat="46.25496" lon="-1.5039">
        <ele>3.5</ele>
        <time>2016-08-31T12:49:07Z</time>
      </trkpt>
      <trkpt lat="46.255" lon="-1.5039">
        <ele>3.5</ele>
        <time>2016-08-31T12:49:08Z</time>
      </trkpt>
      <trkpt lat="46.25504" lon="-1.5039">
        <ele>3.98</ele>
        <time>2016-08-31T12:49:09Z</time>
      </trkpt>
      <trkpt lat="46.25523" lon="-1.50383">
        <ele>3.5</ele>
        <time>2016-08-31T12:49:14Z</time>
      </trkpt>
      <trkpt lat="46.25527" lon="-1.50381">
        <ele>3.5</ele>
        <time>2016-08-31T12:49:15Z</time>
      </trkpt>
      <trkpt lat="46.25535" lon="-1.50376">
        <ele>3.5</ele>
        <time>2016-08-31T12:49:17Z</time>
      </trkpt>
      <trkpt lat="46.25539" lon="-1.50375">
        <ele>3.5</ele>
        <time>2016-08-31T12:49:18Z</time>
      </trkpt>
      <trkpt lat="46.25543" lon="-1.50373">
        <ele>3.02</ele>
        <time>2016-08-31T12:49:19Z</time>
      </trkpt>
      <trkpt lat="46.25547" lon="-1.5037">
        <ele>3.5</ele>
        <time>2016-08-31T12:49:20Z</time>
      </trkpt>
      <trkpt lat="46.25551" lon="-1.50367">
        <ele>3.5</ele>
        <time>2016-08-31T12:49:21Z</time>
      </trkpt>
      <trkpt lat="46.25554" lon="-1.50365">
        <ele>3.98</ele>
        <time>2016-08-31T12:49:22Z</time>
      </trkpt>
      <trkpt lat="46.25586" lon="-1.5034">
        <ele>3.5</ele>
        <time>2016-08-31T12:49:32Z</time>
      </trkpt>
      <trkpt lat="46.25628" lon="-1.50339">
        <ele>3.02</ele>
        <time>2016-08-31T12:49:43Z</time>
      </trkpt>
      <trkpt lat="46.25652" lon="-1.50371">
        <ele>3.02</ele>
        <time>2016-08-31T12:49:52Z</time>
      </trkpt>
      <trkpt lat="46.25653" lon="-1.50376">
        <ele>3.02</ele>
        <time>2016-08-31T12:49:53Z</time>
      </trkpt>
      <trkpt lat="46.25655" lon="-1.5038">
        <ele>3.5</ele>
        <time>2016-08-31T12:49:54Z</time>
      </trkpt>
      <trkpt lat="46.25657" lon="-1.50384">
        <ele>3.02</ele>
        <time>2016-08-31T12:49:55Z</time>
      </trkpt>
      <trkpt lat="46.25659" lon="-1.50388">
        <ele>2.54</ele>
        <time>2016-08-31T12:49:56Z</time>
      </trkpt>
      <trkpt lat="46.25666" lon="-1.50397">
        <ele>3.02</ele>
        <time>2016-08-31T12:50:04Z</time>
      </trkpt>
      <trkpt lat="46.25667" lon="-1.50398">
        <ele>3.02</ele>
        <time>2016-08-31T12:50:08Z</time>
      </trkpt>
      <trkpt lat="46.25669" lon="-1.50399">
        <ele>3.02</ele>
        <time>2016-08-31T12:50:10Z</time>
      </trkpt>
      <trkpt lat="46.25681" lon="-1.50404">
        <ele>3.5</ele>
        <time>2016-08-31T12:50:20Z</time>
      </trkpt>
      <trkpt lat="46.25692" lon="-1.50404">
        <ele>4.94</ele>
        <time>2016-08-31T12:50:31Z</time>
      </trkpt>
      <trkpt lat="46.25694" lon="-1.50404">
        <ele>4.46</ele>
        <time>2016-08-31T12:50:40Z</time>
      </trkpt>
      <trkpt lat="46.25695" lon="-1.50406">
        <ele>3.98</ele>
        <time>2016-08-31T12:50:48Z</time>
      </trkpt>
      <trkpt lat="46.25696" lon="-1.50407">
        <ele>3.5</ele>
        <time>2016-08-31T12:50:58Z</time>
      </trkpt>
      <trkpt lat="46.25697" lon="-1.50407">
        <ele>-1.3</ele>
        <time>2016-08-31T12:51:17Z</time>
      </trkpt>
      <trkpt lat="46.25697" lon="-1.50407">
        <ele>6.39</ele>
        <time>2016-08-31T12:51:18Z</time>
      </trkpt>
      <trkpt lat="46.25697" lon="-1.50407">
        <ele>4.46</ele>
        <time>2016-08-31T12:51:22Z</time>
      </trkpt>
      <trkpt lat="46.25698" lon="-1.50406">
        <ele>0.62</ele>
        <time>2016-08-31T12:51:23Z</time>
      </trkpt>
      <trkpt lat="46.25699" lon="-1.50406">
        <ele>4.46</ele>
        <time>2016-08-31T12:51:24Z</time>
      </trkpt>
      <trkpt lat="46.25699" lon="-1.50405">
        <ele>0.62</ele>
        <time>2016-08-31T12:51:27Z</time>
      </trkpt>
      <trkpt lat="46.25699" lon="-1.50405">
        <ele>-30.14</ele>
        <time>2016-08-31T12:51:28Z</time>
      </trkpt>
      <trkpt lat="46.25699" lon="-1.50405">
        <ele>1.58</ele>
        <time>2016-08-31T12:51:29Z</time>
      </trkpt>
      <trkpt lat="46.25699" lon="-1.50405">
        <ele>19.36</ele>
        <time>2016-08-31T12:51:30Z</time>
      </trkpt>
      <trkpt lat="46.25699" lon="-1.50405">
        <ele>34.74</ele>
        <time>2016-08-31T12:51:31Z</time>
      </trkpt>
      <trkpt lat="46.25699" lon="-1.50405">
        <ele>31.86</ele>
        <time>2016-08-31T12:51:32Z</time>
      </trkpt>
      <trkpt lat="46.25699" lon="-1.50405">
        <ele>4.94</ele>
        <time>2016-08-31T12:51:33Z</time>
      </trkpt>
      <trkpt lat="46.25699" lon="-1.50405">
        <ele>-15.24</ele>
        <time>2016-08-31T12:51:35Z</time>
      </trkpt>
      <trkpt lat="46.25699" lon="-1.50405">
        <ele>13.6</ele>
        <time>2016-08-31T12:51:36Z</time>
      </trkpt>
      <trkpt lat="46.25699" lon="-1.50405">
        <ele>1.1</ele>
        <time>2016-08-31T12:51:37Z</time>
      </trkpt>
      <trkpt lat="46.25699" lon="-1.50405">
        <ele>4.46</ele>
        <time>2016-08-31T12:51:38Z</time>
      </trkpt>
      <trkpt lat="46.25699" lon="-1.50405">
        <ele>1.1</ele>
        <time>2016-08-31T12:51:41Z</time>
      </trkpt>
      <trkpt lat="46.25699" lon="-1.50405">
        <ele>4.94</ele>
        <time>2016-08-31T12:51:42Z</time>
      </trkpt>
      <trkpt lat="46.25699" lon="-1.50405">
        <ele>12.15</ele>
        <time>2016-08-31T12:51:52Z</time>
      </trkpt>
      <trkpt lat="46.25699" lon="-1.50405">
        <ele>4.46</ele>
        <time>2016-08-31T12:51:53Z</time>
      </trkpt>
      <trkpt lat="46.25699" lon="-1.50405">
        <ele>3.02</ele>
        <time>2016-08-31T12:51:55Z</time>
      </trkpt>
      <trkpt lat="46.25697" lon="-1.50405">
        <ele>3.98</ele>
        <time>2016-08-31T12:51:56Z</time>
      </trkpt>
      <trkpt lat="46.25697" lon="-1.50406">
        <ele>3.98</ele>
        <time>2016-08-31T12:51:57Z</time>
      </trkpt>
      <trkpt lat="46.25696" lon="-1.50407">
        <ele>4.46</ele>
        <time>2016-08-31T12:52:05Z</time>
      </trkpt>
      <trkpt lat="46.25697" lon="-1.50408">
        <ele>3.02</ele>
        <time>2016-08-31T12:52:28Z</time>
      </trkpt>
      <trkpt lat="46.25697" lon="-1.50408">
        <ele>3.5</ele>
        <time>2016-08-31T12:53:03Z</time>
      </trkpt>
      <trkpt lat="46.25697" lon="-1.50408">
        <ele>3.5</ele>
        <time>2016-08-31T12:53:37Z</time>
      </trkpt>
      <trkpt lat="46.25697" lon="-1.50408">
        <ele>3.5</ele>
        <time>2016-08-31T12:54:13Z</time>
      </trkpt>
      <trkpt lat="46.25697" lon="-1.50408">
        <ele>3.98</ele>
        <time>2016-08-31T12:54:44Z</time>
      </trkpt>
      <trkpt lat="46.25697" lon="-1.50408">
        <ele>3.5</ele>
        <time>2016-08-31T12:55:18Z</time>
      </trkpt>
      <trkpt lat="46.25697" lon="-1.50408">
        <ele>3.98</ele>
        <time>2016-08-31T12:55:52Z</time>
      </trkpt>
      <trkpt lat="46.25697" lon="-1.50408">
        <ele>3.5</ele>
        <time>2016-08-31T12:56:28Z</time>
      </trkpt>
      <trkpt lat="46.25697" lon="-1.50408">
        <ele>3.5</ele>
        <time>2016-08-31T12:57:02Z</time>
      </trkpt>
      <trkpt lat="46.25698" lon="-1.50408">
        <ele>3.5</ele>
        <time>2016-08-31T12:57:37Z</time>
      </trkpt>
      <trkpt lat="46.25697" lon="-1.50408">
        <ele>3.98</ele>
        <time>2016-08-31T12:58:09Z</time>
      </trkpt>
      <trkpt lat="46.25698" lon="-1.50408">
        <ele>3.02</ele>
        <time>2016-08-31T12:58:43Z</time>
      </trkpt>
      <trkpt lat="46.25698" lon="-1.50408">
        <ele>3.02</ele>
        <time>2016-08-31T12:59:21Z</time>
      </trkpt>
      <trkpt lat="46.25698" lon="-1.50408">
        <ele>3.02</ele>
        <time>2016-08-31T12:59:58Z</time>
      </trkpt>
      <trkpt lat="46.25698" lon="-1.50408">
        <ele>3.5</ele>
        <time>2016-08-31T13:00:32Z</time>
      </trkpt>
      <trkpt lat="46.25698" lon="-1.50409">
        <ele>3.02</ele>
        <time>2016-08-31T13:01:04Z</time>
      </trkpt>
      <trkpt lat="46.25698" lon="-1.50408">
        <ele>3.02</ele>
        <time>2016-08-31T13:01:41Z</time>
      </trkpt>
      <trkpt lat="46.25698" lon="-1.50408">
        <ele>3.02</ele>
        <time>2016-08-31T13:02:18Z</time>
      </trkpt>
      <trkpt lat="46.25698" lon="-1.50408">
        <ele>3.5</ele>
        <time>2016-08-31T13:02:56Z</time>
      </trkpt>
      <trkpt lat="46.25698" lon="-1.50408">
        <ele>3.5</ele>
        <time>2016-08-31T13:03:37Z</time>
      </trkpt>
      <trkpt lat="46.25698" lon="-1.50407">
        <ele>3.5</ele>
        <time>2016-08-31T13:04:15Z</time>
      </trkpt>
      <trkpt lat="46.25698" lon="-1.50407">
        <ele>3.02</ele>
        <time>2016-08-31T13:04:48Z</time>
      </trkpt>
      <trkpt lat="46.25698" lon="-1.50407">
        <ele>3.5</ele>
        <time>2016-08-31T13:05:22Z</time>
      </trkpt>
      <trkpt lat="46.25697" lon="-1.50408">
        <ele>3.02</ele>
        <time>2016-08-31T13:06:01Z</time>
      </trkpt>
      <trkpt lat="46.25697" lon="-1.50409">
        <ele>3.02</ele>
        <time>2016-08-31T13:06:34Z</time>
      </trkpt>
      <trkpt lat="46.25698" lon="-1.50409">
        <ele>3.02</ele>
        <time>2016-08-31T13:07:10Z</time>
      </trkpt>
      <trkpt lat="46.25697" lon="-1.50409">
        <ele>3.02</ele>
        <time>2016-08-31T13:07:48Z</time>
      </trkpt>
      <trkpt lat="46.25697" lon="-1.50408">
        <ele>3.02</ele>
        <time>2016-08-31T13:08:15Z</time>
      </trkpt>
      <trkpt lat="46.25697" lon="-1.50408">
        <ele>-3.71</ele>
        <time>2016-08-31T13:08:26Z</time>
      </trkpt>
      <trkpt lat="46.25697" lon="-1.50408">
        <ele>-0.82</ele>
        <time>2016-08-31T13:08:27Z</time>
      </trkpt>
      <trkpt lat="46.25697" lon="-1.50408">
        <ele>5.91</ele>
        <time>2016-08-31T13:08:28Z</time>
      </trkpt>
      <trkpt lat="46.25697" lon="-1.50408">
        <ele>3.5</ele>
        <time>2016-08-31T13:08:29Z</time>
      </trkpt>
      <trkpt lat="46.25697" lon="-1.50406">
        <ele>3.5</ele>
        <time>2016-08-31T13:08:35Z</time>
      </trkpt>
      <trkpt lat="46.25697" lon="-1.50404">
        <ele>3.5</ele>
        <time>2016-08-31T13:08:49Z</time>
      </trkpt>
      <trkpt lat="46.25696" lon="-1.50404">
        <ele>3.98</ele>
        <time>2016-08-31T13:08:56Z</time>
      </trkpt>
      <trkpt lat="46.25689" lon="-1.50405">
        <ele>4.94</ele>
        <time>2016-08-31T13:09:06Z</time>
      </trkpt>
      <trkpt lat="46.25686" lon="-1.50405">
        <ele>3.98</ele>
        <time>2016-08-31T13:09:17Z</time>
      </trkpt>
      <trkpt lat="46.25674" lon="-1.50402">
        <ele>3.02</ele>
        <time>2016-08-31T13:09:25Z</time>
      </trkpt>
      <trkpt lat="46.25673" lon="-1.50401">
        <ele>3.02</ele>
        <time>2016-08-31T13:09:26Z</time>
      </trkpt>
      <trkpt lat="46.25672" lon="-1.50399">
        <ele>3.02</ele>
        <time>2016-08-31T13:09:27Z</time>
      </trkpt>
      <trkpt lat="46.2567" lon="-1.50398">
        <ele>2.54</ele>
        <time>2016-08-31T13:09:28Z</time>
      </trkpt>
      <trkpt lat="46.25669" lon="-1.50396">
        <ele>2.54</ele>
        <time>2016-08-31T13:09:29Z</time>
      </trkpt>
      <trkpt lat="46.25668" lon="-1.50394">
        <ele>2.54</ele>
        <time>2016-08-31T13:09:30Z</time>
      </trkpt>
      <trkpt lat="46.25655" lon="-1.50374">
        <ele>2.54</ele>
        <time>2016-08-31T13:09:39Z</time>
      </trkpt>
      <trkpt lat="46.25636" lon="-1.5035">
        <ele>2.54</ele>
        <time>2016-08-31T13:09:49Z</time>
      </trkpt>
      <trkpt lat="46.25609" lon="-1.50335">
        <ele>2.54</ele>
        <time>2016-08-31T13:09:59Z</time>
      </trkpt>
      <trkpt lat="46.2557" lon="-1.50349">
        <ele>3.02</ele>
        <time>2016-08-31T13:10:12Z</time>
      </trkpt>
      <trkpt lat="46.25544" lon="-1.50374">
        <ele>2.54</ele>
        <time>2016-08-31T13:10:22Z</time>
      </trkpt>
      <trkpt lat="46.25522" lon="-1.50384">
        <ele>3.02</ele>
        <time>2016-08-31T13:10:29Z</time>
      </trkpt>
      <trkpt lat="46.25519" lon="-1.50386">
        <ele>3.02</ele>
        <time>2016-08-31T13:10:30Z</time>
      </trkpt>
      <trkpt lat="46.25517" lon="-1.50385">
        <ele>2.54</ele>
        <time>2016-08-31T13:10:31Z</time>
      </trkpt>
      <trkpt lat="46.25515" lon="-1.50384">
        <ele>3.02</ele>
        <time>2016-08-31T13:10:32Z</time>
      </trkpt>
      <trkpt lat="46.25513" lon="-1.50382">
        <ele>3.5</ele>
        <time>2016-08-31T13:10:33Z</time>
      </trkpt>
      <trkpt lat="46.25512" lon="-1.50379">
        <ele>3.5</ele>
        <time>2016-08-31T13:10:34Z</time>
      </trkpt>
      <trkpt lat="46.25511" lon="-1.50376">
        <ele>3.02</ele>
        <time>2016-08-31T13:10:35Z</time>
      </trkpt>
      <trkpt lat="46.2551" lon="-1.50372">
        <ele>2.54</ele>
        <time>2016-08-31T13:10:36Z</time>
      </trkpt>
      <trkpt lat="46.25507" lon="-1.50359">
        <ele>9.75</ele>
        <time>2016-08-31T13:10:39Z</time>
      </trkpt>
      <trkpt lat="46.25505" lon="-1.50355">
        <ele>2.54</ele>
        <time>2016-08-31T13:10:40Z</time>
      </trkpt>
      <trkpt lat="46.25503" lon="-1.50348">
        <ele>-9.96</ele>
        <time>2016-08-31T13:10:42Z</time>
      </trkpt>
      <trkpt lat="46.25502" lon="-1.50345">
        <ele>4.46</ele>
        <time>2016-08-31T13:10:43Z</time>
      </trkpt>
      <trkpt lat="46.25501" lon="-1.50342">
        <ele>-1.79</ele>
        <time>2016-08-31T13:10:44Z</time>
      </trkpt>
      <trkpt lat="46.255" lon="-1.50339">
        <ele>7.35</ele>
        <time>2016-08-31T13:10:45Z</time>
      </trkpt>
      <trkpt lat="46.25499" lon="-1.50335">
        <ele>3.02</ele>
        <time>2016-08-31T13:10:46Z</time>
      </trkpt>
      <trkpt lat="46.25487" lon="-1.50292">
        <ele>2.54</ele>
        <time>2016-08-31T13:10:55Z</time>
      </trkpt>
      <trkpt lat="46.25473" lon="-1.50238">
        <ele>2.06</ele>
        <time>2016-08-31T13:11:05Z</time>
      </trkpt>
      <trkpt lat="46.25458" lon="-1.5019">
        <ele>2.54</ele>
        <time>2016-08-31T13:11:15Z</time>
      </trkpt>
      <trkpt lat="46.25455" lon="-1.50189">
        <ele>2.54</ele>
        <time>2016-08-31T13:11:16Z</time>
      </trkpt>
      <trkpt lat="46.25452" lon="-1.50189">
        <ele>3.02</ele>
        <time>2016-08-31T13:11:17Z</time>
      </trkpt>
      <trkpt lat="46.25415" lon="-1.50199">
        <ele>2.54</ele>
        <time>2016-08-31T13:11:27Z</time>
      </trkpt>
      <trkpt lat="46.25412" lon="-1.50196">
        <ele>2.54</ele>
        <time>2016-08-31T13:11:28Z</time>
      </trkpt>
      <trkpt lat="46.2541" lon="-1.50191">
        <ele>3.02</ele>
        <time>2016-08-31T13:11:29Z</time>
      </trkpt>
      <trkpt lat="46.25404" lon="-1.50175">
        <ele>2.54</ele>
        <time>2016-08-31T13:11:32Z</time>
      </trkpt>
      <trkpt lat="46.25402" lon="-1.5017">
        <ele>3.02</ele>
        <time>2016-08-31T13:11:33Z</time>
      </trkpt>
      <trkpt lat="46.25377" lon="-1.50085">
        <ele>2.06</ele>
        <time>2016-08-31T13:11:47Z</time>
      </trkpt>
      <trkpt lat="46.25371" lon="-1.50065">
        <ele>2.06</ele>
        <time>2016-08-31T13:11:50Z</time>
      </trkpt>
      <trkpt lat="46.25368" lon="-1.50059">
        <ele>2.54</ele>
        <time>2016-08-31T13:11:51Z</time>
      </trkpt>
      <trkpt lat="46.25352" lon="-1.50006">
        <ele>2.54</ele>
        <time>2016-08-31T13:11:59Z</time>
      </trkpt>
      <trkpt lat="46.25326" lon="-1.49917">
        <ele>1.58</ele>
        <time>2016-08-31T13:12:12Z</time>
      </trkpt>
      <trkpt lat="46.25299" lon="-1.49828">
        <ele>2.06</ele>
        <time>2016-08-31T13:12:25Z</time>
      </trkpt>
      <trkpt lat="46.25284" lon="-1.49765">
        <ele>2.06</ele>
        <time>2016-08-31T13:12:35Z</time>
      </trkpt>
      <trkpt lat="46.25285" lon="-1.49759">
        <ele>2.06</ele>
        <time>2016-08-31T13:12:36Z</time>
      </trkpt>
      <trkpt lat="46.25288" lon="-1.49754">
        <ele>1.58</ele>
        <time>2016-08-31T13:12:37Z</time>
      </trkpt>
      <trkpt lat="46.25317" lon="-1.49701">
        <ele>2.06</ele>
        <time>2016-08-31T13:12:47Z</time>
      </trkpt>
      <trkpt lat="46.25319" lon="-1.49696">
        <ele>2.06</ele>
        <time>2016-08-31T13:12:48Z</time>
      </trkpt>
      <trkpt lat="46.25319" lon="-1.4969">
        <ele>2.06</ele>
        <time>2016-08-31T13:12:49Z</time>
      </trkpt>
      <trkpt lat="46.25319" lon="-1.49672">
        <ele>1.58</ele>
        <time>2016-08-31T13:12:52Z</time>
      </trkpt>
      <trkpt lat="46.25319" lon="-1.49665">
        <ele>2.06</ele>
        <time>2016-08-31T13:12:53Z</time>
      </trkpt>
      <trkpt lat="46.25318" lon="-1.49606">
        <ele>1.58</ele>
        <time>2016-08-31T13:13:01Z</time>
      </trkpt>
      <trkpt lat="46.25318" lon="-1.49599">
        <ele>1.58</ele>
        <time>2016-08-31T13:13:02Z</time>
      </trkpt>
      <trkpt lat="46.25318" lon="-1.49591">
        <ele>1.58</ele>
        <time>2016-08-31T13:13:03Z</time>
      </trkpt>
      <trkpt lat="46.25315" lon="-1.4954">
        <ele>2.06</ele>
        <time>2016-08-31T13:13:10Z</time>
      </trkpt>
      <trkpt lat="46.25312" lon="-1.49534">
        <ele>2.06</ele>
        <time>2016-08-31T13:13:11Z</time>
      </trkpt>
      <trkpt lat="46.25309" lon="-1.4953">
        <ele>2.06</ele>
        <time>2016-08-31T13:13:12Z</time>
      </trkpt>
      <trkpt lat="46.25305" lon="-1.49526">
        <ele>1.58</ele>
        <time>2016-08-31T13:13:13Z</time>
      </trkpt>
      <trkpt lat="46.25301" lon="-1.49522">
        <ele>1.58</ele>
        <time>2016-08-31T13:13:14Z</time>
      </trkpt>
      <trkpt lat="46.2526" lon="-1.49492">
        <ele>1.1</ele>
        <time>2016-08-31T13:13:24Z</time>
      </trkpt>
      <trkpt lat="46.25256" lon="-1.4949">
        <ele>1.1</ele>
        <time>2016-08-31T13:13:25Z</time>
      </trkpt>
      <trkpt lat="46.25211" lon="-1.49457">
        <ele>1.1</ele>
        <time>2016-08-31T13:13:35Z</time>
      </trkpt>
      <trkpt lat="46.25208" lon="-1.49452">
        <ele>1.1</ele>
        <time>2016-08-31T13:13:36Z</time>
      </trkpt>
      <trkpt lat="46.25206" lon="-1.49445">
        <ele>1.1</ele>
        <time>2016-08-31T13:13:37Z</time>
      </trkpt>
      <trkpt lat="46.25205" lon="-1.49438">
        <ele>0.62</ele>
        <time>2016-08-31T13:13:38Z</time>
      </trkpt>
      <trkpt lat="46.25205" lon="-1.49431">
        <ele>1.1</ele>
        <time>2016-08-31T13:13:39Z</time>
      </trkpt>
      <trkpt lat="46.25207" lon="-1.49424">
        <ele>1.1</ele>
        <time>2016-08-31T13:13:40Z</time>
      </trkpt>
      <trkpt lat="46.25208" lon="-1.49417">
        <ele>0.62</ele>
        <time>2016-08-31T13:13:41Z</time>
      </trkpt>
      <trkpt lat="46.25232" lon="-1.49337">
        <ele>1.1</ele>
        <time>2016-08-31T13:13:53Z</time>
      </trkpt>
      <trkpt lat="46.25256" lon="-1.49262">
        <ele>0.14</ele>
        <time>2016-08-31T13:14:05Z</time>
      </trkpt>
      <trkpt lat="46.25277" lon="-1.49203">
        <ele>-4.19</ele>
        <time>2016-08-31T13:14:14Z</time>
      </trkpt>
      <trkpt lat="46.25279" lon="-1.49196">
        <ele>2.06</ele>
        <time>2016-08-31T13:14:15Z</time>
      </trkpt>
      <trkpt lat="46.25284" lon="-1.49183">
        <ele>0.62</ele>
        <time>2016-08-31T13:14:17Z</time>
      </trkpt>
      <trkpt lat="46.2529" lon="-1.49164">
        <ele>1.58</ele>
        <time>2016-08-31T13:14:20Z</time>
      </trkpt>
      <trkpt lat="46.25291" lon="-1.49159">
        <ele>1.58</ele>
        <time>2016-08-31T13:14:21Z</time>
      </trkpt>
      <trkpt lat="46.25298" lon="-1.49141">
        <ele>2.06</ele>
        <time>2016-08-31T13:14:24Z</time>
      </trkpt>
      <trkpt lat="46.25299" lon="-1.49135">
        <ele>1.58</ele>
        <time>2016-08-31T13:14:25Z</time>
      </trkpt>
      <trkpt lat="46.25299" lon="-1.49128">
        <ele>1.58</ele>
        <time>2016-08-31T13:14:26Z</time>
      </trkpt>
      <trkpt lat="46.25297" lon="-1.49121">
        <ele>2.06</ele>
        <time>2016-08-31T13:14:27Z</time>
      </trkpt>
      <trkpt lat="46.25295" lon="-1.49115">
        <ele>2.06</ele>
        <time>2016-08-31T13:14:28Z</time>
      </trkpt>
      <trkpt lat="46.25293" lon="-1.49109">
        <ele>1.58</ele>
        <time>2016-08-31T13:14:29Z</time>
      </trkpt>
      <trkpt lat="46.2529" lon="-1.49103">
        <ele>1.58</ele>
        <time>2016-08-31T13:14:30Z</time>
      </trkpt>
      <trkpt lat="46.25288" lon="-1.49096">
        <ele>1.58</ele>
        <time>2016-08-31T13:14:31Z</time>
      </trkpt>
      <trkpt lat="46.2528" lon="-1.49069">
        <ele>1.58</ele>
        <time>2016-08-31T13:14:35Z</time>
      </trkpt>
      <trkpt lat="46.25279" lon="-1.49062">
        <ele>1.58</ele>
        <time>2016-08-31T13:14:36Z</time>
      </trkpt>
      <trkpt lat="46.25277" lon="-1.49056">
        <ele>1.58</ele>
        <time>2016-08-31T13:14:37Z</time>
      </trkpt>
      <trkpt lat="46.25269" lon="-1.49037">
        <ele>1.58</ele>
        <time>2016-08-31T13:14:40Z</time>
      </trkpt>
      <trkpt lat="46.25266" lon="-1.49032">
        <ele>1.1</ele>
        <time>2016-08-31T13:14:41Z</time>
      </trkpt>
      <trkpt lat="46.25263" lon="-1.49028">
        <ele>0.62</ele>
        <time>2016-08-31T13:14:42Z</time>
      </trkpt>
      <trkpt lat="46.25259" lon="-1.49024">
        <ele>1.1</ele>
        <time>2016-08-31T13:14:43Z</time>
      </trkpt>
      <trkpt lat="46.25255" lon="-1.4902">
        <ele>1.1</ele>
        <time>2016-08-31T13:14:44Z</time>
      </trkpt>
      <trkpt lat="46.2525" lon="-1.49017">
        <ele>1.1</ele>
        <time>2016-08-31T13:14:45Z</time>
      </trkpt>
      <trkpt lat="46.25245" lon="-1.49014">
        <ele>1.1</ele>
        <time>2016-08-31T13:14:46Z</time>
      </trkpt>
      <trkpt lat="46.2518" lon="-1.48978">
        <ele>1.1</ele>
        <time>2016-08-31T13:15:00Z</time>
      </trkpt>
      <trkpt lat="46.25149" lon="-1.48951">
        <ele>1.58</ele>
        <time>2016-08-31T13:15:09Z</time>
      </trkpt>
      <trkpt lat="46.2515" lon="-1.48947">
        <ele>1.58</ele>
        <time>2016-08-31T13:15:10Z</time>
      </trkpt>
      <trkpt lat="46.25151" lon="-1.48943">
        <ele>1.58</ele>
        <time>2016-08-31T13:15:11Z</time>
      </trkpt>
      <trkpt lat="46.25151" lon="-1.48938">
        <ele>2.06</ele>
        <time>2016-08-31T13:15:12Z</time>
      </trkpt>
      <trkpt lat="46.25151" lon="-1.48934">
        <ele>2.06</ele>
        <time>2016-08-31T13:15:13Z</time>
      </trkpt>
      <trkpt lat="46.2515" lon="-1.4893">
        <ele>2.06</ele>
        <time>2016-08-31T13:15:14Z</time>
      </trkpt>
      <trkpt lat="46.25149" lon="-1.48926">
        <ele>1.58</ele>
        <time>2016-08-31T13:15:15Z</time>
      </trkpt>
      <trkpt lat="46.25148" lon="-1.48923">
        <ele>2.06</ele>
        <time>2016-08-31T13:15:16Z</time>
      </trkpt>
      <trkpt lat="46.2513" lon="-1.48899">
        <ele>2.54</ele>
        <time>2016-08-31T13:15:24Z</time>
      </trkpt>
      <trkpt lat="46.25122" lon="-1.48894">
        <ele>2.54</ele>
        <time>2016-08-31T13:15:27Z</time>
      </trkpt>
      <trkpt lat="46.2512" lon="-1.48891">
        <ele>3.02</ele>
        <time>2016-08-31T13:15:28Z</time>
      </trkpt>
      <trkpt lat="46.25119" lon="-1.48888">
        <ele>3.5</ele>
        <time>2016-08-31T13:15:29Z</time>
      </trkpt>
      <trkpt lat="46.25117" lon="-1.48885">
        <ele>3.5</ele>
        <time>2016-08-31T13:15:30Z</time>
      </trkpt>
      <trkpt lat="46.25115" lon="-1.48883">
        <ele>3.5</ele>
        <time>2016-08-31T13:15:31Z</time>
      </trkpt>
      <trkpt lat="46.25104" lon="-1.48869">
        <ele>3.5</ele>
        <time>2016-08-31T13:15:40Z</time>
      </trkpt>
      <trkpt lat="46.251" lon="-1.48866">
        <ele>3.5</ele>
        <time>2016-08-31T13:15:45Z</time>
      </trkpt>
      <trkpt lat="46.25088" lon="-1.48858">
        <ele>3.5</ele>
        <time>2016-08-31T13:15:57Z</time>
      </trkpt>
      <trkpt lat="46.25087" lon="-1.48857">
        <ele>3.5</ele>
        <time>2016-08-31T13:16:06Z</time>
      </trkpt>
      <trkpt lat="46.25087" lon="-1.48856">
        <ele>3.5</ele>
        <time>2016-08-31T13:16:29Z</time>
      </trkpt>
      <trkpt lat="46.25086" lon="-1.48856">
        <ele>3.5</ele>
        <time>2016-08-31T13:16:58Z</time>
      </trkpt>
      <trkpt lat="46.25086" lon="-1.48856">
        <ele>3.5</ele>
        <time>2016-08-31T13:17:26Z</time>
      </trkpt>
      <trkpt lat="46.25086" lon="-1.48855">
        <ele>3.5</ele>
        <time>2016-08-31T13:17:51Z</time>
      </trkpt>
      <trkpt lat="46.25086" lon="-1.48855">
        <ele>3.5</ele>
        <time>2016-08-31T13:18:25Z</time>
      </trkpt>
      <trkpt lat="46.25086" lon="-1.48855">
        <ele>3.5</ele>
        <time>2016-08-31T13:18:57Z</time>
      </trkpt>
      <trkpt lat="46.25086" lon="-1.48855">
        <ele>8.31</ele>
        <time>2016-08-31T13:19:07Z</time>
      </trkpt>
      <trkpt lat="46.25086" lon="-1.48855">
        <ele>2.54</ele>
        <time>2016-08-31T13:19:08Z</time>
      </trkpt>
      <trkpt lat="46.25086" lon="-1.48855">
        <ele>5.42</ele>
        <time>2016-08-31T13:19:11Z</time>
      </trkpt>
      <trkpt lat="46.25083" lon="-1.48855">
        <ele>3.02</ele>
        <time>2016-08-31T13:19:19Z</time>
      </trkpt>
      <trkpt lat="46.25069" lon="-1.48857">
        <ele>3.5</ele>
        <time>2016-08-31T13:19:32Z</time>
      </trkpt>
      <trkpt lat="46.25068" lon="-1.48857">
        <ele>3.98</ele>
        <time>2016-08-31T13:19:33Z</time>
      </trkpt>
      <trkpt lat="46.25066" lon="-1.48857">
        <ele>3.98</ele>
        <time>2016-08-31T13:19:40Z</time>
      </trkpt>
      <trkpt lat="46.2505" lon="-1.48851">
        <ele>3.5</ele>
        <time>2016-08-31T13:19:48Z</time>
      </trkpt>
      <trkpt lat="46.25041" lon="-1.48846">
        <ele>3.5</ele>
        <time>2016-08-31T13:19:52Z</time>
      </trkpt>
      <trkpt lat="46.25039" lon="-1.48845">
        <ele>3.02</ele>
        <time>2016-08-31T13:19:53Z</time>
      </trkpt>
      <trkpt lat="46.25037" lon="-1.48843">
        <ele>3.5</ele>
        <time>2016-08-31T13:19:54Z</time>
      </trkpt>
      <trkpt lat="46.2502" lon="-1.48832">
        <ele>3.5</ele>
        <time>2016-08-31T13:20:02Z</time>
      </trkpt>
      <trkpt lat="46.25018" lon="-1.48831">
        <ele>3.5</ele>
        <time>2016-08-31T13:20:03Z</time>
      </trkpt>
      <trkpt lat="46.25016" lon="-1.4883">
        <ele>3.5</ele>
        <time>2016-08-31T13:20:04Z</time>
      </trkpt>
      <trkpt lat="46.25009" lon="-1.48823">
        <ele>2.54</ele>
        <time>2016-08-31T13:20:11Z</time>
      </trkpt>
      <trkpt lat="46.25008" lon="-1.48822">
        <ele>2.54</ele>
        <time>2016-08-31T13:20:24Z</time>
      </trkpt>
      <trkpt lat="46.25007" lon="-1.48823">
        <ele>2.54</ele>
        <time>2016-08-31T13:20:26Z</time>
      </trkpt>
      <trkpt lat="46.25001" lon="-1.48836">
        <ele>0.62</ele>
        <time>2016-08-31T13:20:32Z</time>
      </trkpt>
      <trkpt lat="46.24983" lon="-1.48873">
        <ele>0.14</ele>
        <time>2016-08-31T13:20:42Z</time>
      </trkpt>
      <trkpt lat="46.25004" lon="-1.48896">
        <ele>0.14</ele>
        <time>2016-08-31T13:20:51Z</time>
      </trkpt>
      <trkpt lat="46.25007" lon="-1.48898">
        <ele>-5.15</ele>
        <time>2016-08-31T13:20:52Z</time>
      </trkpt>
      <trkpt lat="46.2501" lon="-1.489">
        <ele>-0.34</ele>
        <time>2016-08-31T13:20:53Z</time>
      </trkpt>
      <trkpt lat="46.25047" lon="-1.48926">
        <ele>0.14</ele>
        <time>2016-08-31T13:21:05Z</time>
      </trkpt>
      <trkpt lat="46.25049" lon="-1.48927">
        <ele>0.14</ele>
        <time>2016-08-31T13:21:06Z</time>
      </trkpt>
      <trkpt lat="46.25079" lon="-1.48955">
        <ele>-0.34</ele>
        <time>2016-08-31T13:21:17Z</time>
      </trkpt>
      <trkpt lat="46.25082" lon="-1.48965">
        <ele>0.14</ele>
        <time>2016-08-31T13:21:19Z</time>
      </trkpt>
      <trkpt lat="46.25081" lon="-1.48972">
        <ele>-0.34</ele>
        <time>2016-08-31T13:21:20Z</time>
      </trkpt>
      <trkpt lat="46.25078" lon="-1.48984">
        <ele>0.14</ele>
        <time>2016-08-31T13:21:22Z</time>
      </trkpt>
      <trkpt lat="46.25065" lon="-1.49065">
        <ele>0.14</ele>
        <time>2016-08-31T13:21:35Z</time>
      </trkpt>
      <trkpt lat="46.25052" lon="-1.49139">
        <ele>-0.34</ele>
        <time>2016-08-31T13:21:47Z</time>
      </trkpt>
      <trkpt lat="46.25045" lon="-1.4918">
        <ele>-0.82</ele>
        <time>2016-08-31T13:21:53Z</time>
      </trkpt>
      <trkpt lat="46.25043" lon="-1.49193">
        <ele>-0.34</ele>
        <time>2016-08-31T13:21:55Z</time>
      </trkpt>
      <trkpt lat="46.25028" lon="-1.49277">
        <ele>-0.34</ele>
        <time>2016-08-31T13:22:08Z</time>
      </trkpt>
      <trkpt lat="46.25028" lon="-1.49291">
        <ele>0.14</ele>
        <time>2016-08-31T13:22:11Z</time>
      </trkpt>
      <trkpt lat="46.25027" lon="-1.49293">
        <ele>0.14</ele>
        <time>2016-08-31T13:22:12Z</time>
      </trkpt>
      <trkpt lat="46.25026" lon="-1.49295">
        <ele>0.62</ele>
        <time>2016-08-31T13:22:13Z</time>
      </trkpt>
      <trkpt lat="46.25002" lon="-1.49312">
        <ele>0.14</ele>
        <time>2016-08-31T13:22:20Z</time>
      </trkpt>
      <trkpt lat="46.24994" lon="-1.49317">
        <ele>-0.34</ele>
        <time>2016-08-31T13:22:22Z</time>
      </trkpt>
      <trkpt lat="46.24965" lon="-1.49333">
        <ele>0.14</ele>
        <time>2016-08-31T13:22:29Z</time>
      </trkpt>
      <trkpt lat="46.24962" lon="-1.49336">
        <ele>-0.34</ele>
        <time>2016-08-31T13:22:30Z</time>
      </trkpt>
      <trkpt lat="46.24945" lon="-1.49346">
        <ele>0.62</ele>
        <time>2016-08-31T13:22:39Z</time>
      </trkpt>
      <trkpt lat="46.24945" lon="-1.49345">
        <ele>0.14</ele>
        <time>2016-08-31T13:22:49Z</time>
      </trkpt>
      <trkpt lat="46.24943" lon="-1.49345">
        <ele>0.62</ele>
        <time>2016-08-31T13:22:50Z</time>
      </trkpt>
      <trkpt lat="46.24941" lon="-1.49344">
        <ele>0.62</ele>
        <time>2016-08-31T13:22:51Z</time>
      </trkpt>
      <trkpt lat="46.24939" lon="-1.49342">
        <ele>0.62</ele>
        <time>2016-08-31T13:22:52Z</time>
      </trkpt>
      <trkpt lat="46.24937" lon="-1.49339">
        <ele>0.62</ele>
        <time>2016-08-31T13:22:53Z</time>
      </trkpt>
      <trkpt lat="46.24935" lon="-1.49335">
        <ele>0.62</ele>
        <time>2016-08-31T13:22:54Z</time>
      </trkpt>
      <trkpt lat="46.24934" lon="-1.49331">
        <ele>0.14</ele>
        <time>2016-08-31T13:22:55Z</time>
      </trkpt>
      <trkpt lat="46.24933" lon="-1.49326">
        <ele>0.62</ele>
        <time>2016-08-31T13:22:56Z</time>
      </trkpt>
      <trkpt lat="46.24921" lon="-1.49279">
        <ele>-0.34</ele>
        <time>2016-08-31T13:23:05Z</time>
      </trkpt>
      <trkpt lat="46.24905" lon="-1.49229">
        <ele>-0.34</ele>
        <time>2016-08-31T13:23:13Z</time>
      </trkpt>
      <trkpt lat="46.24876" lon="-1.49153">
        <ele>0.14</ele>
        <time>2016-08-31T13:23:25Z</time>
      </trkpt>
      <trkpt lat="46.24863" lon="-1.49069">
        <ele>-0.82</ele>
        <time>2016-08-31T13:23:36Z</time>
      </trkpt>
      <trkpt lat="46.24864" lon="-1.49006">
        <ele>-0.34</ele>
        <time>2016-08-31T13:23:44Z</time>
      </trkpt>
      <trkpt lat="46.24856" lon="-1.48904">
        <ele>-0.34</ele>
        <time>2016-08-31T13:23:57Z</time>
      </trkpt>
      <trkpt lat="46.24852" lon="-1.48879">
        <ele>-0.34</ele>
        <time>2016-08-31T13:24:00Z</time>
      </trkpt>
      <trkpt lat="46.2485" lon="-1.48871">
        <ele>0.14</ele>
        <time>2016-08-31T13:24:01Z</time>
      </trkpt>
      <trkpt lat="46.24821" lon="-1.48794">
        <ele>0.62</ele>
        <time>2016-08-31T13:24:12Z</time>
      </trkpt>
      <trkpt lat="46.24796" lon="-1.48714">
        <ele>0.62</ele>
        <time>2016-08-31T13:24:24Z</time>
      </trkpt>
      <trkpt lat="46.24793" lon="-1.48691">
        <ele>0.62</ele>
        <time>2016-08-31T13:24:27Z</time>
      </trkpt>
      <trkpt lat="46.24793" lon="-1.48683">
        <ele>0.62</ele>
        <time>2016-08-31T13:24:28Z</time>
      </trkpt>
      <trkpt lat="46.24792" lon="-1.48651">
        <ele>1.1</ele>
        <time>2016-08-31T13:24:32Z</time>
      </trkpt>
      <trkpt lat="46.24793" lon="-1.48593">
        <ele>2.54</ele>
        <time>2016-08-31T13:24:40Z</time>
      </trkpt>
      <trkpt lat="46.24791" lon="-1.48573">
        <ele>2.06</ele>
        <time>2016-08-31T13:24:43Z</time>
      </trkpt>
      <trkpt lat="46.2477" lon="-1.48499">
        <ele>3.5</ele>
        <time>2016-08-31T13:24:55Z</time>
      </trkpt>
      <trkpt lat="46.24769" lon="-1.48493">
        <ele>3.5</ele>
        <time>2016-08-31T13:24:56Z</time>
      </trkpt>
      <trkpt lat="46.24767" lon="-1.48487">
        <ele>3.98</ele>
        <time>2016-08-31T13:24:57Z</time>
      </trkpt>
      <trkpt lat="46.24765" lon="-1.48481">
        <ele>3.5</ele>
        <time>2016-08-31T13:24:58Z</time>
      </trkpt>
      <trkpt lat="46.24743" lon="-1.48415">
        <ele>-1.79</ele>
        <time>2016-08-31T13:25:08Z</time>
      </trkpt>
      <trkpt lat="46.24741" lon="-1.48408">
        <ele>4.94</ele>
        <time>2016-08-31T13:25:09Z</time>
      </trkpt>
      <trkpt lat="46.2473" lon="-1.48373">
        <ele>3.5</ele>
        <time>2016-08-31T13:25:14Z</time>
      </trkpt>
      <trkpt lat="46.24715" lon="-1.48292">
        <ele>3.02</ele>
        <time>2016-08-31T13:25:24Z</time>
      </trkpt>
      <trkpt lat="46.24712" lon="-1.48285">
        <ele>2.54</ele>
        <time>2016-08-31T13:25:25Z</time>
      </trkpt>
      <trkpt lat="46.24709" lon="-1.4828">
        <ele>2.54</ele>
        <time>2016-08-31T13:25:26Z</time>
      </trkpt>
      <trkpt lat="46.24704" lon="-1.48276">
        <ele>2.06</ele>
        <time>2016-08-31T13:25:27Z</time>
      </trkpt>
      <trkpt lat="46.24699" lon="-1.48274">
        <ele>2.06</ele>
        <time>2016-08-31T13:25:28Z</time>
      </trkpt>
      <trkpt lat="46.24692" lon="-1.48273">
        <ele>1.58</ele>
        <time>2016-08-31T13:25:29Z</time>
      </trkpt>
      <trkpt lat="46.24686" lon="-1.48273">
        <ele>1.58</ele>
        <time>2016-08-31T13:25:30Z</time>
      </trkpt>
      <trkpt lat="46.2468" lon="-1.48275">
        <ele>1.58</ele>
        <time>2016-08-31T13:25:31Z</time>
      </trkpt>
      <trkpt lat="46.24675" lon="-1.48277">
        <ele>1.58</ele>
        <time>2016-08-31T13:25:32Z</time>
      </trkpt>
      <trkpt lat="46.24607" lon="-1.48301">
        <ele>1.1</ele>
        <time>2016-08-31T13:25:44Z</time>
      </trkpt>
      <trkpt lat="46.24541" lon="-1.48322">
        <ele>1.1</ele>
        <time>2016-08-31T13:25:56Z</time>
      </trkpt>
      <trkpt lat="46.24458" lon="-1.48348">
        <ele>1.1</ele>
        <time>2016-08-31T13:26:11Z</time>
      </trkpt>
      <trkpt lat="46.24398" lon="-1.4835">
        <ele>1.58</ele>
        <time>2016-08-31T13:26:22Z</time>
      </trkpt>
      <trkpt lat="46.24377" lon="-1.48349">
        <ele>0.62</ele>
        <time>2016-08-31T13:26:26Z</time>
      </trkpt>
      <trkpt lat="46.24368" lon="-1.48351">
        <ele>1.1</ele>
        <time>2016-08-31T13:26:28Z</time>
      </trkpt>
      <trkpt lat="46.24363" lon="-1.48351">
        <ele>-3.23</ele>
        <time>2016-08-31T13:26:29Z</time>
      </trkpt>
      <trkpt lat="46.24359" lon="-1.48352">
        <ele>1.1</ele>
        <time>2016-08-31T13:26:30Z</time>
      </trkpt>
      <trkpt lat="46.24301" lon="-1.48351">
        <ele>1.1</ele>
        <time>2016-08-31T13:26:42Z</time>
      </trkpt>
      <trkpt lat="46.24239" lon="-1.48354">
        <ele>1.58</ele>
        <time>2016-08-31T13:26:54Z</time>
      </trkpt>
      <trkpt lat="46.24159" lon="-1.48359">
        <ele>1.1</ele>
        <time>2016-08-31T13:27:10Z</time>
      </trkpt>
      <trkpt lat="46.24097" lon="-1.48367">
        <ele>0.62</ele>
        <time>2016-08-31T13:27:22Z</time>
      </trkpt>
      <trkpt lat="46.2404" lon="-1.48374">
        <ele>1.1</ele>
        <time>2016-08-31T13:27:33Z</time>
      </trkpt>
      <trkpt lat="46.2399" lon="-1.48384">
        <ele>1.58</ele>
        <time>2016-08-31T13:27:43Z</time>
      </trkpt>
      <trkpt lat="46.23985" lon="-1.48387">
        <ele>1.58</ele>
        <time>2016-08-31T13:27:44Z</time>
      </trkpt>
      <trkpt lat="46.23932" lon="-1.48434">
        <ele>1.58</ele>
        <time>2016-08-31T13:27:56Z</time>
      </trkpt>
      <trkpt lat="46.239" lon="-1.48455">
        <ele>2.54</ele>
        <time>2016-08-31T13:28:06Z</time>
      </trkpt>
      <trkpt lat="46.23898" lon="-1.48455">
        <ele>2.54</ele>
        <time>2016-08-31T13:28:07Z</time>
      </trkpt>
      <trkpt lat="46.23898" lon="-1.48449">
        <ele>2.06</ele>
        <time>2016-08-31T13:28:11Z</time>
      </trkpt>
      <trkpt lat="46.23899" lon="-1.48446">
        <ele>2.06</ele>
        <time>2016-08-31T13:28:12Z</time>
      </trkpt>
      <trkpt lat="46.23899" lon="-1.48442">
        <ele>2.06</ele>
        <time>2016-08-31T13:28:13Z</time>
      </trkpt>
      <trkpt lat="46.23887" lon="-1.48393">
        <ele>2.06</ele>
        <time>2016-08-31T13:28:22Z</time>
      </trkpt>
      <trkpt lat="46.23883" lon="-1.48381">
        <ele>2.54</ele>
        <time>2016-08-31T13:28:24Z</time>
      </trkpt>
      <trkpt lat="46.23875" lon="-1.48348">
        <ele>2.06</ele>
        <time>2016-08-31T13:28:29Z</time>
      </trkpt>
      <trkpt lat="46.23856" lon="-1.48279">
        <ele>2.06</ele>
        <time>2016-08-31T13:28:39Z</time>
      </trkpt>
      <trkpt lat="46.23855" lon="-1.48272">
        <ele>2.06</ele>
        <time>2016-08-31T13:28:40Z</time>
      </trkpt>
      <trkpt lat="46.23854" lon="-1.48265">
        <ele>2.54</ele>
        <time>2016-08-31T13:28:41Z</time>
      </trkpt>
      <trkpt lat="46.23852" lon="-1.48258">
        <ele>2.54</ele>
        <time>2016-08-31T13:28:42Z</time>
      </trkpt>
      <trkpt lat="46.23851" lon="-1.48251">
        <ele>2.54</ele>
        <time>2016-08-31T13:28:43Z</time>
      </trkpt>
      <trkpt lat="46.2385" lon="-1.48244">
        <ele>2.54</ele>
        <time>2016-08-31T13:28:44Z</time>
      </trkpt>
      <trkpt lat="46.23848" lon="-1.48237">
        <ele>2.54</ele>
        <time>2016-08-31T13:28:45Z</time>
      </trkpt>
      <trkpt lat="46.23844" lon="-1.48174">
        <ele>3.5</ele>
        <time>2016-08-31T13:28:54Z</time>
      </trkpt>
      <trkpt lat="46.23845" lon="-1.48168">
        <ele>3.98</ele>
        <time>2016-08-31T13:28:55Z</time>
      </trkpt>
      <trkpt lat="46.23853" lon="-1.48136">
        <ele>4.94</ele>
        <time>2016-08-31T13:29:01Z</time>
      </trkpt>
      <trkpt lat="46.23857" lon="-1.4812">
        <ele>3.98</ele>
        <time>2016-08-31T13:29:04Z</time>
      </trkpt>
      <trkpt lat="46.23856" lon="-1.48115">
        <ele>3.98</ele>
        <time>2016-08-31T13:29:05Z</time>
      </trkpt>
      <trkpt lat="46.23853" lon="-1.48112">
        <ele>3.98</ele>
        <time>2016-08-31T13:29:06Z</time>
      </trkpt>
      <trkpt lat="46.23849" lon="-1.48109">
        <ele>3.5</ele>
        <time>2016-08-31T13:29:07Z</time>
      </trkpt>
      <trkpt lat="46.23845" lon="-1.48108">
        <ele>3.5</ele>
        <time>2016-08-31T13:29:08Z</time>
      </trkpt>
      <trkpt lat="46.23841" lon="-1.48108">
        <ele>3.98</ele>
        <time>2016-08-31T13:29:09Z</time>
      </trkpt>
      <trkpt lat="46.23823" lon="-1.48106">
        <ele>3.02</ele>
        <time>2016-08-31T13:29:13Z</time>
      </trkpt>
      <trkpt lat="46.23759" lon="-1.48095">
        <ele>4.46</ele>
        <time>2016-08-31T13:29:27Z</time>
      </trkpt>
      <trkpt lat="46.23755" lon="-1.48096">
        <ele>4.46</ele>
        <time>2016-08-31T13:29:28Z</time>
      </trkpt>
      <trkpt lat="46.23752" lon="-1.481">
        <ele>4.46</ele>
        <time>2016-08-31T13:29:29Z</time>
      </trkpt>
      <trkpt lat="46.23749" lon="-1.48105">
        <ele>4.46</ele>
        <time>2016-08-31T13:29:30Z</time>
      </trkpt>
      <trkpt lat="46.23746" lon="-1.4811">
        <ele>4.46</ele>
        <time>2016-08-31T13:29:31Z</time>
      </trkpt>
      <trkpt lat="46.2372" lon="-1.48158">
        <ele>3.02</ele>
        <time>2016-08-31T13:29:40Z</time>
      </trkpt>
      <trkpt lat="46.23716" lon="-1.48164">
        <ele>2.54</ele>
        <time>2016-08-31T13:29:41Z</time>
      </trkpt>
      <trkpt lat="46.23712" lon="-1.48169">
        <ele>2.54</ele>
        <time>2016-08-31T13:29:42Z</time>
      </trkpt>
      <trkpt lat="46.23708" lon="-1.48172">
        <ele>2.54</ele>
        <time>2016-08-31T13:29:43Z</time>
      </trkpt>
      <trkpt lat="46.23702" lon="-1.48174">
        <ele>2.54</ele>
        <time>2016-08-31T13:29:44Z</time>
      </trkpt>
      <trkpt lat="46.23696" lon="-1.48175">
        <ele>2.54</ele>
        <time>2016-08-31T13:29:45Z</time>
      </trkpt>
      <trkpt lat="46.2369" lon="-1.48175">
        <ele>2.06</ele>
        <time>2016-08-31T13:29:46Z</time>
      </trkpt>
      <trkpt lat="46.23684" lon="-1.48175">
        <ele>2.06</ele>
        <time>2016-08-31T13:29:47Z</time>
      </trkpt>
      <trkpt lat="46.23679" lon="-1.48175">
        <ele>6.39</ele>
        <time>2016-08-31T13:29:48Z</time>
      </trkpt>
      <trkpt lat="46.23673" lon="-1.48175">
        <ele>1.58</ele>
        <time>2016-08-31T13:29:49Z</time>
      </trkpt>
      <trkpt lat="46.23626" lon="-1.48173">
        <ele>2.54</ele>
        <time>2016-08-31T13:29:59Z</time>
      </trkpt>
      <trkpt lat="46.23577" lon="-1.48168">
        <ele>2.54</ele>
        <time>2016-08-31T13:30:10Z</time>
      </trkpt>
      <trkpt lat="46.23508" lon="-1.48167">
        <ele>2.06</ele>
        <time>2016-08-31T13:30:24Z</time>
      </trkpt>
      <trkpt lat="46.23468" lon="-1.48165">
        <ele>3.02</ele>
        <time>2016-08-31T13:30:32Z</time>
      </trkpt>
      <trkpt lat="46.23453" lon="-1.48164">
        <ele>3.02</ele>
        <time>2016-08-31T13:30:35Z</time>
      </trkpt>
      <trkpt lat="46.23428" lon="-1.48164">
        <ele>4.94</ele>
        <time>2016-08-31T13:30:42Z</time>
      </trkpt>
      <trkpt lat="46.23423" lon="-1.48161">
        <ele>5.42</ele>
        <time>2016-08-31T13:30:45Z</time>
      </trkpt>
      <trkpt lat="46.23421" lon="-1.48157">
        <ele>5.42</ele>
        <time>2016-08-31T13:30:46Z</time>
      </trkpt>
      <trkpt lat="46.23419" lon="-1.48152">
        <ele>5.42</ele>
        <time>2016-08-31T13:30:47Z</time>
      </trkpt>
      <trkpt lat="46.23418" lon="-1.48148">
        <ele>4.94</ele>
        <time>2016-08-31T13:30:48Z</time>
      </trkpt>
      <trkpt lat="46.23417" lon="-1.48143">
        <ele>4.94</ele>
        <time>2016-08-31T13:30:49Z</time>
      </trkpt>
      <trkpt lat="46.23415" lon="-1.48138">
        <ele>4.94</ele>
        <time>2016-08-31T13:30:50Z</time>
      </trkpt>
      <trkpt lat="46.23405" lon="-1.48111">
        <ele>3.98</ele>
        <time>2016-08-31T13:30:55Z</time>
      </trkpt>
      <trkpt lat="46.23404" lon="-1.48104">
        <ele>3.02</ele>
        <time>2016-08-31T13:30:56Z</time>
      </trkpt>
      <trkpt lat="46.23404" lon="-1.48097">
        <ele>3.5</ele>
        <time>2016-08-31T13:30:57Z</time>
      </trkpt>
      <trkpt lat="46.23405" lon="-1.48074">
        <ele>3.02</ele>
        <time>2016-08-31T13:31:00Z</time>
      </trkpt>
      <trkpt lat="46.23412" lon="-1.48034">
        <ele>3.5</ele>
        <time>2016-08-31T13:31:08Z</time>
      </trkpt>
      <trkpt lat="46.23414" lon="-1.48022">
        <ele>3.5</ele>
        <time>2016-08-31T13:31:13Z</time>
      </trkpt>
      <trkpt lat="46.23414" lon="-1.48019">
        <ele>3.02</ele>
        <time>2016-08-31T13:31:14Z</time>
      </trkpt>
      <trkpt lat="46.23414" lon="-1.48015">
        <ele>3.02</ele>
        <time>2016-08-31T13:31:15Z</time>
      </trkpt>
      <trkpt lat="46.23415" lon="-1.4801">
        <ele>3.02</ele>
        <time>2016-08-31T13:31:16Z</time>
      </trkpt>
      <trkpt lat="46.23416" lon="-1.48005">
        <ele>3.02</ele>
        <time>2016-08-31T13:31:17Z</time>
      </trkpt>
      <trkpt lat="46.23421" lon="-1.47952">
        <ele>3.98</ele>
        <time>2016-08-31T13:31:27Z</time>
      </trkpt>
      <trkpt lat="46.23431" lon="-1.47875">
        <ele>4.46</ele>
        <time>2016-08-31T13:31:41Z</time>
      </trkpt>
      <trkpt lat="46.23439" lon="-1.47814">
        <ele>4.46</ele>
        <time>2016-08-31T13:31:53Z</time>
      </trkpt>
      <trkpt lat="46.23436" lon="-1.47801">
        <ele>4.46</ele>
        <time>2016-08-31T13:31:57Z</time>
      </trkpt>
      <trkpt lat="46.23433" lon="-1.47799">
        <ele>5.91</ele>
        <time>2016-08-31T13:32:04Z</time>
      </trkpt>
      <trkpt lat="46.23433" lon="-1.47799">
        <ele>-28.7</ele>
        <time>2016-08-31T13:32:06Z</time>
      </trkpt>
      <trkpt lat="46.23433" lon="-1.47799">
        <ele>9.75</ele>
        <time>2016-08-31T13:32:07Z</time>
      </trkpt>
      <trkpt lat="46.23433" lon="-1.47799">
        <ele>14.56</ele>
        <time>2016-08-31T13:32:08Z</time>
      </trkpt>
      <trkpt lat="46.23433" lon="-1.47799">
        <ele>2.06</ele>
        <time>2016-08-31T13:32:09Z</time>
      </trkpt>
      <trkpt lat="46.23433" lon="-1.47799">
        <ele>5.91</ele>
        <time>2016-08-31T13:32:10Z</time>
      </trkpt>
      <trkpt lat="46.23433" lon="-1.47799">
        <ele>-3.23</ele>
        <time>2016-08-31T13:32:22Z</time>
      </trkpt>
      <trkpt lat="46.23433" lon="-1.47799">
        <ele>14.56</ele>
        <time>2016-08-31T13:32:23Z</time>
      </trkpt>
      <trkpt lat="46.23433" lon="-1.47799">
        <ele>4.94</ele>
        <time>2016-08-31T13:32:24Z</time>
      </trkpt>
      <trkpt lat="46.23433" lon="-1.47797">
        <ele>4.94</ele>
        <time>2016-08-31T13:32:34Z</time>
      </trkpt>
      <trkpt lat="46.23432" lon="-1.47793">
        <ele>4.94</ele>
        <time>2016-08-31T13:32:37Z</time>
      </trkpt>
      <trkpt lat="46.23432" lon="-1.47791">
        <ele>4.94</ele>
        <time>2016-08-31T13:32:38Z</time>
      </trkpt>
      <trkpt lat="46.23432" lon="-1.47787">
        <ele>4.94</ele>
        <time>2016-08-31T13:32:39Z</time>
      </trkpt>
      <trkpt lat="46.23431" lon="-1.47783">
        <ele>3.98</ele>
        <time>2016-08-31T13:32:40Z</time>
      </trkpt>
      <trkpt lat="46.2343" lon="-1.4778">
        <ele>4.46</ele>
        <time>2016-08-31T13:32:41Z</time>
      </trkpt>
      <trkpt lat="46.23428" lon="-1.47743">
        <ele>3.02</ele>
        <time>2016-08-31T13:32:48Z</time>
      </trkpt>
      <trkpt lat="46.23427" lon="-1.47738">
        <ele>3.02</ele>
        <time>2016-08-31T13:32:49Z</time>
      </trkpt>
      <trkpt lat="46.23428" lon="-1.47732">
        <ele>3.02</ele>
        <time>2016-08-31T13:32:50Z</time>
      </trkpt>
      <trkpt lat="46.23428" lon="-1.47728">
        <ele>3.02</ele>
        <time>2016-08-31T13:32:51Z</time>
      </trkpt>
      <trkpt lat="46.23429" lon="-1.47723">
        <ele>3.02</ele>
        <time>2016-08-31T13:32:52Z</time>
      </trkpt>
      <trkpt lat="46.23436" lon="-1.47683">
        <ele>2.54</ele>
        <time>2016-08-31T13:33:01Z</time>
      </trkpt>
      <trkpt lat="46.2344" lon="-1.47639">
        <ele>2.54</ele>
        <time>2016-08-31T13:33:11Z</time>
      </trkpt>
      <trkpt lat="46.23447" lon="-1.47625">
        <ele>2.06</ele>
        <time>2016-08-31T13:33:22Z</time>
      </trkpt>
      <trkpt lat="46.23447" lon="-1.47625">
        <ele>8.31</ele>
        <time>2016-08-31T13:33:26Z</time>
      </trkpt>
      <trkpt lat="46.23447" lon="-1.47625">
        <ele>2.06</ele>
        <time>2016-08-31T13:33:27Z</time>
      </trkpt>
      <trkpt lat="46.23447" lon="-1.47625">
        <ele>2.06</ele>
        <time>2016-08-31T13:33:40Z</time>
      </trkpt>
      <trkpt lat="46.23455" lon="-1.47613">
        <ele>2.54</ele>
        <time>2016-08-31T13:33:50Z</time>
      </trkpt>
      <trkpt lat="46.23468" lon="-1.476">
        <ele>2.06</ele>
        <time>2016-08-31T13:34:03Z</time>
      </trkpt>
      <trkpt lat="46.23482" lon="-1.47586">
        <ele>3.5</ele>
        <time>2016-08-31T13:34:15Z</time>
      </trkpt>
      <trkpt lat="46.2349" lon="-1.47575">
        <ele>3.5</ele>
        <time>2016-08-31T13:34:27Z</time>
      </trkpt>
      <trkpt lat="46.2349" lon="-1.47574">
        <ele>3.98</ele>
        <time>2016-08-31T13:34:39Z</time>
      </trkpt>
      <trkpt lat="46.23488" lon="-1.47576">
        <ele>3.98</ele>
        <time>2016-08-31T13:34:52Z</time>
      </trkpt>
      <trkpt lat="46.23487" lon="-1.47575">
        <ele>3.5</ele>
        <time>2016-08-31T13:35:23Z</time>
      </trkpt>
      <trkpt lat="46.23488" lon="-1.47573">
        <ele>3.98</ele>
        <time>2016-08-31T13:35:43Z</time>
      </trkpt>
      <trkpt lat="46.23488" lon="-1.47573">
        <ele>-10.92</ele>
        <time>2016-08-31T13:35:45Z</time>
      </trkpt>
      <trkpt lat="46.23488" lon="-1.47573">
        <ele>0.14</ele>
        <time>2016-08-31T13:35:46Z</time>
      </trkpt>
      <trkpt lat="46.23488" lon="-1.47573">
        <ele>-10.92</ele>
        <time>2016-08-31T13:35:47Z</time>
      </trkpt>
      <trkpt lat="46.23488" lon="-1.47573">
        <ele>1.1</ele>
        <time>2016-08-31T13:35:48Z</time>
      </trkpt>
      <trkpt lat="46.23488" lon="-1.47573">
        <ele>4.46</ele>
        <time>2016-08-31T13:35:49Z</time>
      </trkpt>
      <trkpt lat="46.23488" lon="-1.47573">
        <ele>4.46</ele>
        <time>2016-08-31T13:35:50Z</time>
      </trkpt>
      <trkpt lat="46.23488" lon="-1.47573">
        <ele>-2.75</ele>
        <time>2016-08-31T13:35:53Z</time>
      </trkpt>
      <trkpt lat="46.23488" lon="-1.47573">
        <ele>2.06</ele>
        <time>2016-08-31T13:35:54Z</time>
      </trkpt>
      <trkpt lat="46.23488" lon="-1.47573">
        <ele>5.42</ele>
        <time>2016-08-31T13:35:58Z</time>
      </trkpt>
      <trkpt lat="46.23488" lon="-1.47573">
        <ele>2.06</ele>
        <time>2016-08-31T13:36:00Z</time>
      </trkpt>
      <trkpt lat="46.23488" lon="-1.47573">
        <ele>-6.11</ele>
        <time>2016-08-31T13:36:01Z</time>
      </trkpt>
      <trkpt lat="46.23488" lon="-1.47573">
        <ele>6.39</ele>
        <time>2016-08-31T13:36:02Z</time>
      </trkpt>
      <trkpt lat="46.23488" lon="-1.47573">
        <ele>4.46</ele>
        <time>2016-08-31T13:36:03Z</time>
      </trkpt>
      <trkpt lat="46.23488" lon="-1.47573">
        <ele>-4.67</ele>
        <time>2016-08-31T13:36:12Z</time>
      </trkpt>
      <trkpt lat="46.23488" lon="-1.47573">
        <ele>7.83</ele>
        <time>2016-08-31T13:36:13Z</time>
      </trkpt>
      <trkpt lat="46.23488" lon="-1.47573">
        <ele>4.46</ele>
        <time>2016-08-31T13:36:14Z</time>
      </trkpt>
      <trkpt lat="46.23488" lon="-1.47572">
        <ele>13.12</ele>
        <time>2016-08-31T13:36:16Z</time>
      </trkpt>
      <trkpt lat="46.23488" lon="-1.47572">
        <ele>4.46</ele>
        <time>2016-08-31T13:36:17Z</time>
      </trkpt>
      <trkpt lat="46.23488" lon="-1.47572">
        <ele>-3.23</ele>
        <time>2016-08-31T13:36:34Z</time>
      </trkpt>
      <trkpt lat="46.23488" lon="-1.47572">
        <ele>5.42</ele>
        <time>2016-08-31T13:36:35Z</time>
      </trkpt>
      <trkpt lat="46.23488" lon="-1.47572">
        <ele>3.98</ele>
        <time>2016-08-31T13:36:44Z</time>
      </trkpt>
      <trkpt lat="46.23488" lon="-1.47572">
        <ele>3.02</ele>
        <time>2016-08-31T13:37:09Z</time>
      </trkpt>
      <trkpt lat="46.23487" lon="-1.47573">
        <ele>-36.39</ele>
        <time>2016-08-31T13:37:18Z</time>
      </trkpt>
      <trkpt lat="46.23487" lon="-1.47573">
        <ele>8.79</ele>
        <time>2016-08-31T13:37:19Z</time>
      </trkpt>
      <trkpt lat="46.23487" lon="-1.47573">
        <ele>1.1</ele>
        <time>2016-08-31T13:37:20Z</time>
      </trkpt>
      <trkpt lat="46.23487" lon="-1.47573">
        <ele>-15.24</ele>
        <time>2016-08-31T13:37:21Z</time>
      </trkpt>
      <trkpt lat="46.23487" lon="-1.47573">
        <ele>14.08</ele>
        <time>2016-08-31T13:37:22Z</time>
      </trkpt>
      <trkpt lat="46.23487" lon="-1.47573">
        <ele>17.44</ele>
        <time>2016-08-31T13:37:23Z</time>
      </trkpt>
      <trkpt lat="46.23487" lon="-1.47573">
        <ele>4.46</ele>
        <time>2016-08-31T13:37:24Z</time>
      </trkpt>
      <trkpt lat="46.23487" lon="-1.47573">
        <ele>4.46</ele>
        <time>2016-08-31T13:37:25Z</time>
      </trkpt>
      <trkpt lat="46.23487" lon="-1.47573">
        <ele>-16.69</ele>
        <time>2016-08-31T13:37:27Z</time>
      </trkpt>
      <trkpt lat="46.23487" lon="-1.47573">
        <ele>5.91</ele>
        <time>2016-08-31T13:37:28Z</time>
      </trkpt>
      <trkpt lat="46.23487" lon="-1.47573">
        <ele>-8.03</ele>
        <time>2016-08-31T13:37:30Z</time>
      </trkpt>
      <trkpt lat="46.23487" lon="-1.47573">
        <ele>3.5</ele>
        <time>2016-08-31T13:37:31Z</time>
      </trkpt>
      <trkpt lat="46.23487" lon="-1.47573">
        <ele>-24.86</ele>
        <time>2016-08-31T13:37:33Z</time>
      </trkpt>
      <trkpt lat="46.23487" lon="-1.47573">
        <ele>-17.65</ele>
        <time>2016-08-31T13:37:34Z</time>
      </trkpt>
      <trkpt lat="46.23487" lon="-1.47573">
        <ele>7.35</ele>
        <time>2016-08-31T13:37:35Z</time>
      </trkpt>
      <trkpt lat="46.23487" lon="-1.47573">
        <ele>18.88</ele>
        <time>2016-08-31T13:37:36Z</time>
      </trkpt>
      <trkpt lat="46.23487" lon="-1.47573">
        <ele>18.4</ele>
        <time>2016-08-31T13:37:37Z</time>
      </trkpt>
      <trkpt lat="46.23487" lon="-1.47573">
        <ele>-21.97</ele>
        <time>2016-08-31T13:37:38Z</time>
      </trkpt>
      <trkpt lat="46.23487" lon="-1.47573">
        <ele>7.83</ele>
        <time>2016-08-31T13:37:39Z</time>
      </trkpt>
      <trkpt lat="46.23487" lon="-1.47573">
        <ele>20.81</ele>
        <time>2016-08-31T13:37:40Z</time>
      </trkpt>
      <trkpt lat="46.23487" lon="-1.47573">
        <ele>4.46</ele>
        <time>2016-08-31T13:37:41Z</time>
      </trkpt>
      <trkpt lat="46.23487" lon="-1.47573">
        <ele>11.67</ele>
        <time>2016-08-31T13:37:43Z</time>
      </trkpt>
      <trkpt lat="46.23487" lon="-1.47573">
        <ele>3.98</ele>
        <time>2016-08-31T13:37:44Z</time>
      </trkpt>
      <trkpt lat="46.23487" lon="-1.47573">
        <ele>-13.8</ele>
        <time>2016-08-31T13:37:45Z</time>
      </trkpt>
      <trkpt lat="46.23487" lon="-1.47573">
        <ele>7.35</ele>
        <time>2016-08-31T13:37:46Z</time>
      </trkpt>
      <trkpt lat="46.23487" lon="-1.47573">
        <ele>3.98</ele>
        <time>2016-08-31T13:37:47Z</time>
      </trkpt>
      <trkpt lat="46.23487" lon="-1.47573">
        <ele>-10.44</ele>
        <time>2016-08-31T13:37:48Z</time>
      </trkpt>
      <trkpt lat="46.23487" lon="-1.47573">
        <ele>6.87</ele>
        <time>2016-08-31T13:37:49Z</time>
      </trkpt>
      <trkpt lat="46.23487" lon="-1.47573">
        <ele>3.98</ele>
        <time>2016-08-31T13:37:50Z</time>
      </trkpt>
      <trkpt lat="46.23487" lon="-1.47573">
        <ele>11.67</ele>
        <time>2016-08-31T13:37:51Z</time>
      </trkpt>
      <trkpt lat="46.23487" lon="-1.47573">
        <ele>-12.84</ele>
        <time>2016-08-31T13:37:52Z</time>
      </trkpt>
      <trkpt lat="46.23487" lon="-1.47573">
        <ele>-21.49</ele>
        <time>2016-08-31T13:37:53Z</time>
      </trkpt>
      <trkpt lat="46.23487" lon="-1.47573">
        <ele>7.83</ele>
        <time>2016-08-31T13:37:55Z</time>
      </trkpt>
      <trkpt lat="46.23487" lon="-1.47573">
        <ele>5.42</ele>
        <time>2016-08-31T13:37:56Z</time>
      </trkpt>
      <trkpt lat="46.23487" lon="-1.47573">
        <ele>3.02</ele>
        <time>2016-08-31T13:38:05Z</time>
      </trkpt>
      <trkpt lat="46.23487" lon="-1.47574">
        <ele>2.54</ele>
        <time>2016-08-31T13:38:37Z</time>
      </trkpt>
      <trkpt lat="46.23487" lon="-1.47574">
        <ele>3.02</ele>
        <time>2016-08-31T13:39:15Z</time>
      </trkpt>
      <trkpt lat="46.23488" lon="-1.47574">
        <ele>3.02</ele>
        <time>2016-08-31T13:39:49Z</time>
      </trkpt>
      <trkpt lat="46.23488" lon="-1.47574">
        <ele>2.54</ele>
        <time>2016-08-31T13:40:24Z</time>
      </trkpt>
      <trkpt lat="46.23488" lon="-1.47575">
        <ele>2.54</ele>
        <time>2016-08-31T13:40:58Z</time>
      </trkpt>
      <trkpt lat="46.23488" lon="-1.47575">
        <ele>2.54</ele>
        <time>2016-08-31T13:41:32Z</time>
      </trkpt>
      <trkpt lat="46.23488" lon="-1.47575">
        <ele>2.54</ele>
        <time>2016-08-31T13:42:05Z</time>
      </trkpt>
      <trkpt lat="46.23488" lon="-1.47575">
        <ele>2.54</ele>
        <time>2016-08-31T13:42:37Z</time>
      </trkpt>
      <trkpt lat="46.23488" lon="-1.47575">
        <ele>2.54</ele>
        <time>2016-08-31T13:43:07Z</time>
      </trkpt>
      <trkpt lat="46.23488" lon="-1.47575">
        <ele>2.54</ele>
        <time>2016-08-31T13:43:38Z</time>
      </trkpt>
      <trkpt lat="46.23488" lon="-1.47575">
        <ele>2.54</ele>
        <time>2016-08-31T13:43:48Z</time>
      </trkpt>
      <trkpt lat="46.23488" lon="-1.47574">
        <ele>2.06</ele>
        <time>2016-08-31T13:44:20Z</time>
      </trkpt>
      <trkpt lat="46.23488" lon="-1.47573">
        <ele>2.06</ele>
        <time>2016-08-31T13:44:48Z</time>
      </trkpt>
      <trkpt lat="46.23488" lon="-1.47573">
        <ele>2.06</ele>
        <time>2016-08-31T13:45:15Z</time>
      </trkpt>
      <trkpt lat="46.23488" lon="-1.47574">
        <ele>2.54</ele>
        <time>2016-08-31T13:45:44Z</time>
      </trkpt>
      <trkpt lat="46.23488" lon="-1.47574">
        <ele>2.54</ele>
        <time>2016-08-31T13:46:08Z</time>
      </trkpt>
      <trkpt lat="46.23487" lon="-1.47575">
        <ele>3.98</ele>
        <time>2016-08-31T13:46:19Z</time>
      </trkpt>
      <trkpt lat="46.23489" lon="-1.47578">
        <ele>2.54</ele>
        <time>2016-08-31T13:46:33Z</time>
      </trkpt>
      <trkpt lat="46.23489" lon="-1.47579">
        <ele>2.54</ele>
        <time>2016-08-31T13:46:34Z</time>
      </trkpt>
      <trkpt lat="46.23489" lon="-1.47581">
        <ele>2.54</ele>
        <time>2016-08-31T13:46:35Z</time>
      </trkpt>
      <trkpt lat="46.23488" lon="-1.47582">
        <ele>2.06</ele>
        <time>2016-08-31T13:46:36Z</time>
      </trkpt>
      <trkpt lat="46.23487" lon="-1.47583">
        <ele>2.06</ele>
        <time>2016-08-31T13:46:37Z</time>
      </trkpt>
      <trkpt lat="46.23486" lon="-1.47584">
        <ele>2.54</ele>
        <time>2016-08-31T13:46:38Z</time>
      </trkpt>
      <trkpt lat="46.23484" lon="-1.47585">
        <ele>2.54</ele>
        <time>2016-08-31T13:46:39Z</time>
      </trkpt>
      <trkpt lat="46.23474" lon="-1.47595">
        <ele>2.06</ele>
        <time>2016-08-31T13:46:50Z</time>
      </trkpt>
      <trkpt lat="46.23472" lon="-1.47598">
        <ele>1.58</ele>
        <time>2016-08-31T13:46:52Z</time>
      </trkpt>
      <trkpt lat="46.23471" lon="-1.47599">
        <ele>1.58</ele>
        <time>2016-08-31T13:46:53Z</time>
      </trkpt>
      <trkpt lat="46.23462" lon="-1.47604">
        <ele>1.58</ele>
        <time>2016-08-31T13:46:58Z</time>
      </trkpt>
      <trkpt lat="46.2346" lon="-1.47606">
        <ele>1.58</ele>
        <time>2016-08-31T13:47:02Z</time>
      </trkpt>
      <trkpt lat="46.23459" lon="-1.47608">
        <ele>1.1</ele>
        <time>2016-08-31T13:47:03Z</time>
      </trkpt>
      <trkpt lat="46.23458" lon="-1.47609">
        <ele>1.58</ele>
        <time>2016-08-31T13:47:04Z</time>
      </trkpt>
      <trkpt lat="46.23456" lon="-1.47612">
        <ele>1.1</ele>
        <time>2016-08-31T13:47:05Z</time>
      </trkpt>
      <trkpt lat="46.23455" lon="-1.47614">
        <ele>1.1</ele>
        <time>2016-08-31T13:47:06Z</time>
      </trkpt>
      <trkpt lat="46.23439" lon="-1.47644">
        <ele>0.62</ele>
        <time>2016-08-31T13:47:15Z</time>
      </trkpt>
      <trkpt lat="46.23435" lon="-1.47688">
        <ele>1.1</ele>
        <time>2016-08-31T13:47:25Z</time>
      </trkpt>
      <trkpt lat="46.23432" lon="-1.4772">
        <ele>2.06</ele>
        <time>2016-08-31T13:47:33Z</time>
      </trkpt>
      <trkpt lat="46.23429" lon="-1.47761">
        <ele>2.06</ele>
        <time>2016-08-31T13:47:42Z</time>
      </trkpt>
      <trkpt lat="46.23428" lon="-1.4777">
        <ele>2.54</ele>
        <time>2016-08-31T13:47:45Z</time>
      </trkpt>
      <trkpt lat="46.2343" lon="-1.47773">
        <ele>2.54</ele>
        <time>2016-08-31T13:47:46Z</time>
      </trkpt>
      <trkpt lat="46.23439" lon="-1.47809">
        <ele>3.5</ele>
        <time>2016-08-31T13:47:55Z</time>
      </trkpt>
      <trkpt lat="46.23434" lon="-1.47861">
        <ele>3.5</ele>
        <time>2016-08-31T13:48:06Z</time>
      </trkpt>
      <trkpt lat="46.23426" lon="-1.47908">
        <ele>2.54</ele>
        <time>2016-08-31T13:48:16Z</time>
      </trkpt>
      <trkpt lat="46.23422" lon="-1.47936">
        <ele>2.06</ele>
        <time>2016-08-31T13:48:21Z</time>
      </trkpt>
      <trkpt lat="46.23421" lon="-1.47948">
        <ele>1.58</ele>
        <time>2016-08-31T13:48:23Z</time>
      </trkpt>
      <trkpt lat="46.23421" lon="-1.47954">
        <ele>1.58</ele>
        <time>2016-08-31T13:48:24Z</time>
      </trkpt>
      <trkpt lat="46.23421" lon="-1.47961">
        <ele>2.06</ele>
        <time>2016-08-31T13:48:25Z</time>
      </trkpt>
      <trkpt lat="46.23418" lon="-1.48006">
        <ele>1.1</ele>
        <time>2016-08-31T13:48:32Z</time>
      </trkpt>
      <trkpt lat="46.23417" lon="-1.48012">
        <ele>0.62</ele>
        <time>2016-08-31T13:48:33Z</time>
      </trkpt>
      <trkpt lat="46.23416" lon="-1.48018">
        <ele>1.58</ele>
        <time>2016-08-31T13:48:34Z</time>
      </trkpt>
      <trkpt lat="46.23415" lon="-1.48024">
        <ele>1.1</ele>
        <time>2016-08-31T13:48:35Z</time>
      </trkpt>
      <trkpt lat="46.23415" lon="-1.48029">
        <ele>1.58</ele>
        <time>2016-08-31T13:48:36Z</time>
      </trkpt>
      <trkpt lat="46.23414" lon="-1.48035">
        <ele>1.58</ele>
        <time>2016-08-31T13:48:37Z</time>
      </trkpt>
      <trkpt lat="46.23413" lon="-1.4805">
        <ele>1.58</ele>
        <time>2016-08-31T13:48:40Z</time>
      </trkpt>
      <trkpt lat="46.23413" lon="-1.48078">
        <ele>0.62</ele>
        <time>2016-08-31T13:48:45Z</time>
      </trkpt>
      <trkpt lat="46.23414" lon="-1.48119">
        <ele>2.06</ele>
        <time>2016-08-31T13:48:53Z</time>
      </trkpt>
      <trkpt lat="46.23424" lon="-1.48174">
        <ele>3.02</ele>
        <time>2016-08-31T13:49:04Z</time>
      </trkpt>
      <trkpt lat="46.23421" lon="-1.48185">
        <ele>2.54</ele>
        <time>2016-08-31T13:49:06Z</time>
      </trkpt>
      <trkpt lat="46.23412" lon="-1.48205">
        <ele>2.54</ele>
        <time>2016-08-31T13:49:10Z</time>
      </trkpt>
      <trkpt lat="46.23408" lon="-1.4821">
        <ele>3.02</ele>
        <time>2016-08-31T13:49:11Z</time>
      </trkpt>
      <trkpt lat="46.23405" lon="-1.48214">
        <ele>2.54</ele>
        <time>2016-08-31T13:49:12Z</time>
      </trkpt>
      <trkpt lat="46.2339" lon="-1.48232">
        <ele>1.58</ele>
        <time>2016-08-31T13:49:16Z</time>
      </trkpt>
      <trkpt lat="46.23387" lon="-1.48238">
        <ele>1.58</ele>
        <time>2016-08-31T13:49:17Z</time>
      </trkpt>
      <trkpt lat="46.23386" lon="-1.48244">
        <ele>2.06</ele>
        <time>2016-08-31T13:49:18Z</time>
      </trkpt>
      <trkpt lat="46.23381" lon="-1.4826">
        <ele>1.1</ele>
        <time>2016-08-31T13:49:21Z</time>
      </trkpt>
      <trkpt lat="46.23377" lon="-1.48261">
        <ele>0.14</ele>
        <time>2016-08-31T13:49:22Z</time>
      </trkpt>
      <trkpt lat="46.23372" lon="-1.4826">
        <ele>0.14</ele>
        <time>2016-08-31T13:49:23Z</time>
      </trkpt>
      <trkpt lat="46.23367" lon="-1.48258">
        <ele>0.14</ele>
        <time>2016-08-31T13:49:24Z</time>
      </trkpt>
      <trkpt lat="46.23361" lon="-1.48255">
        <ele>-0.34</ele>
        <time>2016-08-31T13:49:25Z</time>
      </trkpt>
      <trkpt lat="46.23344" lon="-1.48248">
        <ele>0.14</ele>
        <time>2016-08-31T13:49:28Z</time>
      </trkpt>
      <trkpt lat="46.23334" lon="-1.48245">
        <ele>0.62</ele>
        <time>2016-08-31T13:49:30Z</time>
      </trkpt>
      <trkpt lat="46.23324" lon="-1.48238">
        <ele>0.14</ele>
        <time>2016-08-31T13:49:32Z</time>
      </trkpt>
      <trkpt lat="46.23287" lon="-1.48201">
        <ele>0.62</ele>
        <time>2016-08-31T13:49:41Z</time>
      </trkpt>
      <trkpt lat="46.23283" lon="-1.48196">
        <ele>0.62</ele>
        <time>2016-08-31T13:49:42Z</time>
      </trkpt>
      <trkpt lat="46.23275" lon="-1.48186">
        <ele>1.1</ele>
        <time>2016-08-31T13:49:44Z</time>
      </trkpt>
      <trkpt lat="46.23254" lon="-1.48168">
        <ele>1.1</ele>
        <time>2016-08-31T13:49:49Z</time>
      </trkpt>
      <trkpt lat="46.23215" lon="-1.48142">
        <ele>1.58</ele>
        <time>2016-08-31T13:49:58Z</time>
      </trkpt>
      <trkpt lat="46.2321" lon="-1.4814">
        <ele>1.58</ele>
        <time>2016-08-31T13:49:59Z</time>
      </trkpt>
      <trkpt lat="46.23158" lon="-1.48138">
        <ele>2.54</ele>
        <time>2016-08-31T13:50:10Z</time>
      </trkpt>
      <trkpt lat="46.23094" lon="-1.48134">
        <ele>3.02</ele>
        <time>2016-08-31T13:50:23Z</time>
      </trkpt>
      <trkpt lat="46.2307" lon="-1.48132">
        <ele>2.54</ele>
        <time>2016-08-31T13:50:28Z</time>
      </trkpt>
      <trkpt lat="46.23065" lon="-1.4813">
        <ele>3.98</ele>
        <time>2016-08-31T13:50:29Z</time>
      </trkpt>
      <trkpt lat="46.23061" lon="-1.48127">
        <ele>2.54</ele>
        <time>2016-08-31T13:50:30Z</time>
      </trkpt>
      <trkpt lat="46.23057" lon="-1.48124">
        <ele>5.42</ele>
        <time>2016-08-31T13:50:31Z</time>
      </trkpt>
      <trkpt lat="46.23053" lon="-1.48121">
        <ele>2.54</ele>
        <time>2016-08-31T13:50:32Z</time>
      </trkpt>
      <trkpt lat="46.23049" lon="-1.48118">
        <ele>2.06</ele>
        <time>2016-08-31T13:50:33Z</time>
      </trkpt>
      <trkpt lat="46.23044" lon="-1.48117">
        <ele>2.06</ele>
        <time>2016-08-31T13:50:34Z</time>
      </trkpt>
      <trkpt lat="46.2304" lon="-1.48116">
        <ele>2.06</ele>
        <time>2016-08-31T13:50:35Z</time>
      </trkpt>
      <trkpt lat="46.23035" lon="-1.48117">
        <ele>2.54</ele>
        <time>2016-08-31T13:50:36Z</time>
      </trkpt>
      <trkpt lat="46.23031" lon="-1.48118">
        <ele>2.54</ele>
        <time>2016-08-31T13:50:37Z</time>
      </trkpt>
      <trkpt lat="46.23027" lon="-1.48121">
        <ele>2.54</ele>
        <time>2016-08-31T13:50:38Z</time>
      </trkpt>
      <trkpt lat="46.23023" lon="-1.48123">
        <ele>1.58</ele>
        <time>2016-08-31T13:50:39Z</time>
      </trkpt>
      <trkpt lat="46.23006" lon="-1.48135">
        <ele>2.06</ele>
        <time>2016-08-31T13:50:43Z</time>
      </trkpt>
      <trkpt lat="46.22969" lon="-1.48171">
        <ele>1.1</ele>
        <time>2016-08-31T13:50:52Z</time>
      </trkpt>
      <trkpt lat="46.22952" lon="-1.48185">
        <ele>1.58</ele>
        <time>2016-08-31T13:50:56Z</time>
      </trkpt>
      <trkpt lat="46.22948" lon="-1.48187">
        <ele>1.58</ele>
        <time>2016-08-31T13:50:57Z</time>
      </trkpt>
      <trkpt lat="46.22943" lon="-1.48189">
        <ele>2.06</ele>
        <time>2016-08-31T13:50:58Z</time>
      </trkpt>
      <trkpt lat="46.22938" lon="-1.4819">
        <ele>2.06</ele>
        <time>2016-08-31T13:50:59Z</time>
      </trkpt>
      <trkpt lat="46.22932" lon="-1.48192">
        <ele>1.58</ele>
        <time>2016-08-31T13:51:00Z</time>
      </trkpt>
      <trkpt lat="46.22883" lon="-1.48197">
        <ele>2.54</ele>
        <time>2016-08-31T13:51:12Z</time>
      </trkpt>
      <trkpt lat="46.22873" lon="-1.48203">
        <ele>2.06</ele>
        <time>2016-08-31T13:51:15Z</time>
      </trkpt>
      <trkpt lat="46.22872" lon="-1.48208">
        <ele>2.06</ele>
        <time>2016-08-31T13:51:16Z</time>
      </trkpt>
      <trkpt lat="46.22866" lon="-1.48234">
        <ele>2.06</ele>
        <time>2016-08-31T13:51:25Z</time>
      </trkpt>
      <trkpt lat="46.22866" lon="-1.48235">
        <ele>3.5</ele>
        <time>2016-08-31T13:51:35Z</time>
      </trkpt>
      <trkpt lat="46.22866" lon="-1.48235">
        <ele>-3.23</ele>
        <time>2016-08-31T13:51:42Z</time>
      </trkpt>
      <trkpt lat="46.22866" lon="-1.48235">
        <ele>12.63</ele>
        <time>2016-08-31T13:51:43Z</time>
      </trkpt>
      <trkpt lat="46.22866" lon="-1.48235">
        <ele>3.02</ele>
        <time>2016-08-31T13:51:44Z</time>
      </trkpt>
      <trkpt lat="46.22866" lon="-1.48235">
        <ele>21.77</ele>
        <time>2016-08-31T13:51:45Z</time>
      </trkpt>
      <trkpt lat="46.22866" lon="-1.48235">
        <ele>-5.15</ele>
        <time>2016-08-31T13:51:46Z</time>
      </trkpt>
      <trkpt lat="46.22866" lon="-1.48235">
        <ele>-13.32</ele>
        <time>2016-08-31T13:51:47Z</time>
      </trkpt>
      <trkpt lat="46.22866" lon="-1.48235">
        <ele>8.31</ele>
        <time>2016-08-31T13:51:48Z</time>
      </trkpt>
      <trkpt lat="46.22866" lon="-1.48235">
        <ele>3.5</ele>
        <time>2016-08-31T13:51:49Z</time>
      </trkpt>
      <trkpt lat="46.22866" lon="-1.48235">
        <ele>14.08</ele>
        <time>2016-08-31T13:51:50Z</time>
      </trkpt>
      <trkpt lat="46.22866" lon="-1.48235">
        <ele>3.02</ele>
        <time>2016-08-31T13:51:51Z</time>
      </trkpt>
      <trkpt lat="46.22866" lon="-1.48235">
        <ele>2.06</ele>
        <time>2016-08-31T13:52:04Z</time>
      </trkpt>
      <trkpt lat="46.22866" lon="-1.48235">
        <ele>2.06</ele>
        <time>2016-08-31T13:52:17Z</time>
      </trkpt>
      <trkpt lat="46.22865" lon="-1.48235">
        <ele>2.54</ele>
        <time>2016-08-31T13:52:42Z</time>
      </trkpt>
      <trkpt lat="46.22864" lon="-1.48235">
        <ele>2.06</ele>
        <time>2016-08-31T13:53:02Z</time>
      </trkpt>
      <trkpt lat="46.22864" lon="-1.48237">
        <ele>2.06</ele>
        <time>2016-08-31T13:53:11Z</time>
      </trkpt>
      <trkpt lat="46.22862" lon="-1.4824">
        <ele>2.06</ele>
        <time>2016-08-31T13:53:12Z</time>
      </trkpt>
      <trkpt lat="46.22861" lon="-1.48243">
        <ele>1.58</ele>
        <time>2016-08-31T13:53:13Z</time>
      </trkpt>
      <trkpt lat="46.22859" lon="-1.48246">
        <ele>1.58</ele>
        <time>2016-08-31T13:53:14Z</time>
      </trkpt>
      <trkpt lat="46.22858" lon="-1.48249">
        <ele>2.06</ele>
        <time>2016-08-31T13:53:15Z</time>
      </trkpt>
      <trkpt lat="46.22851" lon="-1.48281">
        <ele>2.06</ele>
        <time>2016-08-31T13:53:23Z</time>
      </trkpt>
      <trkpt lat="46.22844" lon="-1.48341">
        <ele>2.54</ele>
        <time>2016-08-31T13:53:35Z</time>
      </trkpt>
      <trkpt lat="46.22838" lon="-1.48399">
        <ele>2.06</ele>
        <time>2016-08-31T13:53:46Z</time>
      </trkpt>
      <trkpt lat="46.22831" lon="-1.48474">
        <ele>1.58</ele>
        <time>2016-08-31T13:54:00Z</time>
      </trkpt>
      <trkpt lat="46.22832" lon="-1.48508">
        <ele>2.06</ele>
        <time>2016-08-31T13:54:06Z</time>
      </trkpt>
      <trkpt lat="46.22854" lon="-1.48586">
        <ele>2.06</ele>
        <time>2016-08-31T13:54:20Z</time>
      </trkpt>
      <trkpt lat="46.22857" lon="-1.48605">
        <ele>2.06</ele>
        <time>2016-08-31T13:54:23Z</time>
      </trkpt>
      <trkpt lat="46.22858" lon="-1.48611">
        <ele>2.06</ele>
        <time>2016-08-31T13:54:24Z</time>
      </trkpt>
      <trkpt lat="46.22859" lon="-1.48623">
        <ele>1.58</ele>
        <time>2016-08-31T13:54:26Z</time>
      </trkpt>
      <trkpt lat="46.22859" lon="-1.48629">
        <ele>2.06</ele>
        <time>2016-08-31T13:54:27Z</time>
      </trkpt>
      <trkpt lat="46.22858" lon="-1.48635">
        <ele>2.06</ele>
        <time>2016-08-31T13:54:28Z</time>
      </trkpt>
      <trkpt lat="46.22857" lon="-1.48641">
        <ele>2.06</ele>
        <time>2016-08-31T13:54:29Z</time>
      </trkpt>
      <trkpt lat="46.22856" lon="-1.48646">
        <ele>2.06</ele>
        <time>2016-08-31T13:54:30Z</time>
      </trkpt>
      <trkpt lat="46.22855" lon="-1.48652">
        <ele>2.06</ele>
        <time>2016-08-31T13:54:31Z</time>
      </trkpt>
      <trkpt lat="46.22851" lon="-1.48669">
        <ele>2.06</ele>
        <time>2016-08-31T13:54:34Z</time>
      </trkpt>
      <trkpt lat="46.2285" lon="-1.48693">
        <ele>1.58</ele>
        <time>2016-08-31T13:54:38Z</time>
      </trkpt>
      <trkpt lat="46.22854" lon="-1.48759">
        <ele>2.06</ele>
        <time>2016-08-31T13:54:49Z</time>
      </trkpt>
      <trkpt lat="46.22854" lon="-1.48765">
        <ele>2.06</ele>
        <time>2016-08-31T13:54:50Z</time>
      </trkpt>
      <trkpt lat="46.22854" lon="-1.48771">
        <ele>1.58</ele>
        <time>2016-08-31T13:54:51Z</time>
      </trkpt>
      <trkpt lat="46.22853" lon="-1.48777">
        <ele>1.58</ele>
        <time>2016-08-31T13:54:52Z</time>
      </trkpt>
      <trkpt lat="46.22853" lon="-1.48783">
        <ele>1.58</ele>
        <time>2016-08-31T13:54:53Z</time>
      </trkpt>
      <trkpt lat="46.22854" lon="-1.48788">
        <ele>1.58</ele>
        <time>2016-08-31T13:54:54Z</time>
      </trkpt>
      <trkpt lat="46.22856" lon="-1.48794">
        <ele>1.1</ele>
        <time>2016-08-31T13:54:55Z</time>
      </trkpt>
      <trkpt lat="46.22857" lon="-1.488">
        <ele>0.62</ele>
        <time>2016-08-31T13:54:56Z</time>
      </trkpt>
      <trkpt lat="46.22858" lon="-1.48805">
        <ele>0.62</ele>
        <time>2016-08-31T13:54:57Z</time>
      </trkpt>
      <trkpt lat="46.22859" lon="-1.48811">
        <ele>0.62</ele>
        <time>2016-08-31T13:54:58Z</time>
      </trkpt>
      <trkpt lat="46.2286" lon="-1.48817">
        <ele>1.1</ele>
        <time>2016-08-31T13:54:59Z</time>
      </trkpt>
      <trkpt lat="46.22862" lon="-1.48822">
        <ele>1.1</ele>
        <time>2016-08-31T13:55:00Z</time>
      </trkpt>
      <trkpt lat="46.2288" lon="-1.48902">
        <ele>1.1</ele>
        <time>2016-08-31T13:55:14Z</time>
      </trkpt>
      <trkpt lat="46.22884" lon="-1.4892">
        <ele>1.1</ele>
        <time>2016-08-31T13:55:17Z</time>
      </trkpt>
      <trkpt lat="46.22897" lon="-1.48992">
        <ele>1.1</ele>
        <time>2016-08-31T13:55:29Z</time>
      </trkpt>
      <trkpt lat="46.22909" lon="-1.49064">
        <ele>1.58</ele>
        <time>2016-08-31T13:55:41Z</time>
      </trkpt>
      <trkpt lat="46.22922" lon="-1.49118">
        <ele>1.1</ele>
        <time>2016-08-31T13:55:51Z</time>
      </trkpt>
      <trkpt lat="46.22938" lon="-1.49171">
        <ele>1.1</ele>
        <time>2016-08-31T13:56:01Z</time>
      </trkpt>
      <trkpt lat="46.22948" lon="-1.49194">
        <ele>1.1</ele>
        <time>2016-08-31T13:56:06Z</time>
      </trkpt>
      <trkpt lat="46.22953" lon="-1.49203">
        <ele>0.62</ele>
        <time>2016-08-31T13:56:08Z</time>
      </trkpt>
      <trkpt lat="46.22959" lon="-1.49212">
        <ele>0.62</ele>
        <time>2016-08-31T13:56:10Z</time>
      </trkpt>
      <trkpt lat="46.22962" lon="-1.49217">
        <ele>1.1</ele>
        <time>2016-08-31T13:56:11Z</time>
      </trkpt>
      <trkpt lat="46.22964" lon="-1.49221">
        <ele>1.1</ele>
        <time>2016-08-31T13:56:12Z</time>
      </trkpt>
      <trkpt lat="46.22967" lon="-1.49226">
        <ele>0.62</ele>
        <time>2016-08-31T13:56:13Z</time>
      </trkpt>
      <trkpt lat="46.2297" lon="-1.4923">
        <ele>0.62</ele>
        <time>2016-08-31T13:56:14Z</time>
      </trkpt>
      <trkpt lat="46.22973" lon="-1.49234">
        <ele>0.62</ele>
        <time>2016-08-31T13:56:15Z</time>
      </trkpt>
      <trkpt lat="46.22998" lon="-1.49258">
        <ele>1.58</ele>
        <time>2016-08-31T13:56:22Z</time>
      </trkpt>
      <trkpt lat="46.23014" lon="-1.49269">
        <ele>1.58</ele>
        <time>2016-08-31T13:56:26Z</time>
      </trkpt>
      <trkpt lat="46.23017" lon="-1.49272">
        <ele>1.58</ele>
        <time>2016-08-31T13:56:27Z</time>
      </trkpt>
      <trkpt lat="46.23021" lon="-1.49274">
        <ele>1.58</ele>
        <time>2016-08-31T13:56:28Z</time>
      </trkpt>
      <trkpt lat="46.23065" lon="-1.49296">
        <ele>1.58</ele>
        <time>2016-08-31T13:56:39Z</time>
      </trkpt>
      <trkpt lat="46.23078" lon="-1.49301">
        <ele>1.58</ele>
        <time>2016-08-31T13:56:42Z</time>
      </trkpt>
      <trkpt lat="46.23086" lon="-1.49306">
        <ele>1.1</ele>
        <time>2016-08-31T13:56:44Z</time>
      </trkpt>
      <trkpt lat="46.23098" lon="-1.49311">
        <ele>1.1</ele>
        <time>2016-08-31T13:56:47Z</time>
      </trkpt>
      <trkpt lat="46.23107" lon="-1.49312">
        <ele>1.58</ele>
        <time>2016-08-31T13:56:49Z</time>
      </trkpt>
      <trkpt lat="46.23111" lon="-1.49314">
        <ele>1.58</ele>
        <time>2016-08-31T13:56:50Z</time>
      </trkpt>
      <trkpt lat="46.2313" lon="-1.49327">
        <ele>2.06</ele>
        <time>2016-08-31T13:56:55Z</time>
      </trkpt>
      <trkpt lat="46.23134" lon="-1.49328">
        <ele>1.58</ele>
        <time>2016-08-31T13:56:56Z</time>
      </trkpt>
      <trkpt lat="46.23168" lon="-1.49331">
        <ele>1.58</ele>
        <time>2016-08-31T13:57:04Z</time>
      </trkpt>
      <trkpt lat="46.23176" lon="-1.49334">
        <ele>1.58</ele>
        <time>2016-08-31T13:57:06Z</time>
      </trkpt>
      <trkpt lat="46.23179" lon="-1.49338">
        <ele>1.1</ele>
        <time>2016-08-31T13:57:07Z</time>
      </trkpt>
      <trkpt lat="46.23182" lon="-1.49342">
        <ele>1.1</ele>
        <time>2016-08-31T13:57:08Z</time>
      </trkpt>
      <trkpt lat="46.23185" lon="-1.49345">
        <ele>1.1</ele>
        <time>2016-08-31T13:57:09Z</time>
      </trkpt>
      <trkpt lat="46.23189" lon="-1.49348">
        <ele>1.1</ele>
        <time>2016-08-31T13:57:10Z</time>
      </trkpt>
      <trkpt lat="46.23203" lon="-1.49362">
        <ele>1.1</ele>
        <time>2016-08-31T13:57:14Z</time>
      </trkpt>
      <trkpt lat="46.23206" lon="-1.49366">
        <ele>1.58</ele>
        <time>2016-08-31T13:57:15Z</time>
      </trkpt>
      <trkpt lat="46.23208" lon="-1.49371">
        <ele>1.1</ele>
        <time>2016-08-31T13:57:16Z</time>
      </trkpt>
      <trkpt lat="46.2321" lon="-1.49376">
        <ele>0.62</ele>
        <time>2016-08-31T13:57:17Z</time>
      </trkpt>
      <trkpt lat="46.23212" lon="-1.49381">
        <ele>1.1</ele>
        <time>2016-08-31T13:57:18Z</time>
      </trkpt>
      <trkpt lat="46.23231" lon="-1.4943">
        <ele>1.1</ele>
        <time>2016-08-31T13:57:27Z</time>
      </trkpt>
      <trkpt lat="46.23233" lon="-1.49436">
        <ele>1.58</ele>
        <time>2016-08-31T13:57:28Z</time>
      </trkpt>
      <trkpt lat="46.23243" lon="-1.49468">
        <ele>1.58</ele>
        <time>2016-08-31T13:57:34Z</time>
      </trkpt>
      <trkpt lat="46.23245" lon="-1.49472">
        <ele>1.58</ele>
        <time>2016-08-31T13:57:35Z</time>
      </trkpt>
      <trkpt lat="46.23248" lon="-1.49476">
        <ele>1.58</ele>
        <time>2016-08-31T13:57:36Z</time>
      </trkpt>
      <trkpt lat="46.23252" lon="-1.49479">
        <ele>1.1</ele>
        <time>2016-08-31T13:57:37Z</time>
      </trkpt>
      <trkpt lat="46.23256" lon="-1.49481">
        <ele>1.1</ele>
        <time>2016-08-31T13:57:38Z</time>
      </trkpt>
      <trkpt lat="46.23276" lon="-1.4949">
        <ele>1.58</ele>
        <time>2016-08-31T13:57:43Z</time>
      </trkpt>
      <trkpt lat="46.23299" lon="-1.49498">
        <ele>2.06</ele>
        <time>2016-08-31T13:57:49Z</time>
      </trkpt>
      <trkpt lat="46.23311" lon="-1.49499">
        <ele>1.58</ele>
        <time>2016-08-31T13:57:52Z</time>
      </trkpt>
      <trkpt lat="46.23316" lon="-1.49498">
        <ele>2.06</ele>
        <time>2016-08-31T13:57:53Z</time>
      </trkpt>
      <trkpt lat="46.23328" lon="-1.49494">
        <ele>1.58</ele>
        <time>2016-08-31T13:57:56Z</time>
      </trkpt>
      <trkpt lat="46.23336" lon="-1.4949">
        <ele>1.58</ele>
        <time>2016-08-31T13:57:58Z</time>
      </trkpt>
      <trkpt lat="46.2334" lon="-1.49487">
        <ele>2.06</ele>
        <time>2016-08-31T13:57:59Z</time>
      </trkpt>
      <trkpt lat="46.23352" lon="-1.49478">
        <ele>2.54</ele>
        <time>2016-08-31T13:58:02Z</time>
      </trkpt>
      <trkpt lat="46.23356" lon="-1.49477">
        <ele>1.1</ele>
        <time>2016-08-31T13:58:03Z</time>
      </trkpt>
      <trkpt lat="46.23398" lon="-1.49479">
        <ele>1.58</ele>
        <time>2016-08-31T13:58:13Z</time>
      </trkpt>
      <trkpt lat="46.23403" lon="-1.49479">
        <ele>1.58</ele>
        <time>2016-08-31T13:58:14Z</time>
      </trkpt>
      <trkpt lat="46.23468" lon="-1.49482">
        <ele>1.1</ele>
        <time>2016-08-31T13:58:29Z</time>
      </trkpt>
      <trkpt lat="46.23499" lon="-1.49488">
        <ele>1.1</ele>
        <time>2016-08-31T13:58:37Z</time>
      </trkpt>
      <trkpt lat="46.23501" lon="-1.49492">
        <ele>1.1</ele>
        <time>2016-08-31T13:58:38Z</time>
      </trkpt>
      <trkpt lat="46.23502" lon="-1.49498">
        <ele>1.58</ele>
        <time>2016-08-31T13:58:39Z</time>
      </trkpt>
      <trkpt lat="46.23502" lon="-1.49503">
        <ele>2.06</ele>
        <time>2016-08-31T13:58:40Z</time>
      </trkpt>
      <trkpt lat="46.23502" lon="-1.49509">
        <ele>2.06</ele>
        <time>2016-08-31T13:58:41Z</time>
      </trkpt>
      <trkpt lat="46.23502" lon="-1.49515">
        <ele>1.58</ele>
        <time>2016-08-31T13:58:42Z</time>
      </trkpt>
      <trkpt lat="46.23503" lon="-1.49553">
        <ele>2.06</ele>
        <time>2016-08-31T13:58:51Z</time>
      </trkpt>
      <trkpt lat="46.23503" lon="-1.49556">
        <ele>2.54</ele>
        <time>2016-08-31T13:58:59Z</time>
      </trkpt>
      <trkpt lat="46.23502" lon="-1.49557">
        <ele>3.02</ele>
        <time>2016-08-31T13:59:06Z</time>
      </trkpt>
      <trkpt lat="46.23501" lon="-1.49558">
        <ele>2.06</ele>
        <time>2016-08-31T13:59:07Z</time>
      </trkpt>
      <trkpt lat="46.235" lon="-1.49559">
        <ele>2.06</ele>
        <time>2016-08-31T13:59:19Z</time>
      </trkpt>
      <trkpt lat="46.23501" lon="-1.49564">
        <ele>2.06</ele>
        <time>2016-08-31T13:59:31Z</time>
      </trkpt>
      <trkpt lat="46.23501" lon="-1.49566">
        <ele>2.54</ele>
        <time>2016-08-31T13:59:47Z</time>
      </trkpt>
      <trkpt lat="46.23501" lon="-1.49567">
        <ele>2.06</ele>
        <time>2016-08-31T14:00:10Z</time>
      </trkpt>
      <trkpt lat="46.23501" lon="-1.49567">
        <ele>-2.27</ele>
        <time>2016-08-31T14:00:20Z</time>
      </trkpt>
      <trkpt lat="46.23501" lon="-1.49567">
        <ele>9.27</ele>
        <time>2016-08-31T14:00:21Z</time>
      </trkpt>
      <trkpt lat="46.23501" lon="-1.49567">
        <ele>2.06</ele>
        <time>2016-08-31T14:00:22Z</time>
      </trkpt>
      <trkpt lat="46.23501" lon="-1.49567">
        <ele>2.54</ele>
        <time>2016-08-31T14:00:40Z</time>
      </trkpt>
      <trkpt lat="46.235" lon="-1.49568">
        <ele>2.06</ele>
        <time>2016-08-31T14:01:10Z</time>
      </trkpt>
      <trkpt lat="46.235" lon="-1.49568">
        <ele>1.58</ele>
        <time>2016-08-31T14:01:15Z</time>
      </trkpt>
      <trkpt lat="46.23501" lon="-1.4957">
        <ele>2.06</ele>
        <time>2016-08-31T14:01:16Z</time>
      </trkpt>
      <trkpt lat="46.23501" lon="-1.49572">
        <ele>1.58</ele>
        <time>2016-08-31T14:01:17Z</time>
      </trkpt>
      <trkpt lat="46.23501" lon="-1.49575">
        <ele>2.06</ele>
        <time>2016-08-31T14:01:18Z</time>
      </trkpt>
      <trkpt lat="46.23501" lon="-1.49578">
        <ele>1.58</ele>
        <time>2016-08-31T14:01:19Z</time>
      </trkpt>
      <trkpt lat="46.23501" lon="-1.49582">
        <ele>1.58</ele>
        <time>2016-08-31T14:01:20Z</time>
      </trkpt>
      <trkpt lat="46.23501" lon="-1.49586">
        <ele>2.06</ele>
        <time>2016-08-31T14:01:21Z</time>
      </trkpt>
      <trkpt lat="46.23501" lon="-1.49589">
        <ele>1.58</ele>
        <time>2016-08-31T14:01:22Z</time>
      </trkpt>
      <trkpt lat="46.23502" lon="-1.49629">
        <ele>2.54</ele>
        <time>2016-08-31T14:01:31Z</time>
      </trkpt>
      <trkpt lat="46.23503" lon="-1.49637">
        <ele>1.58</ele>
        <time>2016-08-31T14:01:39Z</time>
      </trkpt>
      <trkpt lat="46.23502" lon="-1.49637">
        <ele>2.06</ele>
        <time>2016-08-31T14:02:03Z</time>
      </trkpt>
      <trkpt lat="46.23502" lon="-1.49638">
        <ele>2.06</ele>
        <time>2016-08-31T14:02:24Z</time>
      </trkpt>
      <trkpt lat="46.23502" lon="-1.49638">
        <ele>2.06</ele>
        <time>2016-08-31T14:02:49Z</time>
      </trkpt>
      <trkpt lat="46.23502" lon="-1.49638">
        <ele>3.02</ele>
        <time>2016-08-31T14:03:10Z</time>
      </trkpt>
      <trkpt lat="46.23502" lon="-1.49638">
        <ele>3.02</ele>
        <time>2016-08-31T14:03:33Z</time>
      </trkpt>
      <trkpt lat="46.23502" lon="-1.49638">
        <ele>3.98</ele>
        <time>2016-08-31T14:03:46Z</time>
      </trkpt>
      <trkpt lat="46.23502" lon="-1.49638">
        <ele>3.98</ele>
        <time>2016-08-31T14:03:50Z</time>
      </trkpt>
      <trkpt lat="46.23501" lon="-1.49639">
        <ele>3.5</ele>
        <time>2016-08-31T14:03:51Z</time>
      </trkpt>
      <trkpt lat="46.235" lon="-1.49641">
        <ele>3.02</ele>
        <time>2016-08-31T14:03:52Z</time>
      </trkpt>
      <trkpt lat="46.235" lon="-1.49643">
        <ele>3.02</ele>
        <time>2016-08-31T14:03:53Z</time>
      </trkpt>
      <trkpt lat="46.23499" lon="-1.49646">
        <ele>3.02</ele>
        <time>2016-08-31T14:03:54Z</time>
      </trkpt>
      <trkpt lat="46.23498" lon="-1.49649">
        <ele>3.5</ele>
        <time>2016-08-31T14:03:55Z</time>
      </trkpt>
      <trkpt lat="46.23497" lon="-1.49653">
        <ele>3.02</ele>
        <time>2016-08-31T14:03:56Z</time>
      </trkpt>
      <trkpt lat="46.23497" lon="-1.49657">
        <ele>3.02</ele>
        <time>2016-08-31T14:03:57Z</time>
      </trkpt>
      <trkpt lat="46.23495" lon="-1.49693">
        <ele>2.54</ele>
        <time>2016-08-31T14:04:04Z</time>
      </trkpt>
      <trkpt lat="46.23489" lon="-1.49759">
        <ele>2.06</ele>
        <time>2016-08-31T14:04:16Z</time>
      </trkpt>
      <trkpt lat="46.235" lon="-1.49843">
        <ele>1.58</ele>
        <time>2016-08-31T14:04:30Z</time>
      </trkpt>
      <trkpt lat="46.23504" lon="-1.4986">
        <ele>2.54</ele>
        <time>2016-08-31T14:04:33Z</time>
      </trkpt>
      <trkpt lat="46.23506" lon="-1.49865">
        <ele>1.58</ele>
        <time>2016-08-31T14:04:34Z</time>
      </trkpt>
      <trkpt lat="46.23508" lon="-1.4987">
        <ele>2.06</ele>
        <time>2016-08-31T14:04:35Z</time>
      </trkpt>
      <trkpt lat="46.23513" lon="-1.49879">
        <ele>2.06</ele>
        <time>2016-08-31T14:04:37Z</time>
      </trkpt>
      <trkpt lat="46.23515" lon="-1.49884">
        <ele>1.58</ele>
        <time>2016-08-31T14:04:38Z</time>
      </trkpt>
      <trkpt lat="46.23543" lon="-1.4992">
        <ele>2.54</ele>
        <time>2016-08-31T14:04:48Z</time>
      </trkpt>
      <trkpt lat="46.23549" lon="-1.49934">
        <ele>1.58</ele>
        <time>2016-08-31T14:04:52Z</time>
      </trkpt>
      <trkpt lat="46.23548" lon="-1.49939">
        <ele>1.58</ele>
        <time>2016-08-31T14:04:53Z</time>
      </trkpt>
      <trkpt lat="46.23532" lon="-1.49997">
        <ele>2.54</ele>
        <time>2016-08-31T14:05:05Z</time>
      </trkpt>
      <trkpt lat="46.23526" lon="-1.50015">
        <ele>3.02</ele>
        <time>2016-08-31T14:05:13Z</time>
      </trkpt>
      <trkpt lat="46.23526" lon="-1.50015">
        <ele>-5.15</ele>
        <time>2016-08-31T14:05:15Z</time>
      </trkpt>
      <trkpt lat="46.23526" lon="-1.50015">
        <ele>3.5</ele>
        <time>2016-08-31T14:05:16Z</time>
      </trkpt>
      <trkpt lat="46.23526" lon="-1.50015">
        <ele>22.25</ele>
        <time>2016-08-31T14:05:18Z</time>
      </trkpt>
      <trkpt lat="46.23526" lon="-1.50015">
        <ele>-27.74</ele>
        <time>2016-08-31T14:05:19Z</time>
      </trkpt>
      <trkpt lat="46.23526" lon="-1.50015">
        <ele>6.39</ele>
        <time>2016-08-31T14:05:20Z</time>
      </trkpt>
      <trkpt lat="46.23526" lon="-1.50015">
        <ele>1.58</ele>
        <time>2016-08-31T14:05:21Z</time>
      </trkpt>
      <trkpt lat="46.23526" lon="-1.50015">
        <ele>18.4</ele>
        <time>2016-08-31T14:05:23Z</time>
      </trkpt>
      <trkpt lat="46.23526" lon="-1.50015">
        <ele>5.91</ele>
        <time>2016-08-31T14:05:24Z</time>
      </trkpt>
      <trkpt lat="46.23526" lon="-1.50015">
        <ele>15.04</ele>
        <time>2016-08-31T14:05:25Z</time>
      </trkpt>
      <trkpt lat="46.23526" lon="-1.50015">
        <ele>2.54</ele>
        <time>2016-08-31T14:05:26Z</time>
      </trkpt>
      <trkpt lat="46.23526" lon="-1.50015">
        <ele>7.35</ele>
        <time>2016-08-31T14:05:27Z</time>
      </trkpt>
      <trkpt lat="46.23526" lon="-1.50015">
        <ele>4.46</ele>
        <time>2016-08-31T14:05:28Z</time>
      </trkpt>
      <trkpt lat="46.23526" lon="-1.50015">
        <ele>10.71</ele>
        <time>2016-08-31T14:05:29Z</time>
      </trkpt>
      <trkpt lat="46.23526" lon="-1.50015">
        <ele>-10.44</ele>
        <time>2016-08-31T14:05:30Z</time>
      </trkpt>
      <trkpt lat="46.23526" lon="-1.50015">
        <ele>4.46</ele>
        <time>2016-08-31T14:05:31Z</time>
      </trkpt>
      <trkpt lat="46.23526" lon="-1.50015">
        <ele>-17.17</ele>
        <time>2016-08-31T14:05:33Z</time>
      </trkpt>
      <trkpt lat="46.23526" lon="-1.50015">
        <ele>4.94</ele>
        <time>2016-08-31T14:05:34Z</time>
      </trkpt>
      <trkpt lat="46.23526" lon="-1.50015">
        <ele>28.98</ele>
        <time>2016-08-31T14:05:37Z</time>
      </trkpt>
      <trkpt lat="46.23526" lon="-1.50015">
        <ele>27.53</ele>
        <time>2016-08-31T14:05:38Z</time>
      </trkpt>
      <trkpt lat="46.23526" lon="-1.50015">
        <ele>-19.09</ele>
        <time>2016-08-31T14:05:39Z</time>
      </trkpt>
      <trkpt lat="46.23526" lon="-1.50015">
        <ele>17.44</ele>
        <time>2016-08-31T14:05:40Z</time>
      </trkpt>
      <trkpt lat="46.23526" lon="-1.50015">
        <ele>3.5</ele>
        <time>2016-08-31T14:05:41Z</time>
      </trkpt>
      <trkpt lat="46.23526" lon="-1.50015">
        <ele>-6.11</ele>
        <time>2016-08-31T14:05:42Z</time>
      </trkpt>
      <trkpt lat="46.23526" lon="-1.50015">
        <ele>3.5</ele>
        <time>2016-08-31T14:05:43Z</time>
      </trkpt>
      <trkpt lat="46.23526" lon="-1.50015">
        <ele>23.21</ele>
        <time>2016-08-31T14:05:44Z</time>
      </trkpt>
      <trkpt lat="46.23526" lon="-1.50015">
        <ele>3.5</ele>
        <time>2016-08-31T14:05:45Z</time>
      </trkpt>
      <trkpt lat="46.23526" lon="-1.50015">
        <ele>-15.24</ele>
        <time>2016-08-31T14:05:50Z</time>
      </trkpt>
      <trkpt lat="46.23526" lon="-1.50015">
        <ele>1.1</ele>
        <time>2016-08-31T14:05:51Z</time>
      </trkpt>
      <trkpt lat="46.23526" lon="-1.50015">
        <ele>17.92</ele>
        <time>2016-08-31T14:05:52Z</time>
      </trkpt>
      <trkpt lat="46.23526" lon="-1.50015">
        <ele>2.54</ele>
        <time>2016-08-31T14:05:54Z</time>
      </trkpt>
      <trkpt lat="46.23526" lon="-1.50015">
        <ele>3.5</ele>
        <time>2016-08-31T14:05:55Z</time>
      </trkpt>
      <trkpt lat="46.23526" lon="-1.50014">
        <ele>2.54</ele>
        <time>2016-08-31T14:06:13Z</time>
      </trkpt>
      <trkpt lat="46.23526" lon="-1.50014">
        <ele>3.5</ele>
        <time>2016-08-31T14:06:29Z</time>
      </trkpt>
      <trkpt lat="46.23526" lon="-1.50014">
        <ele>3.98</ele>
        <time>2016-08-31T14:06:30Z</time>
      </trkpt>
      <trkpt lat="46.23525" lon="-1.50014">
        <ele>3.02</ele>
        <time>2016-08-31T14:06:31Z</time>
      </trkpt>
      <trkpt lat="46.23523" lon="-1.50014">
        <ele>3.02</ele>
        <time>2016-08-31T14:06:32Z</time>
      </trkpt>
      <trkpt lat="46.23521" lon="-1.50013">
        <ele>3.02</ele>
        <time>2016-08-31T14:06:33Z</time>
      </trkpt>
      <trkpt lat="46.23518" lon="-1.50012">
        <ele>3.02</ele>
        <time>2016-08-31T14:06:34Z</time>
      </trkpt>
      <trkpt lat="46.2349" lon="-1.49997">
        <ele>3.02</ele>
        <time>2016-08-31T14:06:43Z</time>
      </trkpt>
      <trkpt lat="46.23468" lon="-1.49995">
        <ele>2.54</ele>
        <time>2016-08-31T14:06:52Z</time>
      </trkpt>
      <trkpt lat="46.23468" lon="-1.49995">
        <ele>2.54</ele>
        <time>2016-08-31T14:07:03Z</time>
      </trkpt>
      <trkpt lat="46.23467" lon="-1.49995">
        <ele>3.02</ele>
        <time>2016-08-31T14:07:22Z</time>
      </trkpt>
      <trkpt lat="46.23467" lon="-1.49995">
        <ele>2.54</ele>
        <time>2016-08-31T14:07:42Z</time>
      </trkpt>
      <trkpt lat="46.23467" lon="-1.49995">
        <ele>2.06</ele>
        <time>2016-08-31T14:08:04Z</time>
      </trkpt>
      <trkpt lat="46.23467" lon="-1.49995">
        <ele>2.54</ele>
        <time>2016-08-31T14:08:25Z</time>
      </trkpt>
      <trkpt lat="46.23467" lon="-1.49995">
        <ele>2.06</ele>
        <time>2016-08-31T14:08:45Z</time>
      </trkpt>
      <trkpt lat="46.23467" lon="-1.49997">
        <ele>3.02</ele>
        <time>2016-08-31T14:08:48Z</time>
      </trkpt>
      <trkpt lat="46.23467" lon="-1.49999">
        <ele>3.02</ele>
        <time>2016-08-31T14:08:49Z</time>
      </trkpt>
      <trkpt lat="46.23464" lon="-1.50033">
        <ele>2.06</ele>
        <time>2016-08-31T14:08:57Z</time>
      </trkpt>
      <trkpt lat="46.23461" lon="-1.50087">
        <ele>1.58</ele>
        <time>2016-08-31T14:09:08Z</time>
      </trkpt>
      <trkpt lat="46.23461" lon="-1.50093">
        <ele>1.58</ele>
        <time>2016-08-31T14:09:10Z</time>
      </trkpt>
      <trkpt lat="46.23459" lon="-1.50096">
        <ele>1.58</ele>
        <time>2016-08-31T14:09:11Z</time>
      </trkpt>
      <trkpt lat="46.23455" lon="-1.50098">
        <ele>1.58</ele>
        <time>2016-08-31T14:09:12Z</time>
      </trkpt>
      <trkpt lat="46.23427" lon="-1.50115">
        <ele>0.62</ele>
        <time>2016-08-31T14:09:21Z</time>
      </trkpt>
      <trkpt lat="46.23426" lon="-1.50119">
        <ele>0.62</ele>
        <time>2016-08-31T14:09:22Z</time>
      </trkpt>
      <trkpt lat="46.23424" lon="-1.50142">
        <ele>0.62</ele>
        <time>2016-08-31T14:09:27Z</time>
      </trkpt>
      <trkpt lat="46.23423" lon="-1.50146">
        <ele>1.1</ele>
        <time>2016-08-31T14:09:28Z</time>
      </trkpt>
      <trkpt lat="46.23414" lon="-1.50172">
        <ele>0.62</ele>
        <time>2016-08-31T14:09:38Z</time>
      </trkpt>
      <trkpt lat="46.23414" lon="-1.50172">
        <ele>1.1</ele>
        <time>2016-08-31T14:09:39Z</time>
      </trkpt>
      <trkpt lat="46.23415" lon="-1.50174">
        <ele>0.14</ele>
        <time>2016-08-31T14:09:40Z</time>
      </trkpt>
      <trkpt lat="46.23416" lon="-1.50177">
        <ele>0.62</ele>
        <time>2016-08-31T14:09:41Z</time>
      </trkpt>
      <trkpt lat="46.23417" lon="-1.50179">
        <ele>1.1</ele>
        <time>2016-08-31T14:09:43Z</time>
      </trkpt>
      <trkpt lat="46.23418" lon="-1.50183">
        <ele>1.58</ele>
        <time>2016-08-31T14:09:52Z</time>
      </trkpt>
      <trkpt lat="46.23418" lon="-1.50183">
        <ele>1.1</ele>
        <time>2016-08-31T14:10:10Z</time>
      </trkpt>
      <trkpt lat="46.23418" lon="-1.50183">
        <ele>1.1</ele>
        <time>2016-08-31T14:10:31Z</time>
      </trkpt>
      <trkpt lat="46.23418" lon="-1.50183">
        <ele>1.58</ele>
        <time>2016-08-31T14:10:48Z</time>
      </trkpt>
      <trkpt lat="46.23417" lon="-1.50181">
        <ele>1.58</ele>
        <time>2016-08-31T14:11:03Z</time>
      </trkpt>
      <trkpt lat="46.23417" lon="-1.5018">
        <ele>1.1</ele>
        <time>2016-08-31T14:11:04Z</time>
      </trkpt>
      <trkpt lat="46.23416" lon="-1.50178">
        <ele>0.62</ele>
        <time>2016-08-31T14:11:05Z</time>
      </trkpt>
      <trkpt lat="46.23412" lon="-1.50173">
        <ele>1.1</ele>
        <time>2016-08-31T14:11:16Z</time>
      </trkpt>
      <trkpt lat="46.23412" lon="-1.50175">
        <ele>0.14</ele>
        <time>2016-08-31T14:11:24Z</time>
      </trkpt>
      <trkpt lat="46.23413" lon="-1.50177">
        <ele>0.14</ele>
        <time>2016-08-31T14:11:25Z</time>
      </trkpt>
      <trkpt lat="46.23413" lon="-1.50181">
        <ele>0.14</ele>
        <time>2016-08-31T14:11:26Z</time>
      </trkpt>
      <trkpt lat="46.23413" lon="-1.50184">
        <ele>-0.34</ele>
        <time>2016-08-31T14:11:27Z</time>
      </trkpt>
      <trkpt lat="46.23414" lon="-1.50188">
        <ele>-0.34</ele>
        <time>2016-08-31T14:11:28Z</time>
      </trkpt>
      <trkpt lat="46.23416" lon="-1.50191">
        <ele>-0.34</ele>
        <time>2016-08-31T14:11:29Z</time>
      </trkpt>
      <trkpt lat="46.23417" lon="-1.50193">
        <ele>-0.34</ele>
        <time>2016-08-31T14:11:30Z</time>
      </trkpt>
      <trkpt lat="46.23419" lon="-1.50195">
        <ele>0.14</ele>
        <time>2016-08-31T14:11:39Z</time>
      </trkpt>
      <trkpt lat="46.23423" lon="-1.50201">
        <ele>-0.82</ele>
        <time>2016-08-31T14:11:44Z</time>
      </trkpt>
      <trkpt lat="46.23425" lon="-1.50203">
        <ele>0.62</ele>
        <time>2016-08-31T14:11:55Z</time>
      </trkpt>
      <trkpt lat="46.23424" lon="-1.50203">
        <ele>5.42</ele>
        <time>2016-08-31T14:11:58Z</time>
      </trkpt>
      <trkpt lat="46.23424" lon="-1.50203">
        <ele>0.14</ele>
        <time>2016-08-31T14:11:59Z</time>
      </trkpt>
      <trkpt lat="46.23426" lon="-1.50206">
        <ele>-0.34</ele>
        <time>2016-08-31T14:12:02Z</time>
      </trkpt>
      <trkpt lat="46.23427" lon="-1.50208">
        <ele>-0.34</ele>
        <time>2016-08-31T14:12:03Z</time>
      </trkpt>
      <trkpt lat="46.23441" lon="-1.50245">
        <ele>-0.82</ele>
        <time>2016-08-31T14:12:13Z</time>
      </trkpt>
      <trkpt lat="46.23462" lon="-1.50295">
        <ele>-1.3</ele>
        <time>2016-08-31T14:12:23Z</time>
      </trkpt>
      <trkpt lat="46.2348" lon="-1.50335">
        <ele>-1.3</ele>
        <time>2016-08-31T14:12:31Z</time>
      </trkpt>
      <trkpt lat="46.23492" lon="-1.5036">
        <ele>-0.82</ele>
        <time>2016-08-31T14:12:36Z</time>
      </trkpt>
      <trkpt lat="46.23495" lon="-1.50364">
        <ele>-0.82</ele>
        <time>2016-08-31T14:12:37Z</time>
      </trkpt>
      <trkpt lat="46.23498" lon="-1.50368">
        <ele>-0.82</ele>
        <time>2016-08-31T14:12:38Z</time>
      </trkpt>
      <trkpt lat="46.23501" lon="-1.50373">
        <ele>-1.3</ele>
        <time>2016-08-31T14:12:39Z</time>
      </trkpt>
      <trkpt lat="46.23502" lon="-1.50377">
        <ele>-0.34</ele>
        <time>2016-08-31T14:12:40Z</time>
      </trkpt>
      <trkpt lat="46.23504" lon="-1.50382">
        <ele>-0.34</ele>
        <time>2016-08-31T14:12:41Z</time>
      </trkpt>
      <trkpt lat="46.23504" lon="-1.50387">
        <ele>-0.34</ele>
        <time>2016-08-31T14:12:42Z</time>
      </trkpt>
      <trkpt lat="46.23504" lon="-1.50391">
        <ele>0.62</ele>
        <time>2016-08-31T14:12:43Z</time>
      </trkpt>
      <trkpt lat="46.23503" lon="-1.50396">
        <ele>0.14</ele>
        <time>2016-08-31T14:12:44Z</time>
      </trkpt>
      <trkpt lat="46.23502" lon="-1.504">
        <ele>0.14</ele>
        <time>2016-08-31T14:12:45Z</time>
      </trkpt>
      <trkpt lat="46.23491" lon="-1.50426">
        <ele>0.14</ele>
        <time>2016-08-31T14:12:53Z</time>
      </trkpt>
      <trkpt lat="46.23475" lon="-1.50459">
        <ele>0.62</ele>
        <time>2016-08-31T14:13:05Z</time>
      </trkpt>
      <trkpt lat="46.23475" lon="-1.50459">
        <ele>1.1</ele>
        <time>2016-08-31T14:13:18Z</time>
      </trkpt>
      <trkpt lat="46.23475" lon="-1.5046">
        <ele>1.1</ele>
        <time>2016-08-31T14:13:40Z</time>
      </trkpt>
      <trkpt lat="46.23475" lon="-1.5046">
        <ele>1.1</ele>
        <time>2016-08-31T14:14:05Z</time>
      </trkpt>
      <trkpt lat="46.23475" lon="-1.50462">
        <ele>0.62</ele>
        <time>2016-08-31T14:14:14Z</time>
      </trkpt>
      <trkpt lat="46.23475" lon="-1.50464">
        <ele>0.14</ele>
        <time>2016-08-31T14:14:15Z</time>
      </trkpt>
      <trkpt lat="46.23474" lon="-1.50466">
        <ele>1.1</ele>
        <time>2016-08-31T14:14:16Z</time>
      </trkpt>
      <trkpt lat="46.23473" lon="-1.50468">
        <ele>0.62</ele>
        <time>2016-08-31T14:14:17Z</time>
      </trkpt>
      <trkpt lat="46.23473" lon="-1.5047">
        <ele>0.14</ele>
        <time>2016-08-31T14:14:18Z</time>
      </trkpt>
      <trkpt lat="46.23472" lon="-1.50473">
        <ele>0.14</ele>
        <time>2016-08-31T14:14:19Z</time>
      </trkpt>
      <trkpt lat="46.23471" lon="-1.50475">
        <ele>0.14</ele>
        <time>2016-08-31T14:14:20Z</time>
      </trkpt>
      <trkpt lat="46.23459" lon="-1.50513">
        <ele>0.14</ele>
        <time>2016-08-31T14:14:29Z</time>
      </trkpt>
      <trkpt lat="46.23446" lon="-1.50554">
        <ele>0.62</ele>
        <time>2016-08-31T14:14:40Z</time>
      </trkpt>
      <trkpt lat="46.23438" lon="-1.50577">
        <ele>-0.34</ele>
        <time>2016-08-31T14:14:47Z</time>
      </trkpt>
      <trkpt lat="46.23438" lon="-1.5058">
        <ele>-0.34</ele>
        <time>2016-08-31T14:14:48Z</time>
      </trkpt>
      <trkpt lat="46.23439" lon="-1.50583">
        <ele>-0.34</ele>
        <time>2016-08-31T14:14:49Z</time>
      </trkpt>
      <trkpt lat="46.2344" lon="-1.50586">
        <ele>-0.34</ele>
        <time>2016-08-31T14:14:50Z</time>
      </trkpt>
      <trkpt lat="46.23442" lon="-1.50589">
        <ele>0.14</ele>
        <time>2016-08-31T14:14:51Z</time>
      </trkpt>
      <trkpt lat="46.23445" lon="-1.5059">
        <ele>0.14</ele>
        <time>2016-08-31T14:14:52Z</time>
      </trkpt>
      <trkpt lat="46.23448" lon="-1.50592">
        <ele>0.14</ele>
        <time>2016-08-31T14:14:53Z</time>
      </trkpt>
      <trkpt lat="46.23474" lon="-1.5062">
        <ele>-0.34</ele>
        <time>2016-08-31T14:15:02Z</time>
      </trkpt>
      <trkpt lat="46.23478" lon="-1.50623">
        <ele>-0.34</ele>
        <time>2016-08-31T14:15:03Z</time>
      </trkpt>
      <trkpt lat="46.23481" lon="-1.50626">
        <ele>-0.34</ele>
        <time>2016-08-31T14:15:04Z</time>
      </trkpt>
      <trkpt lat="46.23485" lon="-1.50627">
        <ele>-0.34</ele>
        <time>2016-08-31T14:15:05Z</time>
      </trkpt>
      <trkpt lat="46.23488" lon="-1.50628">
        <ele>0.14</ele>
        <time>2016-08-31T14:15:06Z</time>
      </trkpt>
      <trkpt lat="46.23492" lon="-1.50629">
        <ele>0.14</ele>
        <time>2016-08-31T14:15:07Z</time>
      </trkpt>
      <trkpt lat="46.23496" lon="-1.5063">
        <ele>-0.34</ele>
        <time>2016-08-31T14:15:08Z</time>
      </trkpt>
      <trkpt lat="46.235" lon="-1.5063">
        <ele>0.14</ele>
        <time>2016-08-31T14:15:09Z</time>
      </trkpt>
      <trkpt lat="46.23504" lon="-1.50628">
        <ele>0.62</ele>
        <time>2016-08-31T14:15:10Z</time>
      </trkpt>
      <trkpt lat="46.23507" lon="-1.50626">
        <ele>0.14</ele>
        <time>2016-08-31T14:15:11Z</time>
      </trkpt>
      <trkpt lat="46.23538" lon="-1.506">
        <ele>0.14</ele>
        <time>2016-08-31T14:15:20Z</time>
      </trkpt>
      <trkpt lat="46.23542" lon="-1.50598">
        <ele>0.14</ele>
        <time>2016-08-31T14:15:21Z</time>
      </trkpt>
      <trkpt lat="46.23546" lon="-1.50597">
        <ele>-0.34</ele>
        <time>2016-08-31T14:15:22Z</time>
      </trkpt>
      <trkpt lat="46.23549" lon="-1.50597">
        <ele>-1.3</ele>
        <time>2016-08-31T14:15:23Z</time>
      </trkpt>
      <trkpt lat="46.23553" lon="-1.50598">
        <ele>-1.79</ele>
        <time>2016-08-31T14:15:24Z</time>
      </trkpt>
      <trkpt lat="46.23556" lon="-1.50602">
        <ele>-1.79</ele>
        <time>2016-08-31T14:15:25Z</time>
      </trkpt>
      <trkpt lat="46.23559" lon="-1.50606">
        <ele>-1.3</ele>
        <time>2016-08-31T14:15:26Z</time>
      </trkpt>
      <trkpt lat="46.23582" lon="-1.50645">
        <ele>-1.3</ele>
        <time>2016-08-31T14:15:35Z</time>
      </trkpt>
      <trkpt lat="46.23585" lon="-1.50649">
        <ele>-0.82</ele>
        <time>2016-08-31T14:15:36Z</time>
      </trkpt>
      <trkpt lat="46.23602" lon="-1.50677">
        <ele>-1.3</ele>
        <time>2016-08-31T14:15:42Z</time>
      </trkpt>
      <trkpt lat="46.23633" lon="-1.50729">
        <ele>-1.79</ele>
        <time>2016-08-31T14:15:54Z</time>
      </trkpt>
      <trkpt lat="46.23649" lon="-1.50757">
        <ele>-0.34</ele>
        <time>2016-08-31T14:16:02Z</time>
      </trkpt>
      <trkpt lat="46.23649" lon="-1.50761">
        <ele>0.62</ele>
        <time>2016-08-31T14:16:03Z</time>
      </trkpt>
      <trkpt lat="46.23647" lon="-1.50773">
        <ele>-0.82</ele>
        <time>2016-08-31T14:16:10Z</time>
      </trkpt>
      <trkpt lat="46.23648" lon="-1.50773">
        <ele>0.14</ele>
        <time>2016-08-31T14:16:33Z</time>
      </trkpt>
      <trkpt lat="46.23647" lon="-1.50781">
        <ele>0.62</ele>
        <time>2016-08-31T14:16:42Z</time>
      </trkpt>
      <trkpt lat="46.23646" lon="-1.50787">
        <ele>-0.34</ele>
        <time>2016-08-31T14:16:55Z</time>
      </trkpt>
      <trkpt lat="46.23644" lon="-1.50797">
        <ele>-0.82</ele>
        <time>2016-08-31T14:17:08Z</time>
      </trkpt>
      <trkpt lat="46.23644" lon="-1.50797">
        <ele>4.46</ele>
        <time>2016-08-31T14:17:21Z</time>
      </trkpt>
      <trkpt lat="46.23643" lon="-1.50797">
        <ele>1.58</ele>
        <time>2016-08-31T14:17:22Z</time>
      </trkpt>
      <trkpt lat="46.23643" lon="-1.50797">
        <ele>16.48</ele>
        <time>2016-08-31T14:17:26Z</time>
      </trkpt>
      <trkpt lat="46.23643" lon="-1.50797">
        <ele>0.62</ele>
        <time>2016-08-31T14:17:27Z</time>
      </trkpt>
      <trkpt lat="46.23643" lon="-1.50797">
        <ele>11.19</ele>
        <time>2016-08-31T14:17:28Z</time>
      </trkpt>
      <trkpt lat="46.23643" lon="-1.50797">
        <ele>1.58</ele>
        <time>2016-08-31T14:17:29Z</time>
      </trkpt>
      <trkpt lat="46.23643" lon="-1.50797">
        <ele>0.14</ele>
        <time>2016-08-31T14:17:31Z</time>
      </trkpt>
      <trkpt lat="46.23643" lon="-1.50797">
        <ele>14.08</ele>
        <time>2016-08-31T14:17:32Z</time>
      </trkpt>
      <trkpt lat="46.23643" lon="-1.50797">
        <ele>-0.34</ele>
        <time>2016-08-31T14:17:33Z</time>
      </trkpt>
      <trkpt lat="46.23643" lon="-1.50797">
        <ele>16.96</ele>
        <time>2016-08-31T14:17:34Z</time>
      </trkpt>
      <trkpt lat="46.23643" lon="-1.50797">
        <ele>2.06</ele>
        <time>2016-08-31T14:17:35Z</time>
      </trkpt>
      <trkpt lat="46.23643" lon="-1.50797">
        <ele>-21.01</ele>
        <time>2016-08-31T14:17:36Z</time>
      </trkpt>
      <trkpt lat="46.23643" lon="-1.50797">
        <ele>2.54</ele>
        <time>2016-08-31T14:17:37Z</time>
      </trkpt>
      <trkpt lat="46.23643" lon="-1.50797">
        <ele>-11.4</ele>
        <time>2016-08-31T14:17:39Z</time>
      </trkpt>
      <trkpt lat="46.23643" lon="-1.50797">
        <ele>4.94</ele>
        <time>2016-08-31T14:17:40Z</time>
      </trkpt>
      <trkpt lat="46.23643" lon="-1.50797">
        <ele>-18.61</ele>
        <time>2016-08-31T14:17:41Z</time>
      </trkpt>
      <trkpt lat="46.23643" lon="-1.50797">
        <ele>3.5</ele>
        <time>2016-08-31T14:17:42Z</time>
      </trkpt>
      <trkpt lat="46.23643" lon="-1.50797">
        <ele>13.6</ele>
        <time>2016-08-31T14:17:43Z</time>
      </trkpt>
      <trkpt lat="46.23643" lon="-1.50797">
        <ele>2.06</ele>
        <time>2016-08-31T14:17:44Z</time>
      </trkpt>
      <trkpt lat="46.23643" lon="-1.50797">
        <ele>10.23</ele>
        <time>2016-08-31T14:17:45Z</time>
      </trkpt>
      <trkpt lat="46.23643" lon="-1.50797">
        <ele>-12.36</ele>
        <time>2016-08-31T14:17:46Z</time>
      </trkpt>
      <trkpt lat="46.23643" lon="-1.50797">
        <ele>2.06</ele>
        <time>2016-08-31T14:17:47Z</time>
      </trkpt>
      <trkpt lat="46.23641" lon="-1.50804">
        <ele>-1.3</ele>
        <time>2016-08-31T14:18:03Z</time>
      </trkpt>
      <trkpt lat="46.23636" lon="-1.50835">
        <ele>-0.34</ele>
        <time>2016-08-31T14:18:11Z</time>
      </trkpt>
      <trkpt lat="46.23631" lon="-1.50866">
        <ele>-3.71</ele>
        <time>2016-08-31T14:18:17Z</time>
      </trkpt>
      <trkpt lat="46.23627" lon="-1.50875">
        <ele>3.5</ele>
        <time>2016-08-31T14:18:19Z</time>
      </trkpt>
      <trkpt lat="46.23625" lon="-1.50879">
        <ele>-0.34</ele>
        <time>2016-08-31T14:18:20Z</time>
      </trkpt>
      <trkpt lat="46.23606" lon="-1.50898">
        <ele>-0.82</ele>
        <time>2016-08-31T14:18:26Z</time>
      </trkpt>
      <trkpt lat="46.23587" lon="-1.50915">
        <ele>0.14</ele>
        <time>2016-08-31T14:18:34Z</time>
      </trkpt>
      <trkpt lat="46.23586" lon="-1.50916">
        <ele>-0.34</ele>
        <time>2016-08-31T14:18:35Z</time>
      </trkpt>
      <trkpt lat="46.23585" lon="-1.50916">
        <ele>0.14</ele>
        <time>2016-08-31T14:18:44Z</time>
      </trkpt>
      <trkpt lat="46.23585" lon="-1.50915">
        <ele>-0.34</ele>
        <time>2016-08-31T14:18:57Z</time>
      </trkpt>
      <trkpt lat="46.23585" lon="-1.50914">
        <ele>-0.82</ele>
        <time>2016-08-31T14:19:20Z</time>
      </trkpt>
      <trkpt lat="46.23585" lon="-1.50914">
        <ele>-0.34</ele>
        <time>2016-08-31T14:19:42Z</time>
      </trkpt>
      <trkpt lat="46.23584" lon="-1.50919">
        <ele>0.14</ele>
        <time>2016-08-31T14:19:50Z</time>
      </trkpt>
      <trkpt lat="46.23584" lon="-1.50921">
        <ele>-0.34</ele>
        <time>2016-08-31T14:20:02Z</time>
      </trkpt>
      <trkpt lat="46.23584" lon="-1.50921">
        <ele>-0.34</ele>
        <time>2016-08-31T14:20:22Z</time>
      </trkpt>
      <trkpt lat="46.23582" lon="-1.50922">
        <ele>-0.34</ele>
        <time>2016-08-31T14:20:43Z</time>
      </trkpt>
      <trkpt lat="46.2358" lon="-1.50923">
        <ele>-0.34</ele>
        <time>2016-08-31T14:20:44Z</time>
      </trkpt>
      <trkpt lat="46.23578" lon="-1.50925">
        <ele>-0.82</ele>
        <time>2016-08-31T14:20:45Z</time>
      </trkpt>
      <trkpt lat="46.23558" lon="-1.50944">
        <ele>0.14</ele>
        <time>2016-08-31T14:20:57Z</time>
      </trkpt>
      <trkpt lat="46.23532" lon="-1.50968">
        <ele>0.14</ele>
        <time>2016-08-31T14:21:10Z</time>
      </trkpt>
      <trkpt lat="46.23491" lon="-1.51004">
        <ele>0.62</ele>
        <time>2016-08-31T14:21:23Z</time>
      </trkpt>
      <trkpt lat="46.23439" lon="-1.51042">
        <ele>0.62</ele>
        <time>2016-08-31T14:21:36Z</time>
      </trkpt>
      <trkpt lat="46.23387" lon="-1.51091">
        <ele>-0.34</ele>
        <time>2016-08-31T14:21:50Z</time>
      </trkpt>
      <trkpt lat="46.23384" lon="-1.51096">
        <ele>-0.34</ele>
        <time>2016-08-31T14:21:51Z</time>
      </trkpt>
      <trkpt lat="46.23383" lon="-1.51102">
        <ele>-0.82</ele>
        <time>2016-08-31T14:21:52Z</time>
      </trkpt>
      <trkpt lat="46.23383" lon="-1.51108">
        <ele>-1.3</ele>
        <time>2016-08-31T14:21:53Z</time>
      </trkpt>
      <trkpt lat="46.23384" lon="-1.51114">
        <ele>-1.79</ele>
        <time>2016-08-31T14:21:54Z</time>
      </trkpt>
      <trkpt lat="46.23386" lon="-1.51119">
        <ele>-1.79</ele>
        <time>2016-08-31T14:21:55Z</time>
      </trkpt>
      <trkpt lat="46.23388" lon="-1.51125">
        <ele>-1.79</ele>
        <time>2016-08-31T14:21:56Z</time>
      </trkpt>
      <trkpt lat="46.23389" lon="-1.51131">
        <ele>-1.3</ele>
        <time>2016-08-31T14:21:57Z</time>
      </trkpt>
      <trkpt lat="46.23388" lon="-1.51137">
        <ele>-0.82</ele>
        <time>2016-08-31T14:21:58Z</time>
      </trkpt>
      <trkpt lat="46.23386" lon="-1.51142">
        <ele>-0.34</ele>
        <time>2016-08-31T14:21:59Z</time>
      </trkpt>
      <trkpt lat="46.23383" lon="-1.51146">
        <ele>-0.34</ele>
        <time>2016-08-31T14:22:00Z</time>
      </trkpt>
      <trkpt lat="46.2338" lon="-1.51151">
        <ele>-0.34</ele>
        <time>2016-08-31T14:22:01Z</time>
      </trkpt>
      <trkpt lat="46.23377" lon="-1.51156">
        <ele>-0.82</ele>
        <time>2016-08-31T14:22:02Z</time>
      </trkpt>
      <trkpt lat="46.23376" lon="-1.51162">
        <ele>-0.82</ele>
        <time>2016-08-31T14:22:03Z</time>
      </trkpt>
      <trkpt lat="46.23376" lon="-1.51168">
        <ele>-0.82</ele>
        <time>2016-08-31T14:22:04Z</time>
      </trkpt>
      <trkpt lat="46.23377" lon="-1.51174">
        <ele>-1.3</ele>
        <time>2016-08-31T14:22:05Z</time>
      </trkpt>
      <trkpt lat="46.23378" lon="-1.5118">
        <ele>-1.79</ele>
        <time>2016-08-31T14:22:06Z</time>
      </trkpt>
      <trkpt lat="46.2338" lon="-1.51186">
        <ele>-1.3</ele>
        <time>2016-08-31T14:22:07Z</time>
      </trkpt>
      <trkpt lat="46.23398" lon="-1.51239">
        <ele>-1.3</ele>
        <time>2016-08-31T14:22:16Z</time>
      </trkpt>
      <trkpt lat="46.23397" lon="-1.51244">
        <ele>-0.82</ele>
        <time>2016-08-31T14:22:17Z</time>
      </trkpt>
      <trkpt lat="46.23394" lon="-1.51249">
        <ele>-0.34</ele>
        <time>2016-08-31T14:22:18Z</time>
      </trkpt>
      <trkpt lat="46.23391" lon="-1.51252">
        <ele>0.62</ele>
        <time>2016-08-31T14:22:19Z</time>
      </trkpt>
      <trkpt lat="46.23387" lon="-1.51255">
        <ele>0.62</ele>
        <time>2016-08-31T14:22:20Z</time>
      </trkpt>
      <trkpt lat="46.23353" lon="-1.51272">
        <ele>1.1</ele>
        <time>2016-08-31T14:22:30Z</time>
      </trkpt>
      <trkpt lat="46.23346" lon="-1.51275">
        <ele>0.62</ele>
        <time>2016-08-31T14:22:38Z</time>
      </trkpt>
      <trkpt lat="46.23347" lon="-1.51275">
        <ele>1.58</ele>
        <time>2016-08-31T14:23:00Z</time>
      </trkpt>
      <trkpt lat="46.23346" lon="-1.51277">
        <ele>1.1</ele>
        <time>2016-08-31T14:23:22Z</time>
      </trkpt>
      <trkpt lat="46.23345" lon="-1.51278">
        <ele>1.58</ele>
        <time>2016-08-31T14:23:32Z</time>
      </trkpt>
      <trkpt lat="46.23345" lon="-1.5128">
        <ele>1.1</ele>
        <time>2016-08-31T14:23:33Z</time>
      </trkpt>
      <trkpt lat="46.23345" lon="-1.51282">
        <ele>0.14</ele>
        <time>2016-08-31T14:23:34Z</time>
      </trkpt>
      <trkpt lat="46.23347" lon="-1.51305">
        <ele>-2.27</ele>
        <time>2016-08-31T14:23:39Z</time>
      </trkpt>
      <trkpt lat="46.23349" lon="-1.5131">
        <ele>-1.79</ele>
        <time>2016-08-31T14:23:40Z</time>
      </trkpt>
      <trkpt lat="46.23351" lon="-1.51315">
        <ele>-1.79</ele>
        <time>2016-08-31T14:23:41Z</time>
      </trkpt>
      <trkpt lat="46.23353" lon="-1.5132">
        <ele>-2.27</ele>
        <time>2016-08-31T14:23:42Z</time>
      </trkpt>
      <trkpt lat="46.23355" lon="-1.51324">
        <ele>-1.79</ele>
        <time>2016-08-31T14:23:43Z</time>
      </trkpt>
      <trkpt lat="46.23357" lon="-1.51328">
        <ele>-2.27</ele>
        <time>2016-08-31T14:23:44Z</time>
      </trkpt>
      <trkpt lat="46.2336" lon="-1.51331">
        <ele>-1.79</ele>
        <time>2016-08-31T14:23:45Z</time>
      </trkpt>
      <trkpt lat="46.23366" lon="-1.51339">
        <ele>-1.79</ele>
        <time>2016-08-31T14:23:47Z</time>
      </trkpt>
      <trkpt lat="46.2337" lon="-1.51342">
        <ele>-1.79</ele>
        <time>2016-08-31T14:23:48Z</time>
      </trkpt>
      <trkpt lat="46.23373" lon="-1.51345">
        <ele>-1.79</ele>
        <time>2016-08-31T14:23:49Z</time>
      </trkpt>
      <trkpt lat="46.23377" lon="-1.51347">
        <ele>-2.27</ele>
        <time>2016-08-31T14:23:50Z</time>
      </trkpt>
      <trkpt lat="46.2338" lon="-1.51349">
        <ele>-2.75</ele>
        <time>2016-08-31T14:23:51Z</time>
      </trkpt>
      <trkpt lat="46.23384" lon="-1.51351">
        <ele>-1.3</ele>
        <time>2016-08-31T14:23:52Z</time>
      </trkpt>
      <trkpt lat="46.23388" lon="-1.51351">
        <ele>-1.79</ele>
        <time>2016-08-31T14:23:53Z</time>
      </trkpt>
      <trkpt lat="46.23393" lon="-1.51351">
        <ele>-2.27</ele>
        <time>2016-08-31T14:23:54Z</time>
      </trkpt>
      <trkpt lat="46.23397" lon="-1.5135">
        <ele>-1.79</ele>
        <time>2016-08-31T14:23:55Z</time>
      </trkpt>
      <trkpt lat="46.23401" lon="-1.51348">
        <ele>-1.79</ele>
        <time>2016-08-31T14:23:56Z</time>
      </trkpt>
      <trkpt lat="46.23412" lon="-1.51346">
        <ele>-1.79</ele>
        <time>2016-08-31T14:23:59Z</time>
      </trkpt>
      <trkpt lat="46.23416" lon="-1.51349">
        <ele>-2.27</ele>
        <time>2016-08-31T14:24:00Z</time>
      </trkpt>
      <trkpt lat="46.2342" lon="-1.51352">
        <ele>-1.79</ele>
        <time>2016-08-31T14:24:01Z</time>
      </trkpt>
      <trkpt lat="46.23468" lon="-1.51397">
        <ele>-2.27</ele>
        <time>2016-08-31T14:24:14Z</time>
      </trkpt>
      <trkpt lat="46.23507" lon="-1.51429">
        <ele>-0.82</ele>
        <time>2016-08-31T14:24:24Z</time>
      </trkpt>
      <trkpt lat="46.23512" lon="-1.51435">
        <ele>-0.82</ele>
        <time>2016-08-31T14:24:26Z</time>
      </trkpt>
      <trkpt lat="46.23513" lon="-1.51439">
        <ele>0.14</ele>
        <time>2016-08-31T14:24:27Z</time>
      </trkpt>
      <trkpt lat="46.23512" lon="-1.51444">
        <ele>0.14</ele>
        <time>2016-08-31T14:24:28Z</time>
      </trkpt>
      <trkpt lat="46.23506" lon="-1.51501">
        <ele>0.14</ele>
        <time>2016-08-31T14:24:40Z</time>
      </trkpt>
      <trkpt lat="46.23504" lon="-1.51506">
        <ele>0.14</ele>
        <time>2016-08-31T14:24:41Z</time>
      </trkpt>
      <trkpt lat="46.23477" lon="-1.51553">
        <ele>0.14</ele>
        <time>2016-08-31T14:24:52Z</time>
      </trkpt>
      <trkpt lat="46.23451" lon="-1.51602">
        <ele>-0.82</ele>
        <time>2016-08-31T14:25:03Z</time>
      </trkpt>
      <trkpt lat="46.23437" lon="-1.51653">
        <ele>-0.82</ele>
        <time>2016-08-31T14:25:12Z</time>
      </trkpt>
      <trkpt lat="46.23434" lon="-1.51658">
        <ele>0.14</ele>
        <time>2016-08-31T14:25:13Z</time>
      </trkpt>
      <trkpt lat="46.23431" lon="-1.51661">
        <ele>-0.82</ele>
        <time>2016-08-31T14:25:14Z</time>
      </trkpt>
      <trkpt lat="46.23427" lon="-1.51663">
        <ele>-0.34</ele>
        <time>2016-08-31T14:25:15Z</time>
      </trkpt>
      <trkpt lat="46.23423" lon="-1.51665">
        <ele>0.14</ele>
        <time>2016-08-31T14:25:16Z</time>
      </trkpt>
      <trkpt lat="46.23419" lon="-1.51667">
        <ele>-0.34</ele>
        <time>2016-08-31T14:25:17Z</time>
      </trkpt>
      <trkpt lat="46.23415" lon="-1.51669">
        <ele>-0.82</ele>
        <time>2016-08-31T14:25:18Z</time>
      </trkpt>
      <trkpt lat="46.23411" lon="-1.51673">
        <ele>0.14</ele>
        <time>2016-08-31T14:25:19Z</time>
      </trkpt>
      <trkpt lat="46.23373" lon="-1.5173">
        <ele>-0.34</ele>
        <time>2016-08-31T14:25:31Z</time>
      </trkpt>
      <trkpt lat="46.2334" lon="-1.51781">
        <ele>0.14</ele>
        <time>2016-08-31T14:25:42Z</time>
      </trkpt>
      <trkpt lat="46.23296" lon="-1.51841">
        <ele>-0.34</ele>
        <time>2016-08-31T14:25:55Z</time>
      </trkpt>
      <trkpt lat="46.23269" lon="-1.51888">
        <ele>0.62</ele>
        <time>2016-08-31T14:26:04Z</time>
      </trkpt>
      <trkpt lat="46.23266" lon="-1.51893">
        <ele>1.1</ele>
        <time>2016-08-31T14:26:05Z</time>
      </trkpt>
      <trkpt lat="46.23261" lon="-1.51896">
        <ele>1.1</ele>
        <time>2016-08-31T14:26:06Z</time>
      </trkpt>
      <trkpt lat="46.23257" lon="-1.51898">
        <ele>0.14</ele>
        <time>2016-08-31T14:26:07Z</time>
      </trkpt>
      <trkpt lat="46.23252" lon="-1.519">
        <ele>-0.34</ele>
        <time>2016-08-31T14:26:08Z</time>
      </trkpt>
      <trkpt lat="46.23239" lon="-1.51907">
        <ele>-0.34</ele>
        <time>2016-08-31T14:26:11Z</time>
      </trkpt>
      <trkpt lat="46.23234" lon="-1.5191">
        <ele>-0.34</ele>
        <time>2016-08-31T14:26:12Z</time>
      </trkpt>
      <trkpt lat="46.23212" lon="-1.51936">
        <ele>-0.34</ele>
        <time>2016-08-31T14:26:18Z</time>
      </trkpt>
      <trkpt lat="46.23209" lon="-1.51942">
        <ele>-0.34</ele>
        <time>2016-08-31T14:26:19Z</time>
      </trkpt>
      <trkpt lat="46.23207" lon="-1.51948">
        <ele>-0.34</ele>
        <time>2016-08-31T14:26:20Z</time>
      </trkpt>
      <trkpt lat="46.23205" lon="-1.51954">
        <ele>-0.82</ele>
        <time>2016-08-31T14:26:21Z</time>
      </trkpt>
      <trkpt lat="46.23204" lon="-1.5196">
        <ele>-0.82</ele>
        <time>2016-08-31T14:26:22Z</time>
      </trkpt>
      <trkpt lat="46.23186" lon="-1.52023">
        <ele>-0.82</ele>
        <time>2016-08-31T14:26:32Z</time>
      </trkpt>
      <trkpt lat="46.23168" lon="-1.52095">
        <ele>-0.82</ele>
        <time>2016-08-31T14:26:43Z</time>
      </trkpt>
      <trkpt lat="46.23167" lon="-1.52101">
        <ele>-0.82</ele>
        <time>2016-08-31T14:26:44Z</time>
      </trkpt>
      <trkpt lat="46.23167" lon="-1.52108">
        <ele>-0.82</ele>
        <time>2016-08-31T14:26:45Z</time>
      </trkpt>
      <trkpt lat="46.23167" lon="-1.52115">
        <ele>-1.3</ele>
        <time>2016-08-31T14:26:46Z</time>
      </trkpt>
      <trkpt lat="46.23168" lon="-1.52122">
        <ele>-1.3</ele>
        <time>2016-08-31T14:26:47Z</time>
      </trkpt>
      <trkpt lat="46.23169" lon="-1.52129">
        <ele>-1.3</ele>
        <time>2016-08-31T14:26:48Z</time>
      </trkpt>
      <trkpt lat="46.23184" lon="-1.52217">
        <ele>-1.79</ele>
        <time>2016-08-31T14:27:01Z</time>
      </trkpt>
      <trkpt lat="46.23194" lon="-1.5231">
        <ele>-1.79</ele>
        <time>2016-08-31T14:27:15Z</time>
      </trkpt>
      <trkpt lat="46.23196" lon="-1.52323">
        <ele>-1.79</ele>
        <time>2016-08-31T14:27:17Z</time>
      </trkpt>
      <trkpt lat="46.23196" lon="-1.5233">
        <ele>-2.27</ele>
        <time>2016-08-31T14:27:18Z</time>
      </trkpt>
      <trkpt lat="46.23194" lon="-1.52337">
        <ele>-1.79</ele>
        <time>2016-08-31T14:27:19Z</time>
      </trkpt>
      <trkpt lat="46.23192" lon="-1.52343">
        <ele>-1.79</ele>
        <time>2016-08-31T14:27:20Z</time>
      </trkpt>
      <trkpt lat="46.2319" lon="-1.52349">
        <ele>-1.79</ele>
        <time>2016-08-31T14:27:21Z</time>
      </trkpt>
      <trkpt lat="46.23187" lon="-1.52355">
        <ele>-1.79</ele>
        <time>2016-08-31T14:27:22Z</time>
      </trkpt>
      <trkpt lat="46.23185" lon="-1.52361">
        <ele>-1.79</ele>
        <time>2016-08-31T14:27:23Z</time>
      </trkpt>
      <trkpt lat="46.23151" lon="-1.52438">
        <ele>0.14</ele>
        <time>2016-08-31T14:27:36Z</time>
      </trkpt>
      <trkpt lat="46.23106" lon="-1.52504">
        <ele>-0.82</ele>
        <time>2016-08-31T14:27:49Z</time>
      </trkpt>
      <trkpt lat="46.23103" lon="-1.5251">
        <ele>-0.82</ele>
        <time>2016-08-31T14:27:50Z</time>
      </trkpt>
      <trkpt lat="46.23101" lon="-1.52517">
        <ele>-0.82</ele>
        <time>2016-08-31T14:27:51Z</time>
      </trkpt>
      <trkpt lat="46.23073" lon="-1.52583">
        <ele>-0.82</ele>
        <time>2016-08-31T14:28:02Z</time>
      </trkpt>
      <trkpt lat="46.23054" lon="-1.52673">
        <ele>-1.79</ele>
        <time>2016-08-31T14:28:15Z</time>
      </trkpt>
      <trkpt lat="46.23058" lon="-1.52752">
        <ele>-0.82</ele>
        <time>2016-08-31T14:28:26Z</time>
      </trkpt>
      <trkpt lat="46.23066" lon="-1.52847">
        <ele>-1.3</ele>
        <time>2016-08-31T14:28:39Z</time>
      </trkpt>
      <trkpt lat="46.23074" lon="-1.52938">
        <ele>-0.34</ele>
        <time>2016-08-31T14:28:52Z</time>
      </trkpt>
      <trkpt lat="46.2307" lon="-1.5304">
        <ele>-0.34</ele>
        <time>2016-08-31T14:29:06Z</time>
      </trkpt>
      <trkpt lat="46.23067" lon="-1.53054">
        <ele>-0.34</ele>
        <time>2016-08-31T14:29:08Z</time>
      </trkpt>
      <trkpt lat="46.23061" lon="-1.53074">
        <ele>-0.82</ele>
        <time>2016-08-31T14:29:11Z</time>
      </trkpt>
      <trkpt lat="46.23058" lon="-1.5308">
        <ele>-0.34</ele>
        <time>2016-08-31T14:29:12Z</time>
      </trkpt>
      <trkpt lat="46.23014" lon="-1.53138">
        <ele>-0.82</ele>
        <time>2016-08-31T14:29:23Z</time>
      </trkpt>
      <trkpt lat="46.22949" lon="-1.53205">
        <ele>-0.82</ele>
        <time>2016-08-31T14:29:38Z</time>
      </trkpt>
      <trkpt lat="46.22884" lon="-1.53273">
        <ele>0.14</ele>
        <time>2016-08-31T14:29:53Z</time>
      </trkpt>
      <trkpt lat="46.22835" lon="-1.53329">
        <ele>0.14</ele>
        <time>2016-08-31T14:30:05Z</time>
      </trkpt>
      <trkpt lat="46.22768" lon="-1.53401">
        <ele>-1.3</ele>
        <time>2016-08-31T14:30:20Z</time>
      </trkpt>
      <trkpt lat="46.2272" lon="-1.53442">
        <ele>-1.79</ele>
        <time>2016-08-31T14:30:30Z</time>
      </trkpt>
      <trkpt lat="46.22716" lon="-1.53447">
        <ele>-1.3</ele>
        <time>2016-08-31T14:30:31Z</time>
      </trkpt>
      <trkpt lat="46.22713" lon="-1.53453">
        <ele>-1.79</ele>
        <time>2016-08-31T14:30:32Z</time>
      </trkpt>
      <trkpt lat="46.2271" lon="-1.53457">
        <ele>-1.3</ele>
        <time>2016-08-31T14:30:33Z</time>
      </trkpt>
      <trkpt lat="46.22707" lon="-1.53458">
        <ele>-1.3</ele>
        <time>2016-08-31T14:30:34Z</time>
      </trkpt>
      <trkpt lat="46.22703" lon="-1.53455">
        <ele>-0.82</ele>
        <time>2016-08-31T14:30:35Z</time>
      </trkpt>
      <trkpt lat="46.22701" lon="-1.5345">
        <ele>-0.82</ele>
        <time>2016-08-31T14:30:36Z</time>
      </trkpt>
      <trkpt lat="46.22699" lon="-1.53445">
        <ele>-0.82</ele>
        <time>2016-08-31T14:30:37Z</time>
      </trkpt>
      <trkpt lat="46.22695" lon="-1.53432">
        <ele>-0.82</ele>
        <time>2016-08-31T14:30:39Z</time>
      </trkpt>
      <trkpt lat="46.22694" lon="-1.53424">
        <ele>-0.82</ele>
        <time>2016-08-31T14:30:40Z</time>
      </trkpt>
      <trkpt lat="46.22693" lon="-1.53416">
        <ele>-1.3</ele>
        <time>2016-08-31T14:30:41Z</time>
      </trkpt>
      <trkpt lat="46.22693" lon="-1.53408">
        <ele>-0.82</ele>
        <time>2016-08-31T14:30:42Z</time>
      </trkpt>
      <trkpt lat="46.22694" lon="-1.534">
        <ele>-1.3</ele>
        <time>2016-08-31T14:30:43Z</time>
      </trkpt>
      <trkpt lat="46.22695" lon="-1.53392">
        <ele>-0.82</ele>
        <time>2016-08-31T14:30:44Z</time>
      </trkpt>
      <trkpt lat="46.22696" lon="-1.53384">
        <ele>-1.3</ele>
        <time>2016-08-31T14:30:45Z</time>
      </trkpt>
      <trkpt lat="46.22695" lon="-1.53375">
        <ele>-1.3</ele>
        <time>2016-08-31T14:30:46Z</time>
      </trkpt>
      <trkpt lat="46.22695" lon="-1.53367">
        <ele>-1.3</ele>
        <time>2016-08-31T14:30:47Z</time>
      </trkpt>
      <trkpt lat="46.22694" lon="-1.53359">
        <ele>-0.82</ele>
        <time>2016-08-31T14:30:48Z</time>
      </trkpt>
      <trkpt lat="46.22692" lon="-1.53351">
        <ele>-0.82</ele>
        <time>2016-08-31T14:30:49Z</time>
      </trkpt>
      <trkpt lat="46.2269" lon="-1.53343">
        <ele>-0.82</ele>
        <time>2016-08-31T14:30:50Z</time>
      </trkpt>
      <trkpt lat="46.22659" lon="-1.53236">
        <ele>-0.34</ele>
        <time>2016-08-31T14:31:04Z</time>
      </trkpt>
      <trkpt lat="46.22651" lon="-1.53179">
        <ele>-0.82</ele>
        <time>2016-08-31T14:31:11Z</time>
      </trkpt>
      <trkpt lat="46.22648" lon="-1.53172">
        <ele>-0.34</ele>
        <time>2016-08-31T14:31:12Z</time>
      </trkpt>
      <trkpt lat="46.22644" lon="-1.53165">
        <ele>-0.34</ele>
        <time>2016-08-31T14:31:13Z</time>
      </trkpt>
      <trkpt lat="46.22608" lon="-1.53108">
        <ele>-0.34</ele>
        <time>2016-08-31T14:31:22Z</time>
      </trkpt>
      <trkpt lat="46.22604" lon="-1.53102">
        <ele>-0.82</ele>
        <time>2016-08-31T14:31:23Z</time>
      </trkpt>
      <trkpt lat="46.22601" lon="-1.53094">
        <ele>-0.34</ele>
        <time>2016-08-31T14:31:24Z</time>
      </trkpt>
      <trkpt lat="46.22566" lon="-1.52987">
        <ele>-0.34</ele>
        <time>2016-08-31T14:31:38Z</time>
      </trkpt>
      <trkpt lat="46.22525" lon="-1.52868">
        <ele>-0.34</ele>
        <time>2016-08-31T14:31:54Z</time>
      </trkpt>
      <trkpt lat="46.22477" lon="-1.52757">
        <ele>-0.34</ele>
        <time>2016-08-31T14:32:09Z</time>
      </trkpt>
      <trkpt lat="46.2244" lon="-1.52654">
        <ele>0.14</ele>
        <time>2016-08-31T14:32:22Z</time>
      </trkpt>
      <trkpt lat="46.22395" lon="-1.52567">
        <ele>0.62</ele>
        <time>2016-08-31T14:32:34Z</time>
      </trkpt>
      <trkpt lat="46.2239" lon="-1.5256">
        <ele>0.62</ele>
        <time>2016-08-31T14:32:35Z</time>
      </trkpt>
      <trkpt lat="46.22333" lon="-1.52513">
        <ele>-0.34</ele>
        <time>2016-08-31T14:32:45Z</time>
      </trkpt>
      <trkpt lat="46.22288" lon="-1.52486">
        <ele>-0.34</ele>
        <time>2016-08-31T14:32:53Z</time>
      </trkpt>
      <trkpt lat="46.22283" lon="-1.52481">
        <ele>0.14</ele>
        <time>2016-08-31T14:32:54Z</time>
      </trkpt>
      <trkpt lat="46.22279" lon="-1.52475">
        <ele>0.14</ele>
        <time>2016-08-31T14:32:55Z</time>
      </trkpt>
      <trkpt lat="46.22262" lon="-1.52449">
        <ele>0.14</ele>
        <time>2016-08-31T14:32:59Z</time>
      </trkpt>
      <trkpt lat="46.22257" lon="-1.52444">
        <ele>0.14</ele>
        <time>2016-08-31T14:33:00Z</time>
      </trkpt>
      <trkpt lat="46.22252" lon="-1.52439">
        <ele>0.14</ele>
        <time>2016-08-31T14:33:01Z</time>
      </trkpt>
      <trkpt lat="46.22247" lon="-1.52435">
        <ele>0.62</ele>
        <time>2016-08-31T14:33:02Z</time>
      </trkpt>
      <trkpt lat="46.22241" lon="-1.52433">
        <ele>0.62</ele>
        <time>2016-08-31T14:33:03Z</time>
      </trkpt>
      <trkpt lat="46.22235" lon="-1.52431">
        <ele>0.14</ele>
        <time>2016-08-31T14:33:04Z</time>
      </trkpt>
      <trkpt lat="46.2216" lon="-1.52421">
        <ele>0.62</ele>
        <time>2016-08-31T14:33:17Z</time>
      </trkpt>
      <trkpt lat="46.22093" lon="-1.5239">
        <ele>0.14</ele>
        <time>2016-08-31T14:33:29Z</time>
      </trkpt>
      <trkpt lat="46.22084" lon="-1.52379">
        <ele>-0.34</ele>
        <time>2016-08-31T14:33:31Z</time>
      </trkpt>
      <trkpt lat="46.22029" lon="-1.52314">
        <ele>-0.34</ele>
        <time>2016-08-31T14:33:43Z</time>
      </trkpt>
      <trkpt lat="46.21973" lon="-1.52224">
        <ele>0.14</ele>
        <time>2016-08-31T14:33:57Z</time>
      </trkpt>
      <trkpt lat="46.21927" lon="-1.52137">
        <ele>0.14</ele>
        <time>2016-08-31T14:34:10Z</time>
      </trkpt>
      <trkpt lat="46.21925" lon="-1.5213">
        <ele>0.14</ele>
        <time>2016-08-31T14:34:11Z</time>
      </trkpt>
      <trkpt lat="46.21924" lon="-1.52122">
        <ele>0.14</ele>
        <time>2016-08-31T14:34:12Z</time>
      </trkpt>
      <trkpt lat="46.21924" lon="-1.52113">
        <ele>-0.34</ele>
        <time>2016-08-31T14:34:13Z</time>
      </trkpt>
      <trkpt lat="46.21924" lon="-1.52104">
        <ele>-0.34</ele>
        <time>2016-08-31T14:34:14Z</time>
      </trkpt>
      <trkpt lat="46.21928" lon="-1.52062">
        <ele>-0.34</ele>
        <time>2016-08-31T14:34:19Z</time>
      </trkpt>
      <trkpt lat="46.21927" lon="-1.52054">
        <ele>-0.82</ele>
        <time>2016-08-31T14:34:20Z</time>
      </trkpt>
      <trkpt lat="46.21924" lon="-1.52047">
        <ele>-0.34</ele>
        <time>2016-08-31T14:34:21Z</time>
      </trkpt>
      <trkpt lat="46.2192" lon="-1.52042">
        <ele>0.14</ele>
        <time>2016-08-31T14:34:22Z</time>
      </trkpt>
      <trkpt lat="46.21915" lon="-1.52038">
        <ele>0.14</ele>
        <time>2016-08-31T14:34:23Z</time>
      </trkpt>
      <trkpt lat="46.21909" lon="-1.52034">
        <ele>0.14</ele>
        <time>2016-08-31T14:34:24Z</time>
      </trkpt>
      <trkpt lat="46.21853" lon="-1.51983">
        <ele>-0.34</ele>
        <time>2016-08-31T14:34:35Z</time>
      </trkpt>
      <trkpt lat="46.21794" lon="-1.51933">
        <ele>-0.34</ele>
        <time>2016-08-31T14:34:46Z</time>
      </trkpt>
      <trkpt lat="46.2179" lon="-1.51928">
        <ele>-0.34</ele>
        <time>2016-08-31T14:34:47Z</time>
      </trkpt>
      <trkpt lat="46.21787" lon="-1.51921">
        <ele>-0.34</ele>
        <time>2016-08-31T14:34:48Z</time>
      </trkpt>
      <trkpt lat="46.21784" lon="-1.51914">
        <ele>-0.34</ele>
        <time>2016-08-31T14:34:49Z</time>
      </trkpt>
      <trkpt lat="46.2178" lon="-1.51907">
        <ele>-0.82</ele>
        <time>2016-08-31T14:34:50Z</time>
      </trkpt>
      <trkpt lat="46.21776" lon="-1.51902">
        <ele>-0.34</ele>
        <time>2016-08-31T14:34:51Z</time>
      </trkpt>
      <trkpt lat="46.21771" lon="-1.51898">
        <ele>-0.34</ele>
        <time>2016-08-31T14:34:52Z</time>
      </trkpt>
      <trkpt lat="46.21766" lon="-1.51894">
        <ele>-0.82</ele>
        <time>2016-08-31T14:34:53Z</time>
      </trkpt>
      <trkpt lat="46.21709" lon="-1.51854">
        <ele>-1.3</ele>
        <time>2016-08-31T14:35:03Z</time>
      </trkpt>
      <trkpt lat="46.21691" lon="-1.51851">
        <ele>-0.82</ele>
        <time>2016-08-31T14:35:06Z</time>
      </trkpt>
      <trkpt lat="46.21685" lon="-1.51853">
        <ele>-1.3</ele>
        <time>2016-08-31T14:35:07Z</time>
      </trkpt>
      <trkpt lat="46.21679" lon="-1.51854">
        <ele>-0.82</ele>
        <time>2016-08-31T14:35:08Z</time>
      </trkpt>
      <trkpt lat="46.21649" lon="-1.5185">
        <ele>-1.3</ele>
        <time>2016-08-31T14:35:13Z</time>
      </trkpt>
      <trkpt lat="46.21643" lon="-1.51847">
        <ele>-1.3</ele>
        <time>2016-08-31T14:35:14Z</time>
      </trkpt>
      <trkpt lat="46.21574" lon="-1.51792">
        <ele>-1.3</ele>
        <time>2016-08-31T14:35:27Z</time>
      </trkpt>
      <trkpt lat="46.21541" lon="-1.51761">
        <ele>-0.34</ele>
        <time>2016-08-31T14:35:34Z</time>
      </trkpt>
      <trkpt lat="46.21533" lon="-1.51749">
        <ele>-0.82</ele>
        <time>2016-08-31T14:35:36Z</time>
      </trkpt>
      <trkpt lat="46.2153" lon="-1.51742">
        <ele>0.14</ele>
        <time>2016-08-31T14:35:37Z</time>
      </trkpt>
      <trkpt lat="46.21501" lon="-1.51688">
        <ele>-0.82</ele>
        <time>2016-08-31T14:35:45Z</time>
      </trkpt>
      <trkpt lat="46.21496" lon="-1.51682">
        <ele>-0.34</ele>
        <time>2016-08-31T14:35:46Z</time>
      </trkpt>
      <trkpt lat="46.21491" lon="-1.51677">
        <ele>-0.82</ele>
        <time>2016-08-31T14:35:47Z</time>
      </trkpt>
      <trkpt lat="46.21442" lon="-1.51641">
        <ele>-0.82</ele>
        <time>2016-08-31T14:35:56Z</time>
      </trkpt>
      <trkpt lat="46.21382" lon="-1.51624">
        <ele>-0.82</ele>
        <time>2016-08-31T14:36:06Z</time>
      </trkpt>
      <trkpt lat="46.21312" lon="-1.51581">
        <ele>-1.3</ele>
        <time>2016-08-31T14:36:19Z</time>
      </trkpt>
      <trkpt lat="46.21256" lon="-1.51536">
        <ele>-0.82</ele>
        <time>2016-08-31T14:36:30Z</time>
      </trkpt>
      <trkpt lat="46.21252" lon="-1.51531">
        <ele>-1.3</ele>
        <time>2016-08-31T14:36:31Z</time>
      </trkpt>
      <trkpt lat="46.21248" lon="-1.51525">
        <ele>-0.82</ele>
        <time>2016-08-31T14:36:32Z</time>
      </trkpt>
      <trkpt lat="46.2121" lon="-1.51464">
        <ele>-1.3</ele>
        <time>2016-08-31T14:36:42Z</time>
      </trkpt>
      <trkpt lat="46.2115" lon="-1.51412">
        <ele>-0.82</ele>
        <time>2016-08-31T14:36:54Z</time>
      </trkpt>
      <trkpt lat="46.21114" lon="-1.51359">
        <ele>-0.82</ele>
        <time>2016-08-31T14:37:04Z</time>
      </trkpt>
      <trkpt lat="46.21104" lon="-1.51338">
        <ele>-0.34</ele>
        <time>2016-08-31T14:37:09Z</time>
      </trkpt>
      <trkpt lat="46.21102" lon="-1.51338">
        <ele>0.14</ele>
        <time>2016-08-31T14:37:10Z</time>
      </trkpt>
      <trkpt lat="46.211" lon="-1.51339">
        <ele>0.14</ele>
        <time>2016-08-31T14:37:11Z</time>
      </trkpt>
      <trkpt lat="46.21099" lon="-1.5134">
        <ele>0.62</ele>
        <time>2016-08-31T14:37:12Z</time>
      </trkpt>
      <trkpt lat="46.21097" lon="-1.5134">
        <ele>-0.34</ele>
        <time>2016-08-31T14:37:13Z</time>
      </trkpt>
      <trkpt lat="46.21096" lon="-1.51339">
        <ele>0.14</ele>
        <time>2016-08-31T14:37:14Z</time>
      </trkpt>
      <trkpt lat="46.21085" lon="-1.51303">
        <ele>-0.34</ele>
        <time>2016-08-31T14:37:22Z</time>
      </trkpt>
      <trkpt lat="46.21078" lon="-1.51276">
        <ele>0.14</ele>
        <time>2016-08-31T14:37:26Z</time>
      </trkpt>
      <trkpt lat="46.2107" lon="-1.51226">
        <ele>0.62</ele>
        <time>2016-08-31T14:37:33Z</time>
      </trkpt>
      <trkpt lat="46.21067" lon="-1.51221">
        <ele>0.62</ele>
        <time>2016-08-31T14:37:34Z</time>
      </trkpt>
      <trkpt lat="46.21064" lon="-1.51218">
        <ele>0.14</ele>
        <time>2016-08-31T14:37:35Z</time>
      </trkpt>
      <trkpt lat="46.2106" lon="-1.51217">
        <ele>0.62</ele>
        <time>2016-08-31T14:37:36Z</time>
      </trkpt>
      <trkpt lat="46.21056" lon="-1.51218">
        <ele>0.14</ele>
        <time>2016-08-31T14:37:37Z</time>
      </trkpt>
      <trkpt lat="46.21043" lon="-1.51224">
        <ele>0.14</ele>
        <time>2016-08-31T14:37:40Z</time>
      </trkpt>
      <trkpt lat="46.21039" lon="-1.51226">
        <ele>-0.34</ele>
        <time>2016-08-31T14:37:41Z</time>
      </trkpt>
      <trkpt lat="46.21036" lon="-1.51231">
        <ele>0.14</ele>
        <time>2016-08-31T14:37:42Z</time>
      </trkpt>
      <trkpt lat="46.21034" lon="-1.51235">
        <ele>-0.34</ele>
        <time>2016-08-31T14:37:43Z</time>
      </trkpt>
      <trkpt lat="46.21032" lon="-1.51239">
        <ele>-0.34</ele>
        <time>2016-08-31T14:37:44Z</time>
      </trkpt>
      <trkpt lat="46.21029" lon="-1.51242">
        <ele>-0.34</ele>
        <time>2016-08-31T14:37:45Z</time>
      </trkpt>
      <trkpt lat="46.21026" lon="-1.51245">
        <ele>-0.34</ele>
        <time>2016-08-31T14:37:47Z</time>
      </trkpt>
      <trkpt lat="46.21025" lon="-1.51244">
        <ele>0.14</ele>
        <time>2016-08-31T14:37:55Z</time>
      </trkpt>
      <trkpt lat="46.21024" lon="-1.51244">
        <ele>0.14</ele>
        <time>2016-08-31T14:38:06Z</time>
      </trkpt>
      <trkpt lat="46.21025" lon="-1.51245">
        <ele>-0.34</ele>
        <time>2016-08-31T14:38:27Z</time>
      </trkpt>
      <trkpt lat="46.21026" lon="-1.51246">
        <ele>0.14</ele>
        <time>2016-08-31T14:38:48Z</time>
      </trkpt>
      <trkpt lat="46.21025" lon="-1.51247">
        <ele>0.14</ele>
        <time>2016-08-31T14:39:15Z</time>
      </trkpt>
      <trkpt lat="46.21025" lon="-1.51248">
        <ele>0.14</ele>
        <time>2016-08-31T14:39:37Z</time>
      </trkpt>
      <trkpt lat="46.21025" lon="-1.51247">
        <ele>-0.34</ele>
        <time>2016-08-31T14:40:05Z</time>
      </trkpt>
      <trkpt lat="46.21025" lon="-1.51246">
        <ele>0.14</ele>
        <time>2016-08-31T14:40:39Z</time>
      </trkpt>
      <trkpt lat="46.21025" lon="-1.51246">
        <ele>-0.34</ele>
        <time>2016-08-31T14:41:05Z</time>
      </trkpt>
      <trkpt lat="46.21025" lon="-1.51246">
        <ele>-0.34</ele>
        <time>2016-08-31T14:41:33Z</time>
      </trkpt>
      <trkpt lat="46.21025" lon="-1.51246">
        <ele>-0.34</ele>
        <time>2016-08-31T14:42:02Z</time>
      </trkpt>
      <trkpt lat="46.21024" lon="-1.51246">
        <ele>-0.82</ele>
        <time>2016-08-31T14:42:27Z</time>
      </trkpt>
      <trkpt lat="46.21024" lon="-1.51246">
        <ele>-0.82</ele>
        <time>2016-08-31T14:42:50Z</time>
      </trkpt>
      <trkpt lat="46.21024" lon="-1.51246">
        <ele>-0.82</ele>
        <time>2016-08-31T14:43:22Z</time>
      </trkpt>
      <trkpt lat="46.21024" lon="-1.51247">
        <ele>-0.82</ele>
        <time>2016-08-31T14:43:54Z</time>
      </trkpt>
      <trkpt lat="46.21025" lon="-1.51247">
        <ele>-1.3</ele>
        <time>2016-08-31T14:44:24Z</time>
      </trkpt>
      <trkpt lat="46.21024" lon="-1.51246">
        <ele>-0.82</ele>
        <time>2016-08-31T14:44:53Z</time>
      </trkpt>
      <trkpt lat="46.21024" lon="-1.51245">
        <ele>-1.3</ele>
        <time>2016-08-31T14:45:19Z</time>
      </trkpt>
      <trkpt lat="46.21024" lon="-1.51244">
        <ele>-1.3</ele>
        <time>2016-08-31T14:45:48Z</time>
      </trkpt>
      <trkpt lat="46.21025" lon="-1.51244">
        <ele>-1.3</ele>
        <time>2016-08-31T14:46:18Z</time>
      </trkpt>
      <trkpt lat="46.21026" lon="-1.51246">
        <ele>-1.3</ele>
        <time>2016-08-31T14:46:49Z</time>
      </trkpt>
      <trkpt lat="46.21026" lon="-1.51246">
        <ele>-1.3</ele>
        <time>2016-08-31T14:47:22Z</time>
      </trkpt>
      <trkpt lat="46.21025" lon="-1.51246">
        <ele>-1.3</ele>
        <time>2016-08-31T14:47:52Z</time>
      </trkpt>
      <trkpt lat="46.21025" lon="-1.51245">
        <ele>-1.3</ele>
        <time>2016-08-31T14:48:22Z</time>
      </trkpt>
      <trkpt lat="46.21025" lon="-1.51244">
        <ele>-1.79</ele>
        <time>2016-08-31T14:48:51Z</time>
      </trkpt>
      <trkpt lat="46.21025" lon="-1.51244">
        <ele>-1.79</ele>
        <time>2016-08-31T14:49:19Z</time>
      </trkpt>
      <trkpt lat="46.21026" lon="-1.51244">
        <ele>-1.79</ele>
        <time>2016-08-31T14:49:46Z</time>
      </trkpt>
      <trkpt lat="46.21026" lon="-1.51245">
        <ele>-1.79</ele>
        <time>2016-08-31T14:50:12Z</time>
      </trkpt>
      <trkpt lat="46.21025" lon="-1.51246">
        <ele>-1.79</ele>
        <time>2016-08-31T14:50:35Z</time>
      </trkpt>
      <trkpt lat="46.21025" lon="-1.51246">
        <ele>-2.27</ele>
        <time>2016-08-31T14:51:04Z</time>
      </trkpt>
      <trkpt lat="46.21024" lon="-1.51246">
        <ele>-2.27</ele>
        <time>2016-08-31T14:51:31Z</time>
      </trkpt>
      <trkpt lat="46.21024" lon="-1.51247">
        <ele>-2.27</ele>
        <time>2016-08-31T14:52:00Z</time>
      </trkpt>
      <trkpt lat="46.21024" lon="-1.51247">
        <ele>-2.27</ele>
        <time>2016-08-31T14:52:26Z</time>
      </trkpt>
      <trkpt lat="46.21023" lon="-1.51246">
        <ele>-2.27</ele>
        <time>2016-08-31T14:52:56Z</time>
      </trkpt>
      <trkpt lat="46.21023" lon="-1.51246">
        <ele>-2.27</ele>
        <time>2016-08-31T14:53:30Z</time>
      </trkpt>
      <trkpt lat="46.21023" lon="-1.51246">
        <ele>-2.27</ele>
        <time>2016-08-31T14:53:59Z</time>
      </trkpt>
      <trkpt lat="46.21023" lon="-1.51246">
        <ele>-2.27</ele>
        <time>2016-08-31T14:54:33Z</time>
      </trkpt>
      <trkpt lat="46.21024" lon="-1.51246">
        <ele>-2.27</ele>
        <time>2016-08-31T14:55:02Z</time>
      </trkpt>
      <trkpt lat="46.21025" lon="-1.51246">
        <ele>-2.27</ele>
        <time>2016-08-31T14:55:33Z</time>
      </trkpt>
      <trkpt lat="46.21025" lon="-1.51246">
        <ele>-1.79</ele>
        <time>2016-08-31T14:56:04Z</time>
      </trkpt>
      <trkpt lat="46.21026" lon="-1.51246">
        <ele>-1.79</ele>
        <time>2016-08-31T14:56:30Z</time>
      </trkpt>
      <trkpt lat="46.21026" lon="-1.51245">
        <ele>-1.79</ele>
        <time>2016-08-31T14:57:02Z</time>
      </trkpt>
      <trkpt lat="46.21026" lon="-1.51243">
        <ele>-2.27</ele>
        <time>2016-08-31T14:57:31Z</time>
      </trkpt>
      <trkpt lat="46.21027" lon="-1.51243">
        <ele>-1.79</ele>
        <time>2016-08-31T14:58:03Z</time>
      </trkpt>
      <trkpt lat="46.21026" lon="-1.51244">
        <ele>-1.79</ele>
        <time>2016-08-31T14:58:38Z</time>
      </trkpt>
      <trkpt lat="46.21025" lon="-1.51246">
        <ele>-1.79</ele>
        <time>2016-08-31T14:59:12Z</time>
      </trkpt>
      <trkpt lat="46.21025" lon="-1.51247">
        <ele>-2.27</ele>
        <time>2016-08-31T14:59:44Z</time>
      </trkpt>
      <trkpt lat="46.21025" lon="-1.51247">
        <ele>-1.79</ele>
        <time>2016-08-31T15:00:18Z</time>
      </trkpt>
      <trkpt lat="46.21024" lon="-1.51246">
        <ele>-1.79</ele>
        <time>2016-08-31T15:00:53Z</time>
      </trkpt>
      <trkpt lat="46.21023" lon="-1.51246">
        <ele>-1.79</ele>
        <time>2016-08-31T15:01:24Z</time>
      </trkpt>
      <trkpt lat="46.21024" lon="-1.51246">
        <ele>-1.79</ele>
        <time>2016-08-31T15:01:53Z</time>
      </trkpt>
      <trkpt lat="46.21023" lon="-1.51245">
        <ele>-1.79</ele>
        <time>2016-08-31T15:02:23Z</time>
      </trkpt>
      <trkpt lat="46.21023" lon="-1.51246">
        <ele>-1.79</ele>
        <time>2016-08-31T15:02:53Z</time>
      </trkpt>
      <trkpt lat="46.21023" lon="-1.51246">
        <ele>-1.79</ele>
        <time>2016-08-31T15:03:22Z</time>
      </trkpt>
      <trkpt lat="46.21023" lon="-1.51246">
        <ele>-1.79</ele>
        <time>2016-08-31T15:03:52Z</time>
      </trkpt>
      <trkpt lat="46.21023" lon="-1.51246">
        <ele>-1.79</ele>
        <time>2016-08-31T15:04:27Z</time>
      </trkpt>
      <trkpt lat="46.21023" lon="-1.51246">
        <ele>-1.79</ele>
        <time>2016-08-31T15:05:01Z</time>
      </trkpt>
      <trkpt lat="46.21023" lon="-1.51246">
        <ele>-2.27</ele>
        <time>2016-08-31T15:05:27Z</time>
      </trkpt>
      <trkpt lat="46.21024" lon="-1.51245">
        <ele>-1.3</ele>
        <time>2016-08-31T15:06:00Z</time>
      </trkpt>
      <trkpt lat="46.21024" lon="-1.51244">
        <ele>-1.79</ele>
        <time>2016-08-31T15:06:28Z</time>
      </trkpt>
      <trkpt lat="46.21024" lon="-1.51245">
        <ele>-2.27</ele>
        <time>2016-08-31T15:06:59Z</time>
      </trkpt>
      <trkpt lat="46.21024" lon="-1.51247">
        <ele>-0.82</ele>
        <time>2016-08-31T15:07:27Z</time>
      </trkpt>
      <trkpt lat="46.21024" lon="-1.51247">
        <ele>-1.79</ele>
        <time>2016-08-31T15:07:56Z</time>
      </trkpt>
      <trkpt lat="46.21024" lon="-1.51247">
        <ele>-0.82</ele>
        <time>2016-08-31T15:08:25Z</time>
      </trkpt>
      <trkpt lat="46.21024" lon="-1.51247">
        <ele>-0.82</ele>
        <time>2016-08-31T15:08:53Z</time>
      </trkpt>
      <trkpt lat="46.21023" lon="-1.51248">
        <ele>-1.79</ele>
        <time>2016-08-31T15:09:23Z</time>
      </trkpt>
      <trkpt lat="46.21023" lon="-1.51249">
        <ele>-1.3</ele>
        <time>2016-08-31T15:09:46Z</time>
      </trkpt>
      <trkpt lat="46.21024" lon="-1.51248">
        <ele>-1.79</ele>
        <time>2016-08-31T15:10:16Z</time>
      </trkpt>
      <trkpt lat="46.21024" lon="-1.51248">
        <ele>-1.3</ele>
        <time>2016-08-31T15:10:47Z</time>
      </trkpt>
      <trkpt lat="46.21026" lon="-1.51247">
        <ele>-1.3</ele>
        <time>2016-08-31T15:11:16Z</time>
      </trkpt>
      <trkpt lat="46.21026" lon="-1.51246">
        <ele>-1.3</ele>
        <time>2016-08-31T15:11:43Z</time>
      </trkpt>
      <trkpt lat="46.21026" lon="-1.51247">
        <ele>-1.3</ele>
        <time>2016-08-31T15:12:13Z</time>
      </trkpt>
      <trkpt lat="46.21025" lon="-1.51247">
        <ele>-1.3</ele>
        <time>2016-08-31T15:12:43Z</time>
      </trkpt>
      <trkpt lat="46.21024" lon="-1.51247">
        <ele>-1.3</ele>
        <time>2016-08-31T15:13:14Z</time>
      </trkpt>
      <trkpt lat="46.21024" lon="-1.51247">
        <ele>-1.79</ele>
        <time>2016-08-31T15:13:39Z</time>
      </trkpt>
      <trkpt lat="46.21024" lon="-1.51247">
        <ele>-1.3</ele>
        <time>2016-08-31T15:14:03Z</time>
      </trkpt>
      <trkpt lat="46.21024" lon="-1.51247">
        <ele>-1.79</ele>
        <time>2016-08-31T15:14:28Z</time>
      </trkpt>
      <trkpt lat="46.21025" lon="-1.51246">
        <ele>-1.79</ele>
        <time>2016-08-31T15:14:52Z</time>
      </trkpt>
      <trkpt lat="46.21025" lon="-1.51246">
        <ele>-1.79</ele>
        <time>2016-08-31T15:15:13Z</time>
      </trkpt>
      <trkpt lat="46.21025" lon="-1.51247">
        <ele>-1.79</ele>
        <time>2016-08-31T15:15:38Z</time>
      </trkpt>
      <trkpt lat="46.21025" lon="-1.51247">
        <ele>-1.79</ele>
        <time>2016-08-31T15:16:04Z</time>
      </trkpt>
      <trkpt lat="46.21025" lon="-1.51247">
        <ele>-1.79</ele>
        <time>2016-08-31T15:16:36Z</time>
      </trkpt>
      <trkpt lat="46.21025" lon="-1.51247">
        <ele>-1.79</ele>
        <time>2016-08-31T15:17:03Z</time>
      </trkpt>
      <trkpt lat="46.21025" lon="-1.51248">
        <ele>-1.79</ele>
        <time>2016-08-31T15:17:36Z</time>
      </trkpt>
      <trkpt lat="46.21025" lon="-1.51247">
        <ele>-1.3</ele>
        <time>2016-08-31T15:18:08Z</time>
      </trkpt>
      <trkpt lat="46.21025" lon="-1.51247">
        <ele>-1.79</ele>
        <time>2016-08-31T15:18:34Z</time>
      </trkpt>
      <trkpt lat="46.21025" lon="-1.51248">
        <ele>-1.79</ele>
        <time>2016-08-31T15:19:04Z</time>
      </trkpt>
      <trkpt lat="46.21025" lon="-1.51248">
        <ele>-2.27</ele>
        <time>2016-08-31T15:19:34Z</time>
      </trkpt>
      <trkpt lat="46.21025" lon="-1.51249">
        <ele>-1.79</ele>
        <time>2016-08-31T15:20:06Z</time>
      </trkpt>
      <trkpt lat="46.21024" lon="-1.51249">
        <ele>-1.79</ele>
        <time>2016-08-31T15:20:34Z</time>
      </trkpt>
      <trkpt lat="46.21024" lon="-1.51249">
        <ele>-1.3</ele>
        <time>2016-08-31T15:21:06Z</time>
      </trkpt>
      <trkpt lat="46.21025" lon="-1.51248">
        <ele>-1.3</ele>
        <time>2016-08-31T15:21:34Z</time>
      </trkpt>
      <trkpt lat="46.21024" lon="-1.51248">
        <ele>-1.3</ele>
        <time>2016-08-31T15:22:00Z</time>
      </trkpt>
      <trkpt lat="46.21024" lon="-1.51247">
        <ele>-1.3</ele>
        <time>2016-08-31T15:22:27Z</time>
      </trkpt>
      <trkpt lat="46.21024" lon="-1.51248">
        <ele>-0.82</ele>
        <time>2016-08-31T15:22:52Z</time>
      </trkpt>
      <trkpt lat="46.21025" lon="-1.51248">
        <ele>-1.3</ele>
        <time>2016-08-31T15:23:23Z</time>
      </trkpt>
      <trkpt lat="46.21025" lon="-1.51247">
        <ele>-1.79</ele>
        <time>2016-08-31T15:23:56Z</time>
      </trkpt>
      <trkpt lat="46.21025" lon="-1.51247">
        <ele>-1.3</ele>
        <time>2016-08-31T15:24:22Z</time>
      </trkpt>
      <trkpt lat="46.21024" lon="-1.51246">
        <ele>-1.3</ele>
        <time>2016-08-31T15:24:48Z</time>
      </trkpt>
      <trkpt lat="46.21023" lon="-1.51247">
        <ele>-1.3</ele>
        <time>2016-08-31T15:25:21Z</time>
      </trkpt>
      <trkpt lat="46.21023" lon="-1.51247">
        <ele>-0.82</ele>
        <time>2016-08-31T15:25:53Z</time>
      </trkpt>
      <trkpt lat="46.21023" lon="-1.51246">
        <ele>-1.3</ele>
        <time>2016-08-31T15:26:21Z</time>
      </trkpt>
      <trkpt lat="46.21022" lon="-1.51244">
        <ele>-0.82</ele>
        <time>2016-08-31T15:26:57Z</time>
      </trkpt>
      <trkpt lat="46.21023" lon="-1.51243">
        <ele>-0.82</ele>
        <time>2016-08-31T15:27:27Z</time>
      </trkpt>
      <trkpt lat="46.21024" lon="-1.51245">
        <ele>1.1</ele>
        <time>2016-08-31T15:27:47Z</time>
      </trkpt>
      <trkpt lat="46.21024" lon="-1.51245">
        <ele>3.98</ele>
        <time>2016-08-31T15:27:48Z</time>
      </trkpt>
      <trkpt lat="46.21024" lon="-1.51245">
        <ele>-4.19</ele>
        <time>2016-08-31T15:27:49Z</time>
      </trkpt>
      <trkpt lat="46.21024" lon="-1.51245">
        <ele>-3.23</ele>
        <time>2016-08-31T15:27:50Z</time>
      </trkpt>
      <trkpt lat="46.21024" lon="-1.51245">
        <ele>12.63</ele>
        <time>2016-08-31T15:27:51Z</time>
      </trkpt>
      <trkpt lat="46.21024" lon="-1.51245">
        <ele>-0.82</ele>
        <time>2016-08-31T15:27:52Z</time>
      </trkpt>
      <trkpt lat="46.21024" lon="-1.51245">
        <ele>-10.92</ele>
        <time>2016-08-31T15:27:56Z</time>
      </trkpt>
      <trkpt lat="46.21024" lon="-1.51245">
        <ele>0.62</ele>
        <time>2016-08-31T15:27:57Z</time>
      </trkpt>
      <trkpt lat="46.21024" lon="-1.51245">
        <ele>-0.34</ele>
        <time>2016-08-31T15:28:00Z</time>
      </trkpt>
      <trkpt lat="46.21024" lon="-1.51245">
        <ele>6.39</ele>
        <time>2016-08-31T15:28:01Z</time>
      </trkpt>
      <trkpt lat="46.21024" lon="-1.51245">
        <ele>-0.34</ele>
        <time>2016-08-31T15:28:02Z</time>
      </trkpt>
      <trkpt lat="46.21024" lon="-1.51245">
        <ele>10.23</ele>
        <time>2016-08-31T15:28:03Z</time>
      </trkpt>
      <trkpt lat="46.21024" lon="-1.51245">
        <ele>-15.24</ele>
        <time>2016-08-31T15:28:04Z</time>
      </trkpt>
      <trkpt lat="46.21024" lon="-1.51245">
        <ele>1.58</ele>
        <time>2016-08-31T15:28:05Z</time>
      </trkpt>
      <trkpt lat="46.21024" lon="-1.51245">
        <ele>9.75</ele>
        <time>2016-08-31T15:28:06Z</time>
      </trkpt>
      <trkpt lat="46.21024" lon="-1.51245">
        <ele>-3.23</ele>
        <time>2016-08-31T15:28:07Z</time>
      </trkpt>
      <trkpt lat="46.21023" lon="-1.51245">
        <ele>6.87</ele>
        <time>2016-08-31T15:28:08Z</time>
      </trkpt>
      <trkpt lat="46.21023" lon="-1.51245">
        <ele>-0.34</ele>
        <time>2016-08-31T15:28:09Z</time>
      </trkpt>
      <trkpt lat="46.21023" lon="-1.51245">
        <ele>-10.92</ele>
        <time>2016-08-31T15:28:12Z</time>
      </trkpt>
      <trkpt lat="46.21023" lon="-1.51245">
        <ele>-1.3</ele>
        <time>2016-08-31T15:28:13Z</time>
      </trkpt>
      <trkpt lat="46.21023" lon="-1.51245">
        <ele>4.46</ele>
        <time>2016-08-31T15:28:14Z</time>
      </trkpt>
      <trkpt lat="46.21023" lon="-1.51245">
        <ele>-0.34</ele>
        <time>2016-08-31T15:28:15Z</time>
      </trkpt>
      <trkpt lat="46.21023" lon="-1.51245">
        <ele>-6.59</ele>
        <time>2016-08-31T15:28:17Z</time>
      </trkpt>
      <trkpt lat="46.21023" lon="-1.51245">
        <ele>6.39</ele>
        <time>2016-08-31T15:28:18Z</time>
      </trkpt>
      <trkpt lat="46.21023" lon="-1.51245">
        <ele>-0.82</ele>
        <time>2016-08-31T15:28:19Z</time>
      </trkpt>
      <trkpt lat="46.21023" lon="-1.51245">
        <ele>3.5</ele>
        <time>2016-08-31T15:28:21Z</time>
      </trkpt>
      <trkpt lat="46.21023" lon="-1.51245">
        <ele>-0.34</ele>
        <time>2016-08-31T15:28:22Z</time>
      </trkpt>
      <trkpt lat="46.21023" lon="-1.51245">
        <ele>-0.34</ele>
        <time>2016-08-31T15:28:46Z</time>
      </trkpt>
      <trkpt lat="46.21023" lon="-1.51246">
        <ele>-0.34</ele>
        <time>2016-08-31T15:29:12Z</time>
      </trkpt>
      <trkpt lat="46.21023" lon="-1.51245">
        <ele>-0.34</ele>
        <time>2016-08-31T15:29:34Z</time>
      </trkpt>
      <trkpt lat="46.21024" lon="-1.51244">
        <ele>-0.82</ele>
        <time>2016-08-31T15:30:02Z</time>
      </trkpt>
      <trkpt lat="46.21024" lon="-1.51244">
        <ele>-0.34</ele>
        <time>2016-08-31T15:30:28Z</time>
      </trkpt>
      <trkpt lat="46.21023" lon="-1.51244">
        <ele>-0.82</ele>
        <time>2016-08-31T15:30:32Z</time>
      </trkpt>
      <trkpt lat="46.21021" lon="-1.51243">
        <ele>-0.34</ele>
        <time>2016-08-31T15:30:33Z</time>
      </trkpt>
      <trkpt lat="46.2102" lon="-1.51242">
        <ele>-0.82</ele>
        <time>2016-08-31T15:30:34Z</time>
      </trkpt>
      <trkpt lat="46.2102" lon="-1.5124">
        <ele>-0.82</ele>
        <time>2016-08-31T15:30:35Z</time>
      </trkpt>
      <trkpt lat="46.21021" lon="-1.51238">
        <ele>-0.34</ele>
        <time>2016-08-31T15:30:36Z</time>
      </trkpt>
      <trkpt lat="46.2102" lon="-1.51237">
        <ele>-0.34</ele>
        <time>2016-08-31T15:30:37Z</time>
      </trkpt>
      <trkpt lat="46.21019" lon="-1.51236">
        <ele>-0.82</ele>
        <time>2016-08-31T15:30:38Z</time>
      </trkpt>
      <trkpt lat="46.21018" lon="-1.51237">
        <ele>-0.34</ele>
        <time>2016-08-31T15:30:39Z</time>
      </trkpt>
      <trkpt lat="46.21016" lon="-1.51237">
        <ele>-0.82</ele>
        <time>2016-08-31T15:30:40Z</time>
      </trkpt>
      <trkpt lat="46.21014" lon="-1.51237">
        <ele>-0.34</ele>
        <time>2016-08-31T15:30:41Z</time>
      </trkpt>
      <trkpt lat="46.21013" lon="-1.51236">
        <ele>-0.34</ele>
        <time>2016-08-31T15:30:42Z</time>
      </trkpt>
      <trkpt lat="46.21011" lon="-1.51236">
        <ele>-0.82</ele>
        <time>2016-08-31T15:30:43Z</time>
      </trkpt>
      <trkpt lat="46.2099" lon="-1.51224">
        <ele>-0.34</ele>
        <time>2016-08-31T15:30:53Z</time>
      </trkpt>
      <trkpt lat="46.20962" lon="-1.51195">
        <ele>-0.34</ele>
        <time>2016-08-31T15:31:04Z</time>
      </trkpt>
      <trkpt lat="46.20922" lon="-1.51135">
        <ele>-0.34</ele>
        <time>2016-08-31T15:31:19Z</time>
      </trkpt>
      <trkpt lat="46.20919" lon="-1.51132">
        <ele>-0.34</ele>
        <time>2016-08-31T15:31:20Z</time>
      </trkpt>
      <trkpt lat="46.20909" lon="-1.5112">
        <ele>-0.34</ele>
        <time>2016-08-31T15:31:23Z</time>
      </trkpt>
      <trkpt lat="46.20908" lon="-1.51115">
        <ele>-0.82</ele>
        <time>2016-08-31T15:31:24Z</time>
      </trkpt>
      <trkpt lat="46.20908" lon="-1.51109">
        <ele>-0.82</ele>
        <time>2016-08-31T15:31:25Z</time>
      </trkpt>
      <trkpt lat="46.20906" lon="-1.51104">
        <ele>-0.34</ele>
        <time>2016-08-31T15:31:26Z</time>
      </trkpt>
      <trkpt lat="46.20903" lon="-1.51099">
        <ele>-0.34</ele>
        <time>2016-08-31T15:31:27Z</time>
      </trkpt>
      <trkpt lat="46.20895" lon="-1.51084">
        <ele>-0.82</ele>
        <time>2016-08-31T15:31:30Z</time>
      </trkpt>
      <trkpt lat="46.20891" lon="-1.51072">
        <ele>-1.3</ele>
        <time>2016-08-31T15:31:32Z</time>
      </trkpt>
      <trkpt lat="46.20889" lon="-1.51065">
        <ele>-1.3</ele>
        <time>2016-08-31T15:31:33Z</time>
      </trkpt>
      <trkpt lat="46.20884" lon="-1.51039">
        <ele>-0.82</ele>
        <time>2016-08-31T15:31:37Z</time>
      </trkpt>
      <trkpt lat="46.20883" lon="-1.51032">
        <ele>-0.82</ele>
        <time>2016-08-31T15:31:38Z</time>
      </trkpt>
      <trkpt lat="46.2088" lon="-1.51026">
        <ele>-0.82</ele>
        <time>2016-08-31T15:31:39Z</time>
      </trkpt>
      <trkpt lat="46.20875" lon="-1.51014">
        <ele>-0.82</ele>
        <time>2016-08-31T15:31:41Z</time>
      </trkpt>
      <trkpt lat="46.20835" lon="-1.50951">
        <ele>-0.82</ele>
        <time>2016-08-31T15:31:53Z</time>
      </trkpt>
      <trkpt lat="46.20794" lon="-1.509">
        <ele>-0.82</ele>
        <time>2016-08-31T15:32:05Z</time>
      </trkpt>
      <trkpt lat="46.20771" lon="-1.50864">
        <ele>-0.82</ele>
        <time>2016-08-31T15:32:15Z</time>
      </trkpt>
      <trkpt lat="46.20769" lon="-1.50863">
        <ele>-0.82</ele>
        <time>2016-08-31T15:32:23Z</time>
      </trkpt>
      <trkpt lat="46.20769" lon="-1.50864">
        <ele>-0.82</ele>
        <time>2016-08-31T15:32:34Z</time>
      </trkpt>
      <trkpt lat="46.20768" lon="-1.50863">
        <ele>-0.82</ele>
        <time>2016-08-31T15:32:56Z</time>
      </trkpt>
      <trkpt lat="46.20767" lon="-1.50863">
        <ele>-0.82</ele>
        <time>2016-08-31T15:33:18Z</time>
      </trkpt>
      <trkpt lat="46.20768" lon="-1.50864">
        <ele>-0.34</ele>
        <time>2016-08-31T15:33:49Z</time>
      </trkpt>
      <trkpt lat="46.20768" lon="-1.50863">
        <ele>-1.3</ele>
        <time>2016-08-31T15:34:21Z</time>
      </trkpt>
      <trkpt lat="46.20767" lon="-1.50864">
        <ele>-1.3</ele>
        <time>2016-08-31T15:34:51Z</time>
      </trkpt>
      <trkpt lat="46.20767" lon="-1.50863">
        <ele>-0.82</ele>
        <time>2016-08-31T15:35:20Z</time>
      </trkpt>
      <trkpt lat="46.20768" lon="-1.50863">
        <ele>-1.3</ele>
        <time>2016-08-31T15:35:48Z</time>
      </trkpt>
      <trkpt lat="46.20768" lon="-1.50864">
        <ele>-1.3</ele>
        <time>2016-08-31T15:36:19Z</time>
      </trkpt>
      <trkpt lat="46.20768" lon="-1.50864">
        <ele>-1.3</ele>
        <time>2016-08-31T15:36:49Z</time>
      </trkpt>
      <trkpt lat="46.20768" lon="-1.50864">
        <ele>-0.82</ele>
        <time>2016-08-31T15:37:16Z</time>
      </trkpt>
      <trkpt lat="46.20768" lon="-1.50864">
        <ele>-0.82</ele>
        <time>2016-08-31T15:37:47Z</time>
      </trkpt>
      <trkpt lat="46.20768" lon="-1.50865">
        <ele>-1.3</ele>
        <time>2016-08-31T15:38:18Z</time>
      </trkpt>
      <trkpt lat="46.20768" lon="-1.50864">
        <ele>-0.82</ele>
        <time>2016-08-31T15:38:45Z</time>
      </trkpt>
      <trkpt lat="46.20769" lon="-1.50863">
        <ele>-0.82</ele>
        <time>2016-08-31T15:39:14Z</time>
      </trkpt>
      <trkpt lat="46.20769" lon="-1.50863">
        <ele>-1.3</ele>
        <time>2016-08-31T15:39:40Z</time>
      </trkpt>
      <trkpt lat="46.2077" lon="-1.50863">
        <ele>-0.82</ele>
        <time>2016-08-31T15:40:05Z</time>
      </trkpt>
      <trkpt lat="46.20769" lon="-1.50863">
        <ele>-1.3</ele>
        <time>2016-08-31T15:40:24Z</time>
      </trkpt>
      <trkpt lat="46.20769" lon="-1.50864">
        <ele>-0.82</ele>
        <time>2016-08-31T15:40:46Z</time>
      </trkpt>
      <trkpt lat="46.20769" lon="-1.50862">
        <ele>-0.82</ele>
        <time>2016-08-31T15:41:00Z</time>
      </trkpt>
      <trkpt lat="46.20768" lon="-1.5086">
        <ele>-1.3</ele>
        <time>2016-08-31T15:41:01Z</time>
      </trkpt>
      <trkpt lat="46.20767" lon="-1.50859">
        <ele>-1.3</ele>
        <time>2016-08-31T15:41:02Z</time>
      </trkpt>
      <trkpt lat="46.20765" lon="-1.50861">
        <ele>-0.82</ele>
        <time>2016-08-31T15:41:11Z</time>
      </trkpt>
      <trkpt lat="46.20764" lon="-1.50861">
        <ele>-1.3</ele>
        <time>2016-08-31T15:41:23Z</time>
      </trkpt>
      <trkpt lat="46.20752" lon="-1.50848">
        <ele>-1.3</ele>
        <time>2016-08-31T15:41:31Z</time>
      </trkpt>
      <trkpt lat="46.20731" lon="-1.50811">
        <ele>-1.3</ele>
        <time>2016-08-31T15:41:40Z</time>
      </trkpt>
      <trkpt lat="46.20715" lon="-1.50782">
        <ele>-1.79</ele>
        <time>2016-08-31T15:41:46Z</time>
      </trkpt>
      <trkpt lat="46.20714" lon="-1.50776">
        <ele>-1.79</ele>
        <time>2016-08-31T15:41:47Z</time>
      </trkpt>
      <trkpt lat="46.20713" lon="-1.5077">
        <ele>-1.3</ele>
        <time>2016-08-31T15:41:48Z</time>
      </trkpt>
      <trkpt lat="46.20713" lon="-1.50764">
        <ele>-1.3</ele>
        <time>2016-08-31T15:41:49Z</time>
      </trkpt>
      <trkpt lat="46.20714" lon="-1.50759">
        <ele>-1.3</ele>
        <time>2016-08-31T15:41:50Z</time>
      </trkpt>
      <trkpt lat="46.20713" lon="-1.50753">
        <ele>-1.3</ele>
        <time>2016-08-31T15:41:51Z</time>
      </trkpt>
      <trkpt lat="46.20712" lon="-1.50747">
        <ele>-1.79</ele>
        <time>2016-08-31T15:41:52Z</time>
      </trkpt>
      <trkpt lat="46.20711" lon="-1.50742">
        <ele>-1.79</ele>
        <time>2016-08-31T15:41:53Z</time>
      </trkpt>
      <trkpt lat="46.20702" lon="-1.50671">
        <ele>-1.3</ele>
        <time>2016-08-31T15:42:04Z</time>
      </trkpt>
      <trkpt lat="46.20701" lon="-1.50665">
        <ele>-1.3</ele>
        <time>2016-08-31T15:42:05Z</time>
      </trkpt>
      <trkpt lat="46.20678" lon="-1.50586">
        <ele>-1.3</ele>
        <time>2016-08-31T15:42:18Z</time>
      </trkpt>
      <trkpt lat="46.20666" lon="-1.50566">
        <ele>-1.3</ele>
        <time>2016-08-31T15:42:22Z</time>
      </trkpt>
      <trkpt lat="46.20662" lon="-1.50562">
        <ele>-1.3</ele>
        <time>2016-08-31T15:42:23Z</time>
      </trkpt>
      <trkpt lat="46.20658" lon="-1.50559">
        <ele>-1.3</ele>
        <time>2016-08-31T15:42:24Z</time>
      </trkpt>
      <trkpt lat="46.20654" lon="-1.50555">
        <ele>-1.79</ele>
        <time>2016-08-31T15:42:25Z</time>
      </trkpt>
      <trkpt lat="46.2065" lon="-1.50552">
        <ele>-1.3</ele>
        <time>2016-08-31T15:42:26Z</time>
      </trkpt>
      <trkpt lat="46.20645" lon="-1.50549">
        <ele>-1.3</ele>
        <time>2016-08-31T15:42:27Z</time>
      </trkpt>
      <trkpt lat="46.20641" lon="-1.50546">
        <ele>-1.79</ele>
        <time>2016-08-31T15:42:28Z</time>
      </trkpt>
      <trkpt lat="46.20636" lon="-1.50543">
        <ele>-1.3</ele>
        <time>2016-08-31T15:42:29Z</time>
      </trkpt>
      <trkpt lat="46.20582" lon="-1.50507">
        <ele>-1.79</ele>
        <time>2016-08-31T15:42:41Z</time>
      </trkpt>
      <trkpt lat="46.20534" lon="-1.50475">
        <ele>-1.79</ele>
        <time>2016-08-31T15:42:52Z</time>
      </trkpt>
      <trkpt lat="46.2053" lon="-1.50471">
        <ele>-1.79</ele>
        <time>2016-08-31T15:42:53Z</time>
      </trkpt>
      <trkpt lat="46.20519" lon="-1.50457">
        <ele>-1.79</ele>
        <time>2016-08-31T15:42:56Z</time>
      </trkpt>
      <trkpt lat="46.20516" lon="-1.50451">
        <ele>-1.79</ele>
        <time>2016-08-31T15:42:57Z</time>
      </trkpt>
      <trkpt lat="46.20513" lon="-1.50446">
        <ele>-1.79</ele>
        <time>2016-08-31T15:42:58Z</time>
      </trkpt>
      <trkpt lat="46.20499" lon="-1.50416">
        <ele>-1.79</ele>
        <time>2016-08-31T15:43:03Z</time>
      </trkpt>
      <trkpt lat="46.20491" lon="-1.50406">
        <ele>-1.79</ele>
        <time>2016-08-31T15:43:05Z</time>
      </trkpt>
      <trkpt lat="46.20443" lon="-1.50342">
        <ele>-1.79</ele>
        <time>2016-08-31T15:43:18Z</time>
      </trkpt>
      <trkpt lat="46.20411" lon="-1.5026">
        <ele>-1.79</ele>
        <time>2016-08-31T15:43:31Z</time>
      </trkpt>
      <trkpt lat="46.20399" lon="-1.50163">
        <ele>-1.79</ele>
        <time>2016-08-31T15:43:44Z</time>
      </trkpt>
      <trkpt lat="46.20399" lon="-1.50072">
        <ele>-1.79</ele>
        <time>2016-08-31T15:43:56Z</time>
      </trkpt>
      <trkpt lat="46.20405" lon="-1.49976">
        <ele>-1.79</ele>
        <time>2016-08-31T15:44:09Z</time>
      </trkpt>
      <trkpt lat="46.20411" lon="-1.49948">
        <ele>-1.3</ele>
        <time>2016-08-31T15:44:13Z</time>
      </trkpt>
      <trkpt lat="46.20411" lon="-1.49942">
        <ele>-1.79</ele>
        <time>2016-08-31T15:44:14Z</time>
      </trkpt>
      <trkpt lat="46.20412" lon="-1.49935">
        <ele>-1.79</ele>
        <time>2016-08-31T15:44:15Z</time>
      </trkpt>
      <trkpt lat="46.20412" lon="-1.49915">
        <ele>-2.27</ele>
        <time>2016-08-31T15:44:18Z</time>
      </trkpt>
      <trkpt lat="46.20401" lon="-1.49827">
        <ele>-1.3</ele>
        <time>2016-08-31T15:44:31Z</time>
      </trkpt>
      <trkpt lat="46.20376" lon="-1.49768">
        <ele>-1.79</ele>
        <time>2016-08-31T15:44:40Z</time>
      </trkpt>
      <trkpt lat="46.20327" lon="-1.49699">
        <ele>-1.3</ele>
        <time>2016-08-31T15:44:53Z</time>
      </trkpt>
      <trkpt lat="46.20324" lon="-1.49693">
        <ele>-1.3</ele>
        <time>2016-08-31T15:44:54Z</time>
      </trkpt>
      <trkpt lat="46.20281" lon="-1.49594">
        <ele>-1.79</ele>
        <time>2016-08-31T15:45:10Z</time>
      </trkpt>
      <trkpt lat="46.20249" lon="-1.49511">
        <ele>-1.3</ele>
        <time>2016-08-31T15:45:25Z</time>
      </trkpt>
      <trkpt lat="46.20218" lon="-1.4943">
        <ele>-1.3</ele>
        <time>2016-08-31T15:45:38Z</time>
      </trkpt>
      <trkpt lat="46.2021" lon="-1.49403">
        <ele>-0.82</ele>
        <time>2016-08-31T15:45:42Z</time>
      </trkpt>
      <trkpt lat="46.20209" lon="-1.49395">
        <ele>-1.3</ele>
        <time>2016-08-31T15:45:43Z</time>
      </trkpt>
      <trkpt lat="46.20214" lon="-1.49322">
        <ele>-1.79</ele>
        <time>2016-08-31T15:45:53Z</time>
      </trkpt>
      <trkpt lat="46.20219" lon="-1.4929">
        <ele>-1.79</ele>
        <time>2016-08-31T15:45:58Z</time>
      </trkpt>
      <trkpt lat="46.20221" lon="-1.49285">
        <ele>-1.79</ele>
        <time>2016-08-31T15:45:59Z</time>
      </trkpt>
      <trkpt lat="46.20222" lon="-1.49279">
        <ele>-1.79</ele>
        <time>2016-08-31T15:46:00Z</time>
      </trkpt>
      <trkpt lat="46.20222" lon="-1.49273">
        <ele>-1.79</ele>
        <time>2016-08-31T15:46:01Z</time>
      </trkpt>
      <trkpt lat="46.20223" lon="-1.49267">
        <ele>-1.79</ele>
        <time>2016-08-31T15:46:02Z</time>
      </trkpt>
      <trkpt lat="46.20224" lon="-1.49261">
        <ele>-1.79</ele>
        <time>2016-08-31T15:46:03Z</time>
      </trkpt>
      <trkpt lat="46.20225" lon="-1.49249">
        <ele>-1.3</ele>
        <time>2016-08-31T15:46:05Z</time>
      </trkpt>
      <trkpt lat="46.20225" lon="-1.49243">
        <ele>-1.3</ele>
        <time>2016-08-31T15:46:06Z</time>
      </trkpt>
      <trkpt lat="46.20224" lon="-1.49236">
        <ele>-1.79</ele>
        <time>2016-08-31T15:46:07Z</time>
      </trkpt>
      <trkpt lat="46.20223" lon="-1.4923">
        <ele>-1.79</ele>
        <time>2016-08-31T15:46:08Z</time>
      </trkpt>
      <trkpt lat="46.20222" lon="-1.49223">
        <ele>-1.79</ele>
        <time>2016-08-31T15:46:09Z</time>
      </trkpt>
      <trkpt lat="46.2022" lon="-1.49209">
        <ele>-1.79</ele>
        <time>2016-08-31T15:46:11Z</time>
      </trkpt>
      <trkpt lat="46.20193" lon="-1.49114">
        <ele>-1.79</ele>
        <time>2016-08-31T15:46:25Z</time>
      </trkpt>
      <trkpt lat="46.20157" lon="-1.48986">
        <ele>-1.79</ele>
        <time>2016-08-31T15:46:43Z</time>
      </trkpt>
      <trkpt lat="46.20131" lon="-1.48889">
        <ele>-2.27</ele>
        <time>2016-08-31T15:46:57Z</time>
      </trkpt>
      <trkpt lat="46.20117" lon="-1.48851">
        <ele>-1.3</ele>
        <time>2016-08-31T15:47:05Z</time>
      </trkpt>
      <trkpt lat="46.20107" lon="-1.48812">
        <ele>-0.82</ele>
        <time>2016-08-31T15:47:13Z</time>
      </trkpt>
      <trkpt lat="46.20101" lon="-1.48759">
        <ele>-0.82</ele>
        <time>2016-08-31T15:47:22Z</time>
      </trkpt>
      <trkpt lat="46.20101" lon="-1.48747">
        <ele>-0.34</ele>
        <time>2016-08-31T15:47:24Z</time>
      </trkpt>
      <trkpt lat="46.20102" lon="-1.4874">
        <ele>-0.34</ele>
        <time>2016-08-31T15:47:25Z</time>
      </trkpt>
      <trkpt lat="46.20103" lon="-1.48734">
        <ele>0.14</ele>
        <time>2016-08-31T15:47:26Z</time>
      </trkpt>
      <trkpt lat="46.20115" lon="-1.48687">
        <ele>-0.34</ele>
        <time>2016-08-31T15:47:33Z</time>
      </trkpt>
      <trkpt lat="46.20118" lon="-1.48682">
        <ele>-0.82</ele>
        <time>2016-08-31T15:47:34Z</time>
      </trkpt>
      <trkpt lat="46.20121" lon="-1.48677">
        <ele>0.14</ele>
        <time>2016-08-31T15:47:35Z</time>
      </trkpt>
      <trkpt lat="46.20152" lon="-1.48631">
        <ele>0.14</ele>
        <time>2016-08-31T15:47:44Z</time>
      </trkpt>
      <trkpt lat="46.20185" lon="-1.48547">
        <ele>-0.34</ele>
        <time>2016-08-31T15:47:57Z</time>
      </trkpt>
      <trkpt lat="46.20205" lon="-1.48461">
        <ele>-0.82</ele>
        <time>2016-08-31T15:48:09Z</time>
      </trkpt>
      <trkpt lat="46.20222" lon="-1.48364">
        <ele>-0.82</ele>
        <time>2016-08-31T15:48:22Z</time>
      </trkpt>
      <trkpt lat="46.20222" lon="-1.48357">
        <ele>-0.82</ele>
        <time>2016-08-31T15:48:23Z</time>
      </trkpt>
      <trkpt lat="46.20236" lon="-1.48268">
        <ele>-0.82</ele>
        <time>2016-08-31T15:48:35Z</time>
      </trkpt>
      <trkpt lat="46.20258" lon="-1.48163">
        <ele>-1.3</ele>
        <time>2016-08-31T15:48:49Z</time>
      </trkpt>
      <trkpt lat="46.2029" lon="-1.48082">
        <ele>-2.27</ele>
        <time>2016-08-31T15:49:01Z</time>
      </trkpt>
      <trkpt lat="46.20324" lon="-1.48004">
        <ele>-1.3</ele>
        <time>2016-08-31T15:49:15Z</time>
      </trkpt>
      <trkpt lat="46.20334" lon="-1.47982">
        <ele>-1.79</ele>
        <time>2016-08-31T15:49:19Z</time>
      </trkpt>
      <trkpt lat="46.20338" lon="-1.47977">
        <ele>-2.27</ele>
        <time>2016-08-31T15:49:20Z</time>
      </trkpt>
      <trkpt lat="46.20341" lon="-1.47971">
        <ele>-1.79</ele>
        <time>2016-08-31T15:49:21Z</time>
      </trkpt>
      <trkpt lat="46.20379" lon="-1.47878">
        <ele>-2.27</ele>
        <time>2016-08-31T15:49:35Z</time>
      </trkpt>
      <trkpt lat="46.20405" lon="-1.47819">
        <ele>-1.79</ele>
        <time>2016-08-31T15:49:44Z</time>
      </trkpt>
      <trkpt lat="46.2041" lon="-1.47798">
        <ele>-1.79</ele>
        <time>2016-08-31T15:49:47Z</time>
      </trkpt>
      <trkpt lat="46.20423" lon="-1.47741">
        <ele>-0.82</ele>
        <time>2016-08-31T15:49:55Z</time>
      </trkpt>
      <trkpt lat="46.20425" lon="-1.47734">
        <ele>-0.34</ele>
        <time>2016-08-31T15:49:56Z</time>
      </trkpt>
      <trkpt lat="46.20449" lon="-1.47636">
        <ele>-0.82</ele>
        <time>2016-08-31T15:50:09Z</time>
      </trkpt>
      <trkpt lat="46.20453" lon="-1.4763">
        <ele>-1.3</ele>
        <time>2016-08-31T15:50:10Z</time>
      </trkpt>
      <trkpt lat="46.20457" lon="-1.47624">
        <ele>-1.79</ele>
        <time>2016-08-31T15:50:11Z</time>
      </trkpt>
      <trkpt lat="46.20462" lon="-1.4762">
        <ele>-1.3</ele>
        <time>2016-08-31T15:50:12Z</time>
      </trkpt>
      <trkpt lat="46.20467" lon="-1.47616">
        <ele>-1.3</ele>
        <time>2016-08-31T15:50:13Z</time>
      </trkpt>
      <trkpt lat="46.20471" lon="-1.47611">
        <ele>-1.3</ele>
        <time>2016-08-31T15:50:14Z</time>
      </trkpt>
      <trkpt lat="46.20475" lon="-1.47606">
        <ele>-1.3</ele>
        <time>2016-08-31T15:50:15Z</time>
      </trkpt>
      <trkpt lat="46.20479" lon="-1.476">
        <ele>-0.82</ele>
        <time>2016-08-31T15:50:16Z</time>
      </trkpt>
      <trkpt lat="46.20501" lon="-1.47561">
        <ele>-2.27</ele>
        <time>2016-08-31T15:50:22Z</time>
      </trkpt>
      <trkpt lat="46.20511" lon="-1.47539">
        <ele>-2.75</ele>
        <time>2016-08-31T15:50:25Z</time>
      </trkpt>
      <trkpt lat="46.20543" lon="-1.47472">
        <ele>-2.27</ele>
        <time>2016-08-31T15:50:35Z</time>
      </trkpt>
      <trkpt lat="46.20547" lon="-1.47466">
        <ele>-2.75</ele>
        <time>2016-08-31T15:50:36Z</time>
      </trkpt>
      <trkpt lat="46.20551" lon="-1.47461">
        <ele>-2.27</ele>
        <time>2016-08-31T15:50:37Z</time>
      </trkpt>
      <trkpt lat="46.2057" lon="-1.47446">
        <ele>-2.75</ele>
        <time>2016-08-31T15:50:41Z</time>
      </trkpt>
      <trkpt lat="46.2058" lon="-1.47441">
        <ele>-3.23</ele>
        <time>2016-08-31T15:50:43Z</time>
      </trkpt>
      <trkpt lat="46.2059" lon="-1.47436">
        <ele>-2.27</ele>
        <time>2016-08-31T15:50:45Z</time>
      </trkpt>
      <trkpt lat="46.20595" lon="-1.47432">
        <ele>-2.75</ele>
        <time>2016-08-31T15:50:46Z</time>
      </trkpt>
      <trkpt lat="46.20615" lon="-1.47418">
        <ele>-2.27</ele>
        <time>2016-08-31T15:50:50Z</time>
      </trkpt>
      <trkpt lat="46.20685" lon="-1.47403">
        <ele>-2.27</ele>
        <time>2016-08-31T15:51:03Z</time>
      </trkpt>
      <trkpt lat="46.20712" lon="-1.474">
        <ele>-2.27</ele>
        <time>2016-08-31T15:51:08Z</time>
      </trkpt>
      <trkpt lat="46.20717" lon="-1.47397">
        <ele>-1.79</ele>
        <time>2016-08-31T15:51:09Z</time>
      </trkpt>
      <trkpt lat="46.2072" lon="-1.47391">
        <ele>-1.79</ele>
        <time>2016-08-31T15:51:10Z</time>
      </trkpt>
      <trkpt lat="46.20721" lon="-1.47384">
        <ele>-1.79</ele>
        <time>2016-08-31T15:51:11Z</time>
      </trkpt>
      <trkpt lat="46.2072" lon="-1.47378">
        <ele>-1.79</ele>
        <time>2016-08-31T15:51:12Z</time>
      </trkpt>
      <trkpt lat="46.20717" lon="-1.47372">
        <ele>-1.3</ele>
        <time>2016-08-31T15:51:13Z</time>
      </trkpt>
      <trkpt lat="46.20714" lon="-1.47367">
        <ele>-0.82</ele>
        <time>2016-08-31T15:51:14Z</time>
      </trkpt>
      <trkpt lat="46.20698" lon="-1.47346">
        <ele>-1.3</ele>
        <time>2016-08-31T15:51:18Z</time>
      </trkpt>
      <trkpt lat="46.20694" lon="-1.47342">
        <ele>-0.82</ele>
        <time>2016-08-31T15:51:19Z</time>
      </trkpt>
      <trkpt lat="46.2067" lon="-1.47322">
        <ele>-1.3</ele>
        <time>2016-08-31T15:51:24Z</time>
      </trkpt>
      <trkpt lat="46.20665" lon="-1.47317">
        <ele>-0.82</ele>
        <time>2016-08-31T15:51:25Z</time>
      </trkpt>
      <trkpt lat="46.20649" lon="-1.47293">
        <ele>-0.82</ele>
        <time>2016-08-31T15:51:29Z</time>
      </trkpt>
      <trkpt lat="46.20624" lon="-1.47259">
        <ele>-0.82</ele>
        <time>2016-08-31T15:51:35Z</time>
      </trkpt>
      <trkpt lat="46.20619" lon="-1.47255">
        <ele>-0.82</ele>
        <time>2016-08-31T15:51:36Z</time>
      </trkpt>
      <trkpt lat="46.20614" lon="-1.47253">
        <ele>-0.82</ele>
        <time>2016-08-31T15:51:37Z</time>
      </trkpt>
      <trkpt lat="46.20608" lon="-1.47251">
        <ele>-0.82</ele>
        <time>2016-08-31T15:51:38Z</time>
      </trkpt>
      <trkpt lat="46.20603" lon="-1.47251">
        <ele>-0.34</ele>
        <time>2016-08-31T15:51:39Z</time>
      </trkpt>
      <trkpt lat="46.20598" lon="-1.47249">
        <ele>-0.82</ele>
        <time>2016-08-31T15:51:40Z</time>
      </trkpt>
      <trkpt lat="46.20593" lon="-1.47245">
        <ele>-0.82</ele>
        <time>2016-08-31T15:51:41Z</time>
      </trkpt>
      <trkpt lat="46.20589" lon="-1.47239">
        <ele>-1.3</ele>
        <time>2016-08-31T15:51:42Z</time>
      </trkpt>
      <trkpt lat="46.20587" lon="-1.47232">
        <ele>-0.82</ele>
        <time>2016-08-31T15:51:43Z</time>
      </trkpt>
      <trkpt lat="46.20586" lon="-1.47224">
        <ele>-1.3</ele>
        <time>2016-08-31T15:51:44Z</time>
      </trkpt>
      <trkpt lat="46.20585" lon="-1.47216">
        <ele>-0.82</ele>
        <time>2016-08-31T15:51:45Z</time>
      </trkpt>
      <trkpt lat="46.20584" lon="-1.47208">
        <ele>-1.3</ele>
        <time>2016-08-31T15:51:46Z</time>
      </trkpt>
      <trkpt lat="46.20582" lon="-1.47201">
        <ele>-0.82</ele>
        <time>2016-08-31T15:51:47Z</time>
      </trkpt>
      <trkpt lat="46.20581" lon="-1.47193">
        <ele>-1.3</ele>
        <time>2016-08-31T15:51:48Z</time>
      </trkpt>
      <trkpt lat="46.20577" lon="-1.47171">
        <ele>-0.82</ele>
        <time>2016-08-31T15:51:51Z</time>
      </trkpt>
      <trkpt lat="46.20576" lon="-1.47163">
        <ele>-1.3</ele>
        <time>2016-08-31T15:51:52Z</time>
      </trkpt>
      <trkpt lat="46.20573" lon="-1.4715">
        <ele>-0.82</ele>
        <time>2016-08-31T15:51:54Z</time>
      </trkpt>
      <trkpt lat="46.20568" lon="-1.47132">
        <ele>-0.82</ele>
        <time>2016-08-31T15:51:58Z</time>
      </trkpt>
      <trkpt lat="46.2057" lon="-1.47128">
        <ele>-1.3</ele>
        <time>2016-08-31T15:51:59Z</time>
      </trkpt>
      <trkpt lat="46.20573" lon="-1.47125">
        <ele>-1.3</ele>
        <time>2016-08-31T15:52:00Z</time>
      </trkpt>
      <trkpt lat="46.20576" lon="-1.47123">
        <ele>-1.3</ele>
        <time>2016-08-31T15:52:01Z</time>
      </trkpt>
      <trkpt lat="46.2058" lon="-1.47121">
        <ele>-1.3</ele>
        <time>2016-08-31T15:52:02Z</time>
      </trkpt>
      <trkpt lat="46.20584" lon="-1.47119">
        <ele>-0.82</ele>
        <time>2016-08-31T15:52:03Z</time>
      </trkpt>
      <trkpt lat="46.20598" lon="-1.4711">
        <ele>-1.79</ele>
        <time>2016-08-31T15:52:06Z</time>
      </trkpt>
      <trkpt lat="46.20603" lon="-1.47107">
        <ele>-2.27</ele>
        <time>2016-08-31T15:52:07Z</time>
      </trkpt>
      <trkpt lat="46.20622" lon="-1.47092">
        <ele>-2.27</ele>
        <time>2016-08-31T15:52:11Z</time>
      </trkpt>
      <trkpt lat="46.20682" lon="-1.47056">
        <ele>-1.3</ele>
        <time>2016-08-31T15:52:22Z</time>
      </trkpt>
      <trkpt lat="46.20737" lon="-1.47043">
        <ele>-2.27</ele>
        <time>2016-08-31T15:52:32Z</time>
      </trkpt>
      <trkpt lat="46.20811" lon="-1.46984">
        <ele>-2.75</ele>
        <time>2016-08-31T15:52:47Z</time>
      </trkpt>
      <trkpt lat="46.20894" lon="-1.46919">
        <ele>-2.27</ele>
        <time>2016-08-31T15:53:04Z</time>
      </trkpt>
      <trkpt lat="46.20961" lon="-1.46868">
        <ele>-3.23</ele>
        <time>2016-08-31T15:53:18Z</time>
      </trkpt>
      <trkpt lat="46.20985" lon="-1.46848">
        <ele>-2.27</ele>
        <time>2016-08-31T15:53:23Z</time>
      </trkpt>
      <trkpt lat="46.20997" lon="-1.46832">
        <ele>-2.27</ele>
        <time>2016-08-31T15:53:26Z</time>
      </trkpt>
      <trkpt lat="46.21" lon="-1.46825">
        <ele>-1.79</ele>
        <time>2016-08-31T15:53:27Z</time>
      </trkpt>
      <trkpt lat="46.21002" lon="-1.46818">
        <ele>-2.27</ele>
        <time>2016-08-31T15:53:28Z</time>
      </trkpt>
      <trkpt lat="46.21004" lon="-1.46811">
        <ele>-2.27</ele>
        <time>2016-08-31T15:53:29Z</time>
      </trkpt>
      <trkpt lat="46.21005" lon="-1.46803">
        <ele>-2.27</ele>
        <time>2016-08-31T15:53:30Z</time>
      </trkpt>
      <trkpt lat="46.21007" lon="-1.46795">
        <ele>-2.27</ele>
        <time>2016-08-31T15:53:31Z</time>
      </trkpt>
      <trkpt lat="46.21009" lon="-1.46788">
        <ele>-2.27</ele>
        <time>2016-08-31T15:53:32Z</time>
      </trkpt>
      <trkpt lat="46.21012" lon="-1.46782">
        <ele>-1.79</ele>
        <time>2016-08-31T15:53:33Z</time>
      </trkpt>
      <trkpt lat="46.21016" lon="-1.46775">
        <ele>-1.79</ele>
        <time>2016-08-31T15:53:34Z</time>
      </trkpt>
      <trkpt lat="46.21044" lon="-1.46708">
        <ele>-2.27</ele>
        <time>2016-08-31T15:53:44Z</time>
      </trkpt>
      <trkpt lat="46.2106" lon="-1.46607">
        <ele>-2.27</ele>
        <time>2016-08-31T15:53:57Z</time>
      </trkpt>
      <trkpt lat="46.21067" lon="-1.46493">
        <ele>-2.27</ele>
        <time>2016-08-31T15:54:11Z</time>
      </trkpt>
      <trkpt lat="46.21073" lon="-1.46434">
        <ele>-6.11</ele>
        <time>2016-08-31T15:54:19Z</time>
      </trkpt>
      <trkpt lat="46.21073" lon="-1.46426">
        <ele>-1.3</ele>
        <time>2016-08-31T15:54:20Z</time>
      </trkpt>
      <trkpt lat="46.21089" lon="-1.46313">
        <ele>-1.79</ele>
        <time>2016-08-31T15:54:34Z</time>
      </trkpt>
      <trkpt lat="46.21115" lon="-1.46192">
        <ele>-1.79</ele>
        <time>2016-08-31T15:54:49Z</time>
      </trkpt>
      <trkpt lat="46.21122" lon="-1.46109">
        <ele>-1.79</ele>
        <time>2016-08-31T15:54:59Z</time>
      </trkpt>
      <trkpt lat="46.21121" lon="-1.46031">
        <ele>-1.3</ele>
        <time>2016-08-31T15:55:10Z</time>
      </trkpt>
      <trkpt lat="46.21119" lon="-1.46026">
        <ele>-1.79</ele>
        <time>2016-08-31T15:55:11Z</time>
      </trkpt>
      <trkpt lat="46.21116" lon="-1.46022">
        <ele>-1.79</ele>
        <time>2016-08-31T15:55:12Z</time>
      </trkpt>
      <trkpt lat="46.21113" lon="-1.46018">
        <ele>-1.3</ele>
        <time>2016-08-31T15:55:13Z</time>
      </trkpt>
      <trkpt lat="46.21109" lon="-1.46012">
        <ele>-1.3</ele>
        <time>2016-08-31T15:55:14Z</time>
      </trkpt>
      <trkpt lat="46.21105" lon="-1.46006">
        <ele>-1.79</ele>
        <time>2016-08-31T15:55:15Z</time>
      </trkpt>
      <trkpt lat="46.21102" lon="-1.45999">
        <ele>-1.79</ele>
        <time>2016-08-31T15:55:16Z</time>
      </trkpt>
      <trkpt lat="46.21095" lon="-1.45968">
        <ele>-2.27</ele>
        <time>2016-08-31T15:55:22Z</time>
      </trkpt>
      <trkpt lat="46.21094" lon="-1.45956">
        <ele>-2.27</ele>
        <time>2016-08-31T15:55:24Z</time>
      </trkpt>
      <trkpt lat="46.21088" lon="-1.45925">
        <ele>-1.79</ele>
        <time>2016-08-31T15:55:29Z</time>
      </trkpt>
      <trkpt lat="46.21087" lon="-1.45918">
        <ele>-1.79</ele>
        <time>2016-08-31T15:55:30Z</time>
      </trkpt>
      <trkpt lat="46.21087" lon="-1.45912">
        <ele>-2.27</ele>
        <time>2016-08-31T15:55:31Z</time>
      </trkpt>
      <trkpt lat="46.21074" lon="-1.45828">
        <ele>-1.79</ele>
        <time>2016-08-31T15:55:42Z</time>
      </trkpt>
      <trkpt lat="46.2105" lon="-1.45706">
        <ele>-2.27</ele>
        <time>2016-08-31T15:55:57Z</time>
      </trkpt>
      <trkpt lat="46.21029" lon="-1.45606">
        <ele>-2.27</ele>
        <time>2016-08-31T15:56:09Z</time>
      </trkpt>
      <trkpt lat="46.21026" lon="-1.45598">
        <ele>-2.27</ele>
        <time>2016-08-31T15:56:10Z</time>
      </trkpt>
      <trkpt lat="46.21018" lon="-1.45574">
        <ele>-1.79</ele>
        <time>2016-08-31T15:56:13Z</time>
      </trkpt>
      <trkpt lat="46.20982" lon="-1.45458">
        <ele>-2.27</ele>
        <time>2016-08-31T15:56:28Z</time>
      </trkpt>
      <trkpt lat="46.20963" lon="-1.45407">
        <ele>-2.75</ele>
        <time>2016-08-31T15:56:35Z</time>
      </trkpt>
      <trkpt lat="46.20962" lon="-1.45399">
        <ele>-2.27</ele>
        <time>2016-08-31T15:56:36Z</time>
      </trkpt>
      <trkpt lat="46.20955" lon="-1.4536">
        <ele>-2.27</ele>
        <time>2016-08-31T15:56:41Z</time>
      </trkpt>
      <trkpt lat="46.20953" lon="-1.45353">
        <ele>-2.75</ele>
        <time>2016-08-31T15:56:42Z</time>
      </trkpt>
      <trkpt lat="46.20918" lon="-1.45252">
        <ele>-2.27</ele>
        <time>2016-08-31T15:56:55Z</time>
      </trkpt>
      <trkpt lat="46.20883" lon="-1.45148">
        <ele>-2.75</ele>
        <time>2016-08-31T15:57:08Z</time>
      </trkpt>
      <trkpt lat="46.20851" lon="-1.45051">
        <ele>-2.75</ele>
        <time>2016-08-31T15:57:20Z</time>
      </trkpt>
      <trkpt lat="46.20843" lon="-1.45026">
        <ele>-2.27</ele>
        <time>2016-08-31T15:57:23Z</time>
      </trkpt>
      <trkpt lat="46.20837" lon="-1.4501">
        <ele>-2.27</ele>
        <time>2016-08-31T15:57:25Z</time>
      </trkpt>
      <trkpt lat="46.208" lon="-1.449">
        <ele>-2.27</ele>
        <time>2016-08-31T15:57:39Z</time>
      </trkpt>
      <trkpt lat="46.20795" lon="-1.44875">
        <ele>-1.3</ele>
        <time>2016-08-31T15:57:44Z</time>
      </trkpt>
      <trkpt lat="46.20797" lon="-1.44871">
        <ele>-1.79</ele>
        <time>2016-08-31T15:57:45Z</time>
      </trkpt>
      <trkpt lat="46.208" lon="-1.44869">
        <ele>-2.75</ele>
        <time>2016-08-31T15:57:46Z</time>
      </trkpt>
      <trkpt lat="46.20825" lon="-1.44858">
        <ele>-1.79</ele>
        <time>2016-08-31T15:57:56Z</time>
      </trkpt>
      <trkpt lat="46.20826" lon="-1.44859">
        <ele>-2.27</ele>
        <time>2016-08-31T15:58:14Z</time>
      </trkpt>
      <trkpt lat="46.20825" lon="-1.4486">
        <ele>0.14</ele>
        <time>2016-08-31T15:58:42Z</time>
      </trkpt>
      <trkpt lat="46.20825" lon="-1.44859">
        <ele>3.5</ele>
        <time>2016-08-31T15:58:45Z</time>
      </trkpt>
      <trkpt lat="46.20825" lon="-1.44859">
        <ele>-11.88</ele>
        <time>2016-08-31T15:58:46Z</time>
      </trkpt>
      <trkpt lat="46.20825" lon="-1.44859">
        <ele>0.14</ele>
        <time>2016-08-31T15:58:47Z</time>
      </trkpt>
      <trkpt lat="46.20825" lon="-1.44859">
        <ele>7.35</ele>
        <time>2016-08-31T15:58:49Z</time>
      </trkpt>
      <trkpt lat="46.20825" lon="-1.44859">
        <ele>-9.96</ele>
        <time>2016-08-31T15:58:50Z</time>
      </trkpt>
      <trkpt lat="46.20825" lon="-1.44859">
        <ele>-13.32</ele>
        <time>2016-08-31T15:58:51Z</time>
      </trkpt>
      <trkpt lat="46.20825" lon="-1.44859">
        <ele>1.1</ele>
        <time>2016-08-31T15:58:52Z</time>
      </trkpt>
      <trkpt lat="46.20825" lon="-1.44859">
        <ele>-1.79</ele>
        <time>2016-08-31T15:58:53Z</time>
      </trkpt>
      <trkpt lat="46.20826" lon="-1.44859">
        <ele>10.23</ele>
        <time>2016-08-31T15:58:54Z</time>
      </trkpt>
      <trkpt lat="46.20826" lon="-1.44859">
        <ele>-1.3</ele>
        <time>2016-08-31T15:58:55Z</time>
      </trkpt>
      <trkpt lat="46.20826" lon="-1.44859">
        <ele>-5.63</ele>
        <time>2016-08-31T15:58:57Z</time>
      </trkpt>
      <trkpt lat="46.20826" lon="-1.44859">
        <ele>-0.82</ele>
        <time>2016-08-31T15:58:58Z</time>
      </trkpt>
      <trkpt lat="46.20826" lon="-1.44859">
        <ele>-7.55</ele>
        <time>2016-08-31T15:58:59Z</time>
      </trkpt>
      <trkpt lat="46.20826" lon="-1.44859">
        <ele>-0.82</ele>
        <time>2016-08-31T15:59:00Z</time>
      </trkpt>
      <trkpt lat="46.20826" lon="-1.44859">
        <ele>3.5</ele>
        <time>2016-08-31T15:59:02Z</time>
      </trkpt>
      <trkpt lat="46.20826" lon="-1.44859">
        <ele>-6.59</ele>
        <time>2016-08-31T15:59:03Z</time>
      </trkpt>
      <trkpt lat="46.20826" lon="-1.44859">
        <ele>-3.23</ele>
        <time>2016-08-31T15:59:04Z</time>
      </trkpt>
      <trkpt lat="46.20826" lon="-1.44859">
        <ele>3.02</ele>
        <time>2016-08-31T15:59:06Z</time>
      </trkpt>
      <trkpt lat="46.20826" lon="-1.44859">
        <ele>-1.3</ele>
        <time>2016-08-31T15:59:07Z</time>
      </trkpt>
      <trkpt lat="46.20826" lon="-1.44859">
        <ele>-6.59</ele>
        <time>2016-08-31T15:59:09Z</time>
      </trkpt>
      <trkpt lat="46.20826" lon="-1.44859">
        <ele>-0.82</ele>
        <time>2016-08-31T15:59:10Z</time>
      </trkpt>
      <trkpt lat="46.20826" lon="-1.44859">
        <ele>-4.19</ele>
        <time>2016-08-31T15:59:12Z</time>
      </trkpt>
      <trkpt lat="46.20826" lon="-1.44859">
        <ele>5.42</ele>
        <time>2016-08-31T15:59:13Z</time>
      </trkpt>
      <trkpt lat="46.20826" lon="-1.44859">
        <ele>-1.79</ele>
        <time>2016-08-31T15:59:14Z</time>
      </trkpt>
      <trkpt lat="46.20826" lon="-1.44859">
        <ele>6.87</ele>
        <time>2016-08-31T15:59:15Z</time>
      </trkpt>
      <trkpt lat="46.20826" lon="-1.44859">
        <ele>-1.79</ele>
        <time>2016-08-31T15:59:16Z</time>
      </trkpt>
      <trkpt lat="46.20826" lon="-1.44859">
        <ele>5.42</ele>
        <time>2016-08-31T15:59:17Z</time>
      </trkpt>
      <trkpt lat="46.20826" lon="-1.44859">
        <ele>-9.48</ele>
        <time>2016-08-31T15:59:18Z</time>
      </trkpt>
      <trkpt lat="46.20826" lon="-1.44859">
        <ele>-0.34</ele>
        <time>2016-08-31T15:59:19Z</time>
      </trkpt>
      <trkpt lat="46.20826" lon="-1.44858">
        <ele>-4.19</ele>
        <time>2016-08-31T15:59:24Z</time>
      </trkpt>
      <trkpt lat="46.20826" lon="-1.44858">
        <ele>-1.3</ele>
        <time>2016-08-31T15:59:26Z</time>
      </trkpt>
      <trkpt lat="46.20825" lon="-1.44858">
        <ele>-1.79</ele>
        <time>2016-08-31T15:59:32Z</time>
      </trkpt>
      <trkpt lat="46.20824" lon="-1.44858">
        <ele>-1.79</ele>
        <time>2016-08-31T15:59:33Z</time>
      </trkpt>
      <trkpt lat="46.20821" lon="-1.44859">
        <ele>-1.79</ele>
        <time>2016-08-31T15:59:36Z</time>
      </trkpt>
      <trkpt lat="46.2082" lon="-1.4486">
        <ele>-1.3</ele>
        <time>2016-08-31T15:59:37Z</time>
      </trkpt>
      <trkpt lat="46.20818" lon="-1.44861">
        <ele>-1.79</ele>
        <time>2016-08-31T15:59:38Z</time>
      </trkpt>
      <trkpt lat="46.20815" lon="-1.44863">
        <ele>-2.27</ele>
        <time>2016-08-31T15:59:39Z</time>
      </trkpt>
      <trkpt lat="46.20813" lon="-1.44864">
        <ele>-1.79</ele>
        <time>2016-08-31T15:59:40Z</time>
      </trkpt>
      <trkpt lat="46.20796" lon="-1.44872">
        <ele>-1.79</ele>
        <time>2016-08-31T15:59:47Z</time>
      </trkpt>
      <trkpt lat="46.20794" lon="-1.44871">
        <ele>-1.79</ele>
        <time>2016-08-31T15:59:48Z</time>
      </trkpt>
      <trkpt lat="46.20793" lon="-1.4487">
        <ele>-1.79</ele>
        <time>2016-08-31T15:59:49Z</time>
      </trkpt>
      <trkpt lat="46.20791" lon="-1.44869">
        <ele>-0.82</ele>
        <time>2016-08-31T15:59:50Z</time>
      </trkpt>
      <trkpt lat="46.2079" lon="-1.44867">
        <ele>-1.3</ele>
        <time>2016-08-31T15:59:51Z</time>
      </trkpt>
      <trkpt lat="46.20789" lon="-1.44863">
        <ele>-1.79</ele>
        <time>2016-08-31T15:59:52Z</time>
      </trkpt>
      <trkpt lat="46.20787" lon="-1.44859">
        <ele>-1.3</ele>
        <time>2016-08-31T15:59:53Z</time>
      </trkpt>
      <trkpt lat="46.20765" lon="-1.44793">
        <ele>-1.79</ele>
        <time>2016-08-31T16:00:04Z</time>
      </trkpt>
      <trkpt lat="46.20735" lon="-1.44702">
        <ele>-2.27</ele>
        <time>2016-08-31T16:00:16Z</time>
      </trkpt>
      <trkpt lat="46.207" lon="-1.44598">
        <ele>-1.79</ele>
        <time>2016-08-31T16:00:29Z</time>
      </trkpt>
      <trkpt lat="46.20661" lon="-1.4448">
        <ele>-1.79</ele>
        <time>2016-08-31T16:00:44Z</time>
      </trkpt>
      <trkpt lat="46.20639" lon="-1.44414">
        <ele>-1.3</ele>
        <time>2016-08-31T16:00:55Z</time>
      </trkpt>
      <trkpt lat="46.20638" lon="-1.44401">
        <ele>-1.3</ele>
        <time>2016-08-31T16:00:59Z</time>
      </trkpt>
      <trkpt lat="46.20639" lon="-1.44397">
        <ele>-1.3</ele>
        <time>2016-08-31T16:01:00Z</time>
      </trkpt>
      <trkpt lat="46.20641" lon="-1.44393">
        <ele>-0.82</ele>
        <time>2016-08-31T16:01:01Z</time>
      </trkpt>
      <trkpt lat="46.20658" lon="-1.44365">
        <ele>-1.79</ele>
        <time>2016-08-31T16:01:07Z</time>
      </trkpt>
      <trkpt lat="46.20703" lon="-1.4431">
        <ele>-1.79</ele>
        <time>2016-08-31T16:01:18Z</time>
      </trkpt>
      <trkpt lat="46.2074" lon="-1.44262">
        <ele>-1.79</ele>
        <time>2016-08-31T16:01:27Z</time>
      </trkpt>
      <trkpt lat="46.2075" lon="-1.44243">
        <ele>-1.79</ele>
        <time>2016-08-31T16:01:30Z</time>
      </trkpt>
      <trkpt lat="46.20797" lon="-1.44162">
        <ele>-2.27</ele>
        <time>2016-08-31T16:01:43Z</time>
      </trkpt>
      <trkpt lat="46.20845" lon="-1.44098">
        <ele>-2.27</ele>
        <time>2016-08-31T16:01:55Z</time>
      </trkpt>
      <trkpt lat="46.20846" lon="-1.44091">
        <ele>-2.27</ele>
        <time>2016-08-31T16:01:56Z</time>
      </trkpt>
      <trkpt lat="46.20847" lon="-1.44083">
        <ele>-1.79</ele>
        <time>2016-08-31T16:01:57Z</time>
      </trkpt>
      <trkpt lat="46.20847" lon="-1.44076">
        <ele>-2.27</ele>
        <time>2016-08-31T16:01:58Z</time>
      </trkpt>
      <trkpt lat="46.20845" lon="-1.44068">
        <ele>-1.79</ele>
        <time>2016-08-31T16:01:59Z</time>
      </trkpt>
      <trkpt lat="46.20844" lon="-1.44061">
        <ele>-1.3</ele>
        <time>2016-08-31T16:02:00Z</time>
      </trkpt>
      <trkpt lat="46.20842" lon="-1.44053">
        <ele>-0.82</ele>
        <time>2016-08-31T16:02:01Z</time>
      </trkpt>
      <trkpt lat="46.20837" lon="-1.44039">
        <ele>-1.79</ele>
        <time>2016-08-31T16:02:03Z</time>
      </trkpt>
      <trkpt lat="46.20794" lon="-1.43936">
        <ele>-1.3</ele>
        <time>2016-08-31T16:02:18Z</time>
      </trkpt>
      <trkpt lat="46.20751" lon="-1.4383">
        <ele>-1.3</ele>
        <time>2016-08-31T16:02:33Z</time>
      </trkpt>
      <trkpt lat="46.20712" lon="-1.43747">
        <ele>-1.3</ele>
        <time>2016-08-31T16:02:45Z</time>
      </trkpt>
      <trkpt lat="46.20676" lon="-1.43664">
        <ele>-0.34</ele>
        <time>2016-08-31T16:02:57Z</time>
      </trkpt>
      <trkpt lat="46.20641" lon="-1.43582">
        <ele>-1.79</ele>
        <time>2016-08-31T16:03:08Z</time>
      </trkpt>
      <trkpt lat="46.20602" lon="-1.43477">
        <ele>-1.3</ele>
        <time>2016-08-31T16:03:22Z</time>
      </trkpt>
      <trkpt lat="46.20546" lon="-1.43324">
        <ele>-0.82</ele>
        <time>2016-08-31T16:03:42Z</time>
      </trkpt>
      <trkpt lat="46.205" lon="-1.43219">
        <ele>-1.3</ele>
        <time>2016-08-31T16:03:57Z</time>
      </trkpt>
      <trkpt lat="46.20497" lon="-1.43213">
        <ele>-0.82</ele>
        <time>2016-08-31T16:03:58Z</time>
      </trkpt>
      <trkpt lat="46.20495" lon="-1.43205">
        <ele>-0.82</ele>
        <time>2016-08-31T16:03:59Z</time>
      </trkpt>
      <trkpt lat="46.20494" lon="-1.43197">
        <ele>-1.79</ele>
        <time>2016-08-31T16:04:00Z</time>
      </trkpt>
      <trkpt lat="46.20494" lon="-1.43188">
        <ele>-0.82</ele>
        <time>2016-08-31T16:04:01Z</time>
      </trkpt>
      <trkpt lat="46.20495" lon="-1.4318">
        <ele>-0.82</ele>
        <time>2016-08-31T16:04:02Z</time>
      </trkpt>
      <trkpt lat="46.20497" lon="-1.43172">
        <ele>-0.82</ele>
        <time>2016-08-31T16:04:03Z</time>
      </trkpt>
      <trkpt lat="46.205" lon="-1.43164">
        <ele>-0.34</ele>
        <time>2016-08-31T16:04:04Z</time>
      </trkpt>
      <trkpt lat="46.20507" lon="-1.43141">
        <ele>-1.3</ele>
        <time>2016-08-31T16:04:07Z</time>
      </trkpt>
      <trkpt lat="46.20509" lon="-1.43133">
        <ele>-1.3</ele>
        <time>2016-08-31T16:04:08Z</time>
      </trkpt>
      <trkpt lat="46.20508" lon="-1.43068">
        <ele>-0.82</ele>
        <time>2016-08-31T16:04:16Z</time>
      </trkpt>
      <trkpt lat="46.20506" lon="-1.4306">
        <ele>-0.34</ele>
        <time>2016-08-31T16:04:17Z</time>
      </trkpt>
      <trkpt lat="46.20504" lon="-1.43053">
        <ele>-0.82</ele>
        <time>2016-08-31T16:04:18Z</time>
      </trkpt>
      <trkpt lat="46.20501" lon="-1.43045">
        <ele>-0.34</ele>
        <time>2016-08-31T16:04:19Z</time>
      </trkpt>
      <trkpt lat="46.20498" lon="-1.43038">
        <ele>-0.82</ele>
        <time>2016-08-31T16:04:20Z</time>
      </trkpt>
      <trkpt lat="46.20466" lon="-1.42968">
        <ele>0.62</ele>
        <time>2016-08-31T16:04:30Z</time>
      </trkpt>
      <trkpt lat="46.20462" lon="-1.42962">
        <ele>-0.82</ele>
        <time>2016-08-31T16:04:31Z</time>
      </trkpt>
      <trkpt lat="46.20457" lon="-1.42956">
        <ele>-0.82</ele>
        <time>2016-08-31T16:04:32Z</time>
      </trkpt>
      <trkpt lat="46.20399" lon="-1.42899">
        <ele>-0.82</ele>
        <time>2016-08-31T16:04:44Z</time>
      </trkpt>
      <trkpt lat="46.20357" lon="-1.42847">
        <ele>-1.3</ele>
        <time>2016-08-31T16:04:54Z</time>
      </trkpt>
      <trkpt lat="46.20352" lon="-1.42843">
        <ele>-1.3</ele>
        <time>2016-08-31T16:04:55Z</time>
      </trkpt>
      <trkpt lat="46.20347" lon="-1.42841">
        <ele>-1.79</ele>
        <time>2016-08-31T16:04:56Z</time>
      </trkpt>
      <trkpt lat="46.20341" lon="-1.42841">
        <ele>-1.79</ele>
        <time>2016-08-31T16:04:57Z</time>
      </trkpt>
      <trkpt lat="46.20335" lon="-1.42842">
        <ele>-2.27</ele>
        <time>2016-08-31T16:04:58Z</time>
      </trkpt>
      <trkpt lat="46.20329" lon="-1.42844">
        <ele>-1.79</ele>
        <time>2016-08-31T16:04:59Z</time>
      </trkpt>
      <trkpt lat="46.20252" lon="-1.42866">
        <ele>-1.79</ele>
        <time>2016-08-31T16:05:12Z</time>
      </trkpt>
      <trkpt lat="46.20211" lon="-1.42866">
        <ele>-2.27</ele>
        <time>2016-08-31T16:05:19Z</time>
      </trkpt>
      <trkpt lat="46.20205" lon="-1.42864">
        <ele>-2.27</ele>
        <time>2016-08-31T16:05:20Z</time>
      </trkpt>
      <trkpt lat="46.202" lon="-1.4286">
        <ele>-2.27</ele>
        <time>2016-08-31T16:05:21Z</time>
      </trkpt>
      <trkpt lat="46.20195" lon="-1.42855">
        <ele>-1.79</ele>
        <time>2016-08-31T16:05:22Z</time>
      </trkpt>
      <trkpt lat="46.20191" lon="-1.4285">
        <ele>-2.27</ele>
        <time>2016-08-31T16:05:23Z</time>
      </trkpt>
      <trkpt lat="46.20186" lon="-1.42844">
        <ele>-1.79</ele>
        <time>2016-08-31T16:05:24Z</time>
      </trkpt>
      <trkpt lat="46.20182" lon="-1.42838">
        <ele>-2.27</ele>
        <time>2016-08-31T16:05:25Z</time>
      </trkpt>
      <trkpt lat="46.20178" lon="-1.42832">
        <ele>-1.79</ele>
        <time>2016-08-31T16:05:26Z</time>
      </trkpt>
      <trkpt lat="46.20137" lon="-1.42779">
        <ele>-2.27</ele>
        <time>2016-08-31T16:05:35Z</time>
      </trkpt>
      <trkpt lat="46.20132" lon="-1.42775">
        <ele>-2.27</ele>
        <time>2016-08-31T16:05:36Z</time>
      </trkpt>
      <trkpt lat="46.20125" lon="-1.42772">
        <ele>-2.75</ele>
        <time>2016-08-31T16:05:37Z</time>
      </trkpt>
      <trkpt lat="46.20119" lon="-1.4277">
        <ele>-2.27</ele>
        <time>2016-08-31T16:05:38Z</time>
      </trkpt>
      <trkpt lat="46.20113" lon="-1.42769">
        <ele>-2.27</ele>
        <time>2016-08-31T16:05:39Z</time>
      </trkpt>
      <trkpt lat="46.20107" lon="-1.42768">
        <ele>-2.75</ele>
        <time>2016-08-31T16:05:40Z</time>
      </trkpt>
      <trkpt lat="46.20022" lon="-1.42756">
        <ele>-2.75</ele>
        <time>2016-08-31T16:05:54Z</time>
      </trkpt>
      <trkpt lat="46.19994" lon="-1.42746">
        <ele>-1.79</ele>
        <time>2016-08-31T16:06:00Z</time>
      </trkpt>
      <trkpt lat="46.19991" lon="-1.42743">
        <ele>-1.79</ele>
        <time>2016-08-31T16:06:01Z</time>
      </trkpt>
      <trkpt lat="46.19987" lon="-1.42739">
        <ele>-1.3</ele>
        <time>2016-08-31T16:06:02Z</time>
      </trkpt>
      <trkpt lat="46.19984" lon="-1.42734">
        <ele>-2.27</ele>
        <time>2016-08-31T16:06:03Z</time>
      </trkpt>
      <trkpt lat="46.19981" lon="-1.42728">
        <ele>-1.79</ele>
        <time>2016-08-31T16:06:04Z</time>
      </trkpt>
      <trkpt lat="46.19979" lon="-1.42722">
        <ele>-2.27</ele>
        <time>2016-08-31T16:06:05Z</time>
      </trkpt>
      <trkpt lat="46.19976" lon="-1.42715">
        <ele>-1.79</ele>
        <time>2016-08-31T16:06:06Z</time>
      </trkpt>
      <trkpt lat="46.19974" lon="-1.42708">
        <ele>-1.79</ele>
        <time>2016-08-31T16:06:07Z</time>
      </trkpt>
      <trkpt lat="46.19928" lon="-1.42595">
        <ele>-1.3</ele>
        <time>2016-08-31T16:06:23Z</time>
      </trkpt>
      <trkpt lat="46.19899" lon="-1.42519">
        <ele>-2.27</ele>
        <time>2016-08-31T16:06:34Z</time>
      </trkpt>
      <trkpt lat="46.19897" lon="-1.42513">
        <ele>-2.27</ele>
        <time>2016-08-31T16:06:35Z</time>
      </trkpt>
      <trkpt lat="46.19879" lon="-1.42474">
        <ele>-1.3</ele>
        <time>2016-08-31T16:06:43Z</time>
      </trkpt>
      <trkpt lat="46.19876" lon="-1.42467">
        <ele>-1.3</ele>
        <time>2016-08-31T16:06:44Z</time>
      </trkpt>
      <trkpt lat="46.19875" lon="-1.42459">
        <ele>-1.79</ele>
        <time>2016-08-31T16:06:45Z</time>
      </trkpt>
      <trkpt lat="46.19873" lon="-1.42435">
        <ele>-3.71</ele>
        <time>2016-08-31T16:06:48Z</time>
      </trkpt>
      <trkpt lat="46.19869" lon="-1.42411">
        <ele>0.62</ele>
        <time>2016-08-31T16:06:51Z</time>
      </trkpt>
      <trkpt lat="46.19866" lon="-1.42403">
        <ele>-1.3</ele>
        <time>2016-08-31T16:06:52Z</time>
      </trkpt>
      <trkpt lat="46.19864" lon="-1.42395">
        <ele>-1.79</ele>
        <time>2016-08-31T16:06:53Z</time>
      </trkpt>
      <trkpt lat="46.19823" lon="-1.42317">
        <ele>-1.3</ele>
        <time>2016-08-31T16:07:04Z</time>
      </trkpt>
      <trkpt lat="46.19758" lon="-1.42233">
        <ele>-1.3</ele>
        <time>2016-08-31T16:07:18Z</time>
      </trkpt>
      <trkpt lat="46.19734" lon="-1.42201">
        <ele>-0.82</ele>
        <time>2016-08-31T16:07:23Z</time>
      </trkpt>
      <trkpt lat="46.19729" lon="-1.42195">
        <ele>-1.3</ele>
        <time>2016-08-31T16:07:24Z</time>
      </trkpt>
      <trkpt lat="46.1967" lon="-1.42113">
        <ele>-0.82</ele>
        <time>2016-08-31T16:07:37Z</time>
      </trkpt>
      <trkpt lat="46.19635" lon="-1.42015">
        <ele>-1.3</ele>
        <time>2016-08-31T16:07:49Z</time>
      </trkpt>
      <trkpt lat="46.19629" lon="-1.4199">
        <ele>-1.3</ele>
        <time>2016-08-31T16:07:52Z</time>
      </trkpt>
      <trkpt lat="46.19625" lon="-1.41984">
        <ele>-1.3</ele>
        <time>2016-08-31T16:07:53Z</time>
      </trkpt>
      <trkpt lat="46.1962" lon="-1.41979">
        <ele>-1.3</ele>
        <time>2016-08-31T16:07:54Z</time>
      </trkpt>
      <trkpt lat="46.19612" lon="-1.41972">
        <ele>-1.3</ele>
        <time>2016-08-31T16:07:56Z</time>
      </trkpt>
      <trkpt lat="46.19611" lon="-1.41966">
        <ele>-1.3</ele>
        <time>2016-08-31T16:07:57Z</time>
      </trkpt>
      <trkpt lat="46.19611" lon="-1.41959">
        <ele>-1.3</ele>
        <time>2016-08-31T16:07:58Z</time>
      </trkpt>
      <trkpt lat="46.19614" lon="-1.41953">
        <ele>-1.3</ele>
        <time>2016-08-31T16:07:59Z</time>
      </trkpt>
      <trkpt lat="46.19617" lon="-1.41947">
        <ele>-2.27</ele>
        <time>2016-08-31T16:08:00Z</time>
      </trkpt>
      <trkpt lat="46.19618" lon="-1.41941">
        <ele>-1.79</ele>
        <time>2016-08-31T16:08:01Z</time>
      </trkpt>
      <trkpt lat="46.19618" lon="-1.41935">
        <ele>-0.82</ele>
        <time>2016-08-31T16:08:02Z</time>
      </trkpt>
      <trkpt lat="46.19612" lon="-1.41908">
        <ele>-0.82</ele>
        <time>2016-08-31T16:08:06Z</time>
      </trkpt>
      <trkpt lat="46.19611" lon="-1.419">
        <ele>-0.82</ele>
        <time>2016-08-31T16:08:07Z</time>
      </trkpt>
      <trkpt lat="46.19596" lon="-1.418">
        <ele>-1.3</ele>
        <time>2016-08-31T16:08:20Z</time>
      </trkpt>
      <trkpt lat="46.19579" lon="-1.4171">
        <ele>-0.82</ele>
        <time>2016-08-31T16:08:32Z</time>
      </trkpt>
      <trkpt lat="46.19578" lon="-1.41703">
        <ele>-0.82</ele>
        <time>2016-08-31T16:08:33Z</time>
      </trkpt>
      <trkpt lat="46.19578" lon="-1.41688">
        <ele>-0.82</ele>
        <time>2016-08-31T16:08:35Z</time>
      </trkpt>
      <trkpt lat="46.19579" lon="-1.41681">
        <ele>-1.79</ele>
        <time>2016-08-31T16:08:36Z</time>
      </trkpt>
      <trkpt lat="46.19591" lon="-1.41589">
        <ele>-1.3</ele>
        <time>2016-08-31T16:08:48Z</time>
      </trkpt>
      <trkpt lat="46.19601" lon="-1.41501">
        <ele>-0.82</ele>
        <time>2016-08-31T16:08:59Z</time>
      </trkpt>
      <trkpt lat="46.19611" lon="-1.41406">
        <ele>-1.79</ele>
        <time>2016-08-31T16:09:11Z</time>
      </trkpt>
      <trkpt lat="46.19626" lon="-1.41291">
        <ele>-1.79</ele>
        <time>2016-08-31T16:09:25Z</time>
      </trkpt>
      <trkpt lat="46.19629" lon="-1.41259">
        <ele>-1.79</ele>
        <time>2016-08-31T16:09:29Z</time>
      </trkpt>
      <trkpt lat="46.19629" lon="-1.41251">
        <ele>-1.3</ele>
        <time>2016-08-31T16:09:30Z</time>
      </trkpt>
      <trkpt lat="46.19628" lon="-1.41244">
        <ele>-0.82</ele>
        <time>2016-08-31T16:09:31Z</time>
      </trkpt>
      <trkpt lat="46.19627" lon="-1.41236">
        <ele>-0.82</ele>
        <time>2016-08-31T16:09:32Z</time>
      </trkpt>
      <trkpt lat="46.19625" lon="-1.41228">
        <ele>-1.3</ele>
        <time>2016-08-31T16:09:33Z</time>
      </trkpt>
      <trkpt lat="46.19623" lon="-1.41221">
        <ele>-1.3</ele>
        <time>2016-08-31T16:09:34Z</time>
      </trkpt>
      <trkpt lat="46.19596" lon="-1.41121">
        <ele>-1.79</ele>
        <time>2016-08-31T16:09:47Z</time>
      </trkpt>
      <trkpt lat="46.19591" lon="-1.41064">
        <ele>-1.3</ele>
        <time>2016-08-31T16:09:54Z</time>
      </trkpt>
      <trkpt lat="46.19592" lon="-1.40984">
        <ele>-1.79</ele>
        <time>2016-08-31T16:10:04Z</time>
      </trkpt>
      <trkpt lat="46.19605" lon="-1.40885">
        <ele>-1.3</ele>
        <time>2016-08-31T16:10:18Z</time>
      </trkpt>
      <trkpt lat="46.19603" lon="-1.4088">
        <ele>-1.3</ele>
        <time>2016-08-31T16:10:19Z</time>
      </trkpt>
      <trkpt lat="46.196" lon="-1.40876">
        <ele>-1.3</ele>
        <time>2016-08-31T16:10:20Z</time>
      </trkpt>
      <trkpt lat="46.19593" lon="-1.40868">
        <ele>-1.3</ele>
        <time>2016-08-31T16:10:22Z</time>
      </trkpt>
      <trkpt lat="46.19589" lon="-1.40864">
        <ele>-1.3</ele>
        <time>2016-08-31T16:10:23Z</time>
      </trkpt>
      <trkpt lat="46.19562" lon="-1.40837">
        <ele>-11.88</ele>
        <time>2016-08-31T16:10:31Z</time>
      </trkpt>
      <trkpt lat="46.19559" lon="-1.40834">
        <ele>-0.82</ele>
        <time>2016-08-31T16:10:32Z</time>
      </trkpt>
      <trkpt lat="46.19555" lon="-1.40829">
        <ele>-5.63</ele>
        <time>2016-08-31T16:10:36Z</time>
      </trkpt>
      <trkpt lat="46.19555" lon="-1.40829">
        <ele>-0.82</ele>
        <time>2016-08-31T16:10:37Z</time>
      </trkpt>
      <trkpt lat="46.19555" lon="-1.40829">
        <ele>15.52</ele>
        <time>2016-08-31T16:10:38Z</time>
      </trkpt>
      <trkpt lat="46.19555" lon="-1.40829">
        <ele>5.91</ele>
        <time>2016-08-31T16:10:39Z</time>
      </trkpt>
      <trkpt lat="46.19555" lon="-1.40829">
        <ele>-1.3</ele>
        <time>2016-08-31T16:10:41Z</time>
      </trkpt>
      <trkpt lat="46.19555" lon="-1.40829">
        <ele>-1.79</ele>
        <time>2016-08-31T16:10:42Z</time>
      </trkpt>
      <trkpt lat="46.19554" lon="-1.40828">
        <ele>-1.79</ele>
        <time>2016-08-31T16:10:43Z</time>
      </trkpt>
      <trkpt lat="46.19552" lon="-1.40827">
        <ele>-1.79</ele>
        <time>2016-08-31T16:10:44Z</time>
      </trkpt>
      <trkpt lat="46.1955" lon="-1.40824">
        <ele>-1.79</ele>
        <time>2016-08-31T16:10:45Z</time>
      </trkpt>
      <trkpt lat="46.19548" lon="-1.40822">
        <ele>-1.79</ele>
        <time>2016-08-31T16:10:46Z</time>
      </trkpt>
      <trkpt lat="46.19546" lon="-1.40819">
        <ele>-1.3</ele>
        <time>2016-08-31T16:10:47Z</time>
      </trkpt>
      <trkpt lat="46.1954" lon="-1.40815">
        <ele>-5.63</ele>
        <time>2016-08-31T16:10:54Z</time>
      </trkpt>
      <trkpt lat="46.1954" lon="-1.40815">
        <ele>13.12</ele>
        <time>2016-08-31T16:10:55Z</time>
      </trkpt>
      <trkpt lat="46.1954" lon="-1.40815">
        <ele>-15.72</ele>
        <time>2016-08-31T16:10:56Z</time>
      </trkpt>
      <trkpt lat="46.1954" lon="-1.40815">
        <ele>-1.79</ele>
        <time>2016-08-31T16:10:57Z</time>
      </trkpt>
      <trkpt lat="46.1954" lon="-1.40815">
        <ele>-0.82</ele>
        <time>2016-08-31T16:10:59Z</time>
      </trkpt>
      <trkpt lat="46.1954" lon="-1.40815">
        <ele>-12.84</ele>
        <time>2016-08-31T16:11:00Z</time>
      </trkpt>
      <trkpt lat="46.1954" lon="-1.40815">
        <ele>2.54</ele>
        <time>2016-08-31T16:11:01Z</time>
      </trkpt>
      <trkpt lat="46.1954" lon="-1.40815">
        <ele>-1.3</ele>
        <time>2016-08-31T16:11:02Z</time>
      </trkpt>
      <trkpt lat="46.19535" lon="-1.40818">
        <ele>-0.82</ele>
        <time>2016-08-31T16:11:12Z</time>
      </trkpt>
      <trkpt lat="46.19533" lon="-1.4082">
        <ele>-0.82</ele>
        <time>2016-08-31T16:11:13Z</time>
      </trkpt>
      <trkpt lat="46.19528" lon="-1.40827">
        <ele>-1.79</ele>
        <time>2016-08-31T16:11:15Z</time>
      </trkpt>
      <trkpt lat="46.19525" lon="-1.40832">
        <ele>-1.79</ele>
        <time>2016-08-31T16:11:16Z</time>
      </trkpt>
      <trkpt lat="46.19523" lon="-1.40837">
        <ele>-2.27</ele>
        <time>2016-08-31T16:11:17Z</time>
      </trkpt>
      <trkpt lat="46.1952" lon="-1.40841">
        <ele>-1.79</ele>
        <time>2016-08-31T16:11:18Z</time>
      </trkpt>
      <trkpt lat="46.19518" lon="-1.40845">
        <ele>-1.79</ele>
        <time>2016-08-31T16:11:19Z</time>
      </trkpt>
      <trkpt lat="46.1949" lon="-1.40905">
        <ele>-1.79</ele>
        <time>2016-08-31T16:11:30Z</time>
      </trkpt>
      <trkpt lat="46.19441" lon="-1.40985">
        <ele>-2.75</ele>
        <time>2016-08-31T16:11:45Z</time>
      </trkpt>
      <trkpt lat="46.19429" lon="-1.41014">
        <ele>-2.75</ele>
        <time>2016-08-31T16:11:50Z</time>
      </trkpt>
      <trkpt lat="46.19426" lon="-1.41018">
        <ele>-2.75</ele>
        <time>2016-08-31T16:11:51Z</time>
      </trkpt>
      <trkpt lat="46.19422" lon="-1.4102">
        <ele>-2.75</ele>
        <time>2016-08-31T16:11:52Z</time>
      </trkpt>
      <trkpt lat="46.19417" lon="-1.41022">
        <ele>-2.75</ele>
        <time>2016-08-31T16:11:53Z</time>
      </trkpt>
      <trkpt lat="46.19413" lon="-1.41021">
        <ele>-2.75</ele>
        <time>2016-08-31T16:11:54Z</time>
      </trkpt>
      <trkpt lat="46.1941" lon="-1.41018">
        <ele>-1.79</ele>
        <time>2016-08-31T16:11:55Z</time>
      </trkpt>
      <trkpt lat="46.19408" lon="-1.41013">
        <ele>-2.27</ele>
        <time>2016-08-31T16:11:56Z</time>
      </trkpt>
      <trkpt lat="46.19406" lon="-1.41008">
        <ele>-2.27</ele>
        <time>2016-08-31T16:11:57Z</time>
      </trkpt>
      <trkpt lat="46.19405" lon="-1.41001">
        <ele>-2.27</ele>
        <time>2016-08-31T16:11:58Z</time>
      </trkpt>
      <trkpt lat="46.19403" lon="-1.40995">
        <ele>-1.79</ele>
        <time>2016-08-31T16:11:59Z</time>
      </trkpt>
      <trkpt lat="46.19382" lon="-1.40909">
        <ele>-2.27</ele>
        <time>2016-08-31T16:12:11Z</time>
      </trkpt>
      <trkpt lat="46.19365" lon="-1.40841">
        <ele>-1.79</ele>
        <time>2016-08-31T16:12:21Z</time>
      </trkpt>
      <trkpt lat="46.19358" lon="-1.40807">
        <ele>-1.79</ele>
        <time>2016-08-31T16:12:28Z</time>
      </trkpt>
      <trkpt lat="46.19353" lon="-1.40789">
        <ele>-1.3</ele>
        <time>2016-08-31T16:12:31Z</time>
      </trkpt>
      <trkpt lat="46.19349" lon="-1.40787">
        <ele>-1.3</ele>
        <time>2016-08-31T16:12:32Z</time>
      </trkpt>
      <trkpt lat="46.19345" lon="-1.40787">
        <ele>-1.79</ele>
        <time>2016-08-31T16:12:33Z</time>
      </trkpt>
      <trkpt lat="46.19341" lon="-1.4079">
        <ele>-1.79</ele>
        <time>2016-08-31T16:12:34Z</time>
      </trkpt>
      <trkpt lat="46.19338" lon="-1.40793">
        <ele>-2.27</ele>
        <time>2016-08-31T16:12:35Z</time>
      </trkpt>
      <trkpt lat="46.19311" lon="-1.40823">
        <ele>-2.75</ele>
        <time>2016-08-31T16:12:42Z</time>
      </trkpt>
      <trkpt lat="46.19307" lon="-1.40827">
        <ele>-2.27</ele>
        <time>2016-08-31T16:12:43Z</time>
      </trkpt>
      <trkpt lat="46.19303" lon="-1.40831">
        <ele>-2.27</ele>
        <time>2016-08-31T16:12:44Z</time>
      </trkpt>
      <trkpt lat="46.19295" lon="-1.40839">
        <ele>-2.75</ele>
        <time>2016-08-31T16:12:46Z</time>
      </trkpt>
      <trkpt lat="46.1929" lon="-1.40842">
        <ele>-2.27</ele>
        <time>2016-08-31T16:12:47Z</time>
      </trkpt>
      <trkpt lat="46.19285" lon="-1.40844">
        <ele>-2.27</ele>
        <time>2016-08-31T16:12:48Z</time>
      </trkpt>
      <trkpt lat="46.19275" lon="-1.40848">
        <ele>-2.75</ele>
        <time>2016-08-31T16:12:50Z</time>
      </trkpt>
      <trkpt lat="46.1927" lon="-1.4085">
        <ele>-2.75</ele>
        <time>2016-08-31T16:12:51Z</time>
      </trkpt>
      <trkpt lat="46.19266" lon="-1.40851">
        <ele>-2.27</ele>
        <time>2016-08-31T16:12:52Z</time>
      </trkpt>
      <trkpt lat="46.19227" lon="-1.40859">
        <ele>-2.27</ele>
        <time>2016-08-31T16:13:00Z</time>
      </trkpt>
      <trkpt lat="46.19222" lon="-1.40859">
        <ele>-2.27</ele>
        <time>2016-08-31T16:13:01Z</time>
      </trkpt>
      <trkpt lat="46.19217" lon="-1.40859">
        <ele>-2.27</ele>
        <time>2016-08-31T16:13:02Z</time>
      </trkpt>
      <trkpt lat="46.19207" lon="-1.4086">
        <ele>-2.27</ele>
        <time>2016-08-31T16:13:04Z</time>
      </trkpt>
      <trkpt lat="46.19193" lon="-1.40864">
        <ele>-2.75</ele>
        <time>2016-08-31T16:13:07Z</time>
      </trkpt>
      <trkpt lat="46.19169" lon="-1.40876">
        <ele>-2.27</ele>
        <time>2016-08-31T16:13:12Z</time>
      </trkpt>
      <trkpt lat="46.19111" lon="-1.40885">
        <ele>-2.27</ele>
        <time>2016-08-31T16:13:24Z</time>
      </trkpt>
      <trkpt lat="46.19097" lon="-1.40886">
        <ele>-1.79</ele>
        <time>2016-08-31T16:13:27Z</time>
      </trkpt>
      <trkpt lat="46.19092" lon="-1.40888">
        <ele>-2.27</ele>
        <time>2016-08-31T16:13:28Z</time>
      </trkpt>
      <trkpt lat="46.19084" lon="-1.40893">
        <ele>-1.79</ele>
        <time>2016-08-31T16:13:30Z</time>
      </trkpt>
      <trkpt lat="46.19071" lon="-1.40901">
        <ele>-2.27</ele>
        <time>2016-08-31T16:13:33Z</time>
      </trkpt>
      <trkpt lat="46.19058" lon="-1.40911">
        <ele>-2.75</ele>
        <time>2016-08-31T16:13:36Z</time>
      </trkpt>
      <trkpt lat="46.19054" lon="-1.40914">
        <ele>-2.27</ele>
        <time>2016-08-31T16:13:37Z</time>
      </trkpt>
      <trkpt lat="46.19013" lon="-1.40949">
        <ele>-1.79</ele>
        <time>2016-08-31T16:13:47Z</time>
      </trkpt>
      <trkpt lat="46.1901" lon="-1.40954">
        <ele>-1.79</ele>
        <time>2016-08-31T16:13:48Z</time>
      </trkpt>
      <trkpt lat="46.19002" lon="-1.40963">
        <ele>-2.27</ele>
        <time>2016-08-31T16:13:50Z</time>
      </trkpt>
      <trkpt lat="46.18971" lon="-1.41014">
        <ele>-2.75</ele>
        <time>2016-08-31T16:14:00Z</time>
      </trkpt>
      <trkpt lat="46.18967" lon="-1.41017">
        <ele>-2.75</ele>
        <time>2016-08-31T16:14:01Z</time>
      </trkpt>
      <trkpt lat="46.18965" lon="-1.41021">
        <ele>-2.27</ele>
        <time>2016-08-31T16:14:02Z</time>
      </trkpt>
      <trkpt lat="46.18962" lon="-1.41025">
        <ele>-2.75</ele>
        <time>2016-08-31T16:14:03Z</time>
      </trkpt>
      <trkpt lat="46.1896" lon="-1.41028">
        <ele>-2.27</ele>
        <time>2016-08-31T16:14:04Z</time>
      </trkpt>
      <trkpt lat="46.18944" lon="-1.41045">
        <ele>-2.27</ele>
        <time>2016-08-31T16:14:13Z</time>
      </trkpt>
      <trkpt lat="46.18938" lon="-1.4105">
        <ele>-5.15</ele>
        <time>2016-08-31T16:14:23Z</time>
      </trkpt>
      <trkpt lat="46.18938" lon="-1.4105">
        <ele>-1.79</ele>
        <time>2016-08-31T16:14:24Z</time>
      </trkpt>
      <trkpt lat="46.18938" lon="-1.4105">
        <ele>-1.79</ele>
        <time>2016-08-31T16:14:37Z</time>
      </trkpt>
      <trkpt lat="46.18936" lon="-1.41051">
        <ele>-1.79</ele>
        <time>2016-08-31T16:14:38Z</time>
      </trkpt>
      <trkpt lat="46.18934" lon="-1.41051">
        <ele>-1.79</ele>
        <time>2016-08-31T16:14:39Z</time>
      </trkpt>
      <trkpt lat="46.18932" lon="-1.41049">
        <ele>-1.79</ele>
        <time>2016-08-31T16:14:40Z</time>
      </trkpt>
      <trkpt lat="46.1893" lon="-1.41045">
        <ele>-1.79</ele>
        <time>2016-08-31T16:14:41Z</time>
      </trkpt>
      <trkpt lat="46.18928" lon="-1.41041">
        <ele>-1.79</ele>
        <time>2016-08-31T16:14:42Z</time>
      </trkpt>
      <trkpt lat="46.18927" lon="-1.41036">
        <ele>-1.79</ele>
        <time>2016-08-31T16:14:43Z</time>
      </trkpt>
      <trkpt lat="46.18921" lon="-1.41021">
        <ele>-1.79</ele>
        <time>2016-08-31T16:14:46Z</time>
      </trkpt>
      <trkpt lat="46.1892" lon="-1.41015">
        <ele>-1.79</ele>
        <time>2016-08-31T16:14:47Z</time>
      </trkpt>
      <trkpt lat="46.1889" lon="-1.40915">
        <ele>-1.3</ele>
        <time>2016-08-31T16:15:01Z</time>
      </trkpt>
      <trkpt lat="46.18855" lon="-1.40815">
        <ele>-1.3</ele>
        <time>2016-08-31T16:15:14Z</time>
      </trkpt>
      <trkpt lat="46.18831" lon="-1.40779">
        <ele>-0.82</ele>
        <time>2016-08-31T16:15:20Z</time>
      </trkpt>
      <trkpt lat="46.18783" lon="-1.40719">
        <ele>-0.82</ele>
        <time>2016-08-31T16:15:31Z</time>
      </trkpt>
      <trkpt lat="46.1874" lon="-1.4065">
        <ele>0.14</ele>
        <time>2016-08-31T16:15:42Z</time>
      </trkpt>
      <trkpt lat="46.18713" lon="-1.40552">
        <ele>-0.34</ele>
        <time>2016-08-31T16:15:54Z</time>
      </trkpt>
      <trkpt lat="46.18713" lon="-1.40455">
        <ele>-0.34</ele>
        <time>2016-08-31T16:16:05Z</time>
      </trkpt>
      <trkpt lat="46.18712" lon="-1.4033">
        <ele>-0.34</ele>
        <time>2016-08-31T16:16:19Z</time>
      </trkpt>
      <trkpt lat="46.18692" lon="-1.40219">
        <ele>0.14</ele>
        <time>2016-08-31T16:16:32Z</time>
      </trkpt>
      <trkpt lat="46.18683" lon="-1.40186">
        <ele>-0.34</ele>
        <time>2016-08-31T16:16:36Z</time>
      </trkpt>
      <trkpt lat="46.1868" lon="-1.40179">
        <ele>0.14</ele>
        <time>2016-08-31T16:16:37Z</time>
      </trkpt>
      <trkpt lat="46.18676" lon="-1.40172">
        <ele>-0.34</ele>
        <time>2016-08-31T16:16:38Z</time>
      </trkpt>
      <trkpt lat="46.18648" lon="-1.40117">
        <ele>0.62</ele>
        <time>2016-08-31T16:16:46Z</time>
      </trkpt>
      <trkpt lat="46.18596" lon="-1.40031">
        <ele>0.62</ele>
        <time>2016-08-31T16:16:59Z</time>
      </trkpt>
      <trkpt lat="46.18535" lon="-1.39949">
        <ele>0.62</ele>
        <time>2016-08-31T16:17:13Z</time>
      </trkpt>
      <trkpt lat="46.18484" lon="-1.39893">
        <ele>1.1</ele>
        <time>2016-08-31T16:17:24Z</time>
      </trkpt>
      <trkpt lat="46.18479" lon="-1.39887">
        <ele>1.1</ele>
        <time>2016-08-31T16:17:25Z</time>
      </trkpt>
      <trkpt lat="46.18418" lon="-1.39818">
        <ele>1.58</ele>
        <time>2016-08-31T16:17:38Z</time>
      </trkpt>
      <trkpt lat="46.18366" lon="-1.39757">
        <ele>1.1</ele>
        <time>2016-08-31T16:17:49Z</time>
      </trkpt>
      <trkpt lat="46.18345" lon="-1.39721">
        <ele>1.1</ele>
        <time>2016-08-31T16:17:55Z</time>
      </trkpt>
      <trkpt lat="46.18343" lon="-1.39714">
        <ele>1.58</ele>
        <time>2016-08-31T16:17:56Z</time>
      </trkpt>
      <trkpt lat="46.18343" lon="-1.39708">
        <ele>1.58</ele>
        <time>2016-08-31T16:17:57Z</time>
      </trkpt>
      <trkpt lat="46.18345" lon="-1.39701">
        <ele>1.1</ele>
        <time>2016-08-31T16:17:58Z</time>
      </trkpt>
      <trkpt lat="46.18347" lon="-1.39694">
        <ele>0.62</ele>
        <time>2016-08-31T16:17:59Z</time>
      </trkpt>
      <trkpt lat="46.18349" lon="-1.39686">
        <ele>1.1</ele>
        <time>2016-08-31T16:18:00Z</time>
      </trkpt>
      <trkpt lat="46.1835" lon="-1.39678">
        <ele>1.58</ele>
        <time>2016-08-31T16:18:01Z</time>
      </trkpt>
      <trkpt lat="46.18357" lon="-1.39637">
        <ele>2.06</ele>
        <time>2016-08-31T16:18:06Z</time>
      </trkpt>
      <trkpt lat="46.18398" lon="-1.39535">
        <ele>1.1</ele>
        <time>2016-08-31T16:18:19Z</time>
      </trkpt>
      <trkpt lat="46.18435" lon="-1.39432">
        <ele>1.1</ele>
        <time>2016-08-31T16:18:33Z</time>
      </trkpt>
      <trkpt lat="46.18436" lon="-1.39426">
        <ele>1.58</ele>
        <time>2016-08-31T16:18:34Z</time>
      </trkpt>
      <trkpt lat="46.18436" lon="-1.3942">
        <ele>1.58</ele>
        <time>2016-08-31T16:18:35Z</time>
      </trkpt>
      <trkpt lat="46.18434" lon="-1.39416">
        <ele>1.58</ele>
        <time>2016-08-31T16:18:36Z</time>
      </trkpt>
      <trkpt lat="46.18433" lon="-1.39412">
        <ele>1.58</ele>
        <time>2016-08-31T16:18:37Z</time>
      </trkpt>
      <trkpt lat="46.18432" lon="-1.39407">
        <ele>1.1</ele>
        <time>2016-08-31T16:18:38Z</time>
      </trkpt>
      <trkpt lat="46.18432" lon="-1.39403">
        <ele>1.1</ele>
        <time>2016-08-31T16:18:39Z</time>
      </trkpt>
      <trkpt lat="46.18431" lon="-1.394">
        <ele>4.94</ele>
        <time>2016-08-31T16:18:42Z</time>
      </trkpt>
      <trkpt lat="46.18431" lon="-1.394">
        <ele>1.58</ele>
        <time>2016-08-31T16:18:43Z</time>
      </trkpt>
      <trkpt lat="46.18431" lon="-1.394">
        <ele>-3.71</ele>
        <time>2016-08-31T16:18:44Z</time>
      </trkpt>
      <trkpt lat="46.18431" lon="-1.394">
        <ele>-9.48</ele>
        <time>2016-08-31T16:18:45Z</time>
      </trkpt>
      <trkpt lat="46.18431" lon="-1.394">
        <ele>3.02</ele>
        <time>2016-08-31T16:18:46Z</time>
      </trkpt>
      <trkpt lat="46.18431" lon="-1.394">
        <ele>15.04</ele>
        <time>2016-08-31T16:18:48Z</time>
      </trkpt>
      <trkpt lat="46.18431" lon="-1.394">
        <ele>-3.23</ele>
        <time>2016-08-31T16:18:49Z</time>
      </trkpt>
      <trkpt lat="46.18431" lon="-1.394">
        <ele>5.42</ele>
        <time>2016-08-31T16:18:50Z</time>
      </trkpt>
      <trkpt lat="46.18431" lon="-1.394">
        <ele>2.06</ele>
        <time>2016-08-31T16:18:51Z</time>
      </trkpt>
      <trkpt lat="46.18431" lon="-1.394">
        <ele>-7.07</ele>
        <time>2016-08-31T16:18:52Z</time>
      </trkpt>
      <trkpt lat="46.18431" lon="-1.394">
        <ele>-0.82</ele>
        <time>2016-08-31T16:18:53Z</time>
      </trkpt>
      <trkpt lat="46.18431" lon="-1.394">
        <ele>1.1</ele>
        <time>2016-08-31T16:18:56Z</time>
      </trkpt>
      <trkpt lat="46.1843" lon="-1.394">
        <ele>1.1</ele>
        <time>2016-08-31T16:19:06Z</time>
      </trkpt>
      <trkpt lat="46.1843" lon="-1.394">
        <ele>1.1</ele>
        <time>2016-08-31T16:19:27Z</time>
      </trkpt>
      <trkpt lat="46.1843" lon="-1.394">
        <ele>1.58</ele>
        <time>2016-08-31T16:19:52Z</time>
      </trkpt>
      <trkpt lat="46.18429" lon="-1.39399">
        <ele>1.58</ele>
        <time>2016-08-31T16:20:17Z</time>
      </trkpt>
      <trkpt lat="46.18428" lon="-1.39399">
        <ele>1.1</ele>
        <time>2016-08-31T16:20:41Z</time>
      </trkpt>
      <trkpt lat="46.18429" lon="-1.39399">
        <ele>1.58</ele>
        <time>2016-08-31T16:21:03Z</time>
      </trkpt>
      <trkpt lat="46.18429" lon="-1.394">
        <ele>1.58</ele>
        <time>2016-08-31T16:21:28Z</time>
      </trkpt>
      <trkpt lat="46.1843" lon="-1.394">
        <ele>7.83</ele>
        <time>2016-08-31T16:21:37Z</time>
      </trkpt>
      <trkpt lat="46.1843" lon="-1.394">
        <ele>2.54</ele>
        <time>2016-08-31T16:21:38Z</time>
      </trkpt>
      <trkpt lat="46.1843" lon="-1.394">
        <ele>1.58</ele>
        <time>2016-08-31T16:21:40Z</time>
      </trkpt>
      <trkpt lat="46.1843" lon="-1.394">
        <ele>6.87</ele>
        <time>2016-08-31T16:21:41Z</time>
      </trkpt>
      <trkpt lat="46.1843" lon="-1.394">
        <ele>1.58</ele>
        <time>2016-08-31T16:21:42Z</time>
      </trkpt>
      <trkpt lat="46.1843" lon="-1.394">
        <ele>-8.51</ele>
        <time>2016-08-31T16:21:45Z</time>
      </trkpt>
      <trkpt lat="46.1843" lon="-1.394">
        <ele>3.5</ele>
        <time>2016-08-31T16:21:46Z</time>
      </trkpt>
      <trkpt lat="46.18431" lon="-1.39402">
        <ele>1.58</ele>
        <time>2016-08-31T16:22:08Z</time>
      </trkpt>
      <trkpt lat="46.18431" lon="-1.39404">
        <ele>2.06</ele>
        <time>2016-08-31T16:22:11Z</time>
      </trkpt>
      <trkpt lat="46.18432" lon="-1.39406">
        <ele>2.06</ele>
        <time>2016-08-31T16:22:12Z</time>
      </trkpt>
      <trkpt lat="46.18433" lon="-1.39407">
        <ele>1.58</ele>
        <time>2016-08-31T16:22:13Z</time>
      </trkpt>
      <trkpt lat="46.18433" lon="-1.3941">
        <ele>1.1</ele>
        <time>2016-08-31T16:22:14Z</time>
      </trkpt>
      <trkpt lat="46.18434" lon="-1.39412">
        <ele>1.1</ele>
        <time>2016-08-31T16:22:15Z</time>
      </trkpt>
      <trkpt lat="46.18435" lon="-1.39415">
        <ele>1.1</ele>
        <time>2016-08-31T16:22:16Z</time>
      </trkpt>
      <trkpt lat="46.18439" lon="-1.39422">
        <ele>1.58</ele>
        <time>2016-08-31T16:22:25Z</time>
      </trkpt>
      <trkpt lat="46.18439" lon="-1.39424">
        <ele>1.58</ele>
        <time>2016-08-31T16:22:37Z</time>
      </trkpt>
      <trkpt lat="46.1844" lon="-1.39427">
        <ele>1.1</ele>
        <time>2016-08-31T16:22:38Z</time>
      </trkpt>
      <trkpt lat="46.1844" lon="-1.3943">
        <ele>1.1</ele>
        <time>2016-08-31T16:22:39Z</time>
      </trkpt>
      <trkpt lat="46.18439" lon="-1.39435">
        <ele>1.58</ele>
        <time>2016-08-31T16:22:40Z</time>
      </trkpt>
      <trkpt lat="46.18437" lon="-1.39439">
        <ele>1.1</ele>
        <time>2016-08-31T16:22:41Z</time>
      </trkpt>
      <trkpt lat="46.18435" lon="-1.39443">
        <ele>1.1</ele>
        <time>2016-08-31T16:22:42Z</time>
      </trkpt>
      <trkpt lat="46.18424" lon="-1.39471">
        <ele>0.62</ele>
        <time>2016-08-31T16:22:48Z</time>
      </trkpt>
      <trkpt lat="46.18423" lon="-1.39477">
        <ele>1.1</ele>
        <time>2016-08-31T16:22:49Z</time>
      </trkpt>
      <trkpt lat="46.18424" lon="-1.39483">
        <ele>1.1</ele>
        <time>2016-08-31T16:22:50Z</time>
      </trkpt>
      <trkpt lat="46.18427" lon="-1.39489">
        <ele>0.62</ele>
        <time>2016-08-31T16:22:51Z</time>
      </trkpt>
      <trkpt lat="46.1843" lon="-1.39493">
        <ele>0.62</ele>
        <time>2016-08-31T16:22:52Z</time>
      </trkpt>
      <trkpt lat="46.18434" lon="-1.39498">
        <ele>0.14</ele>
        <time>2016-08-31T16:22:53Z</time>
      </trkpt>
      <trkpt lat="46.18468" lon="-1.39547">
        <ele>0.62</ele>
        <time>2016-08-31T16:23:04Z</time>
      </trkpt>
      <trkpt lat="46.18478" lon="-1.3956">
        <ele>-4.19</ele>
        <time>2016-08-31T16:23:07Z</time>
      </trkpt>
      <trkpt lat="46.18481" lon="-1.39565">
        <ele>1.1</ele>
        <time>2016-08-31T16:23:08Z</time>
      </trkpt>
      <trkpt lat="46.18484" lon="-1.39569">
        <ele>3.98</ele>
        <time>2016-08-31T16:23:09Z</time>
      </trkpt>
      <trkpt lat="46.18487" lon="-1.39573">
        <ele>0.62</ele>
        <time>2016-08-31T16:23:10Z</time>
      </trkpt>
      <trkpt lat="46.18517" lon="-1.39607">
        <ele>1.1</ele>
        <time>2016-08-31T16:23:20Z</time>
      </trkpt>
      <trkpt lat="46.18548" lon="-1.39649">
        <ele>1.58</ele>
        <time>2016-08-31T16:23:30Z</time>
      </trkpt>
      <trkpt lat="46.18551" lon="-1.39653">
        <ele>2.06</ele>
        <time>2016-08-31T16:23:31Z</time>
      </trkpt>
      <trkpt lat="46.18571" lon="-1.39671">
        <ele>1.58</ele>
        <time>2016-08-31T16:23:37Z</time>
      </trkpt>
      <trkpt lat="46.18575" lon="-1.39672">
        <ele>1.58</ele>
        <time>2016-08-31T16:23:38Z</time>
      </trkpt>
      <trkpt lat="46.18605" lon="-1.39678">
        <ele>1.58</ele>
        <time>2016-08-31T16:23:46Z</time>
      </trkpt>
      <trkpt lat="46.18611" lon="-1.39681">
        <ele>1.1</ele>
        <time>2016-08-31T16:23:49Z</time>
      </trkpt>
      <trkpt lat="46.18613" lon="-1.39696">
        <ele>1.58</ele>
        <time>2016-08-31T16:23:53Z</time>
      </trkpt>
      <trkpt lat="46.18614" lon="-1.3975">
        <ele>0.62</ele>
        <time>2016-08-31T16:24:02Z</time>
      </trkpt>
      <trkpt lat="46.18616" lon="-1.39769">
        <ele>1.1</ele>
        <time>2016-08-31T16:24:05Z</time>
      </trkpt>
      <trkpt lat="46.1862" lon="-1.39794">
        <ele>1.1</ele>
        <time>2016-08-31T16:24:09Z</time>
      </trkpt>
      <trkpt lat="46.18622" lon="-1.39799">
        <ele>1.1</ele>
        <time>2016-08-31T16:24:10Z</time>
      </trkpt>
      <trkpt lat="46.18626" lon="-1.39803">
        <ele>0.14</ele>
        <time>2016-08-31T16:24:11Z</time>
      </trkpt>
      <trkpt lat="46.18629" lon="-1.39806">
        <ele>0.62</ele>
        <time>2016-08-31T16:24:12Z</time>
      </trkpt>
      <trkpt lat="46.18633" lon="-1.39808">
        <ele>0.62</ele>
        <time>2016-08-31T16:24:13Z</time>
      </trkpt>
      <trkpt lat="46.18642" lon="-1.39812">
        <ele>-6.59</ele>
        <time>2016-08-31T16:24:15Z</time>
      </trkpt>
      <trkpt lat="46.18645" lon="-1.39813">
        <ele>1.1</ele>
        <time>2016-08-31T16:24:16Z</time>
      </trkpt>
      <trkpt lat="46.18653" lon="-1.39815">
        <ele>1.58</ele>
        <time>2016-08-31T16:24:18Z</time>
      </trkpt>
      <trkpt lat="46.18656" lon="-1.39812">
        <ele>1.58</ele>
        <time>2016-08-31T16:24:19Z</time>
      </trkpt>
      <trkpt lat="46.18658" lon="-1.39808">
        <ele>1.1</ele>
        <time>2016-08-31T16:24:20Z</time>
      </trkpt>
      <trkpt lat="46.18674" lon="-1.39771">
        <ele>0.14</ele>
        <time>2016-08-31T16:24:28Z</time>
      </trkpt>
      <trkpt lat="46.18678" lon="-1.3977">
        <ele>0.62</ele>
        <time>2016-08-31T16:24:29Z</time>
      </trkpt>
      <trkpt lat="46.18682" lon="-1.3977">
        <ele>1.1</ele>
        <time>2016-08-31T16:24:30Z</time>
      </trkpt>
      <trkpt lat="46.18687" lon="-1.3977">
        <ele>0.14</ele>
        <time>2016-08-31T16:24:31Z</time>
      </trkpt>
      <trkpt lat="46.18691" lon="-1.39771">
        <ele>0.14</ele>
        <time>2016-08-31T16:24:32Z</time>
      </trkpt>
      <trkpt lat="46.18721" lon="-1.39778">
        <ele>0.62</ele>
        <time>2016-08-31T16:24:40Z</time>
      </trkpt>
      <trkpt lat="46.18722" lon="-1.3978">
        <ele>0.62</ele>
        <time>2016-08-31T16:24:41Z</time>
      </trkpt>
      <trkpt lat="46.18723" lon="-1.39783">
        <ele>0.62</ele>
        <time>2016-08-31T16:24:42Z</time>
      </trkpt>
      <trkpt lat="46.18723" lon="-1.39788">
        <ele>0.62</ele>
        <time>2016-08-31T16:24:43Z</time>
      </trkpt>
      <trkpt lat="46.18723" lon="-1.39794">
        <ele>0.14</ele>
        <time>2016-08-31T16:24:44Z</time>
      </trkpt>
      <trkpt lat="46.18723" lon="-1.398">
        <ele>0.14</ele>
        <time>2016-08-31T16:24:45Z</time>
      </trkpt>
      <trkpt lat="46.18723" lon="-1.39807">
        <ele>0.14</ele>
        <time>2016-08-31T16:24:46Z</time>
      </trkpt>
      <trkpt lat="46.18723" lon="-1.39813">
        <ele>-0.34</ele>
        <time>2016-08-31T16:24:47Z</time>
      </trkpt>
      <trkpt lat="46.18722" lon="-1.3982">
        <ele>0.62</ele>
        <time>2016-08-31T16:24:48Z</time>
      </trkpt>
      <trkpt lat="46.1872" lon="-1.3987">
        <ele>0.14</ele>
        <time>2016-08-31T16:24:57Z</time>
      </trkpt>
      <trkpt lat="46.18716" lon="-1.39943">
        <ele>-0.34</ele>
        <time>2016-08-31T16:25:08Z</time>
      </trkpt>
      <trkpt lat="46.18708" lon="-1.40054">
        <ele>-0.82</ele>
        <time>2016-08-31T16:25:23Z</time>
      </trkpt>
      <trkpt lat="46.18701" lon="-1.40147">
        <ele>0.62</ele>
        <time>2016-08-31T16:25:36Z</time>
      </trkpt>
      <trkpt lat="46.18701" lon="-1.40153">
        <ele>0.14</ele>
        <time>2016-08-31T16:25:37Z</time>
      </trkpt>
      <trkpt lat="46.18698" lon="-1.40172">
        <ele>0.14</ele>
        <time>2016-08-31T16:25:40Z</time>
      </trkpt>
      <trkpt lat="46.18698" lon="-1.4018">
        <ele>0.14</ele>
        <time>2016-08-31T16:25:41Z</time>
      </trkpt>
      <trkpt lat="46.18706" lon="-1.40271">
        <ele>-0.82</ele>
        <time>2016-08-31T16:25:53Z</time>
      </trkpt>
      <trkpt lat="46.18719" lon="-1.40374">
        <ele>-0.82</ele>
        <time>2016-08-31T16:26:06Z</time>
      </trkpt>
      <trkpt lat="46.18717" lon="-1.40402">
        <ele>-0.82</ele>
        <time>2016-08-31T16:26:10Z</time>
      </trkpt>
      <trkpt lat="46.18715" lon="-1.40409">
        <ele>-0.82</ele>
        <time>2016-08-31T16:26:11Z</time>
      </trkpt>
      <trkpt lat="46.18713" lon="-1.40415">
        <ele>-0.82</ele>
        <time>2016-08-31T16:26:12Z</time>
      </trkpt>
      <trkpt lat="46.18712" lon="-1.40423">
        <ele>-1.3</ele>
        <time>2016-08-31T16:26:13Z</time>
      </trkpt>
      <trkpt lat="46.18712" lon="-1.4043">
        <ele>-1.3</ele>
        <time>2016-08-31T16:26:14Z</time>
      </trkpt>
      <trkpt lat="46.18711" lon="-1.40438">
        <ele>-1.3</ele>
        <time>2016-08-31T16:26:15Z</time>
      </trkpt>
      <trkpt lat="46.18711" lon="-1.40445">
        <ele>-1.3</ele>
        <time>2016-08-31T16:26:16Z</time>
      </trkpt>
      <trkpt lat="46.18708" lon="-1.40496">
        <ele>-0.82</ele>
        <time>2016-08-31T16:26:23Z</time>
      </trkpt>
      <trkpt lat="46.18706" lon="-1.40524">
        <ele>-0.82</ele>
        <time>2016-08-31T16:26:27Z</time>
      </trkpt>
      <trkpt lat="46.18709" lon="-1.40556">
        <ele>-0.34</ele>
        <time>2016-08-31T16:26:32Z</time>
      </trkpt>
      <trkpt lat="46.18709" lon="-1.40562">
        <ele>-0.82</ele>
        <time>2016-08-31T16:26:33Z</time>
      </trkpt>
      <trkpt lat="46.18707" lon="-1.40601">
        <ele>-0.34</ele>
        <time>2016-08-31T16:26:40Z</time>
      </trkpt>
      <trkpt lat="46.18707" lon="-1.40606">
        <ele>-0.82</ele>
        <time>2016-08-31T16:26:41Z</time>
      </trkpt>
      <trkpt lat="46.18708" lon="-1.4061">
        <ele>-0.34</ele>
        <time>2016-08-31T16:26:42Z</time>
      </trkpt>
      <trkpt lat="46.18707" lon="-1.40614">
        <ele>-0.34</ele>
        <time>2016-08-31T16:26:43Z</time>
      </trkpt>
      <trkpt lat="46.18705" lon="-1.40618">
        <ele>0.14</ele>
        <time>2016-08-31T16:26:44Z</time>
      </trkpt>
      <trkpt lat="46.18704" lon="-1.40621">
        <ele>-0.34</ele>
        <time>2016-08-31T16:26:45Z</time>
      </trkpt>
      <trkpt lat="46.18703" lon="-1.40625">
        <ele>-0.34</ele>
        <time>2016-08-31T16:26:46Z</time>
      </trkpt>
      <trkpt lat="46.18703" lon="-1.40629">
        <ele>-0.34</ele>
        <time>2016-08-31T16:26:47Z</time>
      </trkpt>
      <trkpt lat="46.18703" lon="-1.40633">
        <ele>-0.34</ele>
        <time>2016-08-31T16:26:48Z</time>
      </trkpt>
      <trkpt lat="46.18707" lon="-1.40671">
        <ele>-0.82</ele>
        <time>2016-08-31T16:26:56Z</time>
      </trkpt>
      <trkpt lat="46.18705" lon="-1.40734">
        <ele>-0.82</ele>
        <time>2016-08-31T16:27:08Z</time>
      </trkpt>
      <trkpt lat="46.18703" lon="-1.40785">
        <ele>-0.82</ele>
        <time>2016-08-31T16:27:17Z</time>
      </trkpt>
      <trkpt lat="46.18703" lon="-1.40819">
        <ele>-0.82</ele>
        <time>2016-08-31T16:27:24Z</time>
      </trkpt>
      <trkpt lat="46.18723" lon="-1.40836">
        <ele>-0.82</ele>
        <time>2016-08-31T16:27:31Z</time>
      </trkpt>
      <trkpt lat="46.18746" lon="-1.4084">
        <ele>-0.82</ele>
        <time>2016-08-31T16:27:38Z</time>
      </trkpt>
      <trkpt lat="46.18752" lon="-1.40831">
        <ele>-0.34</ele>
        <time>2016-08-31T16:27:42Z</time>
      </trkpt>
      <trkpt lat="46.18752" lon="-1.40811">
        <ele>0.14</ele>
        <time>2016-08-31T16:27:48Z</time>
      </trkpt>
      <trkpt lat="46.18756" lon="-1.40805">
        <ele>-0.34</ele>
        <time>2016-08-31T16:27:56Z</time>
      </trkpt>
      <trkpt lat="46.18756" lon="-1.40805">
        <ele>-15.24</ele>
        <time>2016-08-31T16:27:58Z</time>
      </trkpt>
      <trkpt lat="46.18757" lon="-1.40805">
        <ele>1.1</ele>
        <time>2016-08-31T16:27:59Z</time>
      </trkpt>
      <trkpt lat="46.18757" lon="-1.40804">
        <ele>0.14</ele>
        <time>2016-08-31T16:28:13Z</time>
      </trkpt>
      <trkpt lat="46.18757" lon="-1.40804">
        <ele>-3.23</ele>
        <time>2016-08-31T16:28:18Z</time>
      </trkpt>
      <trkpt lat="46.18757" lon="-1.40804">
        <ele>1.1</ele>
        <time>2016-08-31T16:28:19Z</time>
      </trkpt>
      <trkpt lat="46.18757" lon="-1.40804">
        <ele>4.46</ele>
        <time>2016-08-31T16:28:22Z</time>
      </trkpt>
    </trkseg>
  </trk>
</gpx>